<?xml version="1.0" encoding="UTF-8" standalone="no" ?>
<gpx xmlns="http://www.topografix.com/GPX/1/1" xmlns:xsi="http://www.w3.org/2001/XMLSchema-instance" xsi:schemaLocation="http://www.topografix.com/GPX/1/1 http://www.topografix.com/GPX/1/1/gpx.xsd" version="1.1" creator="VisuGPX - https://www.visugpx.com">
  <metadata>
    <name>Saverne Lichtenberg la Petite-Pierre</name>
    <desc><![CDATA[Boucle de 75Km 
25 Km de route 
50 Km de VTT]]></desc>
  </metadata>
  <trk>
    <name><![CDATA[ADi2010/10/03_12:53]]></name>
    <trkseg>
      <trkpt lat="48.7333" lon="7.36526">
        <ele>209.713989</ele>
        <time>2010-10-03T10:59:16Z</time>
      </trkpt>
      <trkpt lat="48.73329" lon="7.36535">
        <ele>209.612427</ele>
        <time>2010-10-03T10:59:18Z</time>
      </trkpt>
      <trkpt lat="48.73326" lon="7.36547">
        <ele>209.010864</ele>
        <time>2010-10-03T10:59:20Z</time>
      </trkpt>
      <trkpt lat="48.73323" lon="7.36567">
        <ele>208.319458</ele>
        <time>2010-10-03T10:59:23Z</time>
      </trkpt>
      <trkpt lat="48.73324" lon="7.3659">
        <ele>207.530396</ele>
        <time>2010-10-03T10:59:26Z</time>
      </trkpt>
      <trkpt lat="48.73326" lon="7.36598">
        <ele>207.299927</ele>
        <time>2010-10-03T10:59:27Z</time>
      </trkpt>
      <trkpt lat="48.73332" lon="7.36614">
        <ele>206.292114</ele>
        <time>2010-10-03T10:59:29Z</time>
      </trkpt>
      <trkpt lat="48.73336" lon="7.36621">
        <ele>205.932739</ele>
        <time>2010-10-03T10:59:30Z</time>
      </trkpt>
      <trkpt lat="48.73351" lon="7.3664">
        <ele>204.850708</ele>
        <time>2010-10-03T10:59:33Z</time>
      </trkpt>
      <trkpt lat="48.73362" lon="7.36649">
        <ele>204.413208</ele>
        <time>2010-10-03T10:59:35Z</time>
      </trkpt>
      <trkpt lat="48.73373" lon="7.36658">
        <ele>204.057739</ele>
        <time>2010-10-03T10:59:37Z</time>
      </trkpt>
      <trkpt lat="48.73401" lon="7.36674">
        <ele>203.022583</ele>
        <time>2010-10-03T10:59:42Z</time>
      </trkpt>
      <trkpt lat="48.73413" lon="7.36678">
        <ele>202.522583</ele>
        <time>2010-10-03T10:59:44Z</time>
      </trkpt>
      <trkpt lat="48.73485" lon="7.36695">
        <ele>199.147583</ele>
        <time>2010-10-03T10:59:55Z</time>
      </trkpt>
      <trkpt lat="48.73498" lon="7.367">
        <ele>198.530396</ele>
        <time>2010-10-03T10:59:57Z</time>
      </trkpt>
      <trkpt lat="48.7351" lon="7.36707">
        <ele>197.940552</ele>
        <time>2010-10-03T10:59:59Z</time>
      </trkpt>
      <trkpt lat="48.73541" lon="7.36727">
        <ele>196.850708</ele>
        <time>2010-10-03T11:00:04Z</time>
      </trkpt>
      <trkpt lat="48.73571" lon="7.36749">
        <ele>196.217896</ele>
        <time>2010-10-03T11:00:09Z</time>
      </trkpt>
      <trkpt lat="48.73582" lon="7.36759">
        <ele>195.565552</ele>
        <time>2010-10-03T11:00:11Z</time>
      </trkpt>
      <trkpt lat="48.73591" lon="7.36771">
        <ele>194.702271</ele>
        <time>2010-10-03T11:00:13Z</time>
      </trkpt>
      <trkpt lat="48.73603" lon="7.3679">
        <ele>194.167114</ele>
        <time>2010-10-03T11:00:16Z</time>
      </trkpt>
      <trkpt lat="48.73625" lon="7.36831">
        <ele>193.022583</ele>
        <time>2010-10-03T11:00:22Z</time>
      </trkpt>
      <trkpt lat="48.73637" lon="7.36863">
        <ele>192.452271</ele>
        <time>2010-10-03T11:00:26Z</time>
      </trkpt>
      <trkpt lat="48.73649" lon="7.369">
        <ele>192.549927</ele>
        <time>2010-10-03T11:00:31Z</time>
      </trkpt>
      <trkpt lat="48.73665" lon="7.36939">
        <ele>193.081177</ele>
        <time>2010-10-03T11:00:38Z</time>
      </trkpt>
      <trkpt lat="48.73672" lon="7.36951">
        <ele>193.756958</ele>
        <time>2010-10-03T11:01:31Z</time>
      </trkpt>
      <trkpt lat="48.73677" lon="7.36956">
        <ele>194.303833</ele>
        <time>2010-10-03T11:01:34Z</time>
      </trkpt>
      <trkpt lat="48.73684" lon="7.36954">
        <ele>194.381958</ele>
        <time>2010-10-03T11:01:36Z</time>
      </trkpt>
      <trkpt lat="48.7371" lon="7.36934">
        <ele>195.225708</ele>
        <time>2010-10-03T11:01:43Z</time>
      </trkpt>
      <trkpt lat="48.73805" lon="7.36843">
        <ele>192.713989</ele>
        <time>2010-10-03T11:02:04Z</time>
      </trkpt>
      <trkpt lat="48.73832" lon="7.36823">
        <ele>188.983521</ele>
        <time>2010-10-03T11:02:09Z</time>
      </trkpt>
      <trkpt lat="48.73859" lon="7.368">
        <ele>186.288208</ele>
        <time>2010-10-03T11:02:15Z</time>
      </trkpt>
      <trkpt lat="48.73872" lon="7.36791">
        <ele>188.772583</ele>
        <time>2010-10-03T11:02:19Z</time>
      </trkpt>
      <trkpt lat="48.73877" lon="7.36786">
        <ele>188.651489</ele>
        <time>2010-10-03T11:02:22Z</time>
      </trkpt>
      <trkpt lat="48.73889" lon="7.36768">
        <ele>187.385864</ele>
        <time>2010-10-03T11:02:51Z</time>
      </trkpt>
      <trkpt lat="48.73896" lon="7.36765">
        <ele>187.479614</ele>
        <time>2010-10-03T11:02:53Z</time>
      </trkpt>
      <trkpt lat="48.73909" lon="7.36772">
        <ele>187.772583</ele>
        <time>2010-10-03T11:02:56Z</time>
      </trkpt>
      <trkpt lat="48.73919" lon="7.36779">
        <ele>188.436646</ele>
        <time>2010-10-03T11:02:58Z</time>
      </trkpt>
      <trkpt lat="48.73931" lon="7.3679">
        <ele>187.838989</ele>
        <time>2010-10-03T11:03:01Z</time>
      </trkpt>
      <trkpt lat="48.73942" lon="7.36803">
        <ele>187.495239</ele>
        <time>2010-10-03T11:03:04Z</time>
      </trkpt>
      <trkpt lat="48.73973" lon="7.36845">
        <ele>186.706177</ele>
        <time>2010-10-03T11:03:12Z</time>
      </trkpt>
      <trkpt lat="48.74018" lon="7.36902">
        <ele>185.710083</ele>
        <time>2010-10-03T11:03:23Z</time>
      </trkpt>
      <trkpt lat="48.74035" lon="7.36921">
        <ele>185.967896</ele>
        <time>2010-10-03T11:03:27Z</time>
      </trkpt>
      <trkpt lat="48.74049" lon="7.36941">
        <ele>185.823364</ele>
        <time>2010-10-03T11:03:31Z</time>
      </trkpt>
      <trkpt lat="48.74074" lon="7.36979">
        <ele>184.944458</ele>
        <time>2010-10-03T11:03:38Z</time>
      </trkpt>
      <trkpt lat="48.74082" lon="7.36987">
        <ele>185.135864</ele>
        <time>2010-10-03T11:03:40Z</time>
      </trkpt>
      <trkpt lat="48.74087" lon="7.36988">
        <ele>184.960083</ele>
        <time>2010-10-03T11:03:41Z</time>
      </trkpt>
      <trkpt lat="48.74091" lon="7.36986">
        <ele>184.878052</ele>
        <time>2010-10-03T11:03:42Z</time>
      </trkpt>
      <trkpt lat="48.74096" lon="7.36981">
        <ele>184.577271</ele>
        <time>2010-10-03T11:03:43Z</time>
      </trkpt>
      <trkpt lat="48.74105" lon="7.3697">
        <ele>184.030396</ele>
        <time>2010-10-03T11:03:45Z</time>
      </trkpt>
      <trkpt lat="48.74108" lon="7.36963">
        <ele>183.506958</ele>
        <time>2010-10-03T11:03:46Z</time>
      </trkpt>
      <trkpt lat="48.7412" lon="7.36944">
        <ele>183.249146</ele>
        <time>2010-10-03T11:03:49Z</time>
      </trkpt>
      <trkpt lat="48.74132" lon="7.36929">
        <ele>183.538208</ele>
        <time>2010-10-03T11:03:53Z</time>
      </trkpt>
      <trkpt lat="48.74133" lon="7.36917">
        <ele>183.463989</ele>
        <time>2010-10-03T11:03:55Z</time>
      </trkpt>
      <trkpt lat="48.74132" lon="7.36903">
        <ele>182.932739</ele>
        <time>2010-10-03T11:03:57Z</time>
      </trkpt>
      <trkpt lat="48.74132" lon="7.36895">
        <ele>183.131958</ele>
        <time>2010-10-03T11:03:58Z</time>
      </trkpt>
      <trkpt lat="48.74136" lon="7.36881">
        <ele>182.401489</ele>
        <time>2010-10-03T11:04:00Z</time>
      </trkpt>
      <trkpt lat="48.74141" lon="7.36874">
        <ele>183.296021</ele>
        <time>2010-10-03T11:04:02Z</time>
      </trkpt>
      <trkpt lat="48.74146" lon="7.36873">
        <ele>182.565552</ele>
        <time>2010-10-03T11:04:04Z</time>
      </trkpt>
      <trkpt lat="48.74157" lon="7.36884">
        <ele>181.909302</ele>
        <time>2010-10-03T11:04:07Z</time>
      </trkpt>
      <trkpt lat="48.74161" lon="7.36898">
        <ele>178.815552</ele>
        <time>2010-10-03T11:04:10Z</time>
      </trkpt>
      <trkpt lat="48.74163" lon="7.36907">
        <ele>178.608521</ele>
        <time>2010-10-03T11:04:11Z</time>
      </trkpt>
      <trkpt lat="48.74168" lon="7.36923">
        <ele>179.171021</ele>
        <time>2010-10-03T11:04:13Z</time>
      </trkpt>
      <trkpt lat="48.74174" lon="7.36937">
        <ele>178.897583</ele>
        <time>2010-10-03T11:04:15Z</time>
      </trkpt>
      <trkpt lat="48.74241" lon="7.37062">
        <ele>178.135864</ele>
        <time>2010-10-03T11:04:34Z</time>
      </trkpt>
      <trkpt lat="48.74267" lon="7.37112">
        <ele>178.713989</ele>
        <time>2010-10-03T11:04:42Z</time>
      </trkpt>
      <trkpt lat="48.74279" lon="7.37131">
        <ele>178.878052</ele>
        <time>2010-10-03T11:04:45Z</time>
      </trkpt>
      <trkpt lat="48.74328" lon="7.37223">
        <ele>179.069458</ele>
        <time>2010-10-03T11:04:59Z</time>
      </trkpt>
      <trkpt lat="48.74331" lon="7.3723">
        <ele>179.253052</ele>
        <time>2010-10-03T11:05:00Z</time>
      </trkpt>
      <trkpt lat="48.74362" lon="7.3729">
        <ele>179.491333</ele>
        <time>2010-10-03T11:05:09Z</time>
      </trkpt>
      <trkpt lat="48.7438" lon="7.37322">
        <ele>179.667114</ele>
        <time>2010-10-03T11:05:14Z</time>
      </trkpt>
      <trkpt lat="48.7441" lon="7.37379">
        <ele>178.924927</ele>
        <time>2010-10-03T11:05:23Z</time>
      </trkpt>
      <trkpt lat="48.74476" lon="7.37494">
        <ele>178.346802</ele>
        <time>2010-10-03T11:05:41Z</time>
      </trkpt>
      <trkpt lat="48.74501" lon="7.3754">
        <ele>177.874146</ele>
        <time>2010-10-03T11:05:48Z</time>
      </trkpt>
      <trkpt lat="48.74509" lon="7.37553">
        <ele>177.979614</ele>
        <time>2010-10-03T11:05:50Z</time>
      </trkpt>
      <trkpt lat="48.74519" lon="7.37573">
        <ele>177.753052</ele>
        <time>2010-10-03T11:05:53Z</time>
      </trkpt>
      <trkpt lat="48.74523" lon="7.37579">
        <ele>177.768677</ele>
        <time>2010-10-03T11:05:54Z</time>
      </trkpt>
      <trkpt lat="48.74542" lon="7.37595">
        <ele>177.753052</ele>
        <time>2010-10-03T11:05:58Z</time>
      </trkpt>
      <trkpt lat="48.7455" lon="7.37617">
        <ele>177.721802</ele>
        <time>2010-10-03T11:06:01Z</time>
      </trkpt>
      <trkpt lat="48.74563" lon="7.37643">
        <ele>177.721802</ele>
        <time>2010-10-03T11:06:05Z</time>
      </trkpt>
      <trkpt lat="48.74567" lon="7.37657">
        <ele>177.624146</ele>
        <time>2010-10-03T11:06:07Z</time>
      </trkpt>
      <trkpt lat="48.74567" lon="7.37664">
        <ele>177.440552</ele>
        <time>2010-10-03T11:06:08Z</time>
      </trkpt>
      <trkpt lat="48.74572" lon="7.37677">
        <ele>177.202271</ele>
        <time>2010-10-03T11:06:10Z</time>
      </trkpt>
      <trkpt lat="48.74576" lon="7.37684">
        <ele>176.737427</ele>
        <time>2010-10-03T11:06:11Z</time>
      </trkpt>
      <trkpt lat="48.74628" lon="7.3778">
        <ele>176.299927</ele>
        <time>2010-10-03T11:06:24Z</time>
      </trkpt>
      <trkpt lat="48.74657" lon="7.37835">
        <ele>175.987427</ele>
        <time>2010-10-03T11:06:32Z</time>
      </trkpt>
      <trkpt lat="48.74667" lon="7.37858">
        <ele>175.858521</ele>
        <time>2010-10-03T11:06:35Z</time>
      </trkpt>
      <trkpt lat="48.74675" lon="7.37872">
        <ele>176.030396</ele>
        <time>2010-10-03T11:06:37Z</time>
      </trkpt>
      <trkpt lat="48.74715" lon="7.37946">
        <ele>175.881958</ele>
        <time>2010-10-03T11:06:48Z</time>
      </trkpt>
      <trkpt lat="48.74772" lon="7.38046">
        <ele>176.057739</ele>
        <time>2010-10-03T11:07:03Z</time>
      </trkpt>
      <trkpt lat="48.74816" lon="7.38122">
        <ele>175.772583</ele>
        <time>2010-10-03T11:07:15Z</time>
      </trkpt>
      <trkpt lat="48.74855" lon="7.38183">
        <ele>175.506958</ele>
        <time>2010-10-03T11:07:25Z</time>
      </trkpt>
      <trkpt lat="48.74899" lon="7.38246">
        <ele>175.745239</ele>
        <time>2010-10-03T11:07:36Z</time>
      </trkpt>
      <trkpt lat="48.74994" lon="7.38373">
        <ele>175.116333</ele>
        <time>2010-10-03T11:07:59Z</time>
      </trkpt>
      <trkpt lat="48.75068" lon="7.38448">
        <ele>175.315552</ele>
        <time>2010-10-03T11:08:15Z</time>
      </trkpt>
      <trkpt lat="48.75101" lon="7.38478">
        <ele>176.327271</ele>
        <time>2010-10-03T11:08:22Z</time>
      </trkpt>
      <trkpt lat="48.7511" lon="7.38484">
        <ele>176.503052</ele>
        <time>2010-10-03T11:08:24Z</time>
      </trkpt>
      <trkpt lat="48.75118" lon="7.38491">
        <ele>176.542114</ele>
        <time>2010-10-03T11:08:26Z</time>
      </trkpt>
      <trkpt lat="48.75126" lon="7.38508">
        <ele>178.018677</ele>
        <time>2010-10-03T11:08:30Z</time>
      </trkpt>
      <trkpt lat="48.75134" lon="7.38518">
        <ele>179.456177</ele>
        <time>2010-10-03T11:08:34Z</time>
      </trkpt>
      <trkpt lat="48.75154" lon="7.38537">
        <ele>177.510864</ele>
        <time>2010-10-03T11:08:39Z</time>
      </trkpt>
      <trkpt lat="48.75172" lon="7.38552">
        <ele>175.678833</ele>
        <time>2010-10-03T11:08:42Z</time>
      </trkpt>
      <trkpt lat="48.75283" lon="7.38662">
        <ele>175.592896</ele>
        <time>2010-10-03T11:09:03Z</time>
      </trkpt>
      <trkpt lat="48.7532" lon="7.38704">
        <ele>174.135864</ele>
        <time>2010-10-03T11:09:11Z</time>
      </trkpt>
      <trkpt lat="48.75337" lon="7.38726">
        <ele>174.518677</ele>
        <time>2010-10-03T11:09:15Z</time>
      </trkpt>
      <trkpt lat="48.75367" lon="7.38768">
        <ele>174.713989</ele>
        <time>2010-10-03T11:09:22Z</time>
      </trkpt>
      <trkpt lat="48.75394" lon="7.38812">
        <ele>174.753052</ele>
        <time>2010-10-03T11:09:29Z</time>
      </trkpt>
      <trkpt lat="48.75412" lon="7.38846">
        <ele>175.135864</ele>
        <time>2010-10-03T11:09:34Z</time>
      </trkpt>
      <trkpt lat="48.75432" lon="7.38888">
        <ele>175.573364</ele>
        <time>2010-10-03T11:09:40Z</time>
      </trkpt>
      <trkpt lat="48.7546" lon="7.38952">
        <ele>178.018677</ele>
        <time>2010-10-03T11:09:49Z</time>
      </trkpt>
      <trkpt lat="48.75477" lon="7.38999">
        <ele>179.202271</ele>
        <time>2010-10-03T11:09:55Z</time>
      </trkpt>
      <trkpt lat="48.75485" lon="7.39021">
        <ele>179.342896</ele>
        <time>2010-10-03T11:09:58Z</time>
      </trkpt>
      <trkpt lat="48.75486" lon="7.39028">
        <ele>177.737427</ele>
        <time>2010-10-03T11:09:59Z</time>
      </trkpt>
      <trkpt lat="48.75492" lon="7.39043">
        <ele>179.174927</ele>
        <time>2010-10-03T11:10:01Z</time>
      </trkpt>
      <trkpt lat="48.75522" lon="7.39145">
        <ele>178.612427</ele>
        <time>2010-10-03T11:10:14Z</time>
      </trkpt>
      <trkpt lat="48.75523" lon="7.39154">
        <ele>176.733521</ele>
        <time>2010-10-03T11:10:15Z</time>
      </trkpt>
      <trkpt lat="48.75533" lon="7.39192">
        <ele>175.276489</ele>
        <time>2010-10-03T11:10:20Z</time>
      </trkpt>
      <trkpt lat="48.75575" lon="7.39327">
        <ele>174.850708</ele>
        <time>2010-10-03T11:10:37Z</time>
      </trkpt>
      <trkpt lat="48.75584" lon="7.39351">
        <ele>177.010864</ele>
        <time>2010-10-03T11:10:40Z</time>
      </trkpt>
      <trkpt lat="48.75598" lon="7.39399">
        <ele>178.112427</ele>
        <time>2010-10-03T11:10:46Z</time>
      </trkpt>
      <trkpt lat="48.75602" lon="7.39407">
        <ele>179.917114</ele>
        <time>2010-10-03T11:10:47Z</time>
      </trkpt>
      <trkpt lat="48.75613" lon="7.39446">
        <ele>179.792114</ele>
        <time>2010-10-03T11:10:52Z</time>
      </trkpt>
      <trkpt lat="48.75621" lon="7.39479">
        <ele>178.268677</ele>
        <time>2010-10-03T11:10:56Z</time>
      </trkpt>
      <trkpt lat="48.75634" lon="7.39518">
        <ele>178.237427</ele>
        <time>2010-10-03T11:11:01Z</time>
      </trkpt>
      <trkpt lat="48.75647" lon="7.39567">
        <ele>175.717896</ele>
        <time>2010-10-03T11:11:07Z</time>
      </trkpt>
      <trkpt lat="48.75654" lon="7.3959">
        <ele>176.131958</ele>
        <time>2010-10-03T11:11:10Z</time>
      </trkpt>
      <trkpt lat="48.75663" lon="7.39607">
        <ele>175.952271</ele>
        <time>2010-10-03T11:11:12Z</time>
      </trkpt>
      <trkpt lat="48.75679" lon="7.39662">
        <ele>175.694458</ele>
        <time>2010-10-03T11:11:19Z</time>
      </trkpt>
      <trkpt lat="48.7568" lon="7.39669">
        <ele>174.217896</ele>
        <time>2010-10-03T11:11:20Z</time>
      </trkpt>
      <trkpt lat="48.7569" lon="7.3971">
        <ele>173.878052</ele>
        <time>2010-10-03T11:11:25Z</time>
      </trkpt>
      <trkpt lat="48.75719" lon="7.39808">
        <ele>173.838989</ele>
        <time>2010-10-03T11:11:37Z</time>
      </trkpt>
      <trkpt lat="48.75726" lon="7.39838">
        <ele>174.217896</ele>
        <time>2010-10-03T11:11:42Z</time>
      </trkpt>
      <trkpt lat="48.75752" lon="7.39916">
        <ele>172.569458</ele>
        <time>2010-10-03T11:11:51Z</time>
      </trkpt>
      <trkpt lat="48.75795" lon="7.40058">
        <ele>173.909302</ele>
        <time>2010-10-03T11:12:08Z</time>
      </trkpt>
      <trkpt lat="48.75827" lon="7.40165">
        <ele>172.628052</ele>
        <time>2010-10-03T11:12:21Z</time>
      </trkpt>
      <trkpt lat="48.75837" lon="7.40208">
        <ele>172.745239</ele>
        <time>2010-10-03T11:12:26Z</time>
      </trkpt>
      <trkpt lat="48.75847" lon="7.4024">
        <ele>171.518677</ele>
        <time>2010-10-03T11:12:30Z</time>
      </trkpt>
      <trkpt lat="48.75876" lon="7.40323">
        <ele>171.190552</ele>
        <time>2010-10-03T11:12:39Z</time>
      </trkpt>
      <trkpt lat="48.75887" lon="7.40358">
        <ele>171.421021</ele>
        <time>2010-10-03T11:12:43Z</time>
      </trkpt>
      <trkpt lat="48.75908" lon="7.40427">
        <ele>172.307739</ele>
        <time>2010-10-03T11:12:52Z</time>
      </trkpt>
      <trkpt lat="48.75911" lon="7.40441">
        <ele>172.315552</ele>
        <time>2010-10-03T11:12:54Z</time>
      </trkpt>
      <trkpt lat="48.75925" lon="7.40484">
        <ele>172.401489</ele>
        <time>2010-10-03T11:13:00Z</time>
      </trkpt>
      <trkpt lat="48.75927" lon="7.40492">
        <ele>172.370239</ele>
        <time>2010-10-03T11:13:01Z</time>
      </trkpt>
      <trkpt lat="48.75941" lon="7.40531">
        <ele>174.061646</ele>
        <time>2010-10-03T11:13:06Z</time>
      </trkpt>
      <trkpt lat="48.75967" lon="7.40612">
        <ele>175.030396</ele>
        <time>2010-10-03T11:13:16Z</time>
      </trkpt>
      <trkpt lat="48.75971" lon="7.40629">
        <ele>174.506958</ele>
        <time>2010-10-03T11:13:18Z</time>
      </trkpt>
      <trkpt lat="48.76" lon="7.40725">
        <ele>175.823364</ele>
        <time>2010-10-03T11:13:30Z</time>
      </trkpt>
      <trkpt lat="48.76008" lon="7.40749">
        <ele>176.385864</ele>
        <time>2010-10-03T11:13:33Z</time>
      </trkpt>
      <trkpt lat="48.7601" lon="7.40758">
        <ele>176.034302</ele>
        <time>2010-10-03T11:13:34Z</time>
      </trkpt>
      <trkpt lat="48.76018" lon="7.40783">
        <ele>175.956177</ele>
        <time>2010-10-03T11:13:37Z</time>
      </trkpt>
      <trkpt lat="48.76041" lon="7.40862">
        <ele>175.745239</ele>
        <time>2010-10-03T11:13:47Z</time>
      </trkpt>
      <trkpt lat="48.76064" lon="7.40934">
        <ele>175.713989</ele>
        <time>2010-10-03T11:13:56Z</time>
      </trkpt>
      <trkpt lat="48.7607" lon="7.40958">
        <ele>175.956177</ele>
        <time>2010-10-03T11:13:59Z</time>
      </trkpt>
      <trkpt lat="48.76078" lon="7.40981">
        <ele>176.432739</ele>
        <time>2010-10-03T11:14:02Z</time>
      </trkpt>
      <trkpt lat="48.76087" lon="7.4102">
        <ele>174.549927</ele>
        <time>2010-10-03T11:14:07Z</time>
      </trkpt>
      <trkpt lat="48.761" lon="7.41059">
        <ele>173.901489</ele>
        <time>2010-10-03T11:14:12Z</time>
      </trkpt>
      <trkpt lat="48.7611" lon="7.41094">
        <ele>172.741333</ele>
        <time>2010-10-03T11:14:16Z</time>
      </trkpt>
      <trkpt lat="48.76144" lon="7.41209">
        <ele>171.936646</ele>
        <time>2010-10-03T11:14:30Z</time>
      </trkpt>
      <trkpt lat="48.76158" lon="7.41252">
        <ele>173.245239</ele>
        <time>2010-10-03T11:14:35Z</time>
      </trkpt>
      <trkpt lat="48.76204" lon="7.41408">
        <ele>173.202271</ele>
        <time>2010-10-03T11:14:54Z</time>
      </trkpt>
      <trkpt lat="48.76215" lon="7.4144">
        <ele>173.573364</ele>
        <time>2010-10-03T11:14:58Z</time>
      </trkpt>
      <trkpt lat="48.76235" lon="7.41505">
        <ele>174.405396</ele>
        <time>2010-10-03T11:15:06Z</time>
      </trkpt>
      <trkpt lat="48.76241" lon="7.41521">
        <ele>174.936646</ele>
        <time>2010-10-03T11:15:08Z</time>
      </trkpt>
      <trkpt lat="48.7625" lon="7.41553">
        <ele>173.889771</ele>
        <time>2010-10-03T11:15:12Z</time>
      </trkpt>
      <trkpt lat="48.76255" lon="7.41569">
        <ele>173.569458</ele>
        <time>2010-10-03T11:15:14Z</time>
      </trkpt>
      <trkpt lat="48.76265" lon="7.41599">
        <ele>173.202271</ele>
        <time>2010-10-03T11:15:18Z</time>
      </trkpt>
      <trkpt lat="48.76267" lon="7.41614">
        <ele>173.065552</ele>
        <time>2010-10-03T11:15:20Z</time>
      </trkpt>
      <trkpt lat="48.76269" lon="7.41633">
        <ele>173.588989</ele>
        <time>2010-10-03T11:15:23Z</time>
      </trkpt>
      <trkpt lat="48.76265" lon="7.41642">
        <ele>173.663208</ele>
        <time>2010-10-03T11:15:25Z</time>
      </trkpt>
      <trkpt lat="48.76262" lon="7.41646">
        <ele>173.546021</ele>
        <time>2010-10-03T11:15:26Z</time>
      </trkpt>
      <trkpt lat="48.76238" lon="7.41663">
        <ele>172.159302</ele>
        <time>2010-10-03T11:15:31Z</time>
      </trkpt>
      <trkpt lat="48.76223" lon="7.41668">
        <ele>171.217896</ele>
        <time>2010-10-03T11:15:34Z</time>
      </trkpt>
      <trkpt lat="48.76218" lon="7.41671">
        <ele>170.710083</ele>
        <time>2010-10-03T11:15:35Z</time>
      </trkpt>
      <trkpt lat="48.76215" lon="7.41677">
        <ele>170.253052</ele>
        <time>2010-10-03T11:15:36Z</time>
      </trkpt>
      <trkpt lat="48.76214" lon="7.41685">
        <ele>170.182739</ele>
        <time>2010-10-03T11:15:37Z</time>
      </trkpt>
      <trkpt lat="48.76216" lon="7.41692">
        <ele>169.784302</ele>
        <time>2010-10-03T11:15:38Z</time>
      </trkpt>
      <trkpt lat="48.7622" lon="7.41697">
        <ele>169.553833</ele>
        <time>2010-10-03T11:15:39Z</time>
      </trkpt>
      <trkpt lat="48.76241" lon="7.41708">
        <ele>169.909302</ele>
        <time>2010-10-03T11:15:43Z</time>
      </trkpt>
      <trkpt lat="48.76267" lon="7.41717">
        <ele>171.889771</ele>
        <time>2010-10-03T11:15:49Z</time>
      </trkpt>
      <trkpt lat="48.76312" lon="7.41719">
        <ele>175.475708</ele>
        <time>2010-10-03T11:16:01Z</time>
      </trkpt>
      <trkpt lat="48.7632" lon="7.41718">
        <ele>175.893677</ele>
        <time>2010-10-03T11:16:03Z</time>
      </trkpt>
      <trkpt lat="48.76377" lon="7.41717">
        <ele>175.729614</ele>
        <time>2010-10-03T11:16:15Z</time>
      </trkpt>
      <trkpt lat="48.764" lon="7.41714">
        <ele>174.424927</ele>
        <time>2010-10-03T11:16:19Z</time>
      </trkpt>
      <trkpt lat="48.76418" lon="7.41707">
        <ele>173.073364</ele>
        <time>2010-10-03T11:16:22Z</time>
      </trkpt>
      <trkpt lat="48.76431" lon="7.41697">
        <ele>172.253052</ele>
        <time>2010-10-03T11:16:24Z</time>
      </trkpt>
      <trkpt lat="48.76443" lon="7.41684">
        <ele>171.378052</ele>
        <time>2010-10-03T11:16:26Z</time>
      </trkpt>
      <trkpt lat="48.76453" lon="7.41666">
        <ele>170.573364</ele>
        <time>2010-10-03T11:16:28Z</time>
      </trkpt>
      <trkpt lat="48.7646" lon="7.41646">
        <ele>169.928833</ele>
        <time>2010-10-03T11:16:30Z</time>
      </trkpt>
      <trkpt lat="48.76465" lon="7.41623">
        <ele>168.928833</ele>
        <time>2010-10-03T11:16:32Z</time>
      </trkpt>
      <trkpt lat="48.76475" lon="7.4156">
        <ele>167.237427</ele>
        <time>2010-10-03T11:16:38Z</time>
      </trkpt>
      <trkpt lat="48.76479" lon="7.41552">
        <ele>167.292114</ele>
        <time>2010-10-03T11:16:39Z</time>
      </trkpt>
      <trkpt lat="48.76486" lon="7.41538">
        <ele>167.448364</ele>
        <time>2010-10-03T11:16:41Z</time>
      </trkpt>
      <trkpt lat="48.76489" lon="7.41531">
        <ele>167.452271</ele>
        <time>2010-10-03T11:16:42Z</time>
      </trkpt>
      <trkpt lat="48.76492" lon="7.41507">
        <ele>166.760864</ele>
        <time>2010-10-03T11:16:45Z</time>
      </trkpt>
      <trkpt lat="48.76494" lon="7.415">
        <ele>166.729614</ele>
        <time>2010-10-03T11:16:46Z</time>
      </trkpt>
      <trkpt lat="48.76501" lon="7.41486">
        <ele>166.323364</ele>
        <time>2010-10-03T11:16:48Z</time>
      </trkpt>
      <trkpt lat="48.76505" lon="7.41479">
        <ele>166.284302</ele>
        <time>2010-10-03T11:16:49Z</time>
      </trkpt>
      <trkpt lat="48.76515" lon="7.41469">
        <ele>167.069458</ele>
        <time>2010-10-03T11:16:51Z</time>
      </trkpt>
      <trkpt lat="48.76558" lon="7.41438">
        <ele>167.889771</ele>
        <time>2010-10-03T11:16:59Z</time>
      </trkpt>
      <trkpt lat="48.7658" lon="7.4142">
        <ele>168.378052</ele>
        <time>2010-10-03T11:17:03Z</time>
      </trkpt>
      <trkpt lat="48.76627" lon="7.41388">
        <ele>168.167114</ele>
        <time>2010-10-03T11:17:12Z</time>
      </trkpt>
      <trkpt lat="48.76633" lon="7.41385">
        <ele>168.491333</ele>
        <time>2010-10-03T11:17:13Z</time>
      </trkpt>
      <trkpt lat="48.76663" lon="7.41363">
        <ele>167.510864</ele>
        <time>2010-10-03T11:17:19Z</time>
      </trkpt>
      <trkpt lat="48.76672" lon="7.41355">
        <ele>165.901489</ele>
        <time>2010-10-03T11:17:21Z</time>
      </trkpt>
      <trkpt lat="48.76693" lon="7.41341">
        <ele>166.600708</ele>
        <time>2010-10-03T11:17:25Z</time>
      </trkpt>
      <trkpt lat="48.76769" lon="7.41289">
        <ele>169.948364</ele>
        <time>2010-10-03T11:17:40Z</time>
      </trkpt>
      <trkpt lat="48.76798" lon="7.41267">
        <ele>171.171021</ele>
        <time>2010-10-03T11:17:47Z</time>
      </trkpt>
      <trkpt lat="48.76806" lon="7.41263">
        <ele>171.803833</ele>
        <time>2010-10-03T11:17:49Z</time>
      </trkpt>
      <trkpt lat="48.76839" lon="7.41255">
        <ele>175.811646</ele>
        <time>2010-10-03T11:18:01Z</time>
      </trkpt>
      <trkpt lat="48.76851" lon="7.41254">
        <ele>177.077271</ele>
        <time>2010-10-03T11:18:05Z</time>
      </trkpt>
      <trkpt lat="48.76868" lon="7.41249">
        <ele>178.178833</ele>
        <time>2010-10-03T11:18:11Z</time>
      </trkpt>
      <trkpt lat="48.7691" lon="7.41243">
        <ele>180.307739</ele>
        <time>2010-10-03T11:18:25Z</time>
      </trkpt>
      <trkpt lat="48.76915" lon="7.41246">
        <ele>180.085083</ele>
        <time>2010-10-03T11:18:27Z</time>
      </trkpt>
      <trkpt lat="48.76918" lon="7.41254">
        <ele>180.030396</ele>
        <time>2010-10-03T11:18:29Z</time>
      </trkpt>
      <trkpt lat="48.76926" lon="7.41293">
        <ele>181.092896</ele>
        <time>2010-10-03T11:18:37Z</time>
      </trkpt>
      <trkpt lat="48.76933" lon="7.41323">
        <ele>183.733521</ele>
        <time>2010-10-03T11:18:43Z</time>
      </trkpt>
      <trkpt lat="48.76939" lon="7.41342">
        <ele>185.409302</ele>
        <time>2010-10-03T11:18:47Z</time>
      </trkpt>
      <trkpt lat="48.76944" lon="7.41348">
        <ele>186.010864</ele>
        <time>2010-10-03T11:18:49Z</time>
      </trkpt>
      <trkpt lat="48.7695" lon="7.41348">
        <ele>186.151489</ele>
        <time>2010-10-03T11:18:51Z</time>
      </trkpt>
      <trkpt lat="48.76957" lon="7.41344">
        <ele>186.577271</ele>
        <time>2010-10-03T11:18:53Z</time>
      </trkpt>
      <trkpt lat="48.76971" lon="7.41334">
        <ele>186.604614</ele>
        <time>2010-10-03T11:18:57Z</time>
      </trkpt>
      <trkpt lat="48.76979" lon="7.41318">
        <ele>182.631958</ele>
        <time>2010-10-03T11:19:01Z</time>
      </trkpt>
      <trkpt lat="48.77032" lon="7.41277">
        <ele>185.151489</ele>
        <time>2010-10-03T11:19:14Z</time>
      </trkpt>
      <trkpt lat="48.77038" lon="7.41269">
        <ele>183.835083</ele>
        <time>2010-10-03T11:19:16Z</time>
      </trkpt>
      <trkpt lat="48.77046" lon="7.41262">
        <ele>183.495239</ele>
        <time>2010-10-03T11:19:18Z</time>
      </trkpt>
      <trkpt lat="48.77052" lon="7.41259">
        <ele>184.725708</ele>
        <time>2010-10-03T11:19:19Z</time>
      </trkpt>
      <trkpt lat="48.77065" lon="7.41249">
        <ele>185.944458</ele>
        <time>2010-10-03T11:19:22Z</time>
      </trkpt>
      <trkpt lat="48.77071" lon="7.41246">
        <ele>188.210083</ele>
        <time>2010-10-03T11:19:23Z</time>
      </trkpt>
      <trkpt lat="48.77081" lon="7.41237">
        <ele>188.530396</ele>
        <time>2010-10-03T11:19:49Z</time>
      </trkpt>
      <trkpt lat="48.77085" lon="7.41233">
        <ele>188.155396</ele>
        <time>2010-10-03T11:19:51Z</time>
      </trkpt>
      <trkpt lat="48.77088" lon="7.41225">
        <ele>187.803833</ele>
        <time>2010-10-03T11:19:53Z</time>
      </trkpt>
      <trkpt lat="48.7709" lon="7.41215">
        <ele>187.569458</ele>
        <time>2010-10-03T11:19:55Z</time>
      </trkpt>
      <trkpt lat="48.77102" lon="7.41194">
        <ele>189.174927</ele>
        <time>2010-10-03T11:19:59Z</time>
      </trkpt>
      <trkpt lat="48.77124" lon="7.41166">
        <ele>191.995239</ele>
        <time>2010-10-03T11:20:05Z</time>
      </trkpt>
      <trkpt lat="48.7714" lon="7.4115">
        <ele>195.026489</ele>
        <time>2010-10-03T11:20:09Z</time>
      </trkpt>
      <trkpt lat="48.77184" lon="7.41094">
        <ele>197.573364</ele>
        <time>2010-10-03T11:20:22Z</time>
      </trkpt>
      <trkpt lat="48.77191" lon="7.41088">
        <ele>196.108521</ele>
        <time>2010-10-03T11:20:24Z</time>
      </trkpt>
      <trkpt lat="48.77198" lon="7.41079">
        <ele>196.483521</ele>
        <time>2010-10-03T11:20:26Z</time>
      </trkpt>
      <trkpt lat="48.77209" lon="7.41067">
        <ele>197.374146</ele>
        <time>2010-10-03T11:20:29Z</time>
      </trkpt>
      <trkpt lat="48.77226" lon="7.41047">
        <ele>198.194458</ele>
        <time>2010-10-03T11:20:34Z</time>
      </trkpt>
      <trkpt lat="48.77234" lon="7.4104">
        <ele>198.436646</ele>
        <time>2010-10-03T11:20:36Z</time>
      </trkpt>
      <trkpt lat="48.77242" lon="7.41033">
        <ele>197.503052</ele>
        <time>2010-10-03T11:20:38Z</time>
      </trkpt>
      <trkpt lat="48.77273" lon="7.4101">
        <ele>197.518677</ele>
        <time>2010-10-03T11:20:45Z</time>
      </trkpt>
      <trkpt lat="48.77294" lon="7.40998">
        <ele>197.186646</ele>
        <time>2010-10-03T11:20:49Z</time>
      </trkpt>
      <trkpt lat="48.77327" lon="7.40985">
        <ele>194.893677</ele>
        <time>2010-10-03T11:20:55Z</time>
      </trkpt>
      <trkpt lat="48.77371" lon="7.40965">
        <ele>191.284302</ele>
        <time>2010-10-03T11:21:02Z</time>
      </trkpt>
      <trkpt lat="48.77399" lon="7.4095">
        <ele>189.092896</ele>
        <time>2010-10-03T11:21:06Z</time>
      </trkpt>
      <trkpt lat="48.77464" lon="7.4092">
        <ele>185.643677</ele>
        <time>2010-10-03T11:21:15Z</time>
      </trkpt>
      <trkpt lat="48.77479" lon="7.40911">
        <ele>184.921021</ele>
        <time>2010-10-03T11:21:17Z</time>
      </trkpt>
      <trkpt lat="48.77492" lon="7.40901">
        <ele>183.866333</ele>
        <time>2010-10-03T11:21:19Z</time>
      </trkpt>
      <trkpt lat="48.77504" lon="7.40889">
        <ele>183.296021</ele>
        <time>2010-10-03T11:21:21Z</time>
      </trkpt>
      <trkpt lat="48.77521" lon="7.40867">
        <ele>182.108521</ele>
        <time>2010-10-03T11:21:24Z</time>
      </trkpt>
      <trkpt lat="48.77559" lon="7.40826">
        <ele>182.799927</ele>
        <time>2010-10-03T11:21:30Z</time>
      </trkpt>
      <trkpt lat="48.77603" lon="7.40791">
        <ele>183.378052</ele>
        <time>2010-10-03T11:21:38Z</time>
      </trkpt>
      <trkpt lat="48.77608" lon="7.40789">
        <ele>183.366333</ele>
        <time>2010-10-03T11:21:39Z</time>
      </trkpt>
      <trkpt lat="48.77613" lon="7.40788">
        <ele>183.436646</ele>
        <time>2010-10-03T11:21:40Z</time>
      </trkpt>
      <trkpt lat="48.7765" lon="7.40798">
        <ele>184.756958</ele>
        <time>2010-10-03T11:21:47Z</time>
      </trkpt>
      <trkpt lat="48.77735" lon="7.4081">
        <ele>186.358521</ele>
        <time>2010-10-03T11:22:03Z</time>
      </trkpt>
      <trkpt lat="48.77773" lon="7.40813">
        <ele>186.378052</ele>
        <time>2010-10-03T11:22:10Z</time>
      </trkpt>
      <trkpt lat="48.77783" lon="7.40809">
        <ele>186.053833</ele>
        <time>2010-10-03T11:22:12Z</time>
      </trkpt>
      <trkpt lat="48.77803" lon="7.40807">
        <ele>185.178833</ele>
        <time>2010-10-03T11:22:16Z</time>
      </trkpt>
      <trkpt lat="48.77808" lon="7.40809">
        <ele>185.171021</ele>
        <time>2010-10-03T11:22:17Z</time>
      </trkpt>
      <trkpt lat="48.77814" lon="7.40806">
        <ele>186.194458</ele>
        <time>2010-10-03T11:22:18Z</time>
      </trkpt>
      <trkpt lat="48.77822" lon="7.40811">
        <ele>186.444458</ele>
        <time>2010-10-03T11:22:20Z</time>
      </trkpt>
      <trkpt lat="48.77831" lon="7.40814">
        <ele>186.249146</ele>
        <time>2010-10-03T11:22:22Z</time>
      </trkpt>
      <trkpt lat="48.77865" lon="7.40819">
        <ele>187.452271</ele>
        <time>2010-10-03T11:22:29Z</time>
      </trkpt>
      <trkpt lat="48.7788" lon="7.40819">
        <ele>187.854614</ele>
        <time>2010-10-03T11:22:32Z</time>
      </trkpt>
      <trkpt lat="48.77928" lon="7.40824">
        <ele>190.874146</ele>
        <time>2010-10-03T11:22:42Z</time>
      </trkpt>
      <trkpt lat="48.77955" lon="7.40823">
        <ele>192.151489</ele>
        <time>2010-10-03T11:22:48Z</time>
      </trkpt>
      <trkpt lat="48.78006" lon="7.40818">
        <ele>193.706177</ele>
        <time>2010-10-03T11:23:00Z</time>
      </trkpt>
      <trkpt lat="48.78032" lon="7.40814">
        <ele>195.186646</ele>
        <time>2010-10-03T11:23:06Z</time>
      </trkpt>
      <trkpt lat="48.7804" lon="7.40816">
        <ele>195.698364</ele>
        <time>2010-10-03T11:23:08Z</time>
      </trkpt>
      <trkpt lat="48.78048" lon="7.40822">
        <ele>195.944458</ele>
        <time>2010-10-03T11:23:10Z</time>
      </trkpt>
      <trkpt lat="48.78059" lon="7.40833">
        <ele>196.354614</ele>
        <time>2010-10-03T11:23:13Z</time>
      </trkpt>
      <trkpt lat="48.78067" lon="7.40835">
        <ele>196.557739</ele>
        <time>2010-10-03T11:23:15Z</time>
      </trkpt>
      <trkpt lat="48.78074" lon="7.4083">
        <ele>196.780396</ele>
        <time>2010-10-03T11:23:17Z</time>
      </trkpt>
      <trkpt lat="48.78079" lon="7.4082">
        <ele>196.573364</ele>
        <time>2010-10-03T11:23:19Z</time>
      </trkpt>
      <trkpt lat="48.78086" lon="7.4081">
        <ele>196.510864</ele>
        <time>2010-10-03T11:23:21Z</time>
      </trkpt>
      <trkpt lat="48.78093" lon="7.40802">
        <ele>196.444458</ele>
        <time>2010-10-03T11:23:23Z</time>
      </trkpt>
      <trkpt lat="48.78101" lon="7.40796">
        <ele>196.753052</ele>
        <time>2010-10-03T11:23:25Z</time>
      </trkpt>
      <trkpt lat="48.78109" lon="7.40792">
        <ele>197.237427</ele>
        <time>2010-10-03T11:23:27Z</time>
      </trkpt>
      <trkpt lat="48.78125" lon="7.40788">
        <ele>197.983521</ele>
        <time>2010-10-03T11:23:31Z</time>
      </trkpt>
      <trkpt lat="48.78223" lon="7.40745">
        <ele>201.499146</ele>
        <time>2010-10-03T11:23:55Z</time>
      </trkpt>
      <trkpt lat="48.78294" lon="7.40704">
        <ele>205.499146</ele>
        <time>2010-10-03T11:24:13Z</time>
      </trkpt>
      <trkpt lat="48.78311" lon="7.40693">
        <ele>206.557739</ele>
        <time>2010-10-03T11:24:17Z</time>
      </trkpt>
      <trkpt lat="48.78342" lon="7.40668">
        <ele>207.889771</ele>
        <time>2010-10-03T11:24:25Z</time>
      </trkpt>
      <trkpt lat="48.78365" lon="7.40649">
        <ele>208.631958</ele>
        <time>2010-10-03T11:24:31Z</time>
      </trkpt>
      <trkpt lat="48.78394" lon="7.40626">
        <ele>210.510864</ele>
        <time>2010-10-03T11:24:39Z</time>
      </trkpt>
      <trkpt lat="48.78453" lon="7.40571">
        <ele>212.585083</ele>
        <time>2010-10-03T11:24:57Z</time>
      </trkpt>
      <trkpt lat="48.78474" lon="7.40553">
        <ele>213.557739</ele>
        <time>2010-10-03T11:25:03Z</time>
      </trkpt>
      <trkpt lat="48.78516" lon="7.40514">
        <ele>216.088989</ele>
        <time>2010-10-03T11:25:15Z</time>
      </trkpt>
      <trkpt lat="48.78554" lon="7.40482">
        <ele>216.530396</ele>
        <time>2010-10-03T11:25:25Z</time>
      </trkpt>
      <trkpt lat="48.78593" lon="7.40442">
        <ele>217.940552</ele>
        <time>2010-10-03T11:25:35Z</time>
      </trkpt>
      <trkpt lat="48.78619" lon="7.40414">
        <ele>219.253052</ele>
        <time>2010-10-03T11:25:42Z</time>
      </trkpt>
      <trkpt lat="48.78638" lon="7.40397">
        <ele>220.624146</ele>
        <time>2010-10-03T11:25:47Z</time>
      </trkpt>
      <trkpt lat="48.78684" lon="7.40359">
        <ele>222.284302</ele>
        <time>2010-10-03T11:25:59Z</time>
      </trkpt>
      <trkpt lat="48.78697" lon="7.4035">
        <ele>222.917114</ele>
        <time>2010-10-03T11:26:02Z</time>
      </trkpt>
      <trkpt lat="48.7871" lon="7.40343">
        <ele>223.631958</ele>
        <time>2010-10-03T11:26:05Z</time>
      </trkpt>
      <trkpt lat="48.7874" lon="7.40329">
        <ele>225.026489</ele>
        <time>2010-10-03T11:26:12Z</time>
      </trkpt>
      <trkpt lat="48.78825" lon="7.40303">
        <ele>226.421021</ele>
        <time>2010-10-03T11:26:31Z</time>
      </trkpt>
      <trkpt lat="48.78858" lon="7.40292">
        <ele>226.522583</ele>
        <time>2010-10-03T11:26:38Z</time>
      </trkpt>
      <trkpt lat="48.78906" lon="7.40272">
        <ele>226.686646</ele>
        <time>2010-10-03T11:26:48Z</time>
      </trkpt>
      <trkpt lat="48.78923" lon="7.40268">
        <ele>225.569458</ele>
        <time>2010-10-03T11:26:51Z</time>
      </trkpt>
      <trkpt lat="48.78935" lon="7.40263">
        <ele>224.366333</ele>
        <time>2010-10-03T11:26:53Z</time>
      </trkpt>
      <trkpt lat="48.78968" lon="7.40259">
        <ele>225.924927</ele>
        <time>2010-10-03T11:26:59Z</time>
      </trkpt>
      <trkpt lat="48.79023" lon="7.40248">
        <ele>231.624146</ele>
        <time>2010-10-03T11:27:10Z</time>
      </trkpt>
      <trkpt lat="48.79033" lon="7.40245">
        <ele>232.674927</ele>
        <time>2010-10-03T11:27:12Z</time>
      </trkpt>
      <trkpt lat="48.79041" lon="7.40247">
        <ele>228.717896</ele>
        <time>2010-10-03T11:27:13Z</time>
      </trkpt>
      <trkpt lat="48.79065" lon="7.40244">
        <ele>228.678833</ele>
        <time>2010-10-03T11:27:17Z</time>
      </trkpt>
      <trkpt lat="48.79104" lon="7.40226">
        <ele>227.909302</ele>
        <time>2010-10-03T11:27:23Z</time>
      </trkpt>
      <trkpt lat="48.79125" lon="7.40215">
        <ele>226.792114</ele>
        <time>2010-10-03T11:27:26Z</time>
      </trkpt>
      <trkpt lat="48.79195" lon="7.4018">
        <ele>222.885864</ele>
        <time>2010-10-03T11:27:35Z</time>
      </trkpt>
      <trkpt lat="48.79203" lon="7.40178">
        <ele>222.620239</ele>
        <time>2010-10-03T11:27:36Z</time>
      </trkpt>
      <trkpt lat="48.79211" lon="7.40177">
        <ele>222.506958</ele>
        <time>2010-10-03T11:27:37Z</time>
      </trkpt>
      <trkpt lat="48.79218" lon="7.40177">
        <ele>222.600708</ele>
        <time>2010-10-03T11:27:38Z</time>
      </trkpt>
      <trkpt lat="48.79232" lon="7.40181">
        <ele>222.374146</ele>
        <time>2010-10-03T11:27:40Z</time>
      </trkpt>
      <trkpt lat="48.79286" lon="7.40209">
        <ele>219.401489</ele>
        <time>2010-10-03T11:27:55Z</time>
      </trkpt>
      <trkpt lat="48.793" lon="7.40214">
        <ele>218.991333</ele>
        <time>2010-10-03T11:27:59Z</time>
      </trkpt>
      <trkpt lat="48.79311" lon="7.40216">
        <ele>218.612427</ele>
        <time>2010-10-03T11:28:03Z</time>
      </trkpt>
      <trkpt lat="48.79345" lon="7.40232">
        <ele>217.874146</ele>
        <time>2010-10-03T11:28:10Z</time>
      </trkpt>
      <trkpt lat="48.79369" lon="7.40239">
        <ele>217.506958</ele>
        <time>2010-10-03T11:28:14Z</time>
      </trkpt>
      <trkpt lat="48.79394" lon="7.40245">
        <ele>216.854614</ele>
        <time>2010-10-03T11:28:18Z</time>
      </trkpt>
      <trkpt lat="48.79427" lon="7.40249">
        <ele>215.893677</ele>
        <time>2010-10-03T11:28:23Z</time>
      </trkpt>
      <trkpt lat="48.79483" lon="7.40251">
        <ele>213.944458</ele>
        <time>2010-10-03T11:28:31Z</time>
      </trkpt>
      <trkpt lat="48.79512" lon="7.40254">
        <ele>212.866333</ele>
        <time>2010-10-03T11:28:35Z</time>
      </trkpt>
      <trkpt lat="48.7961" lon="7.40273">
        <ele>208.178833</ele>
        <time>2010-10-03T11:28:47Z</time>
      </trkpt>
      <trkpt lat="48.79628" lon="7.40275">
        <ele>207.085083</ele>
        <time>2010-10-03T11:28:49Z</time>
      </trkpt>
      <trkpt lat="48.79646" lon="7.40275">
        <ele>206.186646</ele>
        <time>2010-10-03T11:28:51Z</time>
      </trkpt>
      <trkpt lat="48.79707" lon="7.40269">
        <ele>202.698364</ele>
        <time>2010-10-03T11:28:57Z</time>
      </trkpt>
      <trkpt lat="48.79777" lon="7.40258">
        <ele>199.350708</ele>
        <time>2010-10-03T11:29:04Z</time>
      </trkpt>
      <trkpt lat="48.79854" lon="7.40242">
        <ele>197.612427</ele>
        <time>2010-10-03T11:29:12Z</time>
      </trkpt>
      <trkpt lat="48.79905" lon="7.40233">
        <ele>197.542114</ele>
        <time>2010-10-03T11:29:18Z</time>
      </trkpt>
      <trkpt lat="48.79921" lon="7.40232">
        <ele>197.424927</ele>
        <time>2010-10-03T11:29:20Z</time>
      </trkpt>
      <trkpt lat="48.79936" lon="7.40234">
        <ele>197.374146</ele>
        <time>2010-10-03T11:29:22Z</time>
      </trkpt>
      <trkpt lat="48.79951" lon="7.4024">
        <ele>197.557739</ele>
        <time>2010-10-03T11:29:24Z</time>
      </trkpt>
      <trkpt lat="48.79966" lon="7.40248">
        <ele>197.506958</ele>
        <time>2010-10-03T11:29:26Z</time>
      </trkpt>
      <trkpt lat="48.80001" lon="7.40271">
        <ele>196.616333</ele>
        <time>2010-10-03T11:29:31Z</time>
      </trkpt>
      <trkpt lat="48.80029" lon="7.40292">
        <ele>196.303833</ele>
        <time>2010-10-03T11:29:35Z</time>
      </trkpt>
      <trkpt lat="48.80043" lon="7.40301">
        <ele>196.167114</ele>
        <time>2010-10-03T11:29:37Z</time>
      </trkpt>
      <trkpt lat="48.8005" lon="7.40304">
        <ele>196.206177</ele>
        <time>2010-10-03T11:29:38Z</time>
      </trkpt>
      <trkpt lat="48.80065" lon="7.40308">
        <ele>195.842896</ele>
        <time>2010-10-03T11:29:40Z</time>
      </trkpt>
      <trkpt lat="48.8008" lon="7.40307">
        <ele>194.768677</ele>
        <time>2010-10-03T11:29:42Z</time>
      </trkpt>
      <trkpt lat="48.80088" lon="7.40305">
        <ele>193.987427</ele>
        <time>2010-10-03T11:29:43Z</time>
      </trkpt>
      <trkpt lat="48.80114" lon="7.40293">
        <ele>192.276489</ele>
        <time>2010-10-03T11:29:46Z</time>
      </trkpt>
      <trkpt lat="48.80132" lon="7.40288">
        <ele>191.143677</ele>
        <time>2010-10-03T11:29:48Z</time>
      </trkpt>
      <trkpt lat="48.80318" lon="7.40265">
        <ele>178.088989</ele>
        <time>2010-10-03T11:30:08Z</time>
      </trkpt>
      <trkpt lat="48.8037" lon="7.40267">
        <ele>177.573364</ele>
        <time>2010-10-03T11:30:14Z</time>
      </trkpt>
      <trkpt lat="48.80414" lon="7.40261">
        <ele>179.671021</ele>
        <time>2010-10-03T11:30:20Z</time>
      </trkpt>
      <trkpt lat="48.80441" lon="7.40262">
        <ele>181.971802</ele>
        <time>2010-10-03T11:30:25Z</time>
      </trkpt>
      <trkpt lat="48.80462" lon="7.40259">
        <ele>182.174927</ele>
        <time>2010-10-03T11:30:29Z</time>
      </trkpt>
      <trkpt lat="48.80477" lon="7.40258">
        <ele>182.620239</ele>
        <time>2010-10-03T11:30:32Z</time>
      </trkpt>
      <trkpt lat="48.80493" lon="7.40254">
        <ele>183.053833</ele>
        <time>2010-10-03T11:30:35Z</time>
      </trkpt>
      <trkpt lat="48.80507" lon="7.40249">
        <ele>183.268677</ele>
        <time>2010-10-03T11:30:38Z</time>
      </trkpt>
      <trkpt lat="48.80517" lon="7.40244">
        <ele>183.616333</ele>
        <time>2010-10-03T11:30:40Z</time>
      </trkpt>
      <trkpt lat="48.80536" lon="7.40228">
        <ele>183.542114</ele>
        <time>2010-10-03T11:30:44Z</time>
      </trkpt>
      <trkpt lat="48.80545" lon="7.40219">
        <ele>183.241333</ele>
        <time>2010-10-03T11:30:46Z</time>
      </trkpt>
      <trkpt lat="48.8055" lon="7.40215">
        <ele>183.135864</ele>
        <time>2010-10-03T11:30:47Z</time>
      </trkpt>
      <trkpt lat="48.80561" lon="7.40212">
        <ele>182.862427</ele>
        <time>2010-10-03T11:30:49Z</time>
      </trkpt>
      <trkpt lat="48.80619" lon="7.40214">
        <ele>182.612427</ele>
        <time>2010-10-03T11:30:58Z</time>
      </trkpt>
      <trkpt lat="48.80634" lon="7.40216">
        <ele>182.815552</ele>
        <time>2010-10-03T11:31:00Z</time>
      </trkpt>
      <trkpt lat="48.80642" lon="7.40219">
        <ele>182.796021</ele>
        <time>2010-10-03T11:31:01Z</time>
      </trkpt>
      <trkpt lat="48.80688" lon="7.4024">
        <ele>182.225708</ele>
        <time>2010-10-03T11:31:08Z</time>
      </trkpt>
      <trkpt lat="48.807" lon="7.40239">
        <ele>182.194458</ele>
        <time>2010-10-03T11:31:10Z</time>
      </trkpt>
      <trkpt lat="48.80723" lon="7.40228">
        <ele>182.030396</ele>
        <time>2010-10-03T11:31:14Z</time>
      </trkpt>
      <trkpt lat="48.80768" lon="7.40201">
        <ele>182.057739</ele>
        <time>2010-10-03T11:31:23Z</time>
      </trkpt>
      <trkpt lat="48.80826" lon="7.40161">
        <ele>183.018677</ele>
        <time>2010-10-03T11:31:35Z</time>
      </trkpt>
      <trkpt lat="48.8084" lon="7.40153">
        <ele>183.276489</ele>
        <time>2010-10-03T11:31:38Z</time>
      </trkpt>
      <trkpt lat="48.80875" lon="7.40139">
        <ele>184.585083</ele>
        <time>2010-10-03T11:31:46Z</time>
      </trkpt>
      <trkpt lat="48.80914" lon="7.40126">
        <ele>186.424927</ele>
        <time>2010-10-03T11:31:56Z</time>
      </trkpt>
      <trkpt lat="48.80929" lon="7.40123">
        <ele>187.534302</ele>
        <time>2010-10-03T11:32:00Z</time>
      </trkpt>
      <trkpt lat="48.80959" lon="7.40111">
        <ele>188.835083</ele>
        <time>2010-10-03T11:32:08Z</time>
      </trkpt>
      <trkpt lat="48.80975" lon="7.40107">
        <ele>189.210083</ele>
        <time>2010-10-03T11:32:12Z</time>
      </trkpt>
      <trkpt lat="48.81001" lon="7.40104">
        <ele>190.456177</ele>
        <time>2010-10-03T11:32:18Z</time>
      </trkpt>
      <trkpt lat="48.81058" lon="7.40095">
        <ele>192.799927</ele>
        <time>2010-10-03T11:32:32Z</time>
      </trkpt>
      <trkpt lat="48.81123" lon="7.40081">
        <ele>195.350708</ele>
        <time>2010-10-03T11:32:50Z</time>
      </trkpt>
      <trkpt lat="48.81173" lon="7.40073">
        <ele>197.737427</ele>
        <time>2010-10-03T11:33:04Z</time>
      </trkpt>
      <trkpt lat="48.81226" lon="7.40071">
        <ele>200.385864</ele>
        <time>2010-10-03T11:33:20Z</time>
      </trkpt>
      <trkpt lat="48.81261" lon="7.40072">
        <ele>203.120239</ele>
        <time>2010-10-03T11:33:30Z</time>
      </trkpt>
      <trkpt lat="48.81281" lon="7.40069">
        <ele>203.979614</ele>
        <time>2010-10-03T11:33:36Z</time>
      </trkpt>
      <trkpt lat="48.81294" lon="7.40066">
        <ele>204.835083</ele>
        <time>2010-10-03T11:33:40Z</time>
      </trkpt>
      <trkpt lat="48.81307" lon="7.4006">
        <ele>205.784302</ele>
        <time>2010-10-03T11:33:44Z</time>
      </trkpt>
      <trkpt lat="48.81321" lon="7.40051">
        <ele>206.827271</ele>
        <time>2010-10-03T11:33:48Z</time>
      </trkpt>
      <trkpt lat="48.81351" lon="7.4002">
        <ele>208.788208</ele>
        <time>2010-10-03T11:33:58Z</time>
      </trkpt>
      <trkpt lat="48.81393" lon="7.39967">
        <ele>211.217896</ele>
        <time>2010-10-03T11:34:14Z</time>
      </trkpt>
      <trkpt lat="48.81411" lon="7.39948">
        <ele>211.944458</ele>
        <time>2010-10-03T11:34:20Z</time>
      </trkpt>
      <trkpt lat="48.81439" lon="7.39912">
        <ele>213.217896</ele>
        <time>2010-10-03T11:34:30Z</time>
      </trkpt>
      <trkpt lat="48.81465" lon="7.39882">
        <ele>214.213989</ele>
        <time>2010-10-03T11:34:38Z</time>
      </trkpt>
      <trkpt lat="48.81511" lon="7.39834">
        <ele>213.171021</ele>
        <time>2010-10-03T11:34:50Z</time>
      </trkpt>
      <trkpt lat="48.81566" lon="7.39773">
        <ele>211.624146</ele>
        <time>2010-10-03T11:35:01Z</time>
      </trkpt>
      <trkpt lat="48.81583" lon="7.39755">
        <ele>211.057739</ele>
        <time>2010-10-03T11:35:04Z</time>
      </trkpt>
      <trkpt lat="48.81596" lon="7.39745">
        <ele>210.393677</ele>
        <time>2010-10-03T11:35:06Z</time>
      </trkpt>
      <trkpt lat="48.81611" lon="7.39738">
        <ele>210.370239</ele>
        <time>2010-10-03T11:35:08Z</time>
      </trkpt>
      <trkpt lat="48.81626" lon="7.39733">
        <ele>210.046021</ele>
        <time>2010-10-03T11:35:10Z</time>
      </trkpt>
      <trkpt lat="48.81653" lon="7.39732">
        <ele>209.678833</ele>
        <time>2010-10-03T11:35:14Z</time>
      </trkpt>
      <trkpt lat="48.81715" lon="7.39735">
        <ele>209.549927</ele>
        <time>2010-10-03T11:35:25Z</time>
      </trkpt>
      <trkpt lat="48.81735" lon="7.39737">
        <ele>209.448364</ele>
        <time>2010-10-03T11:35:29Z</time>
      </trkpt>
      <trkpt lat="48.81775" lon="7.39739">
        <ele>209.963989</ele>
        <time>2010-10-03T11:35:38Z</time>
      </trkpt>
      <trkpt lat="48.81792" lon="7.39739">
        <ele>210.592896</ele>
        <time>2010-10-03T11:35:42Z</time>
      </trkpt>
      <trkpt lat="48.81833" lon="7.39743">
        <ele>210.292114</ele>
        <time>2010-10-03T11:35:51Z</time>
      </trkpt>
      <trkpt lat="48.81865" lon="7.3975">
        <ele>210.835083</ele>
        <time>2010-10-03T11:35:58Z</time>
      </trkpt>
      <trkpt lat="48.81906" lon="7.39766">
        <ele>212.346802</ele>
        <time>2010-10-03T11:36:08Z</time>
      </trkpt>
      <trkpt lat="48.81934" lon="7.3978">
        <ele>213.803833</ele>
        <time>2010-10-03T11:36:15Z</time>
      </trkpt>
      <trkpt lat="48.82038" lon="7.39838">
        <ele>211.764771</ele>
        <time>2010-10-03T11:36:38Z</time>
      </trkpt>
      <trkpt lat="48.82053" lon="7.39848">
        <ele>211.225708</ele>
        <time>2010-10-03T11:36:41Z</time>
      </trkpt>
      <trkpt lat="48.82083" lon="7.39874">
        <ele>209.924927</ele>
        <time>2010-10-03T11:36:47Z</time>
      </trkpt>
      <trkpt lat="48.82114" lon="7.39906">
        <ele>208.932739</ele>
        <time>2010-10-03T11:36:53Z</time>
      </trkpt>
      <trkpt lat="48.8214" lon="7.39938">
        <ele>207.831177</ele>
        <time>2010-10-03T11:36:58Z</time>
      </trkpt>
      <trkpt lat="48.82209" lon="7.40045">
        <ele>205.190552</ele>
        <time>2010-10-03T11:37:12Z</time>
      </trkpt>
      <trkpt lat="48.82219" lon="7.40059">
        <ele>204.987427</ele>
        <time>2010-10-03T11:37:14Z</time>
      </trkpt>
      <trkpt lat="48.82225" lon="7.40066">
        <ele>205.456177</ele>
        <time>2010-10-03T11:37:15Z</time>
      </trkpt>
      <trkpt lat="48.82272" lon="7.40129">
        <ele>204.635864</ele>
        <time>2010-10-03T11:37:24Z</time>
      </trkpt>
      <trkpt lat="48.82298" lon="7.40165">
        <ele>204.694458</ele>
        <time>2010-10-03T11:37:29Z</time>
      </trkpt>
      <trkpt lat="48.82325" lon="7.40209">
        <ele>206.022583</ele>
        <time>2010-10-03T11:37:35Z</time>
      </trkpt>
      <trkpt lat="48.82354" lon="7.40261">
        <ele>206.182739</ele>
        <time>2010-10-03T11:37:42Z</time>
      </trkpt>
      <trkpt lat="48.82367" lon="7.40291">
        <ele>206.749146</ele>
        <time>2010-10-03T11:37:46Z</time>
      </trkpt>
      <trkpt lat="48.82382" lon="7.40319">
        <ele>207.288208</ele>
        <time>2010-10-03T11:37:50Z</time>
      </trkpt>
      <trkpt lat="48.82409" lon="7.40368">
        <ele>207.120239</ele>
        <time>2010-10-03T11:37:57Z</time>
      </trkpt>
      <trkpt lat="48.82433" lon="7.40406">
        <ele>207.987427</ele>
        <time>2010-10-03T11:38:03Z</time>
      </trkpt>
      <trkpt lat="48.82448" lon="7.40428">
        <ele>208.249146</ele>
        <time>2010-10-03T11:38:08Z</time>
      </trkpt>
      <trkpt lat="48.82452" lon="7.40432">
        <ele>207.764771</ele>
        <time>2010-10-03T11:38:10Z</time>
      </trkpt>
      <trkpt lat="48.82458" lon="7.40433">
        <ele>207.354614</ele>
        <time>2010-10-03T11:38:12Z</time>
      </trkpt>
      <trkpt lat="48.82464" lon="7.40431">
        <ele>208.303833</ele>
        <time>2010-10-03T11:38:14Z</time>
      </trkpt>
      <trkpt lat="48.82476" lon="7.40434">
        <ele>209.178833</ele>
        <time>2010-10-03T11:38:17Z</time>
      </trkpt>
      <trkpt lat="48.82489" lon="7.40439">
        <ele>209.995239</ele>
        <time>2010-10-03T11:38:21Z</time>
      </trkpt>
      <trkpt lat="48.82508" lon="7.4044">
        <ele>212.385864</ele>
        <time>2010-10-03T11:38:27Z</time>
      </trkpt>
      <trkpt lat="48.82515" lon="7.40439">
        <ele>214.178833</ele>
        <time>2010-10-03T11:38:29Z</time>
      </trkpt>
      <trkpt lat="48.8254" lon="7.40441">
        <ele>220.120239</ele>
        <time>2010-10-03T11:38:36Z</time>
      </trkpt>
      <trkpt lat="48.82544" lon="7.40442">
        <ele>218.413208</ele>
        <time>2010-10-03T11:38:37Z</time>
      </trkpt>
      <trkpt lat="48.82585" lon="7.40445">
        <ele>220.108521</ele>
        <time>2010-10-03T11:38:49Z</time>
      </trkpt>
      <trkpt lat="48.82609" lon="7.40449">
        <ele>218.026489</ele>
        <time>2010-10-03T11:38:56Z</time>
      </trkpt>
      <trkpt lat="48.82614" lon="7.40452">
        <ele>218.811646</ele>
        <time>2010-10-03T11:38:58Z</time>
      </trkpt>
      <trkpt lat="48.82669" lon="7.40467">
        <ele>218.741333</ele>
        <time>2010-10-03T11:39:17Z</time>
      </trkpt>
      <trkpt lat="48.82674" lon="7.40469">
        <ele>218.858521</ele>
        <time>2010-10-03T11:39:19Z</time>
      </trkpt>
      <trkpt lat="48.82684" lon="7.40476">
        <ele>219.749146</ele>
        <time>2010-10-03T11:39:23Z</time>
      </trkpt>
      <trkpt lat="48.82693" lon="7.40486">
        <ele>220.440552</ele>
        <time>2010-10-03T11:39:27Z</time>
      </trkpt>
      <trkpt lat="48.82697" lon="7.40492">
        <ele>220.608521</ele>
        <time>2010-10-03T11:39:29Z</time>
      </trkpt>
      <trkpt lat="48.82725" lon="7.40546">
        <ele>224.260864</ele>
        <time>2010-10-03T11:39:47Z</time>
      </trkpt>
      <trkpt lat="48.82734" lon="7.40556">
        <ele>224.963989</ele>
        <time>2010-10-03T11:39:51Z</time>
      </trkpt>
      <trkpt lat="48.82748" lon="7.40566">
        <ele>226.073364</ele>
        <time>2010-10-03T11:39:57Z</time>
      </trkpt>
      <trkpt lat="48.82763" lon="7.4057">
        <ele>226.866333</ele>
        <time>2010-10-03T11:40:03Z</time>
      </trkpt>
      <trkpt lat="48.82773" lon="7.40568">
        <ele>227.518677</ele>
        <time>2010-10-03T11:40:07Z</time>
      </trkpt>
      <trkpt lat="48.82833" lon="7.40545">
        <ele>231.741333</ele>
        <time>2010-10-03T11:40:31Z</time>
      </trkpt>
      <trkpt lat="48.82842" lon="7.4054">
        <ele>232.745239</ele>
        <time>2010-10-03T11:40:35Z</time>
      </trkpt>
      <trkpt lat="48.82871" lon="7.4053">
        <ele>234.409302</ele>
        <time>2010-10-03T11:40:43Z</time>
      </trkpt>
      <trkpt lat="48.82886" lon="7.4052">
        <ele>233.421021</ele>
        <time>2010-10-03T11:40:47Z</time>
      </trkpt>
      <trkpt lat="48.82895" lon="7.40512">
        <ele>232.749146</ele>
        <time>2010-10-03T11:40:49Z</time>
      </trkpt>
      <trkpt lat="48.8291" lon="7.40496">
        <ele>231.643677</ele>
        <time>2010-10-03T11:40:52Z</time>
      </trkpt>
      <trkpt lat="48.82925" lon="7.40475">
        <ele>231.229614</ele>
        <time>2010-10-03T11:40:55Z</time>
      </trkpt>
      <trkpt lat="48.82932" lon="7.40468">
        <ele>230.792114</ele>
        <time>2010-10-03T11:40:56Z</time>
      </trkpt>
      <trkpt lat="48.82946" lon="7.40457">
        <ele>230.350708</ele>
        <time>2010-10-03T11:40:58Z</time>
      </trkpt>
      <trkpt lat="48.82954" lon="7.40453">
        <ele>229.694458</ele>
        <time>2010-10-03T11:40:59Z</time>
      </trkpt>
      <trkpt lat="48.82973" lon="7.40449">
        <ele>228.143677</ele>
        <time>2010-10-03T11:41:01Z</time>
      </trkpt>
      <trkpt lat="48.82983" lon="7.40451">
        <ele>227.088989</ele>
        <time>2010-10-03T11:41:02Z</time>
      </trkpt>
      <trkpt lat="48.82992" lon="7.40454">
        <ele>226.018677</ele>
        <time>2010-10-03T11:41:03Z</time>
      </trkpt>
      <trkpt lat="48.8302" lon="7.4047">
        <ele>224.725708</ele>
        <time>2010-10-03T11:41:06Z</time>
      </trkpt>
      <trkpt lat="48.83054" lon="7.40499">
        <ele>223.061646</ele>
        <time>2010-10-03T11:41:10Z</time>
      </trkpt>
      <trkpt lat="48.83072" lon="7.40513">
        <ele>222.870239</ele>
        <time>2010-10-03T11:41:12Z</time>
      </trkpt>
      <trkpt lat="48.83135" lon="7.40553">
        <ele>219.682739</ele>
        <time>2010-10-03T11:41:19Z</time>
      </trkpt>
      <trkpt lat="48.83152" lon="7.40566">
        <ele>218.881958</ele>
        <time>2010-10-03T11:41:21Z</time>
      </trkpt>
      <trkpt lat="48.83168" lon="7.40581">
        <ele>218.495239</ele>
        <time>2010-10-03T11:41:23Z</time>
      </trkpt>
      <trkpt lat="48.8319" lon="7.40605">
        <ele>217.768677</ele>
        <time>2010-10-03T11:41:26Z</time>
      </trkpt>
      <trkpt lat="48.83205" lon="7.40617">
        <ele>217.366333</ele>
        <time>2010-10-03T11:41:28Z</time>
      </trkpt>
      <trkpt lat="48.83221" lon="7.40623">
        <ele>217.542114</ele>
        <time>2010-10-03T11:41:30Z</time>
      </trkpt>
      <trkpt lat="48.83253" lon="7.40625">
        <ele>217.956177</ele>
        <time>2010-10-03T11:41:34Z</time>
      </trkpt>
      <trkpt lat="48.83283" lon="7.40624">
        <ele>218.202271</ele>
        <time>2010-10-03T11:41:38Z</time>
      </trkpt>
      <trkpt lat="48.83295" lon="7.40625">
        <ele>218.428833</ele>
        <time>2010-10-03T11:41:40Z</time>
      </trkpt>
      <trkpt lat="48.83319" lon="7.40624">
        <ele>218.624146</ele>
        <time>2010-10-03T11:41:44Z</time>
      </trkpt>
      <trkpt lat="48.83338" lon="7.40626">
        <ele>218.729614</ele>
        <time>2010-10-03T11:41:48Z</time>
      </trkpt>
      <trkpt lat="48.8338" lon="7.40625">
        <ele>219.397583</ele>
        <time>2010-10-03T11:41:56Z</time>
      </trkpt>
      <trkpt lat="48.834" lon="7.40629">
        <ele>219.741333</ele>
        <time>2010-10-03T11:42:00Z</time>
      </trkpt>
      <trkpt lat="48.83419" lon="7.40636">
        <ele>220.104614</ele>
        <time>2010-10-03T11:42:04Z</time>
      </trkpt>
      <trkpt lat="48.8346" lon="7.4066">
        <ele>221.022583</ele>
        <time>2010-10-03T11:42:13Z</time>
      </trkpt>
      <trkpt lat="48.83477" lon="7.40668">
        <ele>221.350708</ele>
        <time>2010-10-03T11:42:17Z</time>
      </trkpt>
      <trkpt lat="48.83486" lon="7.4067">
        <ele>221.413208</ele>
        <time>2010-10-03T11:42:19Z</time>
      </trkpt>
      <trkpt lat="48.83525" lon="7.40675">
        <ele>223.788208</ele>
        <time>2010-10-03T11:42:28Z</time>
      </trkpt>
      <trkpt lat="48.83582" lon="7.4068">
        <ele>227.749146</ele>
        <time>2010-10-03T11:42:46Z</time>
      </trkpt>
      <trkpt lat="48.83598" lon="7.40678">
        <ele>227.971802</ele>
        <time>2010-10-03T11:42:52Z</time>
      </trkpt>
      <trkpt lat="48.83622" lon="7.40671">
        <ele>228.971802</ele>
        <time>2010-10-03T11:43:00Z</time>
      </trkpt>
      <trkpt lat="48.8365" lon="7.4066">
        <ele>230.870239</ele>
        <time>2010-10-03T11:43:10Z</time>
      </trkpt>
      <trkpt lat="48.83665" lon="7.40658">
        <ele>231.663208</ele>
        <time>2010-10-03T11:43:16Z</time>
      </trkpt>
      <trkpt lat="48.83677" lon="7.40658">
        <ele>231.827271</ele>
        <time>2010-10-03T11:43:21Z</time>
      </trkpt>
      <trkpt lat="48.83681" lon="7.4066">
        <ele>232.753052</ele>
        <time>2010-10-03T11:43:23Z</time>
      </trkpt>
      <trkpt lat="48.83714" lon="7.40685">
        <ele>238.260864</ele>
        <time>2010-10-03T11:43:39Z</time>
      </trkpt>
      <trkpt lat="48.83736" lon="7.40695">
        <ele>239.811646</ele>
        <time>2010-10-03T11:43:47Z</time>
      </trkpt>
      <trkpt lat="48.83747" lon="7.40698">
        <ele>240.444458</ele>
        <time>2010-10-03T11:43:51Z</time>
      </trkpt>
      <trkpt lat="48.83775" lon="7.40699">
        <ele>244.073364</ele>
        <time>2010-10-03T11:44:01Z</time>
      </trkpt>
      <trkpt lat="48.83785" lon="7.40698">
        <ele>245.573364</ele>
        <time>2010-10-03T11:44:05Z</time>
      </trkpt>
      <trkpt lat="48.83839" lon="7.40703">
        <ele>253.710083</ele>
        <time>2010-10-03T11:44:25Z</time>
      </trkpt>
      <trkpt lat="48.83852" lon="7.40708">
        <ele>255.506958</ele>
        <time>2010-10-03T11:44:29Z</time>
      </trkpt>
      <trkpt lat="48.83858" lon="7.40709">
        <ele>257.701416</ele>
        <time>2010-10-03T11:44:31Z</time>
      </trkpt>
      <trkpt lat="48.83862" lon="7.40707">
        <ele>258.388916</ele>
        <time>2010-10-03T11:44:33Z</time>
      </trkpt>
      <trkpt lat="48.83878" lon="7.40703">
        <ele>263.607666</ele>
        <time>2010-10-03T11:44:40Z</time>
      </trkpt>
      <trkpt lat="48.83879" lon="7.40697">
        <ele>267.349854</ele>
        <time>2010-10-03T11:44:49Z</time>
      </trkpt>
      <trkpt lat="48.83884" lon="7.40702">
        <ele>267.787354</ele>
        <time>2010-10-03T11:45:04Z</time>
      </trkpt>
      <trkpt lat="48.83888" lon="7.40703">
        <ele>264.279541</ele>
        <time>2010-10-03T11:45:48Z</time>
      </trkpt>
      <trkpt lat="48.83891" lon="7.40699">
        <ele>262.904541</ele>
        <time>2010-10-03T11:47:29Z</time>
      </trkpt>
      <trkpt lat="48.8391" lon="7.40692">
        <ele>260.224854</ele>
        <time>2010-10-03T11:47:44Z</time>
      </trkpt>
      <trkpt lat="48.83917" lon="7.40687">
        <ele>259.498291</ele>
        <time>2010-10-03T11:47:46Z</time>
      </trkpt>
      <trkpt lat="48.83923" lon="7.40685">
        <ele>258.912354</ele>
        <time>2010-10-03T11:47:48Z</time>
      </trkpt>
      <trkpt lat="48.83929" lon="7.40679">
        <ele>257.201416</ele>
        <time>2010-10-03T11:47:50Z</time>
      </trkpt>
      <trkpt lat="48.83934" lon="7.40676">
        <ele>256.271729</ele>
        <time>2010-10-03T11:47:52Z</time>
      </trkpt>
      <trkpt lat="48.8394" lon="7.40669">
        <ele>255.655396</ele>
        <time>2010-10-03T11:47:54Z</time>
      </trkpt>
      <trkpt lat="48.8395" lon="7.40662">
        <ele>257.420166</ele>
        <time>2010-10-03T11:47:58Z</time>
      </trkpt>
      <trkpt lat="48.83968" lon="7.40656">
        <ele>265.107666</ele>
        <time>2010-10-03T11:48:02Z</time>
      </trkpt>
      <trkpt lat="48.83976" lon="7.4065">
        <ele>266.068604</ele>
        <time>2010-10-03T11:48:04Z</time>
      </trkpt>
      <trkpt lat="48.83979" lon="7.40643">
        <ele>265.295166</ele>
        <time>2010-10-03T11:48:05Z</time>
      </trkpt>
      <trkpt lat="48.84008" lon="7.40604">
        <ele>260.592041</ele>
        <time>2010-10-03T11:48:12Z</time>
      </trkpt>
      <trkpt lat="48.84012" lon="7.40596">
        <ele>259.076416</ele>
        <time>2010-10-03T11:48:14Z</time>
      </trkpt>
      <trkpt lat="48.84028" lon="7.40577">
        <ele>256.474854</ele>
        <time>2010-10-03T11:48:23Z</time>
      </trkpt>
      <trkpt lat="48.84035" lon="7.40578">
        <ele>254.483521</ele>
        <time>2010-10-03T11:48:26Z</time>
      </trkpt>
      <trkpt lat="48.84042" lon="7.40583">
        <ele>253.647583</ele>
        <time>2010-10-03T11:48:28Z</time>
      </trkpt>
      <trkpt lat="48.84062" lon="7.40593">
        <ele>252.491333</ele>
        <time>2010-10-03T11:48:34Z</time>
      </trkpt>
      <trkpt lat="48.84068" lon="7.40594">
        <ele>252.092896</ele>
        <time>2010-10-03T11:48:35Z</time>
      </trkpt>
      <trkpt lat="48.84081" lon="7.40601">
        <ele>251.315552</ele>
        <time>2010-10-03T11:48:39Z</time>
      </trkpt>
      <trkpt lat="48.84091" lon="7.40602">
        <ele>251.842896</ele>
        <time>2010-10-03T11:48:41Z</time>
      </trkpt>
      <trkpt lat="48.84102" lon="7.40607">
        <ele>250.475708</ele>
        <time>2010-10-03T11:48:45Z</time>
      </trkpt>
      <trkpt lat="48.8411" lon="7.4061">
        <ele>250.600708</ele>
        <time>2010-10-03T11:48:47Z</time>
      </trkpt>
      <trkpt lat="48.84134" lon="7.40612">
        <ele>247.612427</ele>
        <time>2010-10-03T11:48:53Z</time>
      </trkpt>
      <trkpt lat="48.8414" lon="7.40614">
        <ele>246.870239</ele>
        <time>2010-10-03T11:48:54Z</time>
      </trkpt>
      <trkpt lat="48.84146" lon="7.40619">
        <ele>248.538208</ele>
        <time>2010-10-03T11:48:56Z</time>
      </trkpt>
      <trkpt lat="48.84163" lon="7.40627">
        <ele>247.046021</ele>
        <time>2010-10-03T11:48:59Z</time>
      </trkpt>
      <trkpt lat="48.84176" lon="7.4063">
        <ele>245.288208</ele>
        <time>2010-10-03T11:49:02Z</time>
      </trkpt>
      <trkpt lat="48.84192" lon="7.40628">
        <ele>244.381958</ele>
        <time>2010-10-03T11:49:05Z</time>
      </trkpt>
      <trkpt lat="48.84211" lon="7.40622">
        <ele>244.975708</ele>
        <time>2010-10-03T11:49:10Z</time>
      </trkpt>
      <trkpt lat="48.84225" lon="7.40615">
        <ele>244.760864</ele>
        <time>2010-10-03T11:49:13Z</time>
      </trkpt>
      <trkpt lat="48.84232" lon="7.40611">
        <ele>245.307739</ele>
        <time>2010-10-03T11:49:15Z</time>
      </trkpt>
      <trkpt lat="48.84235" lon="7.40602">
        <ele>241.210083</ele>
        <time>2010-10-03T11:49:17Z</time>
      </trkpt>
      <trkpt lat="48.84237" lon="7.40594">
        <ele>236.405396</ele>
        <time>2010-10-03T11:49:18Z</time>
      </trkpt>
      <trkpt lat="48.84277" lon="7.40556">
        <ele>231.546021</ele>
        <time>2010-10-03T11:49:27Z</time>
      </trkpt>
      <trkpt lat="48.84282" lon="7.40553">
        <ele>231.854614</ele>
        <time>2010-10-03T11:49:28Z</time>
      </trkpt>
      <trkpt lat="48.84303" lon="7.40547">
        <ele>233.061646</ele>
        <time>2010-10-03T11:49:32Z</time>
      </trkpt>
      <trkpt lat="48.84318" lon="7.40548">
        <ele>237.354614</ele>
        <time>2010-10-03T11:49:34Z</time>
      </trkpt>
      <trkpt lat="48.84355" lon="7.4056">
        <ele>233.979614</ele>
        <time>2010-10-03T11:49:40Z</time>
      </trkpt>
      <trkpt lat="48.8436" lon="7.4056">
        <ele>233.944458</ele>
        <time>2010-10-03T11:49:41Z</time>
      </trkpt>
      <trkpt lat="48.84371" lon="7.40558">
        <ele>236.143677</ele>
        <time>2010-10-03T11:49:43Z</time>
      </trkpt>
      <trkpt lat="48.84375" lon="7.40551">
        <ele>237.100708</ele>
        <time>2010-10-03T11:49:45Z</time>
      </trkpt>
      <trkpt lat="48.84381" lon="7.40539">
        <ele>239.253052</ele>
        <time>2010-10-03T11:49:49Z</time>
      </trkpt>
      <trkpt lat="48.84388" lon="7.40529">
        <ele>242.592896</ele>
        <time>2010-10-03T11:49:55Z</time>
      </trkpt>
      <trkpt lat="48.84392" lon="7.40525">
        <ele>243.713989</ele>
        <time>2010-10-03T11:49:58Z</time>
      </trkpt>
      <trkpt lat="48.844" lon="7.40514">
        <ele>245.655396</ele>
        <time>2010-10-03T11:50:02Z</time>
      </trkpt>
      <trkpt lat="48.84409" lon="7.40507">
        <ele>246.682739</ele>
        <time>2010-10-03T11:50:07Z</time>
      </trkpt>
      <trkpt lat="48.84411" lon="7.405">
        <ele>246.600708</ele>
        <time>2010-10-03T11:50:10Z</time>
      </trkpt>
      <trkpt lat="48.84414" lon="7.40494">
        <ele>247.417114</ele>
        <time>2010-10-03T11:50:12Z</time>
      </trkpt>
      <trkpt lat="48.84429" lon="7.4047">
        <ele>246.338989</ele>
        <time>2010-10-03T11:50:20Z</time>
      </trkpt>
      <trkpt lat="48.84436" lon="7.40456">
        <ele>247.686646</ele>
        <time>2010-10-03T11:50:24Z</time>
      </trkpt>
      <trkpt lat="48.84438" lon="7.40446">
        <ele>247.967896</ele>
        <time>2010-10-03T11:50:27Z</time>
      </trkpt>
      <trkpt lat="48.84442" lon="7.40439">
        <ele>250.366333</ele>
        <time>2010-10-03T11:50:30Z</time>
      </trkpt>
      <trkpt lat="48.84443" lon="7.40433">
        <ele>251.510864</ele>
        <time>2010-10-03T11:50:32Z</time>
      </trkpt>
      <trkpt lat="48.84449" lon="7.40428">
        <ele>254.069458</ele>
        <time>2010-10-03T11:50:34Z</time>
      </trkpt>
      <trkpt lat="48.84453" lon="7.40422">
        <ele>255.518677</ele>
        <time>2010-10-03T11:50:37Z</time>
      </trkpt>
      <trkpt lat="48.84456" lon="7.40414">
        <ele>255.241333</ele>
        <time>2010-10-03T11:50:39Z</time>
      </trkpt>
      <trkpt lat="48.84457" lon="7.40407">
        <ele>255.452271</ele>
        <time>2010-10-03T11:50:41Z</time>
      </trkpt>
      <trkpt lat="48.84466" lon="7.40395">
        <ele>258.373291</ele>
        <time>2010-10-03T11:50:47Z</time>
      </trkpt>
      <trkpt lat="48.84478" lon="7.40377">
        <ele>260.404541</ele>
        <time>2010-10-03T11:50:55Z</time>
      </trkpt>
      <trkpt lat="48.84483" lon="7.40371">
        <ele>261.279541</ele>
        <time>2010-10-03T11:50:58Z</time>
      </trkpt>
      <trkpt lat="48.84489" lon="7.40358">
        <ele>261.951416</ele>
        <time>2010-10-03T11:51:04Z</time>
      </trkpt>
      <trkpt lat="48.84498" lon="7.40349">
        <ele>260.381104</ele>
        <time>2010-10-03T11:51:10Z</time>
      </trkpt>
      <trkpt lat="48.84505" lon="7.40345">
        <ele>260.412354</ele>
        <time>2010-10-03T11:51:13Z</time>
      </trkpt>
      <trkpt lat="48.8451" lon="7.40338">
        <ele>261.248291</ele>
        <time>2010-10-03T11:51:16Z</time>
      </trkpt>
      <trkpt lat="48.84518" lon="7.4033">
        <ele>263.365479</ele>
        <time>2010-10-03T11:51:21Z</time>
      </trkpt>
      <trkpt lat="48.84523" lon="7.40329">
        <ele>264.006104</ele>
        <time>2010-10-03T11:51:22Z</time>
      </trkpt>
      <trkpt lat="48.8453" lon="7.40316">
        <ele>265.693604</ele>
        <time>2010-10-03T11:51:28Z</time>
      </trkpt>
      <trkpt lat="48.84534" lon="7.40312">
        <ele>265.826416</ele>
        <time>2010-10-03T11:51:30Z</time>
      </trkpt>
      <trkpt lat="48.84543" lon="7.40297">
        <ele>265.498291</ele>
        <time>2010-10-03T11:51:36Z</time>
      </trkpt>
      <trkpt lat="48.84549" lon="7.4028">
        <ele>263.279541</ele>
        <time>2010-10-03T11:51:43Z</time>
      </trkpt>
      <trkpt lat="48.84553" lon="7.40273">
        <ele>262.873291</ele>
        <time>2010-10-03T11:51:46Z</time>
      </trkpt>
      <trkpt lat="48.84561" lon="7.40247">
        <ele>263.177979</ele>
        <time>2010-10-03T11:51:59Z</time>
      </trkpt>
      <trkpt lat="48.84566" lon="7.40242">
        <ele>263.818604</ele>
        <time>2010-10-03T11:52:02Z</time>
      </trkpt>
      <trkpt lat="48.84572" lon="7.40241">
        <ele>263.709229</ele>
        <time>2010-10-03T11:52:03Z</time>
      </trkpt>
      <trkpt lat="48.84576" lon="7.40238">
        <ele>266.631104</ele>
        <time>2010-10-03T11:52:09Z</time>
      </trkpt>
      <trkpt lat="48.84586" lon="7.40243">
        <ele>268.420166</ele>
        <time>2010-10-03T11:52:19Z</time>
      </trkpt>
      <trkpt lat="48.84599" lon="7.40259">
        <ele>271.217041</ele>
        <time>2010-10-03T11:52:29Z</time>
      </trkpt>
      <trkpt lat="48.84603" lon="7.40263">
        <ele>271.888916</ele>
        <time>2010-10-03T11:52:32Z</time>
      </trkpt>
      <trkpt lat="48.84606" lon="7.4027">
        <ele>272.724854</ele>
        <time>2010-10-03T11:52:36Z</time>
      </trkpt>
      <trkpt lat="48.84617" lon="7.40281">
        <ele>275.146729</ele>
        <time>2010-10-03T11:52:42Z</time>
      </trkpt>
      <trkpt lat="48.84626" lon="7.40301">
        <ele>276.834229</ele>
        <time>2010-10-03T11:52:51Z</time>
      </trkpt>
      <trkpt lat="48.84626" lon="7.40309">
        <ele>278.404541</ele>
        <time>2010-10-03T11:52:54Z</time>
      </trkpt>
      <trkpt lat="48.84628" lon="7.40316">
        <ele>279.779541</ele>
        <time>2010-10-03T11:52:57Z</time>
      </trkpt>
      <trkpt lat="48.84638" lon="7.40335">
        <ele>279.857666</ele>
        <time>2010-10-03T11:53:07Z</time>
      </trkpt>
      <trkpt lat="48.84642" lon="7.40339">
        <ele>280.513916</ele>
        <time>2010-10-03T11:53:10Z</time>
      </trkpt>
      <trkpt lat="48.84653" lon="7.4034">
        <ele>282.388916</ele>
        <time>2010-10-03T11:53:19Z</time>
      </trkpt>
      <trkpt lat="48.84663" lon="7.40337">
        <ele>283.990479</ele>
        <time>2010-10-03T11:53:26Z</time>
      </trkpt>
      <trkpt lat="48.84666" lon="7.40342">
        <ele>286.013916</ele>
        <time>2010-10-03T11:53:30Z</time>
      </trkpt>
      <trkpt lat="48.84668" lon="7.40349">
        <ele>287.763916</ele>
        <time>2010-10-03T11:53:33Z</time>
      </trkpt>
      <trkpt lat="48.84667" lon="7.40357">
        <ele>288.865479</ele>
        <time>2010-10-03T11:53:35Z</time>
      </trkpt>
      <trkpt lat="48.8467" lon="7.40373">
        <ele>292.521729</ele>
        <time>2010-10-03T11:53:40Z</time>
      </trkpt>
      <trkpt lat="48.84673" lon="7.4038">
        <ele>293.834229</ele>
        <time>2010-10-03T11:53:43Z</time>
      </trkpt>
      <trkpt lat="48.84675" lon="7.40398">
        <ele>295.560791</ele>
        <time>2010-10-03T11:53:47Z</time>
      </trkpt>
      <trkpt lat="48.84676" lon="7.40417">
        <ele>296.521729</ele>
        <time>2010-10-03T11:53:51Z</time>
      </trkpt>
      <trkpt lat="48.8468" lon="7.40436">
        <ele>300.592041</ele>
        <time>2010-10-03T11:53:55Z</time>
      </trkpt>
      <trkpt lat="48.84681" lon="7.40443">
        <ele>301.693604</ele>
        <time>2010-10-03T11:53:57Z</time>
      </trkpt>
      <trkpt lat="48.84686" lon="7.4045">
        <ele>302.927979</ele>
        <time>2010-10-03T11:53:59Z</time>
      </trkpt>
      <trkpt lat="48.84697" lon="7.4048">
        <ele>301.959229</ele>
        <time>2010-10-03T11:54:08Z</time>
      </trkpt>
      <trkpt lat="48.84704" lon="7.40489">
        <ele>303.138916</ele>
        <time>2010-10-03T11:54:13Z</time>
      </trkpt>
      <trkpt lat="48.84715" lon="7.40508">
        <ele>302.920166</ele>
        <time>2010-10-03T11:54:21Z</time>
      </trkpt>
      <trkpt lat="48.84726" lon="7.40516">
        <ele>303.857666</ele>
        <time>2010-10-03T11:54:27Z</time>
      </trkpt>
      <trkpt lat="48.84737" lon="7.40523">
        <ele>304.427979</ele>
        <time>2010-10-03T11:54:31Z</time>
      </trkpt>
      <trkpt lat="48.84742" lon="7.40525">
        <ele>305.545166</ele>
        <time>2010-10-03T11:54:32Z</time>
      </trkpt>
      <trkpt lat="48.84748" lon="7.40531">
        <ele>306.052979</ele>
        <time>2010-10-03T11:54:34Z</time>
      </trkpt>
      <trkpt lat="48.84755" lon="7.40535">
        <ele>306.287354</ele>
        <time>2010-10-03T11:54:36Z</time>
      </trkpt>
      <trkpt lat="48.8476" lon="7.40541">
        <ele>307.045166</ele>
        <time>2010-10-03T11:54:38Z</time>
      </trkpt>
      <trkpt lat="48.8477" lon="7.40546">
        <ele>307.638916</ele>
        <time>2010-10-03T11:54:42Z</time>
      </trkpt>
      <trkpt lat="48.84774" lon="7.4055">
        <ele>307.967041</ele>
        <time>2010-10-03T11:54:44Z</time>
      </trkpt>
      <trkpt lat="48.84779" lon="7.40553">
        <ele>308.287354</ele>
        <time>2010-10-03T11:54:46Z</time>
      </trkpt>
      <trkpt lat="48.84791" lon="7.40554">
        <ele>307.576416</ele>
        <time>2010-10-03T11:54:50Z</time>
      </trkpt>
      <trkpt lat="48.848" lon="7.40561">
        <ele>305.935791</ele>
        <time>2010-10-03T11:54:53Z</time>
      </trkpt>
      <trkpt lat="48.84809" lon="7.40573">
        <ele>304.506104</ele>
        <time>2010-10-03T11:54:56Z</time>
      </trkpt>
      <trkpt lat="48.84824" lon="7.40579">
        <ele>304.373291</ele>
        <time>2010-10-03T11:55:03Z</time>
      </trkpt>
      <trkpt lat="48.84865" lon="7.40598">
        <ele>302.349854</ele>
        <time>2010-10-03T11:55:16Z</time>
      </trkpt>
      <trkpt lat="48.84874" lon="7.406">
        <ele>301.271729</ele>
        <time>2010-10-03T11:55:17Z</time>
      </trkpt>
      <trkpt lat="48.8488" lon="7.40596">
        <ele>300.677979</ele>
        <time>2010-10-03T11:55:19Z</time>
      </trkpt>
      <trkpt lat="48.84889" lon="7.40575">
        <ele>300.271729</ele>
        <time>2010-10-03T11:55:23Z</time>
      </trkpt>
      <trkpt lat="48.84916" lon="7.40541">
        <ele>298.240479</ele>
        <time>2010-10-03T11:55:29Z</time>
      </trkpt>
      <trkpt lat="48.84926" lon="7.40534">
        <ele>297.599854</ele>
        <time>2010-10-03T11:55:30Z</time>
      </trkpt>
      <trkpt lat="48.84938" lon="7.40522">
        <ele>297.060791</ele>
        <time>2010-10-03T11:55:32Z</time>
      </trkpt>
      <trkpt lat="48.8495" lon="7.40516">
        <ele>295.943604</ele>
        <time>2010-10-03T11:55:34Z</time>
      </trkpt>
      <trkpt lat="48.84956" lon="7.40514">
        <ele>295.873291</ele>
        <time>2010-10-03T11:55:35Z</time>
      </trkpt>
      <trkpt lat="48.84984" lon="7.40498">
        <ele>293.310791</ele>
        <time>2010-10-03T11:55:40Z</time>
      </trkpt>
      <trkpt lat="48.84992" lon="7.40495">
        <ele>288.279541</ele>
        <time>2010-10-03T11:55:41Z</time>
      </trkpt>
      <trkpt lat="48.84998" lon="7.40496">
        <ele>285.763916</ele>
        <time>2010-10-03T11:55:42Z</time>
      </trkpt>
      <trkpt lat="48.85002" lon="7.40499">
        <ele>283.279541</ele>
        <time>2010-10-03T11:55:43Z</time>
      </trkpt>
      <trkpt lat="48.85009" lon="7.40509">
        <ele>278.029541</ele>
        <time>2010-10-03T11:55:45Z</time>
      </trkpt>
      <trkpt lat="48.85015" lon="7.40521">
        <ele>274.920166</ele>
        <time>2010-10-03T11:55:47Z</time>
      </trkpt>
      <trkpt lat="48.85036" lon="7.40554">
        <ele>266.576416</ele>
        <time>2010-10-03T11:55:53Z</time>
      </trkpt>
      <trkpt lat="48.85039" lon="7.4056">
        <ele>265.217041</ele>
        <time>2010-10-03T11:55:54Z</time>
      </trkpt>
      <trkpt lat="48.85042" lon="7.40566">
        <ele>264.654541</ele>
        <time>2010-10-03T11:55:55Z</time>
      </trkpt>
      <trkpt lat="48.85046" lon="7.40577">
        <ele>264.701416</ele>
        <time>2010-10-03T11:55:57Z</time>
      </trkpt>
      <trkpt lat="48.85049" lon="7.40588">
        <ele>264.646729</ele>
        <time>2010-10-03T11:55:59Z</time>
      </trkpt>
      <trkpt lat="48.85049" lon="7.40595">
        <ele>265.427979</ele>
        <time>2010-10-03T11:56:01Z</time>
      </trkpt>
      <trkpt lat="48.85052" lon="7.40609">
        <ele>265.006104</ele>
        <time>2010-10-03T11:56:03Z</time>
      </trkpt>
      <trkpt lat="48.85069" lon="7.40646">
        <ele>265.420166</ele>
        <time>2010-10-03T11:56:09Z</time>
      </trkpt>
      <trkpt lat="48.85074" lon="7.40653">
        <ele>264.248291</ele>
        <time>2010-10-03T11:56:10Z</time>
      </trkpt>
      <trkpt lat="48.85101" lon="7.40712">
        <ele>258.256104</ele>
        <time>2010-10-03T11:56:18Z</time>
      </trkpt>
      <trkpt lat="48.85111" lon="7.40738">
        <ele>256.224854</ele>
        <time>2010-10-03T11:56:21Z</time>
      </trkpt>
      <trkpt lat="48.85116" lon="7.40774">
        <ele>255.741333</ele>
        <time>2010-10-03T11:56:25Z</time>
      </trkpt>
      <trkpt lat="48.85128" lon="7.40812">
        <ele>254.323364</ele>
        <time>2010-10-03T11:56:29Z</time>
      </trkpt>
      <trkpt lat="48.85151" lon="7.40874">
        <ele>248.639771</ele>
        <time>2010-10-03T11:56:37Z</time>
      </trkpt>
      <trkpt lat="48.85156" lon="7.40892">
        <ele>246.944458</ele>
        <time>2010-10-03T11:56:40Z</time>
      </trkpt>
      <trkpt lat="48.8516" lon="7.40912">
        <ele>244.987427</ele>
        <time>2010-10-03T11:56:44Z</time>
      </trkpt>
      <trkpt lat="48.85161" lon="7.40922">
        <ele>243.686646</ele>
        <time>2010-10-03T11:56:46Z</time>
      </trkpt>
      <trkpt lat="48.85166" lon="7.40949">
        <ele>242.323364</ele>
        <time>2010-10-03T11:56:52Z</time>
      </trkpt>
      <trkpt lat="48.85171" lon="7.40955">
        <ele>241.846802</ele>
        <time>2010-10-03T11:56:54Z</time>
      </trkpt>
      <trkpt lat="48.85176" lon="7.40961">
        <ele>240.565552</ele>
        <time>2010-10-03T11:56:56Z</time>
      </trkpt>
      <trkpt lat="48.85189" lon="7.40971">
        <ele>237.467896</ele>
        <time>2010-10-03T11:57:00Z</time>
      </trkpt>
      <trkpt lat="48.85235" lon="7.41001">
        <ele>232.288208</ele>
        <time>2010-10-03T11:57:11Z</time>
      </trkpt>
      <trkpt lat="48.85244" lon="7.41009">
        <ele>234.260864</ele>
        <time>2010-10-03T11:57:13Z</time>
      </trkpt>
      <trkpt lat="48.85258" lon="7.41019">
        <ele>237.405396</ele>
        <time>2010-10-03T11:57:16Z</time>
      </trkpt>
      <trkpt lat="48.8529" lon="7.41033">
        <ele>232.210083</ele>
        <time>2010-10-03T11:57:23Z</time>
      </trkpt>
      <trkpt lat="48.85315" lon="7.41049">
        <ele>230.213989</ele>
        <time>2010-10-03T11:57:28Z</time>
      </trkpt>
      <trkpt lat="48.85342" lon="7.41067">
        <ele>228.553833</ele>
        <time>2010-10-03T11:57:33Z</time>
      </trkpt>
      <trkpt lat="48.85383" lon="7.41099">
        <ele>225.221802</ele>
        <time>2010-10-03T11:57:42Z</time>
      </trkpt>
      <trkpt lat="48.85391" lon="7.41107">
        <ele>225.713989</ele>
        <time>2010-10-03T11:57:44Z</time>
      </trkpt>
      <trkpt lat="48.85423" lon="7.41151">
        <ele>225.338989</ele>
        <time>2010-10-03T11:57:54Z</time>
      </trkpt>
      <trkpt lat="48.85434" lon="7.4117">
        <ele>224.780396</ele>
        <time>2010-10-03T11:58:01Z</time>
      </trkpt>
      <trkpt lat="48.85439" lon="7.41175">
        <ele>224.612427</ele>
        <time>2010-10-03T11:58:04Z</time>
      </trkpt>
      <trkpt lat="48.85444" lon="7.41173">
        <ele>224.807739</ele>
        <time>2010-10-03T11:58:06Z</time>
      </trkpt>
      <trkpt lat="48.85493" lon="7.41108">
        <ele>222.171021</ele>
        <time>2010-10-03T11:58:22Z</time>
      </trkpt>
      <trkpt lat="48.85501" lon="7.41091">
        <ele>221.651489</ele>
        <time>2010-10-03T11:58:25Z</time>
      </trkpt>
      <trkpt lat="48.85505" lon="7.41077">
        <ele>220.944458</ele>
        <time>2010-10-03T11:58:27Z</time>
      </trkpt>
      <trkpt lat="48.85508" lon="7.41063">
        <ele>220.069458</ele>
        <time>2010-10-03T11:58:29Z</time>
      </trkpt>
      <trkpt lat="48.8551" lon="7.41014">
        <ele>216.971802</ele>
        <time>2010-10-03T11:58:37Z</time>
      </trkpt>
      <trkpt lat="48.85517" lon="7.41006">
        <ele>216.612427</ele>
        <time>2010-10-03T11:58:39Z</time>
      </trkpt>
      <trkpt lat="48.85526" lon="7.41003">
        <ele>216.217896</ele>
        <time>2010-10-03T11:58:41Z</time>
      </trkpt>
      <trkpt lat="48.85556" lon="7.40999">
        <ele>215.249146</ele>
        <time>2010-10-03T11:58:48Z</time>
      </trkpt>
      <trkpt lat="48.85584" lon="7.40997">
        <ele>214.647583</ele>
        <time>2010-10-03T11:58:54Z</time>
      </trkpt>
      <trkpt lat="48.85627" lon="7.40991">
        <ele>214.522583</ele>
        <time>2010-10-03T11:59:03Z</time>
      </trkpt>
      <trkpt lat="48.85643" lon="7.40987">
        <ele>213.725708</ele>
        <time>2010-10-03T11:59:06Z</time>
      </trkpt>
      <trkpt lat="48.85651" lon="7.40983">
        <ele>213.796021</ele>
        <time>2010-10-03T11:59:08Z</time>
      </trkpt>
      <trkpt lat="48.85694" lon="7.40954">
        <ele>213.631958</ele>
        <time>2010-10-03T11:59:18Z</time>
      </trkpt>
      <trkpt lat="48.85709" lon="7.4095">
        <ele>212.600708</ele>
        <time>2010-10-03T11:59:21Z</time>
      </trkpt>
      <trkpt lat="48.85717" lon="7.40951">
        <ele>211.417114</ele>
        <time>2010-10-03T11:59:23Z</time>
      </trkpt>
      <trkpt lat="48.85727" lon="7.40957">
        <ele>211.303833</ele>
        <time>2010-10-03T11:59:25Z</time>
      </trkpt>
      <trkpt lat="48.85731" lon="7.40962">
        <ele>210.565552</ele>
        <time>2010-10-03T11:59:26Z</time>
      </trkpt>
      <trkpt lat="48.85734" lon="7.40968">
        <ele>210.749146</ele>
        <time>2010-10-03T11:59:27Z</time>
      </trkpt>
      <trkpt lat="48.85738" lon="7.40981">
        <ele>211.643677</ele>
        <time>2010-10-03T11:59:29Z</time>
      </trkpt>
      <trkpt lat="48.8574" lon="7.40994">
        <ele>212.643677</ele>
        <time>2010-10-03T11:59:31Z</time>
      </trkpt>
      <trkpt lat="48.8574" lon="7.41008">
        <ele>213.612427</ele>
        <time>2010-10-03T11:59:33Z</time>
      </trkpt>
      <trkpt lat="48.85738" lon="7.41021">
        <ele>213.202271</ele>
        <time>2010-10-03T11:59:35Z</time>
      </trkpt>
      <trkpt lat="48.85733" lon="7.41079">
        <ele>208.624146</ele>
        <time>2010-10-03T11:59:44Z</time>
      </trkpt>
      <trkpt lat="48.85733" lon="7.41114">
        <ele>210.194458</ele>
        <time>2010-10-03T11:59:49Z</time>
      </trkpt>
      <trkpt lat="48.85737" lon="7.41135">
        <ele>210.999146</ele>
        <time>2010-10-03T11:59:52Z</time>
      </trkpt>
      <trkpt lat="48.85749" lon="7.41171">
        <ele>211.053833</ele>
        <time>2010-10-03T11:59:58Z</time>
      </trkpt>
      <trkpt lat="48.85767" lon="7.4122">
        <ele>210.241333</ele>
        <time>2010-10-03T12:00:06Z</time>
      </trkpt>
      <trkpt lat="48.8578" lon="7.41259">
        <ele>210.909302</ele>
        <time>2010-10-03T12:00:12Z</time>
      </trkpt>
      <trkpt lat="48.85803" lon="7.41327">
        <ele>210.932739</ele>
        <time>2010-10-03T12:00:23Z</time>
      </trkpt>
      <trkpt lat="48.85809" lon="7.41337">
        <ele>210.815552</ele>
        <time>2010-10-03T12:00:25Z</time>
      </trkpt>
      <trkpt lat="48.85817" lon="7.41345">
        <ele>210.698364</ele>
        <time>2010-10-03T12:00:27Z</time>
      </trkpt>
      <trkpt lat="48.85838" lon="7.4136">
        <ele>212.397583</ele>
        <time>2010-10-03T12:00:33Z</time>
      </trkpt>
      <trkpt lat="48.85854" lon="7.41377">
        <ele>213.073364</ele>
        <time>2010-10-03T12:00:39Z</time>
      </trkpt>
      <trkpt lat="48.85868" lon="7.41385">
        <ele>212.796021</ele>
        <time>2010-10-03T12:00:43Z</time>
      </trkpt>
      <trkpt lat="48.85884" lon="7.41391">
        <ele>212.104614</ele>
        <time>2010-10-03T12:00:47Z</time>
      </trkpt>
      <trkpt lat="48.85893" lon="7.41393">
        <ele>211.866333</ele>
        <time>2010-10-03T12:00:49Z</time>
      </trkpt>
      <trkpt lat="48.85913" lon="7.41403">
        <ele>212.233521</ele>
        <time>2010-10-03T12:00:54Z</time>
      </trkpt>
      <trkpt lat="48.8592" lon="7.41409">
        <ele>212.104614</ele>
        <time>2010-10-03T12:00:56Z</time>
      </trkpt>
      <trkpt lat="48.85934" lon="7.41431">
        <ele>211.671021</ele>
        <time>2010-10-03T12:01:02Z</time>
      </trkpt>
      <trkpt lat="48.85944" lon="7.41444">
        <ele>212.069458</ele>
        <time>2010-10-03T12:01:06Z</time>
      </trkpt>
      <trkpt lat="48.85961" lon="7.41457">
        <ele>213.596802</ele>
        <time>2010-10-03T12:01:12Z</time>
      </trkpt>
      <trkpt lat="48.85966" lon="7.41464">
        <ele>214.124146</ele>
        <time>2010-10-03T12:01:14Z</time>
      </trkpt>
      <trkpt lat="48.85981" lon="7.41494">
        <ele>215.217896</ele>
        <time>2010-10-03T12:01:22Z</time>
      </trkpt>
      <trkpt lat="48.85985" lon="7.415">
        <ele>215.663208</ele>
        <time>2010-10-03T12:01:25Z</time>
      </trkpt>
      <trkpt lat="48.85991" lon="7.41515">
        <ele>215.467896</ele>
        <time>2010-10-03T12:01:29Z</time>
      </trkpt>
      <trkpt lat="48.85995" lon="7.41524">
        <ele>215.323364</ele>
        <time>2010-10-03T12:01:31Z</time>
      </trkpt>
      <trkpt lat="48.86001" lon="7.41528">
        <ele>215.628052</ele>
        <time>2010-10-03T12:01:33Z</time>
      </trkpt>
      <trkpt lat="48.86007" lon="7.41529">
        <ele>216.393677</ele>
        <time>2010-10-03T12:01:35Z</time>
      </trkpt>
      <trkpt lat="48.86013" lon="7.41527">
        <ele>216.538208</ele>
        <time>2010-10-03T12:01:37Z</time>
      </trkpt>
      <trkpt lat="48.86019" lon="7.41523">
        <ele>215.936646</ele>
        <time>2010-10-03T12:01:39Z</time>
      </trkpt>
      <trkpt lat="48.86029" lon="7.41523">
        <ele>216.674927</ele>
        <time>2010-10-03T12:01:44Z</time>
      </trkpt>
      <trkpt lat="48.86039" lon="7.41525">
        <ele>217.506958</ele>
        <time>2010-10-03T12:01:50Z</time>
      </trkpt>
      <trkpt lat="48.86043" lon="7.41522">
        <ele>218.042114</ele>
        <time>2010-10-03T12:01:53Z</time>
      </trkpt>
      <trkpt lat="48.8605" lon="7.41525">
        <ele>218.143677</ele>
        <time>2010-10-03T12:01:55Z</time>
      </trkpt>
      <trkpt lat="48.86055" lon="7.41523">
        <ele>219.292114</ele>
        <time>2010-10-03T12:01:58Z</time>
      </trkpt>
      <trkpt lat="48.86059" lon="7.41524">
        <ele>221.690552</ele>
        <time>2010-10-03T12:02:02Z</time>
      </trkpt>
      <trkpt lat="48.86068" lon="7.41521">
        <ele>227.432739</ele>
        <time>2010-10-03T12:02:13Z</time>
      </trkpt>
      <trkpt lat="48.86086" lon="7.41531">
        <ele>234.862427</ele>
        <time>2010-10-03T12:02:22Z</time>
      </trkpt>
      <trkpt lat="48.86095" lon="7.41534">
        <ele>241.741333</ele>
        <time>2010-10-03T12:02:30Z</time>
      </trkpt>
      <trkpt lat="48.86101" lon="7.41532">
        <ele>244.975708</ele>
        <time>2010-10-03T12:02:34Z</time>
      </trkpt>
      <trkpt lat="48.86124" lon="7.41541">
        <ele>253.713989</ele>
        <time>2010-10-03T12:02:46Z</time>
      </trkpt>
      <trkpt lat="48.86134" lon="7.41543">
        <ele>258.459229</ele>
        <time>2010-10-03T12:02:52Z</time>
      </trkpt>
      <trkpt lat="48.86139" lon="7.41548">
        <ele>260.310791</ele>
        <time>2010-10-03T12:02:54Z</time>
      </trkpt>
      <trkpt lat="48.86149" lon="7.41555">
        <ele>260.154541</ele>
        <time>2010-10-03T12:02:58Z</time>
      </trkpt>
      <trkpt lat="48.86156" lon="7.41562">
        <ele>255.678833</ele>
        <time>2010-10-03T12:03:00Z</time>
      </trkpt>
      <trkpt lat="48.8616" lon="7.41565">
        <ele>255.303833</ele>
        <time>2010-10-03T12:03:02Z</time>
      </trkpt>
      <trkpt lat="48.86183" lon="7.41561">
        <ele>257.045166</ele>
        <time>2010-10-03T12:03:12Z</time>
      </trkpt>
      <trkpt lat="48.86198" lon="7.41561">
        <ele>256.381104</ele>
        <time>2010-10-03T12:03:19Z</time>
      </trkpt>
      <trkpt lat="48.86205" lon="7.41558">
        <ele>255.506958</ele>
        <time>2010-10-03T12:03:21Z</time>
      </trkpt>
      <trkpt lat="48.86211" lon="7.41558">
        <ele>258.459229</ele>
        <time>2010-10-03T12:03:24Z</time>
      </trkpt>
      <trkpt lat="48.86217" lon="7.41556">
        <ele>259.857666</ele>
        <time>2010-10-03T12:03:28Z</time>
      </trkpt>
      <trkpt lat="48.86222" lon="7.41557">
        <ele>260.771729</ele>
        <time>2010-10-03T12:03:30Z</time>
      </trkpt>
      <trkpt lat="48.86233" lon="7.41562">
        <ele>261.302979</ele>
        <time>2010-10-03T12:03:36Z</time>
      </trkpt>
      <trkpt lat="48.86237" lon="7.41567">
        <ele>259.365479</ele>
        <time>2010-10-03T12:03:38Z</time>
      </trkpt>
      <trkpt lat="48.86243" lon="7.41568">
        <ele>259.912354</ele>
        <time>2010-10-03T12:03:41Z</time>
      </trkpt>
      <trkpt lat="48.86253" lon="7.41562">
        <ele>254.303833</ele>
        <time>2010-10-03T12:03:46Z</time>
      </trkpt>
      <trkpt lat="48.86266" lon="7.41568">
        <ele>253.944458</ele>
        <time>2010-10-03T12:03:50Z</time>
      </trkpt>
      <trkpt lat="48.86276" lon="7.41579">
        <ele>253.995239</ele>
        <time>2010-10-03T12:03:54Z</time>
      </trkpt>
      <trkpt lat="48.8628" lon="7.4158">
        <ele>254.128052</ele>
        <time>2010-10-03T12:03:56Z</time>
      </trkpt>
      <trkpt lat="48.86293" lon="7.4158">
        <ele>255.237427</ele>
        <time>2010-10-03T12:04:01Z</time>
      </trkpt>
      <trkpt lat="48.86315" lon="7.41578">
        <ele>257.381104</ele>
        <time>2010-10-03T12:04:10Z</time>
      </trkpt>
      <trkpt lat="48.86321" lon="7.41574">
        <ele>257.623291</ele>
        <time>2010-10-03T12:04:13Z</time>
      </trkpt>
      <trkpt lat="48.86328" lon="7.41559">
        <ele>257.521729</ele>
        <time>2010-10-03T12:04:20Z</time>
      </trkpt>
      <trkpt lat="48.8633" lon="7.41544">
        <ele>257.302979</ele>
        <time>2010-10-03T12:04:24Z</time>
      </trkpt>
      <trkpt lat="48.86334" lon="7.41537">
        <ele>257.115479</ele>
        <time>2010-10-03T12:04:27Z</time>
      </trkpt>
      <trkpt lat="48.86335" lon="7.4153">
        <ele>256.795166</ele>
        <time>2010-10-03T12:04:30Z</time>
      </trkpt>
      <trkpt lat="48.86338" lon="7.41524">
        <ele>256.974854</ele>
        <time>2010-10-03T12:04:33Z</time>
      </trkpt>
      <trkpt lat="48.86339" lon="7.41513">
        <ele>257.021729</ele>
        <time>2010-10-03T12:04:36Z</time>
      </trkpt>
      <trkpt lat="48.86342" lon="7.41507">
        <ele>256.717041</ele>
        <time>2010-10-03T12:04:40Z</time>
      </trkpt>
      <trkpt lat="48.86346" lon="7.41502">
        <ele>256.748291</ele>
        <time>2010-10-03T12:04:45Z</time>
      </trkpt>
      <trkpt lat="48.8635" lon="7.41501">
        <ele>256.818604</ele>
        <time>2010-10-03T12:04:59Z</time>
      </trkpt>
      <trkpt lat="48.86354" lon="7.41493">
        <ele>256.873291</ele>
        <time>2010-10-03T12:05:09Z</time>
      </trkpt>
      <trkpt lat="48.86358" lon="7.41488">
        <ele>257.107666</ele>
        <time>2010-10-03T12:05:12Z</time>
      </trkpt>
      <trkpt lat="48.86356" lon="7.4148">
        <ele>255.760864</ele>
        <time>2010-10-03T12:05:15Z</time>
      </trkpt>
      <trkpt lat="48.86356" lon="7.41473">
        <ele>255.921021</ele>
        <time>2010-10-03T12:05:18Z</time>
      </trkpt>
      <trkpt lat="48.86365" lon="7.41452">
        <ele>257.052979</ele>
        <time>2010-10-03T12:05:30Z</time>
      </trkpt>
      <trkpt lat="48.86372" lon="7.4144">
        <ele>256.451416</ele>
        <time>2010-10-03T12:05:37Z</time>
      </trkpt>
      <trkpt lat="48.86374" lon="7.41432">
        <ele>256.318604</ele>
        <time>2010-10-03T12:05:44Z</time>
      </trkpt>
      <trkpt lat="48.8638" lon="7.41432">
        <ele>256.506104</ele>
        <time>2010-10-03T12:05:47Z</time>
      </trkpt>
      <trkpt lat="48.86384" lon="7.41429">
        <ele>254.749146</ele>
        <time>2010-10-03T12:05:52Z</time>
      </trkpt>
      <trkpt lat="48.8639" lon="7.41419">
        <ele>255.003052</ele>
        <time>2010-10-03T12:06:02Z</time>
      </trkpt>
      <trkpt lat="48.86389" lon="7.41411">
        <ele>254.436646</ele>
        <time>2010-10-03T12:06:08Z</time>
      </trkpt>
      <trkpt lat="48.86393" lon="7.41405">
        <ele>253.077271</ele>
        <time>2010-10-03T12:06:15Z</time>
      </trkpt>
      <trkpt lat="48.86395" lon="7.41388">
        <ele>252.799927</ele>
        <time>2010-10-03T12:06:22Z</time>
      </trkpt>
      <trkpt lat="48.86399" lon="7.41386">
        <ele>252.745239</ele>
        <time>2010-10-03T12:06:24Z</time>
      </trkpt>
      <trkpt lat="48.86397" lon="7.4138">
        <ele>254.042114</ele>
        <time>2010-10-03T12:06:32Z</time>
      </trkpt>
      <trkpt lat="48.86398" lon="7.41373">
        <ele>256.912354</ele>
        <time>2010-10-03T12:06:53Z</time>
      </trkpt>
      <trkpt lat="48.86404" lon="7.41361">
        <ele>258.849854</ele>
        <time>2010-10-03T12:07:03Z</time>
      </trkpt>
      <trkpt lat="48.86411" lon="7.41342">
        <ele>264.748291</ele>
        <time>2010-10-03T12:07:18Z</time>
      </trkpt>
      <trkpt lat="48.86412" lon="7.41335">
        <ele>265.826416</ele>
        <time>2010-10-03T12:07:22Z</time>
      </trkpt>
      <trkpt lat="48.86416" lon="7.41327">
        <ele>267.201416</ele>
        <time>2010-10-03T12:07:26Z</time>
      </trkpt>
      <trkpt lat="48.86425" lon="7.41324">
        <ele>268.771729</ele>
        <time>2010-10-03T12:07:30Z</time>
      </trkpt>
      <trkpt lat="48.86429" lon="7.41319">
        <ele>270.435791</ele>
        <time>2010-10-03T12:07:35Z</time>
      </trkpt>
      <trkpt lat="48.86433" lon="7.41318">
        <ele>271.943604</ele>
        <time>2010-10-03T12:07:39Z</time>
      </trkpt>
      <trkpt lat="48.86438" lon="7.41305">
        <ele>273.756104</ele>
        <time>2010-10-03T12:07:44Z</time>
      </trkpt>
      <trkpt lat="48.86448" lon="7.41299">
        <ele>276.756104</ele>
        <time>2010-10-03T12:07:53Z</time>
      </trkpt>
      <trkpt lat="48.86452" lon="7.41294">
        <ele>278.943604</ele>
        <time>2010-10-03T12:07:58Z</time>
      </trkpt>
      <trkpt lat="48.86455" lon="7.41287">
        <ele>280.295166</ele>
        <time>2010-10-03T12:08:02Z</time>
      </trkpt>
      <trkpt lat="48.8647" lon="7.41267">
        <ele>287.302979</ele>
        <time>2010-10-03T12:08:20Z</time>
      </trkpt>
      <trkpt lat="48.86479" lon="7.41264">
        <ele>291.396729</ele>
        <time>2010-10-03T12:08:28Z</time>
      </trkpt>
      <trkpt lat="48.86478" lon="7.41255">
        <ele>294.076416</ele>
        <time>2010-10-03T12:08:34Z</time>
      </trkpt>
      <trkpt lat="48.86482" lon="7.4125">
        <ele>296.060791</ele>
        <time>2010-10-03T12:08:48Z</time>
      </trkpt>
      <trkpt lat="48.86483" lon="7.41233">
        <ele>298.357666</ele>
        <time>2010-10-03T12:08:58Z</time>
      </trkpt>
      <trkpt lat="48.86494" lon="7.41225">
        <ele>299.045166</ele>
        <time>2010-10-03T12:09:05Z</time>
      </trkpt>
      <trkpt lat="48.86507" lon="7.41212">
        <ele>301.545166</ele>
        <time>2010-10-03T12:09:20Z</time>
      </trkpt>
      <trkpt lat="48.8651" lon="7.41206">
        <ele>302.310791</ele>
        <time>2010-10-03T12:09:23Z</time>
      </trkpt>
      <trkpt lat="48.86522" lon="7.41204">
        <ele>304.506104</ele>
        <time>2010-10-03T12:09:39Z</time>
      </trkpt>
      <trkpt lat="48.86526" lon="7.41199">
        <ele>305.599854</ele>
        <time>2010-10-03T12:09:44Z</time>
      </trkpt>
      <trkpt lat="48.86531" lon="7.41195">
        <ele>306.756104</ele>
        <time>2010-10-03T12:09:49Z</time>
      </trkpt>
      <trkpt lat="48.86536" lon="7.41195">
        <ele>307.146729</ele>
        <time>2010-10-03T12:09:51Z</time>
      </trkpt>
      <trkpt lat="48.8654" lon="7.41191">
        <ele>307.826416</ele>
        <time>2010-10-03T12:10:00Z</time>
      </trkpt>
      <trkpt lat="48.86541" lon="7.41183">
        <ele>309.271729</ele>
        <time>2010-10-03T12:10:04Z</time>
      </trkpt>
      <trkpt lat="48.8655" lon="7.41176">
        <ele>311.709229</ele>
        <time>2010-10-03T12:10:16Z</time>
      </trkpt>
      <trkpt lat="48.86554" lon="7.41176">
        <ele>313.521729</ele>
        <time>2010-10-03T12:10:22Z</time>
      </trkpt>
      <trkpt lat="48.86558" lon="7.41172">
        <ele>314.373291</ele>
        <time>2010-10-03T12:10:27Z</time>
      </trkpt>
      <trkpt lat="48.86562" lon="7.41162">
        <ele>311.967041</ele>
        <time>2010-10-03T12:10:59Z</time>
      </trkpt>
      <trkpt lat="48.86572" lon="7.4117">
        <ele>312.599854</ele>
        <time>2010-10-03T12:12:25Z</time>
      </trkpt>
      <trkpt lat="48.86575" lon="7.41166">
        <ele>315.896729</ele>
        <time>2010-10-03T12:13:02Z</time>
      </trkpt>
      <trkpt lat="48.86582" lon="7.41176">
        <ele>315.763916</ele>
        <time>2010-10-03T12:13:59Z</time>
      </trkpt>
      <trkpt lat="48.86596" lon="7.41182">
        <ele>320.232666</ele>
        <time>2010-10-03T12:14:27Z</time>
      </trkpt>
      <trkpt lat="48.86618" lon="7.41199">
        <ele>330.717041</ele>
        <time>2010-10-03T12:15:04Z</time>
      </trkpt>
      <trkpt lat="48.86622" lon="7.41196">
        <ele>333.209229</ele>
        <time>2010-10-03T12:15:12Z</time>
      </trkpt>
      <trkpt lat="48.86633" lon="7.41195">
        <ele>335.638916</ele>
        <time>2010-10-03T12:15:25Z</time>
      </trkpt>
      <trkpt lat="48.86634" lon="7.41188">
        <ele>338.092041</ele>
        <time>2010-10-03T12:15:33Z</time>
      </trkpt>
      <trkpt lat="48.86639" lon="7.41187">
        <ele>339.787354</ele>
        <time>2010-10-03T12:15:39Z</time>
      </trkpt>
      <trkpt lat="48.86648" lon="7.41187">
        <ele>343.209229</ele>
        <time>2010-10-03T12:15:52Z</time>
      </trkpt>
      <trkpt lat="48.86649" lon="7.41181">
        <ele>345.599854</ele>
        <time>2010-10-03T12:15:57Z</time>
      </trkpt>
      <trkpt lat="48.86657" lon="7.41174">
        <ele>348.490479</ele>
        <time>2010-10-03T12:16:09Z</time>
      </trkpt>
      <trkpt lat="48.86664" lon="7.41165">
        <ele>350.982666</ele>
        <time>2010-10-03T12:16:21Z</time>
      </trkpt>
      <trkpt lat="48.86667" lon="7.4116">
        <ele>352.654541</ele>
        <time>2010-10-03T12:16:31Z</time>
      </trkpt>
      <trkpt lat="48.86678" lon="7.41158">
        <ele>353.467041</ele>
        <time>2010-10-03T12:16:39Z</time>
      </trkpt>
      <trkpt lat="48.86683" lon="7.41159">
        <ele>352.490479</ele>
        <time>2010-10-03T12:16:48Z</time>
      </trkpt>
      <trkpt lat="48.86684" lon="7.41153">
        <ele>352.013916</ele>
        <time>2010-10-03T12:17:06Z</time>
      </trkpt>
      <trkpt lat="48.86703" lon="7.41145">
        <ele>354.045166</ele>
        <time>2010-10-03T12:17:27Z</time>
      </trkpt>
      <trkpt lat="48.86707" lon="7.41141">
        <ele>354.342041</ele>
        <time>2010-10-03T12:17:30Z</time>
      </trkpt>
      <trkpt lat="48.86712" lon="7.4114">
        <ele>351.724854</ele>
        <time>2010-10-03T12:17:33Z</time>
      </trkpt>
      <trkpt lat="48.86716" lon="7.41137">
        <ele>349.638916</ele>
        <time>2010-10-03T12:17:38Z</time>
      </trkpt>
      <trkpt lat="48.86721" lon="7.41136">
        <ele>348.287354</ele>
        <time>2010-10-03T12:17:41Z</time>
      </trkpt>
      <trkpt lat="48.86736" lon="7.41123">
        <ele>346.756104</ele>
        <time>2010-10-03T12:17:57Z</time>
      </trkpt>
      <trkpt lat="48.86741" lon="7.41123">
        <ele>346.420166</ele>
        <time>2010-10-03T12:18:00Z</time>
      </trkpt>
      <trkpt lat="48.86751" lon="7.41123">
        <ele>348.576416</ele>
        <time>2010-10-03T12:18:07Z</time>
      </trkpt>
      <trkpt lat="48.86773" lon="7.41132">
        <ele>357.967041</ele>
        <time>2010-10-03T12:18:25Z</time>
      </trkpt>
      <trkpt lat="48.86789" lon="7.41149">
        <ele>361.217041</ele>
        <time>2010-10-03T12:18:35Z</time>
      </trkpt>
      <trkpt lat="48.86799" lon="7.41154">
        <ele>361.490479</ele>
        <time>2010-10-03T12:18:41Z</time>
      </trkpt>
      <trkpt lat="48.86803" lon="7.41159">
        <ele>362.224854</ele>
        <time>2010-10-03T12:18:45Z</time>
      </trkpt>
      <trkpt lat="48.86834" lon="7.41173">
        <ele>357.529541</ele>
        <time>2010-10-03T12:18:55Z</time>
      </trkpt>
      <trkpt lat="48.86839" lon="7.41178">
        <ele>356.045166</ele>
        <time>2010-10-03T12:18:56Z</time>
      </trkpt>
      <trkpt lat="48.86847" lon="7.41183">
        <ele>353.459229</ele>
        <time>2010-10-03T12:18:59Z</time>
      </trkpt>
      <trkpt lat="48.86853" lon="7.41184">
        <ele>351.592041</ele>
        <time>2010-10-03T12:19:01Z</time>
      </trkpt>
      <trkpt lat="48.86863" lon="7.41193">
        <ele>351.459229</ele>
        <time>2010-10-03T12:19:08Z</time>
      </trkpt>
      <trkpt lat="48.86869" lon="7.41204">
        <ele>351.271729</ele>
        <time>2010-10-03T12:19:13Z</time>
      </trkpt>
      <trkpt lat="48.86883" lon="7.41207">
        <ele>349.552979</ele>
        <time>2010-10-03T12:19:19Z</time>
      </trkpt>
      <trkpt lat="48.86884" lon="7.41209">
        <ele>344.756104</ele>
        <time>2010-10-03T12:19:20Z</time>
      </trkpt>
      <trkpt lat="48.86894" lon="7.41214">
        <ele>340.904541</ele>
        <time>2010-10-03T12:19:23Z</time>
      </trkpt>
      <trkpt lat="48.86899" lon="7.41215">
        <ele>338.873291</ele>
        <time>2010-10-03T12:19:25Z</time>
      </trkpt>
      <trkpt lat="48.86914" lon="7.41227">
        <ele>331.771729</ele>
        <time>2010-10-03T12:19:32Z</time>
      </trkpt>
      <trkpt lat="48.86923" lon="7.41232">
        <ele>328.295166</ele>
        <time>2010-10-03T12:19:36Z</time>
      </trkpt>
      <trkpt lat="48.86936" lon="7.41248">
        <ele>323.123291</ele>
        <time>2010-10-03T12:19:42Z</time>
      </trkpt>
      <trkpt lat="48.86939" lon="7.41254">
        <ele>322.209229</ele>
        <time>2010-10-03T12:19:44Z</time>
      </trkpt>
      <trkpt lat="48.86943" lon="7.41259">
        <ele>320.982666</ele>
        <time>2010-10-03T12:19:46Z</time>
      </trkpt>
      <trkpt lat="48.86951" lon="7.41275">
        <ele>316.927979</ele>
        <time>2010-10-03T12:19:50Z</time>
      </trkpt>
      <trkpt lat="48.86953" lon="7.41284">
        <ele>315.545166</ele>
        <time>2010-10-03T12:19:52Z</time>
      </trkpt>
      <trkpt lat="48.86966" lon="7.41298">
        <ele>313.857666</ele>
        <time>2010-10-03T12:19:55Z</time>
      </trkpt>
      <trkpt lat="48.86979" lon="7.41321">
        <ele>309.201416</ele>
        <time>2010-10-03T12:20:02Z</time>
      </trkpt>
      <trkpt lat="48.86989" lon="7.41343">
        <ele>308.677979</ele>
        <time>2010-10-03T12:20:06Z</time>
      </trkpt>
      <trkpt lat="48.87" lon="7.41362">
        <ele>301.201416</ele>
        <time>2010-10-03T12:20:13Z</time>
      </trkpt>
      <trkpt lat="48.87003" lon="7.41368">
        <ele>299.802979</ele>
        <time>2010-10-03T12:20:15Z</time>
      </trkpt>
      <trkpt lat="48.87004" lon="7.41375">
        <ele>298.349854</ele>
        <time>2010-10-03T12:20:19Z</time>
      </trkpt>
      <trkpt lat="48.87006" lon="7.41381">
        <ele>298.974854</ele>
        <time>2010-10-03T12:20:38Z</time>
      </trkpt>
      <trkpt lat="48.87011" lon="7.41385">
        <ele>298.631104</ele>
        <time>2010-10-03T12:20:43Z</time>
      </trkpt>
      <trkpt lat="48.87017" lon="7.41397">
        <ele>297.732666</ele>
        <time>2010-10-03T12:20:49Z</time>
      </trkpt>
      <trkpt lat="48.87026" lon="7.41407">
        <ele>297.092041</ele>
        <time>2010-10-03T12:20:53Z</time>
      </trkpt>
      <trkpt lat="48.8703" lon="7.41414">
        <ele>297.646729</ele>
        <time>2010-10-03T12:20:56Z</time>
      </trkpt>
      <trkpt lat="48.8704" lon="7.41423">
        <ele>296.506104</ele>
        <time>2010-10-03T12:21:11Z</time>
      </trkpt>
      <trkpt lat="48.87044" lon="7.41431">
        <ele>296.045166</ele>
        <time>2010-10-03T12:21:13Z</time>
      </trkpt>
      <trkpt lat="48.87074" lon="7.41469">
        <ele>290.560791</ele>
        <time>2010-10-03T12:21:23Z</time>
      </trkpt>
      <trkpt lat="48.8709" lon="7.41483">
        <ele>289.287354</ele>
        <time>2010-10-03T12:21:26Z</time>
      </trkpt>
      <trkpt lat="48.87107" lon="7.41502">
        <ele>288.607666</ele>
        <time>2010-10-03T12:21:32Z</time>
      </trkpt>
      <trkpt lat="48.87111" lon="7.4151">
        <ele>288.631104</ele>
        <time>2010-10-03T12:21:35Z</time>
      </trkpt>
      <trkpt lat="48.87117" lon="7.41513">
        <ele>288.568604</ele>
        <time>2010-10-03T12:21:37Z</time>
      </trkpt>
      <trkpt lat="48.87125" lon="7.41523">
        <ele>287.881104</ele>
        <time>2010-10-03T12:21:39Z</time>
      </trkpt>
      <trkpt lat="48.87133" lon="7.41531">
        <ele>288.318604</ele>
        <time>2010-10-03T12:21:41Z</time>
      </trkpt>
      <trkpt lat="48.87138" lon="7.41534">
        <ele>288.529541</ele>
        <time>2010-10-03T12:21:42Z</time>
      </trkpt>
      <trkpt lat="48.87164" lon="7.4156">
        <ele>287.935791</ele>
        <time>2010-10-03T12:21:48Z</time>
      </trkpt>
      <trkpt lat="48.8717" lon="7.41562">
        <ele>288.115479</ele>
        <time>2010-10-03T12:21:49Z</time>
      </trkpt>
      <trkpt lat="48.87188" lon="7.41582">
        <ele>286.982666</ele>
        <time>2010-10-03T12:21:52Z</time>
      </trkpt>
      <trkpt lat="48.87193" lon="7.41585">
        <ele>287.084229</ele>
        <time>2010-10-03T12:21:53Z</time>
      </trkpt>
      <trkpt lat="48.87206" lon="7.41599">
        <ele>284.802979</ele>
        <time>2010-10-03T12:21:55Z</time>
      </trkpt>
      <trkpt lat="48.87221" lon="7.41601">
        <ele>284.349854</ele>
        <time>2010-10-03T12:21:57Z</time>
      </trkpt>
      <trkpt lat="48.87233" lon="7.41606">
        <ele>283.662354</ele>
        <time>2010-10-03T12:21:59Z</time>
      </trkpt>
      <trkpt lat="48.87246" lon="7.41605">
        <ele>284.092041</ele>
        <time>2010-10-03T12:22:01Z</time>
      </trkpt>
      <trkpt lat="48.87265" lon="7.4161">
        <ele>278.756104</ele>
        <time>2010-10-03T12:22:05Z</time>
      </trkpt>
      <trkpt lat="48.87279" lon="7.41616">
        <ele>277.927979</ele>
        <time>2010-10-03T12:22:09Z</time>
      </trkpt>
      <trkpt lat="48.87292" lon="7.41617">
        <ele>277.560791</ele>
        <time>2010-10-03T12:22:12Z</time>
      </trkpt>
      <trkpt lat="48.87301" lon="7.41616">
        <ele>277.537354</ele>
        <time>2010-10-03T12:22:13Z</time>
      </trkpt>
      <trkpt lat="48.87308" lon="7.41618">
        <ele>275.834229</ele>
        <time>2010-10-03T12:22:14Z</time>
      </trkpt>
      <trkpt lat="48.87312" lon="7.41621">
        <ele>275.029541</ele>
        <time>2010-10-03T12:22:15Z</time>
      </trkpt>
      <trkpt lat="48.8733" lon="7.4162">
        <ele>274.138916</ele>
        <time>2010-10-03T12:22:18Z</time>
      </trkpt>
      <trkpt lat="48.87339" lon="7.41623">
        <ele>273.467041</ele>
        <time>2010-10-03T12:22:20Z</time>
      </trkpt>
      <trkpt lat="48.87351" lon="7.4162">
        <ele>272.529541</ele>
        <time>2010-10-03T12:22:23Z</time>
      </trkpt>
      <trkpt lat="48.87363" lon="7.41619">
        <ele>269.717041</ele>
        <time>2010-10-03T12:22:27Z</time>
      </trkpt>
      <trkpt lat="48.87365" lon="7.41611">
        <ele>268.318604</ele>
        <time>2010-10-03T12:22:28Z</time>
      </trkpt>
      <trkpt lat="48.87397" lon="7.41582">
        <ele>265.279541</ele>
        <time>2010-10-03T12:22:38Z</time>
      </trkpt>
      <trkpt lat="48.87402" lon="7.41579">
        <ele>264.771729</ele>
        <time>2010-10-03T12:22:39Z</time>
      </trkpt>
      <trkpt lat="48.87408" lon="7.41573">
        <ele>263.927979</ele>
        <time>2010-10-03T12:22:40Z</time>
      </trkpt>
      <trkpt lat="48.87416" lon="7.41568">
        <ele>261.826416</ele>
        <time>2010-10-03T12:22:41Z</time>
      </trkpt>
      <trkpt lat="48.87421" lon="7.41563">
        <ele>261.123291</ele>
        <time>2010-10-03T12:22:42Z</time>
      </trkpt>
      <trkpt lat="48.87432" lon="7.41559">
        <ele>260.607666</ele>
        <time>2010-10-03T12:22:44Z</time>
      </trkpt>
      <trkpt lat="48.87445" lon="7.41555">
        <ele>258.615479</ele>
        <time>2010-10-03T12:22:47Z</time>
      </trkpt>
      <trkpt lat="48.87468" lon="7.41553">
        <ele>258.115479</ele>
        <time>2010-10-03T12:22:52Z</time>
      </trkpt>
      <trkpt lat="48.87474" lon="7.41558">
        <ele>257.318604</ele>
        <time>2010-10-03T12:22:54Z</time>
      </trkpt>
      <trkpt lat="48.87479" lon="7.41561">
        <ele>257.787354</ele>
        <time>2010-10-03T12:22:55Z</time>
      </trkpt>
      <trkpt lat="48.87489" lon="7.41572">
        <ele>256.959229</ele>
        <time>2010-10-03T12:23:00Z</time>
      </trkpt>
      <trkpt lat="48.87492" lon="7.41577">
        <ele>258.513916</ele>
        <time>2010-10-03T12:23:05Z</time>
      </trkpt>
      <trkpt lat="48.87489" lon="7.41585">
        <ele>260.060791</ele>
        <time>2010-10-03T12:23:10Z</time>
      </trkpt>
      <trkpt lat="48.87488" lon="7.41594">
        <ele>259.920166</ele>
        <time>2010-10-03T12:23:12Z</time>
      </trkpt>
      <trkpt lat="48.87491" lon="7.41601">
        <ele>258.646729</ele>
        <time>2010-10-03T12:23:13Z</time>
      </trkpt>
      <trkpt lat="48.87495" lon="7.41606">
        <ele>257.006104</ele>
        <time>2010-10-03T12:23:14Z</time>
      </trkpt>
      <trkpt lat="48.87503" lon="7.41612">
        <ele>253.881958</ele>
        <time>2010-10-03T12:23:16Z</time>
      </trkpt>
      <trkpt lat="48.87516" lon="7.41617">
        <ele>250.338989</ele>
        <time>2010-10-03T12:23:20Z</time>
      </trkpt>
      <trkpt lat="48.87521" lon="7.41613">
        <ele>248.413208</ele>
        <time>2010-10-03T12:23:23Z</time>
      </trkpt>
      <trkpt lat="48.87527" lon="7.41613">
        <ele>244.616333</ele>
        <time>2010-10-03T12:23:25Z</time>
      </trkpt>
      <trkpt lat="48.87535" lon="7.41617">
        <ele>243.272583</ele>
        <time>2010-10-03T12:23:27Z</time>
      </trkpt>
      <trkpt lat="48.8755" lon="7.41621">
        <ele>240.944458</ele>
        <time>2010-10-03T12:23:30Z</time>
      </trkpt>
      <trkpt lat="48.87578" lon="7.41625">
        <ele>236.010864</ele>
        <time>2010-10-03T12:23:36Z</time>
      </trkpt>
      <trkpt lat="48.87604" lon="7.41637">
        <ele>231.838989</ele>
        <time>2010-10-03T12:23:41Z</time>
      </trkpt>
      <trkpt lat="48.87616" lon="7.41638">
        <ele>230.237427</ele>
        <time>2010-10-03T12:23:44Z</time>
      </trkpt>
      <trkpt lat="48.87623" lon="7.41641">
        <ele>228.897583</ele>
        <time>2010-10-03T12:23:47Z</time>
      </trkpt>
      <trkpt lat="48.87626" lon="7.4165">
        <ele>228.424927</ele>
        <time>2010-10-03T12:23:49Z</time>
      </trkpt>
      <trkpt lat="48.87631" lon="7.41676">
        <ele>227.249146</ele>
        <time>2010-10-03T12:23:53Z</time>
      </trkpt>
      <trkpt lat="48.8764" lon="7.41692">
        <ele>225.467896</ele>
        <time>2010-10-03T12:23:56Z</time>
      </trkpt>
      <trkpt lat="48.87647" lon="7.41698">
        <ele>223.436646</ele>
        <time>2010-10-03T12:23:58Z</time>
      </trkpt>
      <trkpt lat="48.87664" lon="7.41708">
        <ele>221.483521</ele>
        <time>2010-10-03T12:24:02Z</time>
      </trkpt>
      <trkpt lat="48.87681" lon="7.41714">
        <ele>220.296021</ele>
        <time>2010-10-03T12:24:06Z</time>
      </trkpt>
      <trkpt lat="48.87688" lon="7.41722">
        <ele>220.741333</ele>
        <time>2010-10-03T12:24:11Z</time>
      </trkpt>
      <trkpt lat="48.87686" lon="7.41722">
        <ele>225.628052</ele>
        <time>2010-10-03T12:24:17Z</time>
      </trkpt>
      <trkpt lat="48.87682" lon="7.41727">
        <ele>226.592896</ele>
        <time>2010-10-03T12:24:45Z</time>
      </trkpt>
      <trkpt lat="48.87683" lon="7.41733">
        <ele>225.139771</ele>
        <time>2010-10-03T12:25:12Z</time>
      </trkpt>
      <trkpt lat="48.87683" lon="7.41728">
        <ele>221.538208</ele>
        <time>2010-10-03T12:27:09Z</time>
      </trkpt>
      <trkpt lat="48.87689" lon="7.41725">
        <ele>220.202271</ele>
        <time>2010-10-03T12:27:41Z</time>
      </trkpt>
      <trkpt lat="48.87693" lon="7.41722">
        <ele>220.276489</ele>
        <time>2010-10-03T12:27:43Z</time>
      </trkpt>
      <trkpt lat="48.87698" lon="7.41716">
        <ele>219.928833</ele>
        <time>2010-10-03T12:27:45Z</time>
      </trkpt>
      <trkpt lat="48.87701" lon="7.41708">
        <ele>218.780396</ele>
        <time>2010-10-03T12:27:47Z</time>
      </trkpt>
      <trkpt lat="48.87707" lon="7.41689">
        <ele>208.756958</ele>
        <time>2010-10-03T12:27:51Z</time>
      </trkpt>
      <trkpt lat="48.87715" lon="7.41671">
        <ele>207.171021</ele>
        <time>2010-10-03T12:27:54Z</time>
      </trkpt>
      <trkpt lat="48.87749" lon="7.41608">
        <ele>204.163208</ele>
        <time>2010-10-03T12:28:06Z</time>
      </trkpt>
      <trkpt lat="48.87761" lon="7.41593">
        <ele>202.643677</ele>
        <time>2010-10-03T12:28:12Z</time>
      </trkpt>
      <trkpt lat="48.87764" lon="7.41587">
        <ele>202.530396</ele>
        <time>2010-10-03T12:28:14Z</time>
      </trkpt>
      <trkpt lat="48.87768" lon="7.41572">
        <ele>202.190552</ele>
        <time>2010-10-03T12:28:18Z</time>
      </trkpt>
      <trkpt lat="48.87781" lon="7.41561">
        <ele>199.764771</ele>
        <time>2010-10-03T12:28:22Z</time>
      </trkpt>
      <trkpt lat="48.87804" lon="7.41549">
        <ele>197.725708</ele>
        <time>2010-10-03T12:28:28Z</time>
      </trkpt>
      <trkpt lat="48.87825" lon="7.4153">
        <ele>198.456177</ele>
        <time>2010-10-03T12:28:32Z</time>
      </trkpt>
      <trkpt lat="48.87829" lon="7.41523">
        <ele>198.487427</ele>
        <time>2010-10-03T12:28:33Z</time>
      </trkpt>
      <trkpt lat="48.8784" lon="7.415">
        <ele>197.780396</ele>
        <time>2010-10-03T12:28:36Z</time>
      </trkpt>
      <trkpt lat="48.8786" lon="7.41438">
        <ele>198.483521</ele>
        <time>2010-10-03T12:28:43Z</time>
      </trkpt>
      <trkpt lat="48.87867" lon="7.41423">
        <ele>198.417114</ele>
        <time>2010-10-03T12:28:45Z</time>
      </trkpt>
      <trkpt lat="48.87884" lon="7.414">
        <ele>198.495239</ele>
        <time>2010-10-03T12:28:49Z</time>
      </trkpt>
      <trkpt lat="48.8789" lon="7.41387">
        <ele>198.557739</ele>
        <time>2010-10-03T12:28:51Z</time>
      </trkpt>
      <trkpt lat="48.87894" lon="7.41371">
        <ele>199.241333</ele>
        <time>2010-10-03T12:28:53Z</time>
      </trkpt>
      <trkpt lat="48.87896" lon="7.41355">
        <ele>199.960083</ele>
        <time>2010-10-03T12:28:55Z</time>
      </trkpt>
      <trkpt lat="48.87897" lon="7.41341">
        <ele>200.506958</ele>
        <time>2010-10-03T12:28:57Z</time>
      </trkpt>
      <trkpt lat="48.87904" lon="7.41307">
        <ele>202.651489</ele>
        <time>2010-10-03T12:29:03Z</time>
      </trkpt>
      <trkpt lat="48.87904" lon="7.41301">
        <ele>203.760864</ele>
        <time>2010-10-03T12:29:05Z</time>
      </trkpt>
      <trkpt lat="48.87899" lon="7.41287">
        <ele>205.538208</ele>
        <time>2010-10-03T12:29:11Z</time>
      </trkpt>
      <trkpt lat="48.87893" lon="7.41273">
        <ele>207.530396</ele>
        <time>2010-10-03T12:29:17Z</time>
      </trkpt>
      <trkpt lat="48.87886" lon="7.41252">
        <ele>210.178833</ele>
        <time>2010-10-03T12:29:26Z</time>
      </trkpt>
      <trkpt lat="48.87884" lon="7.41237">
        <ele>211.104614</ele>
        <time>2010-10-03T12:29:32Z</time>
      </trkpt>
      <trkpt lat="48.87884" lon="7.41221">
        <ele>212.092896</ele>
        <time>2010-10-03T12:29:40Z</time>
      </trkpt>
      <trkpt lat="48.87883" lon="7.41212">
        <ele>213.378052</ele>
        <time>2010-10-03T12:29:44Z</time>
      </trkpt>
      <trkpt lat="48.8788" lon="7.41205">
        <ele>213.725708</ele>
        <time>2010-10-03T12:29:47Z</time>
      </trkpt>
      <trkpt lat="48.87881" lon="7.41181">
        <ele>216.960083</ele>
        <time>2010-10-03T12:29:56Z</time>
      </trkpt>
      <trkpt lat="48.87881" lon="7.41165">
        <ele>218.362427</ele>
        <time>2010-10-03T12:30:03Z</time>
      </trkpt>
      <trkpt lat="48.8788" lon="7.41157">
        <ele>218.745239</ele>
        <time>2010-10-03T12:30:06Z</time>
      </trkpt>
      <trkpt lat="48.87877" lon="7.41149">
        <ele>219.139771</ele>
        <time>2010-10-03T12:30:09Z</time>
      </trkpt>
      <trkpt lat="48.87874" lon="7.41141">
        <ele>219.803833</ele>
        <time>2010-10-03T12:30:12Z</time>
      </trkpt>
      <trkpt lat="48.8784" lon="7.41094">
        <ele>219.924927</ele>
        <time>2010-10-03T12:30:27Z</time>
      </trkpt>
      <trkpt lat="48.87836" lon="7.41084">
        <ele>219.522583</ele>
        <time>2010-10-03T12:30:29Z</time>
      </trkpt>
      <trkpt lat="48.87832" lon="7.41063">
        <ele>218.952271</ele>
        <time>2010-10-03T12:30:32Z</time>
      </trkpt>
      <trkpt lat="48.8783" lon="7.41048">
        <ele>218.530396</ele>
        <time>2010-10-03T12:30:34Z</time>
      </trkpt>
      <trkpt lat="48.8783" lon="7.41033">
        <ele>218.108521</ele>
        <time>2010-10-03T12:30:36Z</time>
      </trkpt>
      <trkpt lat="48.87833" lon="7.41009">
        <ele>218.276489</ele>
        <time>2010-10-03T12:30:39Z</time>
      </trkpt>
      <trkpt lat="48.87837" lon="7.40982">
        <ele>218.503052</ele>
        <time>2010-10-03T12:30:42Z</time>
      </trkpt>
      <trkpt lat="48.87846" lon="7.40917">
        <ele>219.573364</ele>
        <time>2010-10-03T12:30:50Z</time>
      </trkpt>
      <trkpt lat="48.87849" lon="7.40902">
        <ele>220.319458</ele>
        <time>2010-10-03T12:30:52Z</time>
      </trkpt>
      <trkpt lat="48.87852" lon="7.40895">
        <ele>220.491333</ele>
        <time>2010-10-03T12:30:53Z</time>
      </trkpt>
      <trkpt lat="48.87855" lon="7.40891">
        <ele>220.034302</ele>
        <time>2010-10-03T12:30:54Z</time>
      </trkpt>
      <trkpt lat="48.87862" lon="7.40888">
        <ele>219.921021</ele>
        <time>2010-10-03T12:30:56Z</time>
      </trkpt>
      <trkpt lat="48.87868" lon="7.40892">
        <ele>220.104614</ele>
        <time>2010-10-03T12:30:58Z</time>
      </trkpt>
      <trkpt lat="48.87885" lon="7.40917">
        <ele>221.999146</ele>
        <time>2010-10-03T12:31:06Z</time>
      </trkpt>
      <trkpt lat="48.87894" lon="7.40931">
        <ele>222.803833</ele>
        <time>2010-10-03T12:31:10Z</time>
      </trkpt>
      <trkpt lat="48.87903" lon="7.40943">
        <ele>221.510864</ele>
        <time>2010-10-03T12:31:14Z</time>
      </trkpt>
      <trkpt lat="48.87913" lon="7.40951">
        <ele>221.678833</ele>
        <time>2010-10-03T12:31:18Z</time>
      </trkpt>
      <trkpt lat="48.87941" lon="7.40962">
        <ele>221.768677</ele>
        <time>2010-10-03T12:31:28Z</time>
      </trkpt>
      <trkpt lat="48.87951" lon="7.40971">
        <ele>222.694458</ele>
        <time>2010-10-03T12:31:32Z</time>
      </trkpt>
      <trkpt lat="48.87959" lon="7.40983">
        <ele>223.698364</ele>
        <time>2010-10-03T12:31:36Z</time>
      </trkpt>
      <trkpt lat="48.8797" lon="7.41003">
        <ele>226.710083</ele>
        <time>2010-10-03T12:31:42Z</time>
      </trkpt>
      <trkpt lat="48.87974" lon="7.4101">
        <ele>227.713989</ele>
        <time>2010-10-03T12:31:44Z</time>
      </trkpt>
      <trkpt lat="48.87983" lon="7.4102">
        <ele>230.354614</ele>
        <time>2010-10-03T12:31:48Z</time>
      </trkpt>
      <trkpt lat="48.87989" lon="7.41025">
        <ele>233.397583</ele>
        <time>2010-10-03T12:31:51Z</time>
      </trkpt>
      <trkpt lat="48.87999" lon="7.41037">
        <ele>236.397583</ele>
        <time>2010-10-03T12:31:55Z</time>
      </trkpt>
      <trkpt lat="48.88022" lon="7.41056">
        <ele>234.354614</ele>
        <time>2010-10-03T12:32:00Z</time>
      </trkpt>
      <trkpt lat="48.88029" lon="7.41059">
        <ele>236.202271</ele>
        <time>2010-10-03T12:32:02Z</time>
      </trkpt>
      <trkpt lat="48.88035" lon="7.41059">
        <ele>236.796021</ele>
        <time>2010-10-03T12:32:04Z</time>
      </trkpt>
      <trkpt lat="48.88041" lon="7.41055">
        <ele>236.643677</ele>
        <time>2010-10-03T12:32:06Z</time>
      </trkpt>
      <trkpt lat="48.88046" lon="7.41051">
        <ele>237.284302</ele>
        <time>2010-10-03T12:32:08Z</time>
      </trkpt>
      <trkpt lat="48.88058" lon="7.41042">
        <ele>237.616333</ele>
        <time>2010-10-03T12:32:12Z</time>
      </trkpt>
      <trkpt lat="48.88063" lon="7.4104">
        <ele>236.503052</ele>
        <time>2010-10-03T12:32:14Z</time>
      </trkpt>
      <trkpt lat="48.88075" lon="7.41038">
        <ele>235.506958</ele>
        <time>2010-10-03T12:32:19Z</time>
      </trkpt>
      <trkpt lat="48.8808" lon="7.4104">
        <ele>235.370239</ele>
        <time>2010-10-03T12:32:21Z</time>
      </trkpt>
      <trkpt lat="48.88089" lon="7.41046">
        <ele>238.413208</ele>
        <time>2010-10-03T12:32:26Z</time>
      </trkpt>
      <trkpt lat="48.88102" lon="7.41059">
        <ele>243.530396</ele>
        <time>2010-10-03T12:32:37Z</time>
      </trkpt>
      <trkpt lat="48.88117" lon="7.41087">
        <ele>244.542114</ele>
        <time>2010-10-03T12:32:48Z</time>
      </trkpt>
      <trkpt lat="48.88124" lon="7.41111">
        <ele>244.346802</ele>
        <time>2010-10-03T12:32:57Z</time>
      </trkpt>
      <trkpt lat="48.88126" lon="7.41137">
        <ele>252.131958</ele>
        <time>2010-10-03T12:33:05Z</time>
      </trkpt>
      <trkpt lat="48.88132" lon="7.41159">
        <ele>255.862427</ele>
        <time>2010-10-03T12:33:14Z</time>
      </trkpt>
      <trkpt lat="48.88134" lon="7.41175">
        <ele>259.201416</ele>
        <time>2010-10-03T12:33:20Z</time>
      </trkpt>
      <trkpt lat="48.88137" lon="7.41181">
        <ele>260.170166</ele>
        <time>2010-10-03T12:33:23Z</time>
      </trkpt>
      <trkpt lat="48.88141" lon="7.41202">
        <ele>263.435791</ele>
        <time>2010-10-03T12:33:30Z</time>
      </trkpt>
      <trkpt lat="48.88141" lon="7.41218">
        <ele>267.224854</ele>
        <time>2010-10-03T12:33:38Z</time>
      </trkpt>
      <trkpt lat="48.88147" lon="7.4124">
        <ele>269.131104</ele>
        <time>2010-10-03T12:33:45Z</time>
      </trkpt>
      <trkpt lat="48.88157" lon="7.4126">
        <ele>265.677979</ele>
        <time>2010-10-03T12:33:54Z</time>
      </trkpt>
      <trkpt lat="48.8816" lon="7.41274">
        <ele>265.162354</ele>
        <time>2010-10-03T12:34:00Z</time>
      </trkpt>
      <trkpt lat="48.8816" lon="7.41281">
        <ele>265.052979</ele>
        <time>2010-10-03T12:34:02Z</time>
      </trkpt>
      <trkpt lat="48.88164" lon="7.41297">
        <ele>263.834229</ele>
        <time>2010-10-03T12:34:07Z</time>
      </trkpt>
      <trkpt lat="48.88168" lon="7.41326">
        <ele>265.576416</ele>
        <time>2010-10-03T12:34:17Z</time>
      </trkpt>
      <trkpt lat="48.88173" lon="7.41339">
        <ele>266.912354</ele>
        <time>2010-10-03T12:34:24Z</time>
      </trkpt>
      <trkpt lat="48.88175" lon="7.41355">
        <ele>270.568604</ele>
        <time>2010-10-03T12:34:29Z</time>
      </trkpt>
      <trkpt lat="48.88178" lon="7.41362">
        <ele>271.552979</ele>
        <time>2010-10-03T12:34:32Z</time>
      </trkpt>
      <trkpt lat="48.88181" lon="7.41377">
        <ele>275.623291</ele>
        <time>2010-10-03T12:34:39Z</time>
      </trkpt>
      <trkpt lat="48.88185" lon="7.41397">
        <ele>281.115479</ele>
        <time>2010-10-03T12:34:48Z</time>
      </trkpt>
      <trkpt lat="48.88188" lon="7.41409">
        <ele>281.740479</ele>
        <time>2010-10-03T12:34:51Z</time>
      </trkpt>
      <trkpt lat="48.88193" lon="7.41434">
        <ele>284.373291</ele>
        <time>2010-10-03T12:34:58Z</time>
      </trkpt>
      <trkpt lat="48.88201" lon="7.41446">
        <ele>288.842041</ele>
        <time>2010-10-03T12:35:07Z</time>
      </trkpt>
      <trkpt lat="48.8821" lon="7.41463">
        <ele>290.123291</ele>
        <time>2010-10-03T12:35:12Z</time>
      </trkpt>
      <trkpt lat="48.88217" lon="7.4147">
        <ele>291.224854</ele>
        <time>2010-10-03T12:35:14Z</time>
      </trkpt>
      <trkpt lat="48.88217" lon="7.41477">
        <ele>291.724854</ele>
        <time>2010-10-03T12:35:16Z</time>
      </trkpt>
      <trkpt lat="48.88223" lon="7.41489">
        <ele>293.310791</ele>
        <time>2010-10-03T12:35:20Z</time>
      </trkpt>
      <trkpt lat="48.88233" lon="7.41504">
        <ele>290.592041</ele>
        <time>2010-10-03T12:35:23Z</time>
      </trkpt>
      <trkpt lat="48.88239" lon="7.4151">
        <ele>289.318604</ele>
        <time>2010-10-03T12:35:25Z</time>
      </trkpt>
      <trkpt lat="48.8825" lon="7.41519">
        <ele>286.693604</ele>
        <time>2010-10-03T12:35:29Z</time>
      </trkpt>
      <trkpt lat="48.88258" lon="7.4152">
        <ele>282.795166</ele>
        <time>2010-10-03T12:35:31Z</time>
      </trkpt>
      <trkpt lat="48.88264" lon="7.41519">
        <ele>282.865479</ele>
        <time>2010-10-03T12:35:33Z</time>
      </trkpt>
      <trkpt lat="48.88268" lon="7.41511">
        <ele>281.810791</ele>
        <time>2010-10-03T12:35:35Z</time>
      </trkpt>
      <trkpt lat="48.88268" lon="7.41503">
        <ele>282.638916</ele>
        <time>2010-10-03T12:35:38Z</time>
      </trkpt>
      <trkpt lat="48.88267" lon="7.41496">
        <ele>282.256104</ele>
        <time>2010-10-03T12:35:40Z</time>
      </trkpt>
      <trkpt lat="48.88267" lon="7.41489">
        <ele>281.006104</ele>
        <time>2010-10-03T12:35:42Z</time>
      </trkpt>
      <trkpt lat="48.88265" lon="7.41473">
        <ele>279.427979</ele>
        <time>2010-10-03T12:35:47Z</time>
      </trkpt>
      <trkpt lat="48.88246" lon="7.41409">
        <ele>275.271729</ele>
        <time>2010-10-03T12:36:03Z</time>
      </trkpt>
      <trkpt lat="48.88244" lon="7.41391">
        <ele>273.060791</ele>
        <time>2010-10-03T12:36:08Z</time>
      </trkpt>
      <trkpt lat="48.88244" lon="7.41374">
        <ele>271.107666</ele>
        <time>2010-10-03T12:36:12Z</time>
      </trkpt>
      <trkpt lat="48.88242" lon="7.41366">
        <ele>270.107666</ele>
        <time>2010-10-03T12:36:15Z</time>
      </trkpt>
      <trkpt lat="48.88241" lon="7.41351">
        <ele>268.740479</ele>
        <time>2010-10-03T12:36:19Z</time>
      </trkpt>
      <trkpt lat="48.88242" lon="7.41329">
        <ele>267.740479</ele>
        <time>2010-10-03T12:36:23Z</time>
      </trkpt>
      <trkpt lat="48.88247" lon="7.41305">
        <ele>265.896729</ele>
        <time>2010-10-03T12:36:29Z</time>
      </trkpt>
      <trkpt lat="48.88251" lon="7.41297">
        <ele>264.834229</ele>
        <time>2010-10-03T12:36:31Z</time>
      </trkpt>
      <trkpt lat="48.88258" lon="7.41269">
        <ele>263.131104</ele>
        <time>2010-10-03T12:36:37Z</time>
      </trkpt>
      <trkpt lat="48.8826" lon="7.41252">
        <ele>262.474854</ele>
        <time>2010-10-03T12:36:41Z</time>
      </trkpt>
      <trkpt lat="48.88261" lon="7.41232">
        <ele>260.217041</ele>
        <time>2010-10-03T12:36:45Z</time>
      </trkpt>
      <trkpt lat="48.8826" lon="7.41221">
        <ele>260.185791</ele>
        <time>2010-10-03T12:36:47Z</time>
      </trkpt>
      <trkpt lat="48.88262" lon="7.41211">
        <ele>259.677979</ele>
        <time>2010-10-03T12:36:49Z</time>
      </trkpt>
      <trkpt lat="48.88263" lon="7.41202">
        <ele>259.318604</ele>
        <time>2010-10-03T12:36:51Z</time>
      </trkpt>
      <trkpt lat="48.88265" lon="7.41191">
        <ele>259.154541</ele>
        <time>2010-10-03T12:36:53Z</time>
      </trkpt>
      <trkpt lat="48.88269" lon="7.41145">
        <ele>258.021729</ele>
        <time>2010-10-03T12:37:03Z</time>
      </trkpt>
      <trkpt lat="48.88272" lon="7.41127">
        <ele>259.443604</ele>
        <time>2010-10-03T12:37:07Z</time>
      </trkpt>
      <trkpt lat="48.88272" lon="7.41115">
        <ele>259.412354</ele>
        <time>2010-10-03T12:37:09Z</time>
      </trkpt>
      <trkpt lat="48.88275" lon="7.41107">
        <ele>259.427979</ele>
        <time>2010-10-03T12:37:11Z</time>
      </trkpt>
      <trkpt lat="48.88276" lon="7.41099">
        <ele>258.607666</ele>
        <time>2010-10-03T12:37:13Z</time>
      </trkpt>
      <trkpt lat="48.88274" lon="7.41089">
        <ele>258.107666</ele>
        <time>2010-10-03T12:37:15Z</time>
      </trkpt>
      <trkpt lat="48.88276" lon="7.41073">
        <ele>258.576416</ele>
        <time>2010-10-03T12:37:19Z</time>
      </trkpt>
      <trkpt lat="48.88278" lon="7.41065">
        <ele>257.701416</ele>
        <time>2010-10-03T12:37:21Z</time>
      </trkpt>
      <trkpt lat="48.88277" lon="7.41055">
        <ele>258.771729</ele>
        <time>2010-10-03T12:37:23Z</time>
      </trkpt>
      <trkpt lat="48.88279" lon="7.41044">
        <ele>259.529541</ele>
        <time>2010-10-03T12:37:25Z</time>
      </trkpt>
      <trkpt lat="48.88284" lon="7.41029">
        <ele>260.131104</ele>
        <time>2010-10-03T12:37:29Z</time>
      </trkpt>
      <trkpt lat="48.88285" lon="7.41022">
        <ele>260.318604</ele>
        <time>2010-10-03T12:37:31Z</time>
      </trkpt>
      <trkpt lat="48.8829" lon="7.41004">
        <ele>261.412354</ele>
        <time>2010-10-03T12:37:35Z</time>
      </trkpt>
      <trkpt lat="48.88291" lon="7.40994">
        <ele>261.349854</ele>
        <time>2010-10-03T12:37:37Z</time>
      </trkpt>
      <trkpt lat="48.88312" lon="7.40942">
        <ele>272.271729</ele>
        <time>2010-10-03T12:37:48Z</time>
      </trkpt>
      <trkpt lat="48.88316" lon="7.40934">
        <ele>273.404541</ele>
        <time>2010-10-03T12:37:50Z</time>
      </trkpt>
      <trkpt lat="48.88318" lon="7.40923">
        <ele>272.545166</ele>
        <time>2010-10-03T12:37:52Z</time>
      </trkpt>
      <trkpt lat="48.88323" lon="7.40916">
        <ele>274.834229</ele>
        <time>2010-10-03T12:37:54Z</time>
      </trkpt>
      <trkpt lat="48.88327" lon="7.40894">
        <ele>279.545166</ele>
        <time>2010-10-03T12:37:58Z</time>
      </trkpt>
      <trkpt lat="48.88331" lon="7.40887">
        <ele>278.795166</ele>
        <time>2010-10-03T12:38:00Z</time>
      </trkpt>
      <trkpt lat="48.88346" lon="7.40865">
        <ele>280.146729</ele>
        <time>2010-10-03T12:38:08Z</time>
      </trkpt>
      <trkpt lat="48.88356" lon="7.40855">
        <ele>282.076416</ele>
        <time>2010-10-03T12:38:12Z</time>
      </trkpt>
      <trkpt lat="48.88366" lon="7.40843">
        <ele>283.927979</ele>
        <time>2010-10-03T12:38:16Z</time>
      </trkpt>
      <trkpt lat="48.8837" lon="7.40838">
        <ele>285.545166</ele>
        <time>2010-10-03T12:38:18Z</time>
      </trkpt>
      <trkpt lat="48.88385" lon="7.40829">
        <ele>287.232666</ele>
        <time>2010-10-03T12:38:24Z</time>
      </trkpt>
      <trkpt lat="48.8839" lon="7.40824">
        <ele>284.842041</ele>
        <time>2010-10-03T12:38:26Z</time>
      </trkpt>
      <trkpt lat="48.88395" lon="7.40817">
        <ele>286.607666</ele>
        <time>2010-10-03T12:38:28Z</time>
      </trkpt>
      <trkpt lat="48.88405" lon="7.40808">
        <ele>290.998291</ele>
        <time>2010-10-03T12:38:32Z</time>
      </trkpt>
      <trkpt lat="48.88411" lon="7.40807">
        <ele>293.967041</ele>
        <time>2010-10-03T12:38:34Z</time>
      </trkpt>
      <trkpt lat="48.88438" lon="7.4081">
        <ele>304.435791</ele>
        <time>2010-10-03T12:38:45Z</time>
      </trkpt>
      <trkpt lat="48.88444" lon="7.40811">
        <ele>305.732666</ele>
        <time>2010-10-03T12:38:47Z</time>
      </trkpt>
      <trkpt lat="48.88452" lon="7.40811">
        <ele>307.654541</ele>
        <time>2010-10-03T12:38:49Z</time>
      </trkpt>
      <trkpt lat="48.88456" lon="7.40814">
        <ele>308.302979</ele>
        <time>2010-10-03T12:38:51Z</time>
      </trkpt>
      <trkpt lat="48.88475" lon="7.40826">
        <ele>316.154541</ele>
        <time>2010-10-03T12:38:59Z</time>
      </trkpt>
      <trkpt lat="48.88481" lon="7.40827">
        <ele>316.865479</ele>
        <time>2010-10-03T12:39:01Z</time>
      </trkpt>
      <trkpt lat="48.88485" lon="7.4083">
        <ele>318.138916</ele>
        <time>2010-10-03T12:39:04Z</time>
      </trkpt>
      <trkpt lat="48.88505" lon="7.40838">
        <ele>322.154541</ele>
        <time>2010-10-03T12:39:12Z</time>
      </trkpt>
      <trkpt lat="48.88515" lon="7.40845">
        <ele>317.787354</ele>
        <time>2010-10-03T12:39:15Z</time>
      </trkpt>
      <trkpt lat="48.88527" lon="7.40851">
        <ele>316.552979</ele>
        <time>2010-10-03T12:39:19Z</time>
      </trkpt>
      <trkpt lat="48.88533" lon="7.40854">
        <ele>315.810791</ele>
        <time>2010-10-03T12:39:21Z</time>
      </trkpt>
      <trkpt lat="48.8854" lon="7.40853">
        <ele>316.842041</ele>
        <time>2010-10-03T12:39:23Z</time>
      </trkpt>
      <trkpt lat="48.88551" lon="7.40848">
        <ele>313.263916</ele>
        <time>2010-10-03T12:39:26Z</time>
      </trkpt>
      <trkpt lat="48.88563" lon="7.4084">
        <ele>312.592041</ele>
        <time>2010-10-03T12:39:30Z</time>
      </trkpt>
      <trkpt lat="48.88567" lon="7.40835">
        <ele>312.209229</ele>
        <time>2010-10-03T12:39:32Z</time>
      </trkpt>
      <trkpt lat="48.88581" lon="7.40813">
        <ele>308.771729</ele>
        <time>2010-10-03T12:39:37Z</time>
      </trkpt>
      <trkpt lat="48.88586" lon="7.40807">
        <ele>308.904541</ele>
        <time>2010-10-03T12:39:39Z</time>
      </trkpt>
      <trkpt lat="48.886" lon="7.40783">
        <ele>310.568604</ele>
        <time>2010-10-03T12:39:45Z</time>
      </trkpt>
      <trkpt lat="48.88606" lon="7.40778">
        <ele>310.826416</ele>
        <time>2010-10-03T12:39:47Z</time>
      </trkpt>
      <trkpt lat="48.88615" lon="7.40755">
        <ele>315.967041</ele>
        <time>2010-10-03T12:39:53Z</time>
      </trkpt>
      <trkpt lat="48.88616" lon="7.40747">
        <ele>316.857666</ele>
        <time>2010-10-03T12:39:55Z</time>
      </trkpt>
      <trkpt lat="48.88623" lon="7.40734">
        <ele>314.756104</ele>
        <time>2010-10-03T12:40:01Z</time>
      </trkpt>
      <trkpt lat="48.88628" lon="7.40734">
        <ele>313.935791</ele>
        <time>2010-10-03T12:40:52Z</time>
      </trkpt>
      <trkpt lat="48.88632" lon="7.4073">
        <ele>314.193604</ele>
        <time>2010-10-03T12:41:06Z</time>
      </trkpt>
      <trkpt lat="48.88636" lon="7.4073">
        <ele>314.732666</ele>
        <time>2010-10-03T12:41:15Z</time>
      </trkpt>
      <trkpt lat="48.88638" lon="7.40725">
        <ele>309.998291</ele>
        <time>2010-10-03T12:42:57Z</time>
      </trkpt>
      <trkpt lat="48.88642" lon="7.4072">
        <ele>309.763916</ele>
        <time>2010-10-03T12:42:59Z</time>
      </trkpt>
      <trkpt lat="48.88647" lon="7.40719">
        <ele>309.201416</ele>
        <time>2010-10-03T12:43:01Z</time>
      </trkpt>
      <trkpt lat="48.8866" lon="7.40699">
        <ele>306.412354</ele>
        <time>2010-10-03T12:43:07Z</time>
      </trkpt>
      <trkpt lat="48.88667" lon="7.40685">
        <ele>302.802979</ele>
        <time>2010-10-03T12:43:11Z</time>
      </trkpt>
      <trkpt lat="48.88681" lon="7.40665">
        <ele>298.052979</ele>
        <time>2010-10-03T12:43:18Z</time>
      </trkpt>
      <trkpt lat="48.88685" lon="7.40662">
        <ele>297.318604</ele>
        <time>2010-10-03T12:43:20Z</time>
      </trkpt>
      <trkpt lat="48.88691" lon="7.40655">
        <ele>297.513916</ele>
        <time>2010-10-03T12:43:22Z</time>
      </trkpt>
      <trkpt lat="48.88696" lon="7.40652">
        <ele>296.474854</ele>
        <time>2010-10-03T12:43:23Z</time>
      </trkpt>
      <trkpt lat="48.88701" lon="7.40646">
        <ele>297.037354</ele>
        <time>2010-10-03T12:43:25Z</time>
      </trkpt>
      <trkpt lat="48.88704" lon="7.40638">
        <ele>296.576416</ele>
        <time>2010-10-03T12:43:27Z</time>
      </trkpt>
      <trkpt lat="48.88708" lon="7.40632">
        <ele>296.068604</ele>
        <time>2010-10-03T12:43:29Z</time>
      </trkpt>
      <trkpt lat="48.88713" lon="7.40628">
        <ele>296.576416</ele>
        <time>2010-10-03T12:43:30Z</time>
      </trkpt>
      <trkpt lat="48.88721" lon="7.40612">
        <ele>296.748291</ele>
        <time>2010-10-03T12:43:34Z</time>
      </trkpt>
      <trkpt lat="48.88723" lon="7.40602">
        <ele>296.638916</ele>
        <time>2010-10-03T12:43:36Z</time>
      </trkpt>
      <trkpt lat="48.88725" lon="7.40592">
        <ele>296.138916</ele>
        <time>2010-10-03T12:43:38Z</time>
      </trkpt>
      <trkpt lat="48.88728" lon="7.40583">
        <ele>296.631104</ele>
        <time>2010-10-03T12:43:40Z</time>
      </trkpt>
      <trkpt lat="48.88729" lon="7.40572">
        <ele>298.107666</ele>
        <time>2010-10-03T12:43:42Z</time>
      </trkpt>
      <trkpt lat="48.88731" lon="7.40562">
        <ele>298.052979</ele>
        <time>2010-10-03T12:43:44Z</time>
      </trkpt>
      <trkpt lat="48.88735" lon="7.40555">
        <ele>298.631104</ele>
        <time>2010-10-03T12:43:46Z</time>
      </trkpt>
      <trkpt lat="48.88738" lon="7.40549">
        <ele>298.576416</ele>
        <time>2010-10-03T12:43:48Z</time>
      </trkpt>
      <trkpt lat="48.88743" lon="7.40542">
        <ele>300.412354</ele>
        <time>2010-10-03T12:43:50Z</time>
      </trkpt>
      <trkpt lat="48.88747" lon="7.4052">
        <ele>302.779541</ele>
        <time>2010-10-03T12:43:56Z</time>
      </trkpt>
      <trkpt lat="48.88751" lon="7.40514">
        <ele>304.857666</ele>
        <time>2010-10-03T12:43:58Z</time>
      </trkpt>
      <trkpt lat="48.88758" lon="7.40492">
        <ele>305.381104</ele>
        <time>2010-10-03T12:44:04Z</time>
      </trkpt>
      <trkpt lat="48.88768" lon="7.40455">
        <ele>307.115479</ele>
        <time>2010-10-03T12:44:14Z</time>
      </trkpt>
      <trkpt lat="48.88772" lon="7.40441">
        <ele>308.217041</ele>
        <time>2010-10-03T12:44:18Z</time>
      </trkpt>
      <trkpt lat="48.88773" lon="7.40433">
        <ele>307.490479</ele>
        <time>2010-10-03T12:44:20Z</time>
      </trkpt>
      <trkpt lat="48.88776" lon="7.40427">
        <ele>308.927979</ele>
        <time>2010-10-03T12:44:22Z</time>
      </trkpt>
      <trkpt lat="48.88779" lon="7.40414">
        <ele>310.513916</ele>
        <time>2010-10-03T12:44:26Z</time>
      </trkpt>
      <trkpt lat="48.88778" lon="7.404">
        <ele>312.420166</ele>
        <time>2010-10-03T12:44:30Z</time>
      </trkpt>
      <trkpt lat="48.88782" lon="7.40394">
        <ele>314.287354</ele>
        <time>2010-10-03T12:44:32Z</time>
      </trkpt>
      <trkpt lat="48.88786" lon="7.40385">
        <ele>314.287354</ele>
        <time>2010-10-03T12:44:35Z</time>
      </trkpt>
      <trkpt lat="48.88787" lon="7.40379">
        <ele>313.193604</ele>
        <time>2010-10-03T12:44:38Z</time>
      </trkpt>
      <trkpt lat="48.88792" lon="7.40365">
        <ele>311.615479</ele>
        <time>2010-10-03T12:44:44Z</time>
      </trkpt>
      <trkpt lat="48.888" lon="7.40354">
        <ele>311.740479</ele>
        <time>2010-10-03T12:44:48Z</time>
      </trkpt>
      <trkpt lat="48.88805" lon="7.40347">
        <ele>311.099854</ele>
        <time>2010-10-03T12:44:51Z</time>
      </trkpt>
      <trkpt lat="48.88808" lon="7.40342">
        <ele>311.677979</ele>
        <time>2010-10-03T12:44:53Z</time>
      </trkpt>
      <trkpt lat="48.88812" lon="7.40334">
        <ele>311.474854</ele>
        <time>2010-10-03T12:44:56Z</time>
      </trkpt>
      <trkpt lat="48.88813" lon="7.40325">
        <ele>311.568604</ele>
        <time>2010-10-03T12:44:59Z</time>
      </trkpt>
      <trkpt lat="48.88819" lon="7.40309">
        <ele>311.154541</ele>
        <time>2010-10-03T12:45:04Z</time>
      </trkpt>
      <trkpt lat="48.88831" lon="7.40286">
        <ele>315.076416</ele>
        <time>2010-10-03T12:45:12Z</time>
      </trkpt>
      <trkpt lat="48.88833" lon="7.40277">
        <ele>316.318604</ele>
        <time>2010-10-03T12:45:15Z</time>
      </trkpt>
      <trkpt lat="48.88839" lon="7.40262">
        <ele>318.732666</ele>
        <time>2010-10-03T12:45:20Z</time>
      </trkpt>
      <trkpt lat="48.88846" lon="7.40253">
        <ele>318.506104</ele>
        <time>2010-10-03T12:45:24Z</time>
      </trkpt>
      <trkpt lat="48.88854" lon="7.40251">
        <ele>320.513916</ele>
        <time>2010-10-03T12:45:25Z</time>
      </trkpt>
      <trkpt lat="48.88879" lon="7.40244">
        <ele>327.287354</ele>
        <time>2010-10-03T12:45:35Z</time>
      </trkpt>
      <trkpt lat="48.88897" lon="7.40245">
        <ele>330.896729</ele>
        <time>2010-10-03T12:45:42Z</time>
      </trkpt>
      <trkpt lat="48.88932" lon="7.40243">
        <ele>336.412354</ele>
        <time>2010-10-03T12:45:52Z</time>
      </trkpt>
      <trkpt lat="48.88938" lon="7.40241">
        <ele>338.256104</ele>
        <time>2010-10-03T12:45:54Z</time>
      </trkpt>
      <trkpt lat="48.8895" lon="7.4024">
        <ele>337.467041</ele>
        <time>2010-10-03T12:45:58Z</time>
      </trkpt>
      <trkpt lat="48.88973" lon="7.40243">
        <ele>336.631104</ele>
        <time>2010-10-03T12:46:03Z</time>
      </trkpt>
      <trkpt lat="48.88981" lon="7.40247">
        <ele>336.256104</ele>
        <time>2010-10-03T12:46:05Z</time>
      </trkpt>
      <trkpt lat="48.88989" lon="7.40248">
        <ele>336.677979</ele>
        <time>2010-10-03T12:46:07Z</time>
      </trkpt>
      <trkpt lat="48.89019" lon="7.40249">
        <ele>337.248291</ele>
        <time>2010-10-03T12:46:14Z</time>
      </trkpt>
      <trkpt lat="48.89024" lon="7.40252">
        <ele>337.263916</ele>
        <time>2010-10-03T12:46:15Z</time>
      </trkpt>
      <trkpt lat="48.89044" lon="7.40257">
        <ele>337.842041</ele>
        <time>2010-10-03T12:46:20Z</time>
      </trkpt>
      <trkpt lat="48.89049" lon="7.4026">
        <ele>336.029541</ele>
        <time>2010-10-03T12:46:23Z</time>
      </trkpt>
      <trkpt lat="48.89058" lon="7.40268">
        <ele>334.404541</ele>
        <time>2010-10-03T12:46:28Z</time>
      </trkpt>
      <trkpt lat="48.89062" lon="7.40274">
        <ele>335.662354</ele>
        <time>2010-10-03T12:46:31Z</time>
      </trkpt>
      <trkpt lat="48.89069" lon="7.40288">
        <ele>338.123291</ele>
        <time>2010-10-03T12:46:35Z</time>
      </trkpt>
      <trkpt lat="48.89084" lon="7.4031">
        <ele>339.592041</ele>
        <time>2010-10-03T12:46:41Z</time>
      </trkpt>
      <trkpt lat="48.8909" lon="7.40315">
        <ele>341.365479</ele>
        <time>2010-10-03T12:46:43Z</time>
      </trkpt>
      <trkpt lat="48.89101" lon="7.40322">
        <ele>339.349854</ele>
        <time>2010-10-03T12:46:47Z</time>
      </trkpt>
      <trkpt lat="48.89107" lon="7.40323">
        <ele>338.709229</ele>
        <time>2010-10-03T12:46:50Z</time>
      </trkpt>
      <trkpt lat="48.8911" lon="7.40326">
        <ele>335.763916</ele>
        <time>2010-10-03T12:47:07Z</time>
      </trkpt>
      <trkpt lat="48.89105" lon="7.40314">
        <ele>334.099854</ele>
        <time>2010-10-03T12:50:12Z</time>
      </trkpt>
      <trkpt lat="48.89103" lon="7.40307">
        <ele>334.349854</ele>
        <time>2010-10-03T12:50:17Z</time>
      </trkpt>
      <trkpt lat="48.89104" lon="7.403">
        <ele>334.857666</ele>
        <time>2010-10-03T12:50:23Z</time>
      </trkpt>
      <trkpt lat="48.89106" lon="7.40292">
        <ele>334.920166</ele>
        <time>2010-10-03T12:50:27Z</time>
      </trkpt>
      <trkpt lat="48.89105" lon="7.40284">
        <ele>335.123291</ele>
        <time>2010-10-03T12:50:33Z</time>
      </trkpt>
      <trkpt lat="48.89111" lon="7.40271">
        <ele>331.193604</ele>
        <time>2010-10-03T12:50:47Z</time>
      </trkpt>
      <trkpt lat="48.89116" lon="7.40248">
        <ele>328.959229</ele>
        <time>2010-10-03T12:50:55Z</time>
      </trkpt>
      <trkpt lat="48.89119" lon="7.40242">
        <ele>328.295166</ele>
        <time>2010-10-03T12:50:57Z</time>
      </trkpt>
      <trkpt lat="48.89124" lon="7.40225">
        <ele>327.834229</ele>
        <time>2010-10-03T12:51:01Z</time>
      </trkpt>
      <trkpt lat="48.89135" lon="7.40201">
        <ele>329.787354</ele>
        <time>2010-10-03T12:51:07Z</time>
      </trkpt>
      <trkpt lat="48.89143" lon="7.4019">
        <ele>330.076416</ele>
        <time>2010-10-03T12:51:09Z</time>
      </trkpt>
      <trkpt lat="48.89153" lon="7.40173">
        <ele>331.459229</ele>
        <time>2010-10-03T12:51:12Z</time>
      </trkpt>
      <trkpt lat="48.89162" lon="7.40146">
        <ele>330.271729</ele>
        <time>2010-10-03T12:51:16Z</time>
      </trkpt>
      <trkpt lat="48.89168" lon="7.40124">
        <ele>329.240479</ele>
        <time>2010-10-03T12:51:20Z</time>
      </trkpt>
      <trkpt lat="48.89183" lon="7.40107">
        <ele>329.099854</ele>
        <time>2010-10-03T12:51:24Z</time>
      </trkpt>
      <trkpt lat="48.89192" lon="7.40091">
        <ele>326.865479</ele>
        <time>2010-10-03T12:51:28Z</time>
      </trkpt>
      <trkpt lat="48.89205" lon="7.40081">
        <ele>323.326416</ele>
        <time>2010-10-03T12:51:32Z</time>
      </trkpt>
      <trkpt lat="48.89212" lon="7.40071">
        <ele>320.623291</ele>
        <time>2010-10-03T12:51:34Z</time>
      </trkpt>
      <trkpt lat="48.8922" lon="7.40068">
        <ele>322.474854</ele>
        <time>2010-10-03T12:51:35Z</time>
      </trkpt>
      <trkpt lat="48.8923" lon="7.40056">
        <ele>319.506104</ele>
        <time>2010-10-03T12:51:38Z</time>
      </trkpt>
      <trkpt lat="48.89236" lon="7.4005">
        <ele>318.021729</ele>
        <time>2010-10-03T12:51:40Z</time>
      </trkpt>
      <trkpt lat="48.8924" lon="7.40048">
        <ele>317.787354</ele>
        <time>2010-10-03T12:51:41Z</time>
      </trkpt>
      <trkpt lat="48.89261" lon="7.40042">
        <ele>315.802979</ele>
        <time>2010-10-03T12:51:45Z</time>
      </trkpt>
      <trkpt lat="48.8927" lon="7.40038">
        <ele>315.232666</ele>
        <time>2010-10-03T12:51:47Z</time>
      </trkpt>
      <trkpt lat="48.89297" lon="7.40022">
        <ele>308.373291</ele>
        <time>2010-10-03T12:51:53Z</time>
      </trkpt>
      <trkpt lat="48.89304" lon="7.40021">
        <ele>305.498291</ele>
        <time>2010-10-03T12:51:54Z</time>
      </trkpt>
      <trkpt lat="48.89321" lon="7.4002">
        <ele>301.482666</ele>
        <time>2010-10-03T12:51:56Z</time>
      </trkpt>
      <trkpt lat="48.89353" lon="7.40011">
        <ele>310.162354</ele>
        <time>2010-10-03T12:51:59Z</time>
      </trkpt>
      <trkpt lat="48.89376" lon="7.40002">
        <ele>315.443604</ele>
        <time>2010-10-03T12:52:02Z</time>
      </trkpt>
      <trkpt lat="48.89389" lon="7.40001">
        <ele>318.818604</ele>
        <time>2010-10-03T12:52:04Z</time>
      </trkpt>
      <trkpt lat="48.89399" lon="7.39994">
        <ele>321.654541</ele>
        <time>2010-10-03T12:52:07Z</time>
      </trkpt>
      <trkpt lat="48.89409" lon="7.39994">
        <ele>320.967041</ele>
        <time>2010-10-03T12:52:12Z</time>
      </trkpt>
      <trkpt lat="48.89414" lon="7.39991">
        <ele>318.662354</ele>
        <time>2010-10-03T12:52:28Z</time>
      </trkpt>
      <trkpt lat="48.8942" lon="7.39989">
        <ele>317.623291</ele>
        <time>2010-10-03T12:52:32Z</time>
      </trkpt>
      <trkpt lat="48.89425" lon="7.3999">
        <ele>316.623291</ele>
        <time>2010-10-03T12:52:34Z</time>
      </trkpt>
      <trkpt lat="48.89446" lon="7.39988">
        <ele>314.779541</ele>
        <time>2010-10-03T12:52:40Z</time>
      </trkpt>
      <trkpt lat="48.8946" lon="7.39989">
        <ele>314.334229</ele>
        <time>2010-10-03T12:52:44Z</time>
      </trkpt>
      <trkpt lat="48.89474" lon="7.39988">
        <ele>315.724854</ele>
        <time>2010-10-03T12:52:48Z</time>
      </trkpt>
      <trkpt lat="48.89481" lon="7.39989">
        <ele>315.646729</ele>
        <time>2010-10-03T12:52:50Z</time>
      </trkpt>
      <trkpt lat="48.89485" lon="7.39992">
        <ele>318.357666</ele>
        <time>2010-10-03T12:52:51Z</time>
      </trkpt>
      <trkpt lat="48.8949" lon="7.39991">
        <ele>322.974854</ele>
        <time>2010-10-03T12:52:53Z</time>
      </trkpt>
      <trkpt lat="48.89505" lon="7.39997">
        <ele>328.662354</ele>
        <time>2010-10-03T12:52:56Z</time>
      </trkpt>
      <trkpt lat="48.89512" lon="7.40003">
        <ele>331.404541</ele>
        <time>2010-10-03T12:52:58Z</time>
      </trkpt>
      <trkpt lat="48.89519" lon="7.40005">
        <ele>333.576416</ele>
        <time>2010-10-03T12:53:00Z</time>
      </trkpt>
      <trkpt lat="48.89526" lon="7.40005">
        <ele>336.107666</ele>
        <time>2010-10-03T12:53:02Z</time>
      </trkpt>
      <trkpt lat="48.89531" lon="7.40007">
        <ele>336.349854</ele>
        <time>2010-10-03T12:53:04Z</time>
      </trkpt>
      <trkpt lat="48.89542" lon="7.40007">
        <ele>337.029541</ele>
        <time>2010-10-03T12:53:08Z</time>
      </trkpt>
      <trkpt lat="48.89562" lon="7.40004">
        <ele>330.763916</ele>
        <time>2010-10-03T12:53:12Z</time>
      </trkpt>
      <trkpt lat="48.89566" lon="7.39999">
        <ele>327.521729</ele>
        <time>2010-10-03T12:53:13Z</time>
      </trkpt>
      <trkpt lat="48.8958" lon="7.39988">
        <ele>327.646729</ele>
        <time>2010-10-03T12:53:16Z</time>
      </trkpt>
      <trkpt lat="48.89586" lon="7.3998">
        <ele>322.724854</ele>
        <time>2010-10-03T12:53:18Z</time>
      </trkpt>
      <trkpt lat="48.89593" lon="7.39978">
        <ele>322.982666</ele>
        <time>2010-10-03T12:53:19Z</time>
      </trkpt>
      <trkpt lat="48.89611" lon="7.39961">
        <ele>321.927979</ele>
        <time>2010-10-03T12:53:23Z</time>
      </trkpt>
      <trkpt lat="48.89626" lon="7.39948">
        <ele>322.177979</ele>
        <time>2010-10-03T12:53:27Z</time>
      </trkpt>
      <trkpt lat="48.89635" lon="7.39952">
        <ele>320.826416</ele>
        <time>2010-10-03T12:53:58Z</time>
      </trkpt>
      <trkpt lat="48.8964" lon="7.39958">
        <ele>320.810791</ele>
        <time>2010-10-03T12:54:00Z</time>
      </trkpt>
      <trkpt lat="48.89645" lon="7.39963">
        <ele>320.146729</ele>
        <time>2010-10-03T12:54:02Z</time>
      </trkpt>
      <trkpt lat="48.89652" lon="7.39966">
        <ele>319.310791</ele>
        <time>2010-10-03T12:54:04Z</time>
      </trkpt>
      <trkpt lat="48.89658" lon="7.39972">
        <ele>317.888916</ele>
        <time>2010-10-03T12:54:06Z</time>
      </trkpt>
      <trkpt lat="48.89662" lon="7.39973">
        <ele>316.482666</ele>
        <time>2010-10-03T12:54:07Z</time>
      </trkpt>
      <trkpt lat="48.89673" lon="7.39982">
        <ele>314.349854</ele>
        <time>2010-10-03T12:54:11Z</time>
      </trkpt>
      <trkpt lat="48.89681" lon="7.39993">
        <ele>312.365479</ele>
        <time>2010-10-03T12:54:15Z</time>
      </trkpt>
      <trkpt lat="48.89693" lon="7.40018">
        <ele>307.849854</ele>
        <time>2010-10-03T12:54:21Z</time>
      </trkpt>
      <trkpt lat="48.89713" lon="7.40051">
        <ele>309.302979</ele>
        <time>2010-10-03T12:54:29Z</time>
      </trkpt>
      <trkpt lat="48.89719" lon="7.40065">
        <ele>307.584229</ele>
        <time>2010-10-03T12:54:33Z</time>
      </trkpt>
      <trkpt lat="48.89721" lon="7.40074">
        <ele>307.138916</ele>
        <time>2010-10-03T12:54:35Z</time>
      </trkpt>
      <trkpt lat="48.89723" lon="7.40082">
        <ele>306.068604</ele>
        <time>2010-10-03T12:54:37Z</time>
      </trkpt>
      <trkpt lat="48.89729" lon="7.40092">
        <ele>306.256104</ele>
        <time>2010-10-03T12:54:39Z</time>
      </trkpt>
      <trkpt lat="48.89732" lon="7.40102">
        <ele>306.232666</ele>
        <time>2010-10-03T12:54:41Z</time>
      </trkpt>
      <trkpt lat="48.89737" lon="7.4011">
        <ele>306.373291</ele>
        <time>2010-10-03T12:54:43Z</time>
      </trkpt>
      <trkpt lat="48.89745" lon="7.40125">
        <ele>305.451416</ele>
        <time>2010-10-03T12:54:46Z</time>
      </trkpt>
      <trkpt lat="48.89753" lon="7.40138">
        <ele>304.763916</ele>
        <time>2010-10-03T12:54:49Z</time>
      </trkpt>
      <trkpt lat="48.89759" lon="7.40144">
        <ele>304.138916</ele>
        <time>2010-10-03T12:54:50Z</time>
      </trkpt>
      <trkpt lat="48.89765" lon="7.40156">
        <ele>302.693604</ele>
        <time>2010-10-03T12:54:52Z</time>
      </trkpt>
      <trkpt lat="48.89775" lon="7.40168">
        <ele>300.685791</ele>
        <time>2010-10-03T12:54:56Z</time>
      </trkpt>
      <trkpt lat="48.89782" lon="7.40172">
        <ele>299.099854</ele>
        <time>2010-10-03T12:54:58Z</time>
      </trkpt>
      <trkpt lat="48.89796" lon="7.40183">
        <ele>297.029541</ele>
        <time>2010-10-03T12:55:02Z</time>
      </trkpt>
      <trkpt lat="48.898" lon="7.40189">
        <ele>295.998291</ele>
        <time>2010-10-03T12:55:04Z</time>
      </trkpt>
      <trkpt lat="48.89808" lon="7.40195">
        <ele>294.381104</ele>
        <time>2010-10-03T12:55:06Z</time>
      </trkpt>
      <trkpt lat="48.89823" lon="7.40213">
        <ele>293.404541</ele>
        <time>2010-10-03T12:55:09Z</time>
      </trkpt>
      <trkpt lat="48.89831" lon="7.40227">
        <ele>290.654541</ele>
        <time>2010-10-03T12:55:11Z</time>
      </trkpt>
      <trkpt lat="48.89843" lon="7.40241">
        <ele>289.982666</ele>
        <time>2010-10-03T12:55:13Z</time>
      </trkpt>
      <trkpt lat="48.89866" lon="7.40259">
        <ele>292.592041</ele>
        <time>2010-10-03T12:55:18Z</time>
      </trkpt>
      <trkpt lat="48.89885" lon="7.40276">
        <ele>295.787354</ele>
        <time>2010-10-03T12:55:25Z</time>
      </trkpt>
      <trkpt lat="48.89888" lon="7.40277">
        <ele>291.013916</ele>
        <time>2010-10-03T12:55:29Z</time>
      </trkpt>
      <trkpt lat="48.89895" lon="7.40284">
        <ele>288.263916</ele>
        <time>2010-10-03T12:56:00Z</time>
      </trkpt>
      <trkpt lat="48.89921" lon="7.40303">
        <ele>278.756104</ele>
        <time>2010-10-03T12:56:14Z</time>
      </trkpt>
      <trkpt lat="48.8994" lon="7.40312">
        <ele>277.771729</ele>
        <time>2010-10-03T12:56:22Z</time>
      </trkpt>
      <trkpt lat="48.89961" lon="7.40318">
        <ele>274.185791</ele>
        <time>2010-10-03T12:56:28Z</time>
      </trkpt>
      <trkpt lat="48.89982" lon="7.40329">
        <ele>271.763916</ele>
        <time>2010-10-03T12:56:34Z</time>
      </trkpt>
      <trkpt lat="48.89986" lon="7.40333">
        <ele>271.732666</ele>
        <time>2010-10-03T12:56:36Z</time>
      </trkpt>
      <trkpt lat="48.8999" lon="7.40339">
        <ele>272.342041</ele>
        <time>2010-10-03T12:56:38Z</time>
      </trkpt>
      <trkpt lat="48.89989" lon="7.40349">
        <ele>271.701416</ele>
        <time>2010-10-03T12:56:40Z</time>
      </trkpt>
      <trkpt lat="48.90001" lon="7.40375">
        <ele>270.123291</ele>
        <time>2010-10-03T12:56:45Z</time>
      </trkpt>
      <trkpt lat="48.90016" lon="7.40396">
        <ele>273.959229</ele>
        <time>2010-10-03T12:56:50Z</time>
      </trkpt>
      <trkpt lat="48.90028" lon="7.40409">
        <ele>278.787354</ele>
        <time>2010-10-03T12:56:54Z</time>
      </trkpt>
      <trkpt lat="48.90036" lon="7.40419">
        <ele>283.154541</ele>
        <time>2010-10-03T12:56:57Z</time>
      </trkpt>
      <trkpt lat="48.90046" lon="7.4044">
        <ele>285.310791</ele>
        <time>2010-10-03T12:57:01Z</time>
      </trkpt>
      <trkpt lat="48.9005" lon="7.40452">
        <ele>287.068604</ele>
        <time>2010-10-03T12:57:03Z</time>
      </trkpt>
      <trkpt lat="48.90051" lon="7.40461">
        <ele>288.279541</ele>
        <time>2010-10-03T12:57:05Z</time>
      </trkpt>
      <trkpt lat="48.90054" lon="7.40478">
        <ele>295.279541</ele>
        <time>2010-10-03T12:57:07Z</time>
      </trkpt>
      <trkpt lat="48.90056" lon="7.40497">
        <ele>297.615479</ele>
        <time>2010-10-03T12:57:10Z</time>
      </trkpt>
      <trkpt lat="48.90062" lon="7.40516">
        <ele>298.709229</ele>
        <time>2010-10-03T12:57:13Z</time>
      </trkpt>
      <trkpt lat="48.90063" lon="7.40537">
        <ele>299.873291</ele>
        <time>2010-10-03T12:57:16Z</time>
      </trkpt>
      <trkpt lat="48.90066" lon="7.40546">
        <ele>299.092041</ele>
        <time>2010-10-03T12:57:17Z</time>
      </trkpt>
      <trkpt lat="48.90067" lon="7.40558">
        <ele>300.107666</ele>
        <time>2010-10-03T12:57:19Z</time>
      </trkpt>
      <trkpt lat="48.9007" lon="7.40571">
        <ele>301.006104</ele>
        <time>2010-10-03T12:57:21Z</time>
      </trkpt>
      <trkpt lat="48.90075" lon="7.40585">
        <ele>302.459229</ele>
        <time>2010-10-03T12:57:23Z</time>
      </trkpt>
      <trkpt lat="48.90086" lon="7.40601">
        <ele>301.170166</ele>
        <time>2010-10-03T12:57:24Z</time>
      </trkpt>
      <trkpt lat="48.90092" lon="7.40613">
        <ele>303.021729</ele>
        <time>2010-10-03T12:57:26Z</time>
      </trkpt>
      <trkpt lat="48.90107" lon="7.40635">
        <ele>305.029541</ele>
        <time>2010-10-03T12:57:29Z</time>
      </trkpt>
      <trkpt lat="48.90125" lon="7.40655">
        <ele>307.310791</ele>
        <time>2010-10-03T12:57:33Z</time>
      </trkpt>
      <trkpt lat="48.90147" lon="7.40663">
        <ele>308.576416</ele>
        <time>2010-10-03T12:57:37Z</time>
      </trkpt>
      <trkpt lat="48.90159" lon="7.40669">
        <ele>310.349854</ele>
        <time>2010-10-03T12:57:40Z</time>
      </trkpt>
      <trkpt lat="48.90166" lon="7.4067">
        <ele>310.631104</ele>
        <time>2010-10-03T12:57:41Z</time>
      </trkpt>
      <trkpt lat="48.9018" lon="7.4067">
        <ele>313.787354</ele>
        <time>2010-10-03T12:57:44Z</time>
      </trkpt>
      <trkpt lat="48.90206" lon="7.40675">
        <ele>320.912354</ele>
        <time>2010-10-03T12:57:50Z</time>
      </trkpt>
      <trkpt lat="48.90213" lon="7.40678">
        <ele>324.388916</ele>
        <time>2010-10-03T12:57:52Z</time>
      </trkpt>
      <trkpt lat="48.9022" lon="7.40685">
        <ele>328.873291</ele>
        <time>2010-10-03T12:57:54Z</time>
      </trkpt>
      <trkpt lat="48.90225" lon="7.40688">
        <ele>325.193604</ele>
        <time>2010-10-03T12:57:56Z</time>
      </trkpt>
      <trkpt lat="48.90234" lon="7.40689">
        <ele>315.271729</ele>
        <time>2010-10-03T12:58:00Z</time>
      </trkpt>
      <trkpt lat="48.90265" lon="7.40695">
        <ele>307.568604</ele>
        <time>2010-10-03T12:58:08Z</time>
      </trkpt>
      <trkpt lat="48.90269" lon="7.40695">
        <ele>307.381104</ele>
        <time>2010-10-03T12:58:09Z</time>
      </trkpt>
      <trkpt lat="48.90274" lon="7.40699">
        <ele>309.287354</ele>
        <time>2010-10-03T12:58:10Z</time>
      </trkpt>
      <trkpt lat="48.90281" lon="7.40702">
        <ele>309.092041</ele>
        <time>2010-10-03T12:58:12Z</time>
      </trkpt>
      <trkpt lat="48.90289" lon="7.40703">
        <ele>307.123291</ele>
        <time>2010-10-03T12:58:14Z</time>
      </trkpt>
      <trkpt lat="48.90307" lon="7.407">
        <ele>298.185791</ele>
        <time>2010-10-03T12:58:17Z</time>
      </trkpt>
      <trkpt lat="48.90322" lon="7.40699">
        <ele>295.615479</ele>
        <time>2010-10-03T12:58:21Z</time>
      </trkpt>
      <trkpt lat="48.90336" lon="7.40701">
        <ele>288.560791</ele>
        <time>2010-10-03T12:58:24Z</time>
      </trkpt>
      <trkpt lat="48.90347" lon="7.40697">
        <ele>283.732666</ele>
        <time>2010-10-03T12:58:26Z</time>
      </trkpt>
      <trkpt lat="48.90365" lon="7.40702">
        <ele>274.568604</ele>
        <time>2010-10-03T12:58:29Z</time>
      </trkpt>
      <trkpt lat="48.9038" lon="7.40709">
        <ele>266.631104</ele>
        <time>2010-10-03T12:58:32Z</time>
      </trkpt>
      <trkpt lat="48.90396" lon="7.40711">
        <ele>267.451416</ele>
        <time>2010-10-03T12:58:35Z</time>
      </trkpt>
      <trkpt lat="48.90405" lon="7.40717">
        <ele>266.342041</ele>
        <time>2010-10-03T12:58:37Z</time>
      </trkpt>
      <trkpt lat="48.90418" lon="7.40722">
        <ele>267.388916</ele>
        <time>2010-10-03T12:58:39Z</time>
      </trkpt>
      <trkpt lat="48.90423" lon="7.40727">
        <ele>266.029541</ele>
        <time>2010-10-03T12:58:40Z</time>
      </trkpt>
      <trkpt lat="48.90429" lon="7.40734">
        <ele>267.802979</ele>
        <time>2010-10-03T12:58:41Z</time>
      </trkpt>
      <trkpt lat="48.9044" lon="7.40737">
        <ele>266.631104</ele>
        <time>2010-10-03T12:58:43Z</time>
      </trkpt>
      <trkpt lat="48.90459" lon="7.40744">
        <ele>263.365479</ele>
        <time>2010-10-03T12:58:46Z</time>
      </trkpt>
      <trkpt lat="48.90469" lon="7.4075">
        <ele>262.092041</ele>
        <time>2010-10-03T12:58:48Z</time>
      </trkpt>
      <trkpt lat="48.90483" lon="7.40756">
        <ele>259.865479</ele>
        <time>2010-10-03T12:58:50Z</time>
      </trkpt>
      <trkpt lat="48.90511" lon="7.40761">
        <ele>257.099854</ele>
        <time>2010-10-03T12:58:54Z</time>
      </trkpt>
      <trkpt lat="48.9054" lon="7.40756">
        <ele>245.616333</ele>
        <time>2010-10-03T12:59:00Z</time>
      </trkpt>
      <trkpt lat="48.90545" lon="7.40753">
        <ele>244.366333</ele>
        <time>2010-10-03T12:59:01Z</time>
      </trkpt>
      <trkpt lat="48.90558" lon="7.40751">
        <ele>243.061646</ele>
        <time>2010-10-03T12:59:03Z</time>
      </trkpt>
      <trkpt lat="48.90585" lon="7.40731">
        <ele>240.983521</ele>
        <time>2010-10-03T12:59:08Z</time>
      </trkpt>
      <trkpt lat="48.9062" lon="7.4073">
        <ele>242.268677</ele>
        <time>2010-10-03T12:59:15Z</time>
      </trkpt>
      <trkpt lat="48.90632" lon="7.40731">
        <ele>240.510864</ele>
        <time>2010-10-03T12:59:17Z</time>
      </trkpt>
      <trkpt lat="48.9065" lon="7.40734">
        <ele>237.674927</ele>
        <time>2010-10-03T12:59:20Z</time>
      </trkpt>
      <trkpt lat="48.90668" lon="7.40733">
        <ele>238.569458</ele>
        <time>2010-10-03T12:59:23Z</time>
      </trkpt>
      <trkpt lat="48.9071" lon="7.40739">
        <ele>233.881958</ele>
        <time>2010-10-03T12:59:31Z</time>
      </trkpt>
      <trkpt lat="48.90737" lon="7.4075">
        <ele>232.495239</ele>
        <time>2010-10-03T12:59:36Z</time>
      </trkpt>
      <trkpt lat="48.90765" lon="7.40764">
        <ele>230.436646</ele>
        <time>2010-10-03T12:59:41Z</time>
      </trkpt>
      <trkpt lat="48.90795" lon="7.4078">
        <ele>230.581177</ele>
        <time>2010-10-03T12:59:46Z</time>
      </trkpt>
      <trkpt lat="48.90812" lon="7.40791">
        <ele>230.624146</ele>
        <time>2010-10-03T12:59:49Z</time>
      </trkpt>
      <trkpt lat="48.90832" lon="7.40807">
        <ele>230.319458</ele>
        <time>2010-10-03T12:59:53Z</time>
      </trkpt>
      <trkpt lat="48.9085" lon="7.40825">
        <ele>230.831177</ele>
        <time>2010-10-03T12:59:57Z</time>
      </trkpt>
      <trkpt lat="48.90858" lon="7.40836">
        <ele>230.296021</ele>
        <time>2010-10-03T12:59:59Z</time>
      </trkpt>
      <trkpt lat="48.90876" lon="7.4087">
        <ele>228.608521</ele>
        <time>2010-10-03T13:00:04Z</time>
      </trkpt>
      <trkpt lat="48.90885" lon="7.40883">
        <ele>228.276489</ele>
        <time>2010-10-03T13:00:06Z</time>
      </trkpt>
      <trkpt lat="48.90894" lon="7.40894">
        <ele>227.987427</ele>
        <time>2010-10-03T13:00:08Z</time>
      </trkpt>
      <trkpt lat="48.90969" lon="7.40968">
        <ele>226.671021</ele>
        <time>2010-10-03T13:00:23Z</time>
      </trkpt>
      <trkpt lat="48.90983" lon="7.40983">
        <ele>226.588989</ele>
        <time>2010-10-03T13:00:26Z</time>
      </trkpt>
      <trkpt lat="48.91002" lon="7.41002">
        <ele>225.600708</ele>
        <time>2010-10-03T13:00:30Z</time>
      </trkpt>
      <trkpt lat="48.91028" lon="7.41032">
        <ele>224.846802</ele>
        <time>2010-10-03T13:00:36Z</time>
      </trkpt>
      <trkpt lat="48.91041" lon="7.41049">
        <ele>225.155396</ele>
        <time>2010-10-03T13:00:39Z</time>
      </trkpt>
      <trkpt lat="48.91062" lon="7.41071">
        <ele>225.577271</ele>
        <time>2010-10-03T13:00:44Z</time>
      </trkpt>
      <trkpt lat="48.91075" lon="7.4108">
        <ele>226.030396</ele>
        <time>2010-10-03T13:00:47Z</time>
      </trkpt>
      <trkpt lat="48.91114" lon="7.41096">
        <ele>227.460083</ele>
        <time>2010-10-03T13:00:55Z</time>
      </trkpt>
      <trkpt lat="48.91124" lon="7.41102">
        <ele>227.604614</ele>
        <time>2010-10-03T13:00:57Z</time>
      </trkpt>
      <trkpt lat="48.91173" lon="7.41141">
        <ele>229.217896</ele>
        <time>2010-10-03T13:01:09Z</time>
      </trkpt>
      <trkpt lat="48.91216" lon="7.41169">
        <ele>225.983521</ele>
        <time>2010-10-03T13:01:17Z</time>
      </trkpt>
      <trkpt lat="48.9124" lon="7.41188">
        <ele>225.198364</ele>
        <time>2010-10-03T13:01:21Z</time>
      </trkpt>
      <trkpt lat="48.91244" lon="7.41193">
        <ele>225.049927</ele>
        <time>2010-10-03T13:01:22Z</time>
      </trkpt>
      <trkpt lat="48.9125" lon="7.41201">
        <ele>224.557739</ele>
        <time>2010-10-03T13:01:24Z</time>
      </trkpt>
      <trkpt lat="48.91253" lon="7.41215">
        <ele>223.932739</ele>
        <time>2010-10-03T13:01:26Z</time>
      </trkpt>
      <trkpt lat="48.91254" lon="7.41235">
        <ele>223.171021</ele>
        <time>2010-10-03T13:01:29Z</time>
      </trkpt>
      <trkpt lat="48.91246" lon="7.41269">
        <ele>221.143677</ele>
        <time>2010-10-03T13:01:37Z</time>
      </trkpt>
      <trkpt lat="48.9124" lon="7.41318">
        <ele>224.975708</ele>
        <time>2010-10-03T13:01:47Z</time>
      </trkpt>
      <trkpt lat="48.9124" lon="7.4133">
        <ele>225.499146</ele>
        <time>2010-10-03T13:01:49Z</time>
      </trkpt>
      <trkpt lat="48.91236" lon="7.41336">
        <ele>223.303833</ele>
        <time>2010-10-03T13:01:50Z</time>
      </trkpt>
      <trkpt lat="48.91232" lon="7.41349">
        <ele>222.042114</ele>
        <time>2010-10-03T13:01:52Z</time>
      </trkpt>
      <trkpt lat="48.91219" lon="7.41381">
        <ele>220.885864</ele>
        <time>2010-10-03T13:01:56Z</time>
      </trkpt>
      <trkpt lat="48.91212" lon="7.41396">
        <ele>219.628052</ele>
        <time>2010-10-03T13:01:58Z</time>
      </trkpt>
      <trkpt lat="48.91183" lon="7.4148">
        <ele>216.827271</ele>
        <time>2010-10-03T13:02:08Z</time>
      </trkpt>
      <trkpt lat="48.91148" lon="7.41591">
        <ele>213.948364</ele>
        <time>2010-10-03T13:02:22Z</time>
      </trkpt>
      <trkpt lat="48.91129" lon="7.41643">
        <ele>214.745239</ele>
        <time>2010-10-03T13:02:28Z</time>
      </trkpt>
      <trkpt lat="48.91115" lon="7.41688">
        <ele>212.917114</ele>
        <time>2010-10-03T13:02:33Z</time>
      </trkpt>
      <trkpt lat="48.91111" lon="7.41697">
        <ele>212.448364</ele>
        <time>2010-10-03T13:02:34Z</time>
      </trkpt>
      <trkpt lat="48.91097" lon="7.41743">
        <ele>210.776489</ele>
        <time>2010-10-03T13:02:39Z</time>
      </trkpt>
      <trkpt lat="48.91087" lon="7.4177">
        <ele>209.346802</ele>
        <time>2010-10-03T13:02:42Z</time>
      </trkpt>
      <trkpt lat="48.91082" lon="7.41788">
        <ele>209.241333</ele>
        <time>2010-10-03T13:02:44Z</time>
      </trkpt>
      <trkpt lat="48.91067" lon="7.41834">
        <ele>207.112427</ele>
        <time>2010-10-03T13:02:49Z</time>
      </trkpt>
      <trkpt lat="48.9106" lon="7.41861">
        <ele>207.003052</ele>
        <time>2010-10-03T13:02:52Z</time>
      </trkpt>
      <trkpt lat="48.91053" lon="7.41887">
        <ele>204.100708</ele>
        <time>2010-10-03T13:02:55Z</time>
      </trkpt>
      <trkpt lat="48.91047" lon="7.41913">
        <ele>203.163208</ele>
        <time>2010-10-03T13:02:58Z</time>
      </trkpt>
      <trkpt lat="48.91038" lon="7.41947">
        <ele>202.698364</ele>
        <time>2010-10-03T13:03:02Z</time>
      </trkpt>
      <trkpt lat="48.91025" lon="7.41988">
        <ele>205.346802</ele>
        <time>2010-10-03T13:03:07Z</time>
      </trkpt>
      <trkpt lat="48.91006" lon="7.4203">
        <ele>200.264771</ele>
        <time>2010-10-03T13:03:13Z</time>
      </trkpt>
      <trkpt lat="48.91008" lon="7.42042">
        <ele>202.721802</ele>
        <time>2010-10-03T13:03:15Z</time>
      </trkpt>
      <trkpt lat="48.91023" lon="7.42072">
        <ele>202.503052</ele>
        <time>2010-10-03T13:03:20Z</time>
      </trkpt>
      <trkpt lat="48.91025" lon="7.42079">
        <ele>203.424927</ele>
        <time>2010-10-03T13:03:21Z</time>
      </trkpt>
      <trkpt lat="48.91031" lon="7.42093">
        <ele>204.112427</ele>
        <time>2010-10-03T13:03:23Z</time>
      </trkpt>
      <trkpt lat="48.91044" lon="7.42116">
        <ele>205.499146</ele>
        <time>2010-10-03T13:03:27Z</time>
      </trkpt>
      <trkpt lat="48.91055" lon="7.42132">
        <ele>205.846802</ele>
        <time>2010-10-03T13:03:30Z</time>
      </trkpt>
      <trkpt lat="48.91067" lon="7.42145">
        <ele>206.139771</ele>
        <time>2010-10-03T13:03:33Z</time>
      </trkpt>
      <trkpt lat="48.91084" lon="7.42161">
        <ele>208.053833</ele>
        <time>2010-10-03T13:03:37Z</time>
      </trkpt>
      <trkpt lat="48.91087" lon="7.42174">
        <ele>209.424927</ele>
        <time>2010-10-03T13:03:39Z</time>
      </trkpt>
      <trkpt lat="48.91087" lon="7.42183">
        <ele>209.483521</ele>
        <time>2010-10-03T13:03:40Z</time>
      </trkpt>
      <trkpt lat="48.91084" lon="7.422">
        <ele>209.526489</ele>
        <time>2010-10-03T13:03:42Z</time>
      </trkpt>
      <trkpt lat="48.9108" lon="7.42251">
        <ele>206.932739</ele>
        <time>2010-10-03T13:03:48Z</time>
      </trkpt>
      <trkpt lat="48.91074" lon="7.42291">
        <ele>208.061646</ele>
        <time>2010-10-03T13:03:53Z</time>
      </trkpt>
      <trkpt lat="48.91067" lon="7.42329">
        <ele>209.022583</ele>
        <time>2010-10-03T13:03:58Z</time>
      </trkpt>
      <trkpt lat="48.91064" lon="7.42352">
        <ele>207.546021</ele>
        <time>2010-10-03T13:04:01Z</time>
      </trkpt>
      <trkpt lat="48.91058" lon="7.42381">
        <ele>207.635864</ele>
        <time>2010-10-03T13:04:05Z</time>
      </trkpt>
      <trkpt lat="48.9105" lon="7.42402">
        <ele>206.835083</ele>
        <time>2010-10-03T13:04:08Z</time>
      </trkpt>
      <trkpt lat="48.91044" lon="7.42414">
        <ele>206.690552</ele>
        <time>2010-10-03T13:04:10Z</time>
      </trkpt>
      <trkpt lat="48.91033" lon="7.42439">
        <ele>206.885864</ele>
        <time>2010-10-03T13:04:14Z</time>
      </trkpt>
      <trkpt lat="48.91031" lon="7.42445">
        <ele>206.815552</ele>
        <time>2010-10-03T13:04:15Z</time>
      </trkpt>
      <trkpt lat="48.91028" lon="7.42465">
        <ele>206.932739</ele>
        <time>2010-10-03T13:04:18Z</time>
      </trkpt>
      <trkpt lat="48.91027" lon="7.42504">
        <ele>208.850708</ele>
        <time>2010-10-03T13:04:24Z</time>
      </trkpt>
      <trkpt lat="48.9103" lon="7.42528">
        <ele>209.854614</ele>
        <time>2010-10-03T13:04:28Z</time>
      </trkpt>
      <trkpt lat="48.91042" lon="7.42584">
        <ele>212.620239</ele>
        <time>2010-10-03T13:04:38Z</time>
      </trkpt>
      <trkpt lat="48.91056" lon="7.42625">
        <ele>213.768677</ele>
        <time>2010-10-03T13:04:46Z</time>
      </trkpt>
      <trkpt lat="48.91072" lon="7.42664">
        <ele>214.514771</ele>
        <time>2010-10-03T13:04:54Z</time>
      </trkpt>
      <trkpt lat="48.91085" lon="7.427">
        <ele>215.878052</ele>
        <time>2010-10-03T13:05:02Z</time>
      </trkpt>
      <trkpt lat="48.91098" lon="7.42728">
        <ele>216.155396</ele>
        <time>2010-10-03T13:05:08Z</time>
      </trkpt>
      <trkpt lat="48.91104" lon="7.42735">
        <ele>216.397583</ele>
        <time>2010-10-03T13:05:10Z</time>
      </trkpt>
      <trkpt lat="48.9111" lon="7.42741">
        <ele>217.108521</ele>
        <time>2010-10-03T13:05:12Z</time>
      </trkpt>
      <trkpt lat="48.91117" lon="7.42744">
        <ele>217.530396</ele>
        <time>2010-10-03T13:05:14Z</time>
      </trkpt>
      <trkpt lat="48.91125" lon="7.42745">
        <ele>218.323364</ele>
        <time>2010-10-03T13:05:16Z</time>
      </trkpt>
      <trkpt lat="48.91131" lon="7.42741">
        <ele>218.764771</ele>
        <time>2010-10-03T13:05:18Z</time>
      </trkpt>
      <trkpt lat="48.91137" lon="7.42735">
        <ele>218.987427</ele>
        <time>2010-10-03T13:05:20Z</time>
      </trkpt>
      <trkpt lat="48.91147" lon="7.42718">
        <ele>219.483521</ele>
        <time>2010-10-03T13:05:24Z</time>
      </trkpt>
      <trkpt lat="48.91151" lon="7.42708">
        <ele>219.729614</ele>
        <time>2010-10-03T13:05:26Z</time>
      </trkpt>
      <trkpt lat="48.91158" lon="7.42702">
        <ele>219.815552</ele>
        <time>2010-10-03T13:05:28Z</time>
      </trkpt>
      <trkpt lat="48.91166" lon="7.42701">
        <ele>219.659302</ele>
        <time>2010-10-03T13:05:30Z</time>
      </trkpt>
      <trkpt lat="48.91171" lon="7.42702">
        <ele>219.749146</ele>
        <time>2010-10-03T13:05:31Z</time>
      </trkpt>
      <trkpt lat="48.91175" lon="7.42705">
        <ele>219.854614</ele>
        <time>2010-10-03T13:05:32Z</time>
      </trkpt>
      <trkpt lat="48.91179" lon="7.42709">
        <ele>219.596802</ele>
        <time>2010-10-03T13:05:33Z</time>
      </trkpt>
      <trkpt lat="48.91182" lon="7.42715">
        <ele>219.436646</ele>
        <time>2010-10-03T13:05:34Z</time>
      </trkpt>
      <trkpt lat="48.91186" lon="7.42729">
        <ele>219.292114</ele>
        <time>2010-10-03T13:05:36Z</time>
      </trkpt>
      <trkpt lat="48.91187" lon="7.42737">
        <ele>219.225708</ele>
        <time>2010-10-03T13:05:37Z</time>
      </trkpt>
      <trkpt lat="48.91186" lon="7.42745">
        <ele>219.428833</ele>
        <time>2010-10-03T13:05:38Z</time>
      </trkpt>
      <trkpt lat="48.91173" lon="7.42798">
        <ele>218.553833</ele>
        <time>2010-10-03T13:05:45Z</time>
      </trkpt>
      <trkpt lat="48.9117" lon="7.42806">
        <ele>218.401489</ele>
        <time>2010-10-03T13:05:46Z</time>
      </trkpt>
      <trkpt lat="48.91164" lon="7.42829">
        <ele>218.276489</ele>
        <time>2010-10-03T13:05:49Z</time>
      </trkpt>
      <trkpt lat="48.91161" lon="7.42845">
        <ele>217.698364</ele>
        <time>2010-10-03T13:05:51Z</time>
      </trkpt>
      <trkpt lat="48.91158" lon="7.42852">
        <ele>217.651489</ele>
        <time>2010-10-03T13:05:52Z</time>
      </trkpt>
      <trkpt lat="48.91147" lon="7.42871">
        <ele>217.022583</ele>
        <time>2010-10-03T13:05:55Z</time>
      </trkpt>
      <trkpt lat="48.91137" lon="7.42893">
        <ele>215.503052</ele>
        <time>2010-10-03T13:05:58Z</time>
      </trkpt>
      <trkpt lat="48.91132" lon="7.42907">
        <ele>214.686646</ele>
        <time>2010-10-03T13:06:00Z</time>
      </trkpt>
      <trkpt lat="48.91123" lon="7.42932">
        <ele>213.241333</ele>
        <time>2010-10-03T13:06:04Z</time>
      </trkpt>
      <trkpt lat="48.91103" lon="7.43002">
        <ele>211.858521</ele>
        <time>2010-10-03T13:06:15Z</time>
      </trkpt>
      <trkpt lat="48.91097" lon="7.43032">
        <ele>212.221802</ele>
        <time>2010-10-03T13:06:19Z</time>
      </trkpt>
      <trkpt lat="48.91092" lon="7.43048">
        <ele>212.260864</ele>
        <time>2010-10-03T13:06:21Z</time>
      </trkpt>
      <trkpt lat="48.91091" lon="7.43056">
        <ele>212.018677</ele>
        <time>2010-10-03T13:06:22Z</time>
      </trkpt>
      <trkpt lat="48.91091" lon="7.43074">
        <ele>212.163208</ele>
        <time>2010-10-03T13:06:24Z</time>
      </trkpt>
      <trkpt lat="48.91084" lon="7.431">
        <ele>212.135864</ele>
        <time>2010-10-03T13:06:27Z</time>
      </trkpt>
      <trkpt lat="48.91082" lon="7.43118">
        <ele>212.557739</ele>
        <time>2010-10-03T13:06:30Z</time>
      </trkpt>
      <trkpt lat="48.91078" lon="7.43128">
        <ele>212.760864</ele>
        <time>2010-10-03T13:06:32Z</time>
      </trkpt>
      <trkpt lat="48.91077" lon="7.43137">
        <ele>213.620239</ele>
        <time>2010-10-03T13:06:34Z</time>
      </trkpt>
      <trkpt lat="48.91078" lon="7.43152">
        <ele>218.288208</ele>
        <time>2010-10-03T13:06:39Z</time>
      </trkpt>
      <trkpt lat="48.91081" lon="7.43159">
        <ele>221.506958</ele>
        <time>2010-10-03T13:06:42Z</time>
      </trkpt>
      <trkpt lat="48.911" lon="7.4318">
        <ele>219.194458</ele>
        <time>2010-10-03T13:06:50Z</time>
      </trkpt>
      <trkpt lat="48.91107" lon="7.43195">
        <ele>216.901489</ele>
        <time>2010-10-03T13:06:54Z</time>
      </trkpt>
      <trkpt lat="48.91111" lon="7.43198">
        <ele>217.221802</ele>
        <time>2010-10-03T13:06:56Z</time>
      </trkpt>
      <trkpt lat="48.91119" lon="7.43211">
        <ele>219.588989</ele>
        <time>2010-10-03T13:07:01Z</time>
      </trkpt>
      <trkpt lat="48.91121" lon="7.43218">
        <ele>220.620239</ele>
        <time>2010-10-03T13:07:03Z</time>
      </trkpt>
      <trkpt lat="48.91125" lon="7.43234">
        <ele>223.424927</ele>
        <time>2010-10-03T13:07:07Z</time>
      </trkpt>
      <trkpt lat="48.91132" lon="7.43249">
        <ele>226.217896</ele>
        <time>2010-10-03T13:07:11Z</time>
      </trkpt>
      <trkpt lat="48.91141" lon="7.43265">
        <ele>230.120239</ele>
        <time>2010-10-03T13:07:15Z</time>
      </trkpt>
      <trkpt lat="48.91148" lon="7.43282">
        <ele>232.194458</ele>
        <time>2010-10-03T13:07:19Z</time>
      </trkpt>
      <trkpt lat="48.91157" lon="7.43299">
        <ele>233.440552</ele>
        <time>2010-10-03T13:07:23Z</time>
      </trkpt>
      <trkpt lat="48.91166" lon="7.43325">
        <ele>238.131958</ele>
        <time>2010-10-03T13:07:29Z</time>
      </trkpt>
      <trkpt lat="48.91176" lon="7.43342">
        <ele>239.163208</ele>
        <time>2010-10-03T13:07:33Z</time>
      </trkpt>
      <trkpt lat="48.91184" lon="7.43351">
        <ele>243.963989</ele>
        <time>2010-10-03T13:07:37Z</time>
      </trkpt>
      <trkpt lat="48.91196" lon="7.43363">
        <ele>246.237427</ele>
        <time>2010-10-03T13:07:41Z</time>
      </trkpt>
      <trkpt lat="48.91208" lon="7.43377">
        <ele>247.667114</ele>
        <time>2010-10-03T13:07:45Z</time>
      </trkpt>
      <trkpt lat="48.91216" lon="7.4339">
        <ele>249.171021</ele>
        <time>2010-10-03T13:07:49Z</time>
      </trkpt>
      <trkpt lat="48.9122" lon="7.43394">
        <ele>249.479614</ele>
        <time>2010-10-03T13:07:51Z</time>
      </trkpt>
      <trkpt lat="48.91222" lon="7.43401">
        <ele>248.948364</ele>
        <time>2010-10-03T13:07:53Z</time>
      </trkpt>
      <trkpt lat="48.91233" lon="7.43411">
        <ele>250.526489</ele>
        <time>2010-10-03T13:07:57Z</time>
      </trkpt>
      <trkpt lat="48.91239" lon="7.43414">
        <ele>250.131958</ele>
        <time>2010-10-03T13:07:59Z</time>
      </trkpt>
      <trkpt lat="48.91251" lon="7.43425">
        <ele>250.421021</ele>
        <time>2010-10-03T13:08:03Z</time>
      </trkpt>
      <trkpt lat="48.91259" lon="7.43441">
        <ele>250.967896</ele>
        <time>2010-10-03T13:08:08Z</time>
      </trkpt>
      <trkpt lat="48.91264" lon="7.43448">
        <ele>251.116333</ele>
        <time>2010-10-03T13:08:10Z</time>
      </trkpt>
      <trkpt lat="48.91269" lon="7.43457">
        <ele>250.338989</ele>
        <time>2010-10-03T13:08:12Z</time>
      </trkpt>
      <trkpt lat="48.91278" lon="7.43468">
        <ele>248.874146</ele>
        <time>2010-10-03T13:08:16Z</time>
      </trkpt>
      <trkpt lat="48.91287" lon="7.43481">
        <ele>247.885864</ele>
        <time>2010-10-03T13:08:20Z</time>
      </trkpt>
      <trkpt lat="48.91289" lon="7.43487">
        <ele>247.702271</ele>
        <time>2010-10-03T13:08:23Z</time>
      </trkpt>
      <trkpt lat="48.91294" lon="7.43492">
        <ele>248.182739</ele>
        <time>2010-10-03T13:08:26Z</time>
      </trkpt>
      <trkpt lat="48.91296" lon="7.43501">
        <ele>249.366333</ele>
        <time>2010-10-03T13:08:29Z</time>
      </trkpt>
      <trkpt lat="48.91296" lon="7.43509">
        <ele>251.210083</ele>
        <time>2010-10-03T13:08:33Z</time>
      </trkpt>
      <trkpt lat="48.913" lon="7.43523">
        <ele>254.706177</ele>
        <time>2010-10-03T13:08:39Z</time>
      </trkpt>
      <trkpt lat="48.91313" lon="7.4355">
        <ele>257.217041</ele>
        <time>2010-10-03T13:08:51Z</time>
      </trkpt>
      <trkpt lat="48.91317" lon="7.43555">
        <ele>257.404541</ele>
        <time>2010-10-03T13:08:53Z</time>
      </trkpt>
      <trkpt lat="48.91322" lon="7.43569">
        <ele>259.099854</ele>
        <time>2010-10-03T13:08:59Z</time>
      </trkpt>
      <trkpt lat="48.91325" lon="7.43582">
        <ele>261.779541</ele>
        <time>2010-10-03T13:09:05Z</time>
      </trkpt>
      <trkpt lat="48.91329" lon="7.43588">
        <ele>262.826416</ele>
        <time>2010-10-03T13:09:08Z</time>
      </trkpt>
      <trkpt lat="48.91332" lon="7.43599">
        <ele>260.677979</ele>
        <time>2010-10-03T13:09:10Z</time>
      </trkpt>
      <trkpt lat="48.91335" lon="7.43605">
        <ele>261.146729</ele>
        <time>2010-10-03T13:09:12Z</time>
      </trkpt>
      <trkpt lat="48.91339" lon="7.43609">
        <ele>261.427979</ele>
        <time>2010-10-03T13:09:15Z</time>
      </trkpt>
      <trkpt lat="48.91345" lon="7.43623">
        <ele>260.490479</ele>
        <time>2010-10-03T13:09:21Z</time>
      </trkpt>
      <trkpt lat="48.91354" lon="7.43637">
        <ele>258.709229</ele>
        <time>2010-10-03T13:09:27Z</time>
      </trkpt>
      <trkpt lat="48.91363" lon="7.43648">
        <ele>259.349854</ele>
        <time>2010-10-03T13:09:32Z</time>
      </trkpt>
      <trkpt lat="48.91367" lon="7.43662">
        <ele>258.506104</ele>
        <time>2010-10-03T13:09:37Z</time>
      </trkpt>
      <trkpt lat="48.91369" lon="7.43668">
        <ele>259.513916</ele>
        <time>2010-10-03T13:09:39Z</time>
      </trkpt>
      <trkpt lat="48.91373" lon="7.43675">
        <ele>260.802979</ele>
        <time>2010-10-03T13:09:42Z</time>
      </trkpt>
      <trkpt lat="48.91383" lon="7.43687">
        <ele>261.646729</ele>
        <time>2010-10-03T13:09:48Z</time>
      </trkpt>
      <trkpt lat="48.91395" lon="7.43707">
        <ele>263.513916</ele>
        <time>2010-10-03T13:09:54Z</time>
      </trkpt>
      <trkpt lat="48.91412" lon="7.43721">
        <ele>260.810791</ele>
        <time>2010-10-03T13:10:00Z</time>
      </trkpt>
      <trkpt lat="48.9142" lon="7.43733">
        <ele>261.006104</ele>
        <time>2010-10-03T13:10:03Z</time>
      </trkpt>
      <trkpt lat="48.91422" lon="7.43739">
        <ele>261.271729</ele>
        <time>2010-10-03T13:10:05Z</time>
      </trkpt>
      <trkpt lat="48.91424" lon="7.43752">
        <ele>263.435791</ele>
        <time>2010-10-03T13:10:13Z</time>
      </trkpt>
      <trkpt lat="48.91445" lon="7.43775">
        <ele>265.920166</ele>
        <time>2010-10-03T13:10:35Z</time>
      </trkpt>
      <trkpt lat="48.91448" lon="7.43782">
        <ele>265.404541</ele>
        <time>2010-10-03T13:10:38Z</time>
      </trkpt>
      <trkpt lat="48.91452" lon="7.43788">
        <ele>265.568604</ele>
        <time>2010-10-03T13:10:40Z</time>
      </trkpt>
      <trkpt lat="48.91468" lon="7.43802">
        <ele>266.263916</ele>
        <time>2010-10-03T13:10:46Z</time>
      </trkpt>
      <trkpt lat="48.91478" lon="7.43821">
        <ele>266.857666</ele>
        <time>2010-10-03T13:10:53Z</time>
      </trkpt>
      <trkpt lat="48.91483" lon="7.43827">
        <ele>266.685791</ele>
        <time>2010-10-03T13:10:56Z</time>
      </trkpt>
      <trkpt lat="48.91489" lon="7.43838">
        <ele>268.646729</ele>
        <time>2010-10-03T13:11:00Z</time>
      </trkpt>
      <trkpt lat="48.91495" lon="7.43842">
        <ele>268.756104</ele>
        <time>2010-10-03T13:11:02Z</time>
      </trkpt>
      <trkpt lat="48.91499" lon="7.43848">
        <ele>268.568604</ele>
        <time>2010-10-03T13:11:04Z</time>
      </trkpt>
      <trkpt lat="48.91503" lon="7.43861">
        <ele>267.170166</ele>
        <time>2010-10-03T13:11:07Z</time>
      </trkpt>
      <trkpt lat="48.91507" lon="7.43868">
        <ele>266.638916</ele>
        <time>2010-10-03T13:11:09Z</time>
      </trkpt>
      <trkpt lat="48.91526" lon="7.43894">
        <ele>263.373291</ele>
        <time>2010-10-03T13:11:18Z</time>
      </trkpt>
      <trkpt lat="48.9153" lon="7.43903">
        <ele>264.154541</ele>
        <time>2010-10-03T13:11:21Z</time>
      </trkpt>
      <trkpt lat="48.91542" lon="7.43918">
        <ele>265.342041</ele>
        <time>2010-10-03T13:11:27Z</time>
      </trkpt>
      <trkpt lat="48.91553" lon="7.43928">
        <ele>264.693604</ele>
        <time>2010-10-03T13:11:31Z</time>
      </trkpt>
      <trkpt lat="48.91564" lon="7.43944">
        <ele>265.717041</ele>
        <time>2010-10-03T13:11:38Z</time>
      </trkpt>
      <trkpt lat="48.9157" lon="7.43958">
        <ele>265.146729</ele>
        <time>2010-10-03T13:13:20Z</time>
      </trkpt>
      <trkpt lat="48.91576" lon="7.43959">
        <ele>258.006104</ele>
        <time>2010-10-03T13:13:25Z</time>
      </trkpt>
      <trkpt lat="48.91582" lon="7.43977">
        <ele>252.522583</ele>
        <time>2010-10-03T13:15:10Z</time>
      </trkpt>
      <trkpt lat="48.91584" lon="7.43982">
        <ele>253.514771</ele>
        <time>2010-10-03T13:15:13Z</time>
      </trkpt>
      <trkpt lat="48.91589" lon="7.43987">
        <ele>254.710083</ele>
        <time>2010-10-03T13:15:17Z</time>
      </trkpt>
      <trkpt lat="48.916" lon="7.44001">
        <ele>257.834229</ele>
        <time>2010-10-03T13:15:27Z</time>
      </trkpt>
      <trkpt lat="48.91605" lon="7.44004">
        <ele>258.779541</ele>
        <time>2010-10-03T13:15:30Z</time>
      </trkpt>
      <trkpt lat="48.91614" lon="7.44014">
        <ele>260.232666</ele>
        <time>2010-10-03T13:15:37Z</time>
      </trkpt>
      <trkpt lat="48.91618" lon="7.44021">
        <ele>261.263916</ele>
        <time>2010-10-03T13:15:41Z</time>
      </trkpt>
      <trkpt lat="48.91627" lon="7.4403">
        <ele>262.724854</ele>
        <time>2010-10-03T13:15:49Z</time>
      </trkpt>
      <trkpt lat="48.91635" lon="7.44039">
        <ele>263.818604</ele>
        <time>2010-10-03T13:15:56Z</time>
      </trkpt>
      <trkpt lat="48.91641" lon="7.44052">
        <ele>265.021729</ele>
        <time>2010-10-03T13:16:04Z</time>
      </trkpt>
      <trkpt lat="48.91647" lon="7.44063">
        <ele>267.052979</ele>
        <time>2010-10-03T13:16:12Z</time>
      </trkpt>
      <trkpt lat="48.91649" lon="7.44071">
        <ele>268.435791</ele>
        <time>2010-10-03T13:16:16Z</time>
      </trkpt>
      <trkpt lat="48.9165" lon="7.4408">
        <ele>269.326416</ele>
        <time>2010-10-03T13:16:21Z</time>
      </trkpt>
      <trkpt lat="48.91652" lon="7.44088">
        <ele>269.459229</ele>
        <time>2010-10-03T13:16:25Z</time>
      </trkpt>
      <trkpt lat="48.91662" lon="7.44105">
        <ele>269.982666</ele>
        <time>2010-10-03T13:16:38Z</time>
      </trkpt>
      <trkpt lat="48.91667" lon="7.44119">
        <ele>267.677979</ele>
        <time>2010-10-03T13:16:47Z</time>
      </trkpt>
      <trkpt lat="48.91669" lon="7.44127">
        <ele>268.388916</ele>
        <time>2010-10-03T13:16:53Z</time>
      </trkpt>
      <trkpt lat="48.91674" lon="7.44141">
        <ele>271.162354</ele>
        <time>2010-10-03T13:17:03Z</time>
      </trkpt>
      <trkpt lat="48.91678" lon="7.44147">
        <ele>272.099854</ele>
        <time>2010-10-03T13:17:08Z</time>
      </trkpt>
      <trkpt lat="48.91686" lon="7.44156">
        <ele>273.763916</ele>
        <time>2010-10-03T13:17:16Z</time>
      </trkpt>
      <trkpt lat="48.91689" lon="7.44163">
        <ele>274.560791</ele>
        <time>2010-10-03T13:17:21Z</time>
      </trkpt>
      <trkpt lat="48.917" lon="7.44187">
        <ele>279.990479</ele>
        <time>2010-10-03T13:17:38Z</time>
      </trkpt>
      <trkpt lat="48.91703" lon="7.44194">
        <ele>281.490479</ele>
        <time>2010-10-03T13:17:42Z</time>
      </trkpt>
      <trkpt lat="48.91704" lon="7.44202">
        <ele>284.349854</ele>
        <time>2010-10-03T13:17:48Z</time>
      </trkpt>
      <trkpt lat="48.91708" lon="7.44215">
        <ele>284.888916</ele>
        <time>2010-10-03T13:17:56Z</time>
      </trkpt>
      <trkpt lat="48.91712" lon="7.44236">
        <ele>290.217041</ele>
        <time>2010-10-03T13:18:15Z</time>
      </trkpt>
      <trkpt lat="48.91718" lon="7.44249">
        <ele>292.146729</ele>
        <time>2010-10-03T13:18:24Z</time>
      </trkpt>
      <trkpt lat="48.91716" lon="7.44257">
        <ele>293.248291</ele>
        <time>2010-10-03T13:18:29Z</time>
      </trkpt>
      <trkpt lat="48.91714" lon="7.44279">
        <ele>295.927979</ele>
        <time>2010-10-03T13:18:45Z</time>
      </trkpt>
      <trkpt lat="48.91715" lon="7.44301">
        <ele>297.810791</ele>
        <time>2010-10-03T13:18:57Z</time>
      </trkpt>
      <trkpt lat="48.91717" lon="7.44307">
        <ele>300.224854</ele>
        <time>2010-10-03T13:19:03Z</time>
      </trkpt>
      <trkpt lat="48.91715" lon="7.44326">
        <ele>307.256104</ele>
        <time>2010-10-03T13:19:17Z</time>
      </trkpt>
      <trkpt lat="48.91718" lon="7.44333">
        <ele>308.131104</ele>
        <time>2010-10-03T13:19:22Z</time>
      </trkpt>
      <trkpt lat="48.91719" lon="7.44341">
        <ele>308.326416</ele>
        <time>2010-10-03T13:19:27Z</time>
      </trkpt>
      <trkpt lat="48.91724" lon="7.44347">
        <ele>309.677979</ele>
        <time>2010-10-03T13:19:32Z</time>
      </trkpt>
      <trkpt lat="48.91726" lon="7.44353">
        <ele>310.998291</ele>
        <time>2010-10-03T13:19:37Z</time>
      </trkpt>
      <trkpt lat="48.91731" lon="7.44374">
        <ele>313.826416</ele>
        <time>2010-10-03T13:19:48Z</time>
      </trkpt>
      <trkpt lat="48.91737" lon="7.44386">
        <ele>314.490479</ele>
        <time>2010-10-03T13:19:56Z</time>
      </trkpt>
      <trkpt lat="48.9174" lon="7.44395">
        <ele>314.670166</ele>
        <time>2010-10-03T13:19:59Z</time>
      </trkpt>
      <trkpt lat="48.9174" lon="7.44402">
        <ele>315.052979</ele>
        <time>2010-10-03T13:20:03Z</time>
      </trkpt>
      <trkpt lat="48.91746" lon="7.44415">
        <ele>313.146729</ele>
        <time>2010-10-03T13:20:08Z</time>
      </trkpt>
      <trkpt lat="48.9175" lon="7.4444">
        <ele>316.631104</ele>
        <time>2010-10-03T13:20:16Z</time>
      </trkpt>
      <trkpt lat="48.91749" lon="7.44449">
        <ele>318.842041</ele>
        <time>2010-10-03T13:20:18Z</time>
      </trkpt>
      <trkpt lat="48.91749" lon="7.44458">
        <ele>318.888916</ele>
        <time>2010-10-03T13:20:20Z</time>
      </trkpt>
      <trkpt lat="48.9175" lon="7.44468">
        <ele>320.763916</ele>
        <time>2010-10-03T13:20:22Z</time>
      </trkpt>
      <trkpt lat="48.91752" lon="7.44484">
        <ele>319.138916</ele>
        <time>2010-10-03T13:20:26Z</time>
      </trkpt>
      <trkpt lat="48.91754" lon="7.44494">
        <ele>317.638916</ele>
        <time>2010-10-03T13:20:28Z</time>
      </trkpt>
      <trkpt lat="48.91759" lon="7.44524">
        <ele>315.654541</ele>
        <time>2010-10-03T13:20:37Z</time>
      </trkpt>
      <trkpt lat="48.91756" lon="7.4452">
        <ele>311.787354</ele>
        <time>2010-10-03T13:20:43Z</time>
      </trkpt>
      <trkpt lat="48.91755" lon="7.44527">
        <ele>311.857666</ele>
        <time>2010-10-03T13:22:13Z</time>
      </trkpt>
      <trkpt lat="48.91754" lon="7.44535">
        <ele>312.482666</ele>
        <time>2010-10-03T13:22:15Z</time>
      </trkpt>
      <trkpt lat="48.91757" lon="7.44558">
        <ele>314.357666</ele>
        <time>2010-10-03T13:22:21Z</time>
      </trkpt>
      <trkpt lat="48.91755" lon="7.44566">
        <ele>314.896729</ele>
        <time>2010-10-03T13:22:23Z</time>
      </trkpt>
      <trkpt lat="48.91757" lon="7.44603">
        <ele>310.849854</ele>
        <time>2010-10-03T13:22:31Z</time>
      </trkpt>
      <trkpt lat="48.91756" lon="7.44623">
        <ele>309.967041</ele>
        <time>2010-10-03T13:22:35Z</time>
      </trkpt>
      <trkpt lat="48.91756" lon="7.44643">
        <ele>309.498291</ele>
        <time>2010-10-03T13:22:39Z</time>
      </trkpt>
      <trkpt lat="48.91761" lon="7.44687">
        <ele>308.873291</ele>
        <time>2010-10-03T13:22:46Z</time>
      </trkpt>
      <trkpt lat="48.91766" lon="7.44711">
        <ele>309.099854</ele>
        <time>2010-10-03T13:22:49Z</time>
      </trkpt>
      <trkpt lat="48.91773" lon="7.44735">
        <ele>308.154541</ele>
        <time>2010-10-03T13:22:52Z</time>
      </trkpt>
      <trkpt lat="48.91782" lon="7.44775">
        <ele>311.482666</ele>
        <time>2010-10-03T13:22:58Z</time>
      </trkpt>
      <trkpt lat="48.91784" lon="7.4479">
        <ele>310.920166</ele>
        <time>2010-10-03T13:23:00Z</time>
      </trkpt>
      <trkpt lat="48.91786" lon="7.44816">
        <ele>311.467041</ele>
        <time>2010-10-03T13:23:04Z</time>
      </trkpt>
      <trkpt lat="48.91787" lon="7.44824">
        <ele>310.474854</ele>
        <time>2010-10-03T13:23:05Z</time>
      </trkpt>
      <trkpt lat="48.91789" lon="7.44844">
        <ele>311.302979</ele>
        <time>2010-10-03T13:23:08Z</time>
      </trkpt>
      <trkpt lat="48.9179" lon="7.4487">
        <ele>311.092041</ele>
        <time>2010-10-03T13:23:12Z</time>
      </trkpt>
      <trkpt lat="48.91795" lon="7.44915">
        <ele>307.873291</ele>
        <time>2010-10-03T13:23:19Z</time>
      </trkpt>
      <trkpt lat="48.91794" lon="7.44927">
        <ele>308.709229</ele>
        <time>2010-10-03T13:23:21Z</time>
      </trkpt>
      <trkpt lat="48.91795" lon="7.44964">
        <ele>303.881104</ele>
        <time>2010-10-03T13:23:27Z</time>
      </trkpt>
      <trkpt lat="48.91798" lon="7.44977">
        <ele>302.123291</ele>
        <time>2010-10-03T13:23:29Z</time>
      </trkpt>
      <trkpt lat="48.91799" lon="7.45023">
        <ele>300.123291</ele>
        <time>2010-10-03T13:23:37Z</time>
      </trkpt>
      <trkpt lat="48.918" lon="7.45034">
        <ele>299.396729</ele>
        <time>2010-10-03T13:23:39Z</time>
      </trkpt>
      <trkpt lat="48.918" lon="7.45045">
        <ele>299.217041</ele>
        <time>2010-10-03T13:23:41Z</time>
      </trkpt>
      <trkpt lat="48.91798" lon="7.45055">
        <ele>300.904541</ele>
        <time>2010-10-03T13:23:43Z</time>
      </trkpt>
      <trkpt lat="48.91799" lon="7.45084">
        <ele>301.224854</ele>
        <time>2010-10-03T13:23:49Z</time>
      </trkpt>
      <trkpt lat="48.91798" lon="7.45093">
        <ele>302.138916</ele>
        <time>2010-10-03T13:23:51Z</time>
      </trkpt>
      <trkpt lat="48.91799" lon="7.45112">
        <ele>301.607666</ele>
        <time>2010-10-03T13:23:55Z</time>
      </trkpt>
      <trkpt lat="48.91801" lon="7.4512">
        <ele>301.756104</ele>
        <time>2010-10-03T13:23:57Z</time>
      </trkpt>
      <trkpt lat="48.91801" lon="7.45127">
        <ele>301.818604</ele>
        <time>2010-10-03T13:23:59Z</time>
      </trkpt>
      <trkpt lat="48.918" lon="7.45135">
        <ele>302.873291</ele>
        <time>2010-10-03T13:24:01Z</time>
      </trkpt>
      <trkpt lat="48.918" lon="7.45153">
        <ele>305.334229</ele>
        <time>2010-10-03T13:24:05Z</time>
      </trkpt>
      <trkpt lat="48.91805" lon="7.45186">
        <ele>306.537354</ele>
        <time>2010-10-03T13:24:14Z</time>
      </trkpt>
      <trkpt lat="48.91804" lon="7.45194">
        <ele>308.670166</ele>
        <time>2010-10-03T13:24:16Z</time>
      </trkpt>
      <trkpt lat="48.91808" lon="7.45219">
        <ele>311.045166</ele>
        <time>2010-10-03T13:24:23Z</time>
      </trkpt>
      <trkpt lat="48.91811" lon="7.45239">
        <ele>315.951416</ele>
        <time>2010-10-03T13:24:29Z</time>
      </trkpt>
      <trkpt lat="48.91814" lon="7.45247">
        <ele>315.904541</ele>
        <time>2010-10-03T13:24:31Z</time>
      </trkpt>
      <trkpt lat="48.91815" lon="7.45264">
        <ele>319.888916</ele>
        <time>2010-10-03T13:24:36Z</time>
      </trkpt>
      <trkpt lat="48.9182" lon="7.453">
        <ele>329.459229</ele>
        <time>2010-10-03T13:24:44Z</time>
      </trkpt>
      <trkpt lat="48.91822" lon="7.45309">
        <ele>330.701416</ele>
        <time>2010-10-03T13:24:46Z</time>
      </trkpt>
      <trkpt lat="48.91826" lon="7.45317">
        <ele>332.326416</ele>
        <time>2010-10-03T13:24:48Z</time>
      </trkpt>
      <trkpt lat="48.91828" lon="7.45338">
        <ele>336.154541</ele>
        <time>2010-10-03T13:24:52Z</time>
      </trkpt>
      <trkpt lat="48.91837" lon="7.45374">
        <ele>339.498291</ele>
        <time>2010-10-03T13:24:58Z</time>
      </trkpt>
      <trkpt lat="48.91839" lon="7.45385">
        <ele>339.263916</ele>
        <time>2010-10-03T13:25:00Z</time>
      </trkpt>
      <trkpt lat="48.91837" lon="7.45402">
        <ele>342.295166</ele>
        <time>2010-10-03T13:25:04Z</time>
      </trkpt>
      <trkpt lat="48.91838" lon="7.4541">
        <ele>341.685791</ele>
        <time>2010-10-03T13:25:06Z</time>
      </trkpt>
      <trkpt lat="48.91837" lon="7.45418">
        <ele>344.771729</ele>
        <time>2010-10-03T13:25:08Z</time>
      </trkpt>
      <trkpt lat="48.91841" lon="7.45426">
        <ele>346.857666</ele>
        <time>2010-10-03T13:25:10Z</time>
      </trkpt>
      <trkpt lat="48.91845" lon="7.45435">
        <ele>348.162354</ele>
        <time>2010-10-03T13:25:12Z</time>
      </trkpt>
      <trkpt lat="48.91847" lon="7.45455">
        <ele>351.584229</ele>
        <time>2010-10-03T13:25:16Z</time>
      </trkpt>
      <trkpt lat="48.91847" lon="7.45464">
        <ele>354.162354</ele>
        <time>2010-10-03T13:25:18Z</time>
      </trkpt>
      <trkpt lat="48.91852" lon="7.45481">
        <ele>354.834229</ele>
        <time>2010-10-03T13:25:22Z</time>
      </trkpt>
      <trkpt lat="48.91856" lon="7.45488">
        <ele>357.818604</ele>
        <time>2010-10-03T13:25:24Z</time>
      </trkpt>
      <trkpt lat="48.9186" lon="7.45496">
        <ele>360.396729</ele>
        <time>2010-10-03T13:25:26Z</time>
      </trkpt>
      <trkpt lat="48.91865" lon="7.45504">
        <ele>361.396729</ele>
        <time>2010-10-03T13:25:28Z</time>
      </trkpt>
      <trkpt lat="48.91865" lon="7.45523">
        <ele>360.638916</ele>
        <time>2010-10-03T13:25:31Z</time>
      </trkpt>
      <trkpt lat="48.91866" lon="7.45539">
        <ele>359.287354</ele>
        <time>2010-10-03T13:25:36Z</time>
      </trkpt>
      <trkpt lat="48.91867" lon="7.45548">
        <ele>359.888916</ele>
        <time>2010-10-03T13:25:38Z</time>
      </trkpt>
      <trkpt lat="48.91872" lon="7.45556">
        <ele>360.232666</ele>
        <time>2010-10-03T13:25:39Z</time>
      </trkpt>
      <trkpt lat="48.9187" lon="7.45573">
        <ele>355.365479</ele>
        <time>2010-10-03T13:25:43Z</time>
      </trkpt>
      <trkpt lat="48.91867" lon="7.45596">
        <ele>351.685791</ele>
        <time>2010-10-03T13:25:48Z</time>
      </trkpt>
      <trkpt lat="48.91866" lon="7.45603">
        <ele>350.373291</ele>
        <time>2010-10-03T13:25:50Z</time>
      </trkpt>
      <trkpt lat="48.91862" lon="7.45608">
        <ele>350.201416</ele>
        <time>2010-10-03T13:25:52Z</time>
      </trkpt>
      <trkpt lat="48.91856" lon="7.45624">
        <ele>346.482666</ele>
        <time>2010-10-03T13:25:58Z</time>
      </trkpt>
      <trkpt lat="48.91852" lon="7.45629">
        <ele>346.412354</ele>
        <time>2010-10-03T13:26:00Z</time>
      </trkpt>
      <trkpt lat="48.91851" lon="7.45636">
        <ele>346.209229</ele>
        <time>2010-10-03T13:26:02Z</time>
      </trkpt>
      <trkpt lat="48.91845" lon="7.4565">
        <ele>344.592041</ele>
        <time>2010-10-03T13:26:06Z</time>
      </trkpt>
      <trkpt lat="48.91844" lon="7.45658">
        <ele>343.459229</ele>
        <time>2010-10-03T13:26:08Z</time>
      </trkpt>
      <trkpt lat="48.91841" lon="7.45665">
        <ele>342.006104</ele>
        <time>2010-10-03T13:26:10Z</time>
      </trkpt>
      <trkpt lat="48.9184" lon="7.45684">
        <ele>338.467041</ele>
        <time>2010-10-03T13:26:15Z</time>
      </trkpt>
      <trkpt lat="48.91841" lon="7.45699">
        <ele>335.927979</ele>
        <time>2010-10-03T13:26:17Z</time>
      </trkpt>
      <trkpt lat="48.91839" lon="7.45708">
        <ele>337.013916</ele>
        <time>2010-10-03T13:26:19Z</time>
      </trkpt>
      <trkpt lat="48.9184" lon="7.45717">
        <ele>335.834229</ele>
        <time>2010-10-03T13:26:21Z</time>
      </trkpt>
      <trkpt lat="48.91842" lon="7.45727">
        <ele>333.451416</ele>
        <time>2010-10-03T13:26:23Z</time>
      </trkpt>
      <trkpt lat="48.91841" lon="7.45736">
        <ele>333.935791</ele>
        <time>2010-10-03T13:26:25Z</time>
      </trkpt>
      <trkpt lat="48.91836" lon="7.45744">
        <ele>337.045166</ele>
        <time>2010-10-03T13:26:27Z</time>
      </trkpt>
      <trkpt lat="48.91837" lon="7.45752">
        <ele>336.763916</ele>
        <time>2010-10-03T13:26:30Z</time>
      </trkpt>
      <trkpt lat="48.9184" lon="7.45758">
        <ele>331.099854</ele>
        <time>2010-10-03T13:26:33Z</time>
      </trkpt>
      <trkpt lat="48.9184" lon="7.45766">
        <ele>327.381104</ele>
        <time>2010-10-03T13:27:06Z</time>
      </trkpt>
      <trkpt lat="48.91838" lon="7.45781">
        <ele>324.670166</ele>
        <time>2010-10-03T13:27:10Z</time>
      </trkpt>
      <trkpt lat="48.91833" lon="7.45788">
        <ele>323.420166</ele>
        <time>2010-10-03T13:27:13Z</time>
      </trkpt>
      <trkpt lat="48.9183" lon="7.45797">
        <ele>321.842041</ele>
        <time>2010-10-03T13:27:15Z</time>
      </trkpt>
      <trkpt lat="48.91824" lon="7.45805">
        <ele>320.865479</ele>
        <time>2010-10-03T13:27:17Z</time>
      </trkpt>
      <trkpt lat="48.91822" lon="7.45811">
        <ele>319.834229</ele>
        <time>2010-10-03T13:27:18Z</time>
      </trkpt>
      <trkpt lat="48.91818" lon="7.4582">
        <ele>319.138916</ele>
        <time>2010-10-03T13:27:20Z</time>
      </trkpt>
      <trkpt lat="48.91802" lon="7.45837">
        <ele>319.029541</ele>
        <time>2010-10-03T13:27:27Z</time>
      </trkpt>
      <trkpt lat="48.91799" lon="7.45844">
        <ele>318.904541</ele>
        <time>2010-10-03T13:27:30Z</time>
      </trkpt>
      <trkpt lat="48.91793" lon="7.45851">
        <ele>318.842041</ele>
        <time>2010-10-03T13:27:33Z</time>
      </trkpt>
      <trkpt lat="48.9179" lon="7.45859">
        <ele>319.998291</ele>
        <time>2010-10-03T13:27:36Z</time>
      </trkpt>
      <trkpt lat="48.91782" lon="7.45873">
        <ele>323.013916</ele>
        <time>2010-10-03T13:27:40Z</time>
      </trkpt>
      <trkpt lat="48.91777" lon="7.45879">
        <ele>324.717041</ele>
        <time>2010-10-03T13:27:42Z</time>
      </trkpt>
      <trkpt lat="48.91774" lon="7.45897">
        <ele>324.045166</ele>
        <time>2010-10-03T13:27:47Z</time>
      </trkpt>
      <trkpt lat="48.91772" lon="7.45905">
        <ele>325.857666</ele>
        <time>2010-10-03T13:27:49Z</time>
      </trkpt>
      <trkpt lat="48.91768" lon="7.45911">
        <ele>326.568604</ele>
        <time>2010-10-03T13:27:51Z</time>
      </trkpt>
      <trkpt lat="48.91762" lon="7.45928">
        <ele>326.162354</ele>
        <time>2010-10-03T13:27:55Z</time>
      </trkpt>
      <trkpt lat="48.91761" lon="7.45938">
        <ele>324.154541</ele>
        <time>2010-10-03T13:27:56Z</time>
      </trkpt>
      <trkpt lat="48.9176" lon="7.45951">
        <ele>321.904541</ele>
        <time>2010-10-03T13:27:58Z</time>
      </trkpt>
      <trkpt lat="48.91755" lon="7.45967">
        <ele>324.881104</ele>
        <time>2010-10-03T13:28:02Z</time>
      </trkpt>
      <trkpt lat="48.91755" lon="7.45977">
        <ele>325.412354</ele>
        <time>2010-10-03T13:28:04Z</time>
      </trkpt>
      <trkpt lat="48.91752" lon="7.45984">
        <ele>325.990479</ele>
        <time>2010-10-03T13:28:06Z</time>
      </trkpt>
      <trkpt lat="48.91748" lon="7.45989">
        <ele>327.209229</ele>
        <time>2010-10-03T13:28:08Z</time>
      </trkpt>
      <trkpt lat="48.91745" lon="7.45999">
        <ele>327.873291</ele>
        <time>2010-10-03T13:28:10Z</time>
      </trkpt>
      <trkpt lat="48.91743" lon="7.46017">
        <ele>330.131104</ele>
        <time>2010-10-03T13:28:15Z</time>
      </trkpt>
      <trkpt lat="48.91738" lon="7.46028">
        <ele>333.412354</ele>
        <time>2010-10-03T13:28:19Z</time>
      </trkpt>
      <trkpt lat="48.91736" lon="7.46035">
        <ele>334.342041</ele>
        <time>2010-10-03T13:28:21Z</time>
      </trkpt>
      <trkpt lat="48.91732" lon="7.46042">
        <ele>335.568604</ele>
        <time>2010-10-03T13:28:24Z</time>
      </trkpt>
      <trkpt lat="48.91728" lon="7.46046">
        <ele>336.201416</ele>
        <time>2010-10-03T13:28:26Z</time>
      </trkpt>
      <trkpt lat="48.91726" lon="7.46053">
        <ele>336.896729</ele>
        <time>2010-10-03T13:28:29Z</time>
      </trkpt>
      <trkpt lat="48.91719" lon="7.46063">
        <ele>336.724854</ele>
        <time>2010-10-03T13:28:33Z</time>
      </trkpt>
      <trkpt lat="48.91712" lon="7.4608">
        <ele>337.279541</ele>
        <time>2010-10-03T13:28:37Z</time>
      </trkpt>
      <trkpt lat="48.91708" lon="7.46085">
        <ele>337.881104</ele>
        <time>2010-10-03T13:28:39Z</time>
      </trkpt>
      <trkpt lat="48.91707" lon="7.46093">
        <ele>338.420166</ele>
        <time>2010-10-03T13:28:41Z</time>
      </trkpt>
      <trkpt lat="48.91704" lon="7.46102">
        <ele>338.724854</ele>
        <time>2010-10-03T13:28:43Z</time>
      </trkpt>
      <trkpt lat="48.917" lon="7.46109">
        <ele>338.576416</ele>
        <time>2010-10-03T13:28:46Z</time>
      </trkpt>
      <trkpt lat="48.91698" lon="7.46115">
        <ele>339.279541</ele>
        <time>2010-10-03T13:28:48Z</time>
      </trkpt>
      <trkpt lat="48.91696" lon="7.46126">
        <ele>340.756104</ele>
        <time>2010-10-03T13:28:50Z</time>
      </trkpt>
      <trkpt lat="48.91692" lon="7.46134">
        <ele>342.927979</ele>
        <time>2010-10-03T13:28:52Z</time>
      </trkpt>
      <trkpt lat="48.91689" lon="7.46138">
        <ele>342.771729</ele>
        <time>2010-10-03T13:28:54Z</time>
      </trkpt>
      <trkpt lat="48.91687" lon="7.46148">
        <ele>342.599854</ele>
        <time>2010-10-03T13:28:56Z</time>
      </trkpt>
      <trkpt lat="48.91679" lon="7.46163">
        <ele>343.295166</ele>
        <time>2010-10-03T13:29:00Z</time>
      </trkpt>
      <trkpt lat="48.91673" lon="7.4618">
        <ele>341.568604</ele>
        <time>2010-10-03T13:29:04Z</time>
      </trkpt>
      <trkpt lat="48.9167" lon="7.4619">
        <ele>341.451416</ele>
        <time>2010-10-03T13:29:06Z</time>
      </trkpt>
      <trkpt lat="48.91669" lon="7.462">
        <ele>340.224854</ele>
        <time>2010-10-03T13:29:08Z</time>
      </trkpt>
      <trkpt lat="48.91663" lon="7.4622">
        <ele>339.693604</ele>
        <time>2010-10-03T13:29:12Z</time>
      </trkpt>
      <trkpt lat="48.9166" lon="7.46228">
        <ele>341.849854</ele>
        <time>2010-10-03T13:29:14Z</time>
      </trkpt>
      <trkpt lat="48.91658" lon="7.46236">
        <ele>340.623291</ele>
        <time>2010-10-03T13:29:16Z</time>
      </trkpt>
      <trkpt lat="48.91657" lon="7.46245">
        <ele>340.459229</ele>
        <time>2010-10-03T13:29:18Z</time>
      </trkpt>
      <trkpt lat="48.91655" lon="7.46254">
        <ele>341.185791</ele>
        <time>2010-10-03T13:29:21Z</time>
      </trkpt>
      <trkpt lat="48.91651" lon="7.4626">
        <ele>341.592041</ele>
        <time>2010-10-03T13:29:23Z</time>
      </trkpt>
      <trkpt lat="48.91649" lon="7.4627">
        <ele>342.060791</ele>
        <time>2010-10-03T13:29:25Z</time>
      </trkpt>
      <trkpt lat="48.91646" lon="7.46278">
        <ele>342.146729</ele>
        <time>2010-10-03T13:29:27Z</time>
      </trkpt>
      <trkpt lat="48.91639" lon="7.46305">
        <ele>344.842041</ele>
        <time>2010-10-03T13:29:33Z</time>
      </trkpt>
      <trkpt lat="48.91636" lon="7.46313">
        <ele>346.232666</ele>
        <time>2010-10-03T13:29:36Z</time>
      </trkpt>
      <trkpt lat="48.91634" lon="7.4632">
        <ele>345.701416</ele>
        <time>2010-10-03T13:29:39Z</time>
      </trkpt>
      <trkpt lat="48.91634" lon="7.46329">
        <ele>347.982666</ele>
        <time>2010-10-03T13:29:42Z</time>
      </trkpt>
      <trkpt lat="48.91637" lon="7.46337">
        <ele>350.052979</ele>
        <time>2010-10-03T13:29:46Z</time>
      </trkpt>
      <trkpt lat="48.91644" lon="7.4634">
        <ele>350.756104</ele>
        <time>2010-10-03T13:29:48Z</time>
      </trkpt>
      <trkpt lat="48.91658" lon="7.46344">
        <ele>352.631104</ele>
        <time>2010-10-03T13:29:52Z</time>
      </trkpt>
      <trkpt lat="48.91669" lon="7.4635">
        <ele>353.498291</ele>
        <time>2010-10-03T13:29:55Z</time>
      </trkpt>
      <trkpt lat="48.91683" lon="7.46355">
        <ele>356.842041</ele>
        <time>2010-10-03T13:29:59Z</time>
      </trkpt>
      <trkpt lat="48.9169" lon="7.46359">
        <ele>358.092041</ele>
        <time>2010-10-03T13:30:01Z</time>
      </trkpt>
      <trkpt lat="48.91696" lon="7.4636">
        <ele>359.185791</ele>
        <time>2010-10-03T13:30:03Z</time>
      </trkpt>
      <trkpt lat="48.9171" lon="7.46369">
        <ele>359.888916</ele>
        <time>2010-10-03T13:30:07Z</time>
      </trkpt>
      <trkpt lat="48.91723" lon="7.46372">
        <ele>361.724854</ele>
        <time>2010-10-03T13:30:10Z</time>
      </trkpt>
      <trkpt lat="48.91729" lon="7.46375">
        <ele>360.990479</ele>
        <time>2010-10-03T13:30:12Z</time>
      </trkpt>
      <trkpt lat="48.91737" lon="7.46384">
        <ele>358.209229</ele>
        <time>2010-10-03T13:30:16Z</time>
      </trkpt>
      <trkpt lat="48.91751" lon="7.46407">
        <ele>357.763916</ele>
        <time>2010-10-03T13:30:21Z</time>
      </trkpt>
      <trkpt lat="48.9176" lon="7.46426">
        <ele>356.334229</ele>
        <time>2010-10-03T13:30:25Z</time>
      </trkpt>
      <trkpt lat="48.91769" lon="7.46454">
        <ele>357.677979</ele>
        <time>2010-10-03T13:30:30Z</time>
      </trkpt>
      <trkpt lat="48.91772" lon="7.46468">
        <ele>359.506104</ele>
        <time>2010-10-03T13:30:32Z</time>
      </trkpt>
      <trkpt lat="48.91776" lon="7.4648">
        <ele>359.545166</ele>
        <time>2010-10-03T13:30:34Z</time>
      </trkpt>
      <trkpt lat="48.91781" lon="7.46494">
        <ele>359.490479</ele>
        <time>2010-10-03T13:30:36Z</time>
      </trkpt>
      <trkpt lat="48.91785" lon="7.46508">
        <ele>359.240479</ele>
        <time>2010-10-03T13:30:38Z</time>
      </trkpt>
      <trkpt lat="48.91787" lon="7.46522">
        <ele>359.881104</ele>
        <time>2010-10-03T13:30:40Z</time>
      </trkpt>
      <trkpt lat="48.91787" lon="7.4654">
        <ele>356.467041</ele>
        <time>2010-10-03T13:30:42Z</time>
      </trkpt>
      <trkpt lat="48.91793" lon="7.4656">
        <ele>356.927979</ele>
        <time>2010-10-03T13:30:45Z</time>
      </trkpt>
      <trkpt lat="48.91802" lon="7.46575">
        <ele>354.131104</ele>
        <time>2010-10-03T13:30:47Z</time>
      </trkpt>
      <trkpt lat="48.91805" lon="7.46583">
        <ele>353.349854</ele>
        <time>2010-10-03T13:30:48Z</time>
      </trkpt>
      <trkpt lat="48.91803" lon="7.46594">
        <ele>355.693604</ele>
        <time>2010-10-03T13:30:50Z</time>
      </trkpt>
      <trkpt lat="48.91804" lon="7.46612">
        <ele>356.123291</ele>
        <time>2010-10-03T13:30:53Z</time>
      </trkpt>
      <trkpt lat="48.91803" lon="7.46621">
        <ele>353.779541</ele>
        <time>2010-10-03T13:30:55Z</time>
      </trkpt>
      <trkpt lat="48.91811" lon="7.46645">
        <ele>349.834229</ele>
        <time>2010-10-03T13:31:01Z</time>
      </trkpt>
      <trkpt lat="48.91819" lon="7.46661">
        <ele>347.771729</ele>
        <time>2010-10-03T13:31:04Z</time>
      </trkpt>
      <trkpt lat="48.91824" lon="7.46676">
        <ele>344.521729</ele>
        <time>2010-10-03T13:31:07Z</time>
      </trkpt>
      <trkpt lat="48.91825" lon="7.4669">
        <ele>340.349854</ele>
        <time>2010-10-03T13:31:13Z</time>
      </trkpt>
      <trkpt lat="48.91822" lon="7.46697">
        <ele>338.818604</ele>
        <time>2010-10-03T13:31:15Z</time>
      </trkpt>
      <trkpt lat="48.9183" lon="7.46724">
        <ele>329.724854</ele>
        <time>2010-10-03T13:31:19Z</time>
      </trkpt>
      <trkpt lat="48.91853" lon="7.46766">
        <ele>324.021729</ele>
        <time>2010-10-03T13:31:26Z</time>
      </trkpt>
      <trkpt lat="48.91869" lon="7.46805">
        <ele>327.123291</ele>
        <time>2010-10-03T13:31:34Z</time>
      </trkpt>
      <trkpt lat="48.91884" lon="7.46821">
        <ele>334.154541</ele>
        <time>2010-10-03T13:31:42Z</time>
      </trkpt>
      <trkpt lat="48.91886" lon="7.46827">
        <ele>336.873291</ele>
        <time>2010-10-03T13:31:44Z</time>
      </trkpt>
      <trkpt lat="48.91895" lon="7.4684">
        <ele>338.467041</ele>
        <time>2010-10-03T13:31:48Z</time>
      </trkpt>
      <trkpt lat="48.91902" lon="7.46853">
        <ele>339.193604</ele>
        <time>2010-10-03T13:31:52Z</time>
      </trkpt>
      <trkpt lat="48.91927" lon="7.46872">
        <ele>332.435791</ele>
        <time>2010-10-03T13:31:59Z</time>
      </trkpt>
      <trkpt lat="48.9194" lon="7.46883">
        <ele>330.865479</ele>
        <time>2010-10-03T13:32:01Z</time>
      </trkpt>
      <trkpt lat="48.91951" lon="7.46889">
        <ele>329.951416</ele>
        <time>2010-10-03T13:32:04Z</time>
      </trkpt>
      <trkpt lat="48.91964" lon="7.46894">
        <ele>328.802979</ele>
        <time>2010-10-03T13:32:07Z</time>
      </trkpt>
      <trkpt lat="48.91984" lon="7.46889">
        <ele>326.381104</ele>
        <time>2010-10-03T13:32:14Z</time>
      </trkpt>
      <trkpt lat="48.91995" lon="7.46882">
        <ele>325.154541</ele>
        <time>2010-10-03T13:32:19Z</time>
      </trkpt>
      <trkpt lat="48.92015" lon="7.46868">
        <ele>319.576416</ele>
        <time>2010-10-03T13:32:28Z</time>
      </trkpt>
      <trkpt lat="48.9203" lon="7.46864">
        <ele>316.224854</ele>
        <time>2010-10-03T13:32:33Z</time>
      </trkpt>
      <trkpt lat="48.92035" lon="7.4687">
        <ele>317.037354</ele>
        <time>2010-10-03T13:32:35Z</time>
      </trkpt>
      <trkpt lat="48.92038" lon="7.46886">
        <ele>316.709229</ele>
        <time>2010-10-03T13:32:39Z</time>
      </trkpt>
      <trkpt lat="48.92049" lon="7.46907">
        <ele>319.646729</ele>
        <time>2010-10-03T13:32:44Z</time>
      </trkpt>
      <trkpt lat="48.92054" lon="7.46913">
        <ele>319.779541</ele>
        <time>2010-10-03T13:32:46Z</time>
      </trkpt>
      <trkpt lat="48.92062" lon="7.46921">
        <ele>320.779541</ele>
        <time>2010-10-03T13:32:48Z</time>
      </trkpt>
      <trkpt lat="48.92067" lon="7.46926">
        <ele>320.748291</ele>
        <time>2010-10-03T13:32:49Z</time>
      </trkpt>
      <trkpt lat="48.92073" lon="7.46931">
        <ele>320.724854</ele>
        <time>2010-10-03T13:32:50Z</time>
      </trkpt>
      <trkpt lat="48.92083" lon="7.46942">
        <ele>319.607666</ele>
        <time>2010-10-03T13:32:53Z</time>
      </trkpt>
      <trkpt lat="48.92099" lon="7.46948">
        <ele>320.107666</ele>
        <time>2010-10-03T13:32:57Z</time>
      </trkpt>
      <trkpt lat="48.9211" lon="7.46947">
        <ele>319.256104</ele>
        <time>2010-10-03T13:32:59Z</time>
      </trkpt>
      <trkpt lat="48.92117" lon="7.46942">
        <ele>319.607666</ele>
        <time>2010-10-03T13:33:00Z</time>
      </trkpt>
      <trkpt lat="48.92124" lon="7.46934">
        <ele>320.724854</ele>
        <time>2010-10-03T13:33:02Z</time>
      </trkpt>
      <trkpt lat="48.92129" lon="7.46931">
        <ele>321.123291</ele>
        <time>2010-10-03T13:33:03Z</time>
      </trkpt>
      <trkpt lat="48.92134" lon="7.46931">
        <ele>321.349854</ele>
        <time>2010-10-03T13:33:04Z</time>
      </trkpt>
      <trkpt lat="48.92138" lon="7.46935">
        <ele>322.006104</ele>
        <time>2010-10-03T13:33:05Z</time>
      </trkpt>
      <trkpt lat="48.92143" lon="7.46935">
        <ele>323.115479</ele>
        <time>2010-10-03T13:33:07Z</time>
      </trkpt>
      <trkpt lat="48.92145" lon="7.4694">
        <ele>320.865479</ele>
        <time>2010-10-03T13:33:09Z</time>
      </trkpt>
      <trkpt lat="48.9215" lon="7.46937">
        <ele>319.990479</ele>
        <time>2010-10-03T13:33:13Z</time>
      </trkpt>
      <trkpt lat="48.92153" lon="7.46931">
        <ele>319.662354</ele>
        <time>2010-10-03T13:33:16Z</time>
      </trkpt>
      <trkpt lat="48.92155" lon="7.46923">
        <ele>316.092041</ele>
        <time>2010-10-03T13:33:19Z</time>
      </trkpt>
      <trkpt lat="48.92169" lon="7.46911">
        <ele>314.646729</ele>
        <time>2010-10-03T13:33:28Z</time>
      </trkpt>
      <trkpt lat="48.92181" lon="7.46906">
        <ele>312.615479</ele>
        <time>2010-10-03T13:33:32Z</time>
      </trkpt>
      <trkpt lat="48.92186" lon="7.46908">
        <ele>312.052979</ele>
        <time>2010-10-03T13:33:35Z</time>
      </trkpt>
      <trkpt lat="48.92197" lon="7.46918">
        <ele>310.388916</ele>
        <time>2010-10-03T13:33:40Z</time>
      </trkpt>
      <trkpt lat="48.92201" lon="7.46924">
        <ele>308.998291</ele>
        <time>2010-10-03T13:33:42Z</time>
      </trkpt>
      <trkpt lat="48.92215" lon="7.46937">
        <ele>305.029541</ele>
        <time>2010-10-03T13:33:49Z</time>
      </trkpt>
      <trkpt lat="48.92223" lon="7.46957">
        <ele>304.873291</ele>
        <time>2010-10-03T13:34:05Z</time>
      </trkpt>
      <trkpt lat="48.92227" lon="7.46963">
        <ele>304.849854</ele>
        <time>2010-10-03T13:34:08Z</time>
      </trkpt>
      <trkpt lat="48.92233" lon="7.46975">
        <ele>309.146729</ele>
        <time>2010-10-03T13:34:14Z</time>
      </trkpt>
      <trkpt lat="48.92239" lon="7.4699">
        <ele>307.334229</ele>
        <time>2010-10-03T13:34:18Z</time>
      </trkpt>
      <trkpt lat="48.92245" lon="7.4703">
        <ele>305.154541</ele>
        <time>2010-10-03T13:34:29Z</time>
      </trkpt>
      <trkpt lat="48.92247" lon="7.47039">
        <ele>304.888916</ele>
        <time>2010-10-03T13:34:32Z</time>
      </trkpt>
      <trkpt lat="48.9225" lon="7.47045">
        <ele>304.670166</ele>
        <time>2010-10-03T13:34:34Z</time>
      </trkpt>
      <trkpt lat="48.92254" lon="7.47066">
        <ele>304.185791</ele>
        <time>2010-10-03T13:34:40Z</time>
      </trkpt>
      <trkpt lat="48.92262" lon="7.47086">
        <ele>304.904541</ele>
        <time>2010-10-03T13:34:47Z</time>
      </trkpt>
      <trkpt lat="48.92264" lon="7.47095">
        <ele>305.279541</ele>
        <time>2010-10-03T13:34:50Z</time>
      </trkpt>
      <trkpt lat="48.92267" lon="7.47102">
        <ele>305.623291</ele>
        <time>2010-10-03T13:34:52Z</time>
      </trkpt>
      <trkpt lat="48.92268" lon="7.4711">
        <ele>305.529541</ele>
        <time>2010-10-03T13:34:54Z</time>
      </trkpt>
      <trkpt lat="48.92275" lon="7.47133">
        <ele>306.248291</ele>
        <time>2010-10-03T13:35:01Z</time>
      </trkpt>
      <trkpt lat="48.9228" lon="7.4713">
        <ele>307.177979</ele>
        <time>2010-10-03T13:35:05Z</time>
      </trkpt>
      <trkpt lat="48.92279" lon="7.47122">
        <ele>306.912354</ele>
        <time>2010-10-03T13:35:08Z</time>
      </trkpt>
      <trkpt lat="48.92275" lon="7.47122">
        <ele>307.224854</ele>
        <time>2010-10-03T13:38:06Z</time>
      </trkpt>
      <trkpt lat="48.92263" lon="7.47076">
        <ele>306.881104</ele>
        <time>2010-10-03T13:38:15Z</time>
      </trkpt>
      <trkpt lat="48.92246" lon="7.46989">
        <ele>305.443604</ele>
        <time>2010-10-03T13:38:26Z</time>
      </trkpt>
      <trkpt lat="48.92236" lon="7.46908">
        <ele>306.599854</ele>
        <time>2010-10-03T13:38:37Z</time>
      </trkpt>
      <trkpt lat="48.92232" lon="7.46873">
        <ele>309.646729</ele>
        <time>2010-10-03T13:38:43Z</time>
      </trkpt>
      <trkpt lat="48.92225" lon="7.46854">
        <ele>314.357666</ele>
        <time>2010-10-03T13:38:47Z</time>
      </trkpt>
      <trkpt lat="48.9222" lon="7.46844">
        <ele>314.857666</ele>
        <time>2010-10-03T13:38:49Z</time>
      </trkpt>
      <trkpt lat="48.92212" lon="7.46807">
        <ele>315.943604</ele>
        <time>2010-10-03T13:38:55Z</time>
      </trkpt>
      <trkpt lat="48.92199" lon="7.46762">
        <ele>315.365479</ele>
        <time>2010-10-03T13:39:03Z</time>
      </trkpt>
      <trkpt lat="48.92193" lon="7.46744">
        <ele>314.115479</ele>
        <time>2010-10-03T13:39:07Z</time>
      </trkpt>
      <trkpt lat="48.92176" lon="7.46708">
        <ele>313.427979</ele>
        <time>2010-10-03T13:39:15Z</time>
      </trkpt>
      <trkpt lat="48.9216" lon="7.4668">
        <ele>312.537354</ele>
        <time>2010-10-03T13:39:21Z</time>
      </trkpt>
      <trkpt lat="48.92145" lon="7.46656">
        <ele>311.904541</ele>
        <time>2010-10-03T13:39:26Z</time>
      </trkpt>
      <trkpt lat="48.92115" lon="7.46611">
        <ele>311.326416</ele>
        <time>2010-10-03T13:39:34Z</time>
      </trkpt>
      <trkpt lat="48.92101" lon="7.46594">
        <ele>311.099854</ele>
        <time>2010-10-03T13:39:37Z</time>
      </trkpt>
      <trkpt lat="48.92086" lon="7.46577">
        <ele>310.935791</ele>
        <time>2010-10-03T13:39:40Z</time>
      </trkpt>
      <trkpt lat="48.92003" lon="7.46506">
        <ele>312.896729</ele>
        <time>2010-10-03T13:39:56Z</time>
      </trkpt>
      <trkpt lat="48.9199" lon="7.46492">
        <ele>314.295166</ele>
        <time>2010-10-03T13:39:59Z</time>
      </trkpt>
      <trkpt lat="48.91982" lon="7.46479">
        <ele>315.021729</ele>
        <time>2010-10-03T13:40:01Z</time>
      </trkpt>
      <trkpt lat="48.91975" lon="7.46465">
        <ele>315.506104</ele>
        <time>2010-10-03T13:40:03Z</time>
      </trkpt>
      <trkpt lat="48.91958" lon="7.46423">
        <ele>320.310791</ele>
        <time>2010-10-03T13:40:10Z</time>
      </trkpt>
      <trkpt lat="48.91949" lon="7.46407">
        <ele>324.810791</ele>
        <time>2010-10-03T13:40:14Z</time>
      </trkpt>
      <trkpt lat="48.91932" lon="7.46393">
        <ele>324.209229</ele>
        <time>2010-10-03T13:40:17Z</time>
      </trkpt>
      <trkpt lat="48.91929" lon="7.46389">
        <ele>325.209229</ele>
        <time>2010-10-03T13:40:18Z</time>
      </trkpt>
      <trkpt lat="48.91929" lon="7.46381">
        <ele>325.896729</ele>
        <time>2010-10-03T13:40:19Z</time>
      </trkpt>
      <trkpt lat="48.91925" lon="7.46365">
        <ele>328.685791</ele>
        <time>2010-10-03T13:40:22Z</time>
      </trkpt>
      <trkpt lat="48.91923" lon="7.4635">
        <ele>330.974854</ele>
        <time>2010-10-03T13:40:24Z</time>
      </trkpt>
      <trkpt lat="48.91913" lon="7.46331">
        <ele>333.185791</ele>
        <time>2010-10-03T13:40:27Z</time>
      </trkpt>
      <trkpt lat="48.91904" lon="7.46305">
        <ele>336.592041</ele>
        <time>2010-10-03T13:40:31Z</time>
      </trkpt>
      <trkpt lat="48.91892" lon="7.46285">
        <ele>339.412354</ele>
        <time>2010-10-03T13:40:35Z</time>
      </trkpt>
      <trkpt lat="48.91888" lon="7.46272">
        <ele>341.592041</ele>
        <time>2010-10-03T13:40:37Z</time>
      </trkpt>
      <trkpt lat="48.91887" lon="7.46247">
        <ele>343.217041</ele>
        <time>2010-10-03T13:40:40Z</time>
      </trkpt>
      <trkpt lat="48.91884" lon="7.46227">
        <ele>344.638916</ele>
        <time>2010-10-03T13:40:42Z</time>
      </trkpt>
      <trkpt lat="48.91887" lon="7.46198">
        <ele>345.927979</ele>
        <time>2010-10-03T13:40:45Z</time>
      </trkpt>
      <trkpt lat="48.91889" lon="7.46182">
        <ele>345.818604</ele>
        <time>2010-10-03T13:40:47Z</time>
      </trkpt>
      <trkpt lat="48.91888" lon="7.4616">
        <ele>343.263916</ele>
        <time>2010-10-03T13:40:50Z</time>
      </trkpt>
      <trkpt lat="48.91888" lon="7.46143">
        <ele>340.310791</ele>
        <time>2010-10-03T13:40:52Z</time>
      </trkpt>
      <trkpt lat="48.9189" lon="7.46127">
        <ele>338.592041</ele>
        <time>2010-10-03T13:40:54Z</time>
      </trkpt>
      <trkpt lat="48.9189" lon="7.46121">
        <ele>336.802979</ele>
        <time>2010-10-03T13:40:55Z</time>
      </trkpt>
      <trkpt lat="48.9189" lon="7.46086">
        <ele>333.927979</ele>
        <time>2010-10-03T13:41:00Z</time>
      </trkpt>
      <trkpt lat="48.91894" lon="7.46063">
        <ele>331.443604</ele>
        <time>2010-10-03T13:41:03Z</time>
      </trkpt>
      <trkpt lat="48.91902" lon="7.46028">
        <ele>332.076416</ele>
        <time>2010-10-03T13:41:07Z</time>
      </trkpt>
      <trkpt lat="48.91904" lon="7.4602">
        <ele>331.513916</ele>
        <time>2010-10-03T13:41:08Z</time>
      </trkpt>
      <trkpt lat="48.91904" lon="7.46012">
        <ele>329.779541</ele>
        <time>2010-10-03T13:41:09Z</time>
      </trkpt>
      <trkpt lat="48.91911" lon="7.4599">
        <ele>327.263916</ele>
        <time>2010-10-03T13:41:12Z</time>
      </trkpt>
      <trkpt lat="48.91911" lon="7.45982">
        <ele>327.006104</ele>
        <time>2010-10-03T13:41:13Z</time>
      </trkpt>
      <trkpt lat="48.91914" lon="7.45966">
        <ele>326.654541</ele>
        <time>2010-10-03T13:41:15Z</time>
      </trkpt>
      <trkpt lat="48.91916" lon="7.45958">
        <ele>325.849854</ele>
        <time>2010-10-03T13:41:16Z</time>
      </trkpt>
      <trkpt lat="48.91918" lon="7.45947">
        <ele>324.513916</ele>
        <time>2010-10-03T13:41:17Z</time>
      </trkpt>
      <trkpt lat="48.91916" lon="7.45934">
        <ele>318.693604</ele>
        <time>2010-10-03T13:41:18Z</time>
      </trkpt>
      <trkpt lat="48.91925" lon="7.45905">
        <ele>317.123291</ele>
        <time>2010-10-03T13:41:21Z</time>
      </trkpt>
      <trkpt lat="48.91935" lon="7.45881">
        <ele>317.756104</ele>
        <time>2010-10-03T13:41:24Z</time>
      </trkpt>
      <trkpt lat="48.91951" lon="7.45854">
        <ele>319.521729</ele>
        <time>2010-10-03T13:41:28Z</time>
      </trkpt>
      <trkpt lat="48.91966" lon="7.45843">
        <ele>319.459229</ele>
        <time>2010-10-03T13:41:31Z</time>
      </trkpt>
      <trkpt lat="48.91972" lon="7.4584">
        <ele>320.131104</ele>
        <time>2010-10-03T13:41:32Z</time>
      </trkpt>
      <trkpt lat="48.91979" lon="7.45834">
        <ele>321.904541</ele>
        <time>2010-10-03T13:41:33Z</time>
      </trkpt>
      <trkpt lat="48.92" lon="7.45816">
        <ele>321.443604</ele>
        <time>2010-10-03T13:41:37Z</time>
      </trkpt>
      <trkpt lat="48.92023" lon="7.45783">
        <ele>319.154541</ele>
        <time>2010-10-03T13:41:41Z</time>
      </trkpt>
      <trkpt lat="48.92032" lon="7.45757">
        <ele>316.693604</ele>
        <time>2010-10-03T13:41:44Z</time>
      </trkpt>
      <trkpt lat="48.92038" lon="7.45735">
        <ele>315.467041</ele>
        <time>2010-10-03T13:41:46Z</time>
      </trkpt>
      <trkpt lat="48.92042" lon="7.45712">
        <ele>315.131104</ele>
        <time>2010-10-03T13:41:48Z</time>
      </trkpt>
      <trkpt lat="48.92046" lon="7.45688">
        <ele>314.224854</ele>
        <time>2010-10-03T13:41:50Z</time>
      </trkpt>
      <trkpt lat="48.92056" lon="7.45642">
        <ele>312.974854</ele>
        <time>2010-10-03T13:41:54Z</time>
      </trkpt>
      <trkpt lat="48.92062" lon="7.45598">
        <ele>311.623291</ele>
        <time>2010-10-03T13:41:58Z</time>
      </trkpt>
      <trkpt lat="48.9207" lon="7.45563">
        <ele>311.154541</ele>
        <time>2010-10-03T13:42:02Z</time>
      </trkpt>
      <trkpt lat="48.92073" lon="7.45546">
        <ele>310.467041</ele>
        <time>2010-10-03T13:42:04Z</time>
      </trkpt>
      <trkpt lat="48.92083" lon="7.45515">
        <ele>309.927979</ele>
        <time>2010-10-03T13:42:08Z</time>
      </trkpt>
      <trkpt lat="48.92084" lon="7.45508">
        <ele>309.263916</ele>
        <time>2010-10-03T13:42:09Z</time>
      </trkpt>
      <trkpt lat="48.92088" lon="7.45495">
        <ele>307.037354</ele>
        <time>2010-10-03T13:42:11Z</time>
      </trkpt>
      <trkpt lat="48.92088" lon="7.45489">
        <ele>304.381104</ele>
        <time>2010-10-03T13:42:12Z</time>
      </trkpt>
      <trkpt lat="48.92093" lon="7.45478">
        <ele>305.099854</ele>
        <time>2010-10-03T13:42:13Z</time>
      </trkpt>
      <trkpt lat="48.92098" lon="7.4547">
        <ele>306.209229</ele>
        <time>2010-10-03T13:42:14Z</time>
      </trkpt>
      <trkpt lat="48.92103" lon="7.45454">
        <ele>305.287354</ele>
        <time>2010-10-03T13:42:16Z</time>
      </trkpt>
      <trkpt lat="48.92108" lon="7.45441">
        <ele>306.162354</ele>
        <time>2010-10-03T13:42:17Z</time>
      </trkpt>
      <trkpt lat="48.92126" lon="7.45383">
        <ele>306.951416</ele>
        <time>2010-10-03T13:42:22Z</time>
      </trkpt>
      <trkpt lat="48.92128" lon="7.45359">
        <ele>304.021729</ele>
        <time>2010-10-03T13:42:24Z</time>
      </trkpt>
      <trkpt lat="48.92132" lon="7.45326">
        <ele>299.506104</ele>
        <time>2010-10-03T13:42:27Z</time>
      </trkpt>
      <trkpt lat="48.92137" lon="7.45251">
        <ele>296.834229</ele>
        <time>2010-10-03T13:42:33Z</time>
      </trkpt>
      <trkpt lat="48.92139" lon="7.45202">
        <ele>295.443604</ele>
        <time>2010-10-03T13:42:37Z</time>
      </trkpt>
      <trkpt lat="48.9214" lon="7.4519">
        <ele>295.568604</ele>
        <time>2010-10-03T13:42:38Z</time>
      </trkpt>
      <trkpt lat="48.92142" lon="7.45151">
        <ele>297.068604</ele>
        <time>2010-10-03T13:42:41Z</time>
      </trkpt>
      <trkpt lat="48.92145" lon="7.45115">
        <ele>295.607666</ele>
        <time>2010-10-03T13:42:44Z</time>
      </trkpt>
      <trkpt lat="48.92149" lon="7.4504">
        <ele>292.740479</ele>
        <time>2010-10-03T13:42:50Z</time>
      </trkpt>
      <trkpt lat="48.92152" lon="7.45015">
        <ele>291.748291</ele>
        <time>2010-10-03T13:42:52Z</time>
      </trkpt>
      <trkpt lat="48.92154" lon="7.45004">
        <ele>291.021729</ele>
        <time>2010-10-03T13:42:53Z</time>
      </trkpt>
      <trkpt lat="48.92159" lon="7.44969">
        <ele>289.334229</ele>
        <time>2010-10-03T13:42:56Z</time>
      </trkpt>
      <trkpt lat="48.92159" lon="7.44959">
        <ele>289.271729</ele>
        <time>2010-10-03T13:42:57Z</time>
      </trkpt>
      <trkpt lat="48.92161" lon="7.44951">
        <ele>288.912354</ele>
        <time>2010-10-03T13:42:58Z</time>
      </trkpt>
      <trkpt lat="48.92165" lon="7.44942">
        <ele>288.857666</ele>
        <time>2010-10-03T13:42:59Z</time>
      </trkpt>
      <trkpt lat="48.92174" lon="7.44927">
        <ele>288.990479</ele>
        <time>2010-10-03T13:43:01Z</time>
      </trkpt>
      <trkpt lat="48.92189" lon="7.44912">
        <ele>295.904541</ele>
        <time>2010-10-03T13:43:03Z</time>
      </trkpt>
      <trkpt lat="48.92201" lon="7.44903">
        <ele>302.052979</ele>
        <time>2010-10-03T13:43:05Z</time>
      </trkpt>
      <trkpt lat="48.92219" lon="7.44897">
        <ele>310.677979</ele>
        <time>2010-10-03T13:43:08Z</time>
      </trkpt>
      <trkpt lat="48.92228" lon="7.44892">
        <ele>316.256104</ele>
        <time>2010-10-03T13:43:10Z</time>
      </trkpt>
      <trkpt lat="48.92236" lon="7.44889">
        <ele>318.170166</ele>
        <time>2010-10-03T13:43:11Z</time>
      </trkpt>
      <trkpt lat="48.92254" lon="7.44878">
        <ele>316.318604</ele>
        <time>2010-10-03T13:43:14Z</time>
      </trkpt>
      <trkpt lat="48.92268" lon="7.44873">
        <ele>316.670166</ele>
        <time>2010-10-03T13:43:16Z</time>
      </trkpt>
      <trkpt lat="48.92283" lon="7.44861">
        <ele>314.857666</ele>
        <time>2010-10-03T13:43:18Z</time>
      </trkpt>
      <trkpt lat="48.92297" lon="7.44846">
        <ele>314.170166</ele>
        <time>2010-10-03T13:43:20Z</time>
      </trkpt>
      <trkpt lat="48.9231" lon="7.44827">
        <ele>315.060791</ele>
        <time>2010-10-03T13:43:22Z</time>
      </trkpt>
      <trkpt lat="48.92316" lon="7.4482">
        <ele>314.771729</ele>
        <time>2010-10-03T13:43:23Z</time>
      </trkpt>
      <trkpt lat="48.92332" lon="7.44794">
        <ele>311.451416</ele>
        <time>2010-10-03T13:43:26Z</time>
      </trkpt>
      <trkpt lat="48.9234" lon="7.44777">
        <ele>310.302979</ele>
        <time>2010-10-03T13:43:28Z</time>
      </trkpt>
      <trkpt lat="48.9235" lon="7.4476">
        <ele>304.521729</ele>
        <time>2010-10-03T13:43:31Z</time>
      </trkpt>
      <trkpt lat="48.92357" lon="7.44748">
        <ele>300.959229</ele>
        <time>2010-10-03T13:43:33Z</time>
      </trkpt>
      <trkpt lat="48.92362" lon="7.44742">
        <ele>297.795166</ele>
        <time>2010-10-03T13:43:35Z</time>
      </trkpt>
      <trkpt lat="48.92369" lon="7.44729">
        <ele>295.607666</ele>
        <time>2010-10-03T13:43:39Z</time>
      </trkpt>
      <trkpt lat="48.92369" lon="7.44719">
        <ele>295.232666</ele>
        <time>2010-10-03T13:43:41Z</time>
      </trkpt>
      <trkpt lat="48.92368" lon="7.4471">
        <ele>295.982666</ele>
        <time>2010-10-03T13:43:43Z</time>
      </trkpt>
      <trkpt lat="48.92369" lon="7.44698">
        <ele>294.896729</ele>
        <time>2010-10-03T13:43:45Z</time>
      </trkpt>
      <trkpt lat="48.92371" lon="7.44688">
        <ele>293.529541</ele>
        <time>2010-10-03T13:43:47Z</time>
      </trkpt>
      <trkpt lat="48.92371" lon="7.44678">
        <ele>293.810791</ele>
        <time>2010-10-03T13:43:49Z</time>
      </trkpt>
      <trkpt lat="48.92371" lon="7.44654">
        <ele>295.349854</ele>
        <time>2010-10-03T13:43:53Z</time>
      </trkpt>
      <trkpt lat="48.92372" lon="7.44628">
        <ele>296.506104</ele>
        <time>2010-10-03T13:43:59Z</time>
      </trkpt>
      <trkpt lat="48.92374" lon="7.44622">
        <ele>297.138916</ele>
        <time>2010-10-03T13:44:01Z</time>
      </trkpt>
      <trkpt lat="48.92378" lon="7.44616">
        <ele>297.310791</ele>
        <time>2010-10-03T13:44:03Z</time>
      </trkpt>
      <trkpt lat="48.92378" lon="7.44604">
        <ele>297.404541</ele>
        <time>2010-10-03T13:44:05Z</time>
      </trkpt>
      <trkpt lat="48.92379" lon="7.44586">
        <ele>297.537354</ele>
        <time>2010-10-03T13:44:09Z</time>
      </trkpt>
      <trkpt lat="48.92382" lon="7.44581">
        <ele>296.638916</ele>
        <time>2010-10-03T13:44:10Z</time>
      </trkpt>
      <trkpt lat="48.92386" lon="7.44571">
        <ele>295.959229</ele>
        <time>2010-10-03T13:44:12Z</time>
      </trkpt>
      <trkpt lat="48.92389" lon="7.4456">
        <ele>295.084229</ele>
        <time>2010-10-03T13:44:14Z</time>
      </trkpt>
      <trkpt lat="48.92389" lon="7.44549">
        <ele>294.967041</ele>
        <time>2010-10-03T13:44:16Z</time>
      </trkpt>
      <trkpt lat="48.92391" lon="7.4454">
        <ele>296.427979</ele>
        <time>2010-10-03T13:44:18Z</time>
      </trkpt>
      <trkpt lat="48.92392" lon="7.44524">
        <ele>298.357666</ele>
        <time>2010-10-03T13:44:22Z</time>
      </trkpt>
      <trkpt lat="48.92394" lon="7.44516">
        <ele>298.756104</ele>
        <time>2010-10-03T13:44:24Z</time>
      </trkpt>
      <trkpt lat="48.92403" lon="7.44491">
        <ele>297.045166</ele>
        <time>2010-10-03T13:44:29Z</time>
      </trkpt>
      <trkpt lat="48.92415" lon="7.44472">
        <ele>294.935791</ele>
        <time>2010-10-03T13:44:33Z</time>
      </trkpt>
      <trkpt lat="48.92422" lon="7.44454">
        <ele>295.998291</ele>
        <time>2010-10-03T13:44:37Z</time>
      </trkpt>
      <trkpt lat="48.92427" lon="7.44447">
        <ele>293.654541</ele>
        <time>2010-10-03T13:44:39Z</time>
      </trkpt>
      <trkpt lat="48.9243" lon="7.44442">
        <ele>290.638916</ele>
        <time>2010-10-03T13:44:40Z</time>
      </trkpt>
      <trkpt lat="48.92434" lon="7.44419">
        <ele>287.029541</ele>
        <time>2010-10-03T13:44:44Z</time>
      </trkpt>
      <trkpt lat="48.92434" lon="7.44396">
        <ele>285.131104</ele>
        <time>2010-10-03T13:44:48Z</time>
      </trkpt>
      <trkpt lat="48.92439" lon="7.44352">
        <ele>285.138916</ele>
        <time>2010-10-03T13:44:56Z</time>
      </trkpt>
      <trkpt lat="48.92439" lon="7.44342">
        <ele>285.052979</ele>
        <time>2010-10-03T13:44:58Z</time>
      </trkpt>
      <trkpt lat="48.92437" lon="7.4433">
        <ele>285.740479</ele>
        <time>2010-10-03T13:45:00Z</time>
      </trkpt>
      <trkpt lat="48.92436" lon="7.44287">
        <ele>287.271729</ele>
        <time>2010-10-03T13:45:07Z</time>
      </trkpt>
      <trkpt lat="48.92432" lon="7.44265">
        <ele>287.552979</ele>
        <time>2010-10-03T13:45:11Z</time>
      </trkpt>
      <trkpt lat="48.92432" lon="7.44251">
        <ele>286.974854</ele>
        <time>2010-10-03T13:45:13Z</time>
      </trkpt>
      <trkpt lat="48.9243" lon="7.44226">
        <ele>287.013916</ele>
        <time>2010-10-03T13:45:17Z</time>
      </trkpt>
      <trkpt lat="48.92425" lon="7.44202">
        <ele>287.654541</ele>
        <time>2010-10-03T13:45:21Z</time>
      </trkpt>
      <trkpt lat="48.92424" lon="7.44188">
        <ele>287.842041</ele>
        <time>2010-10-03T13:45:23Z</time>
      </trkpt>
      <trkpt lat="48.92423" lon="7.44171">
        <ele>285.865479</ele>
        <time>2010-10-03T13:45:25Z</time>
      </trkpt>
      <trkpt lat="48.92416" lon="7.44141">
        <ele>287.342041</ele>
        <time>2010-10-03T13:45:30Z</time>
      </trkpt>
      <trkpt lat="48.9241" lon="7.44119">
        <ele>288.021729</ele>
        <time>2010-10-03T13:45:34Z</time>
      </trkpt>
      <trkpt lat="48.92412" lon="7.441">
        <ele>287.357666</ele>
        <time>2010-10-03T13:45:36Z</time>
      </trkpt>
      <trkpt lat="48.92412" lon="7.44092">
        <ele>287.052979</ele>
        <time>2010-10-03T13:45:37Z</time>
      </trkpt>
      <trkpt lat="48.92408" lon="7.44076">
        <ele>285.896729</ele>
        <time>2010-10-03T13:45:39Z</time>
      </trkpt>
      <trkpt lat="48.92408" lon="7.44061">
        <ele>285.740479</ele>
        <time>2010-10-03T13:45:41Z</time>
      </trkpt>
      <trkpt lat="48.92406" lon="7.44043">
        <ele>284.412354</ele>
        <time>2010-10-03T13:45:44Z</time>
      </trkpt>
      <trkpt lat="48.92406" lon="7.44016">
        <ele>286.435791</ele>
        <time>2010-10-03T13:45:51Z</time>
      </trkpt>
      <trkpt lat="48.92405" lon="7.44009">
        <ele>286.584229</ele>
        <time>2010-10-03T13:45:53Z</time>
      </trkpt>
      <trkpt lat="48.92405" lon="7.4399">
        <ele>284.302979</ele>
        <time>2010-10-03T13:45:58Z</time>
      </trkpt>
      <trkpt lat="48.92404" lon="7.43982">
        <ele>283.834229</ele>
        <time>2010-10-03T13:46:02Z</time>
      </trkpt>
      <trkpt lat="48.92405" lon="7.43976">
        <ele>283.802979</ele>
        <time>2010-10-03T13:46:09Z</time>
      </trkpt>
      <trkpt lat="48.92404" lon="7.43966">
        <ele>283.795166</ele>
        <time>2010-10-03T13:46:13Z</time>
      </trkpt>
      <trkpt lat="48.92408" lon="7.43939">
        <ele>285.927979</ele>
        <time>2010-10-03T13:46:18Z</time>
      </trkpt>
      <trkpt lat="48.92404" lon="7.43923">
        <ele>287.209229</ele>
        <time>2010-10-03T13:46:20Z</time>
      </trkpt>
      <trkpt lat="48.92403" lon="7.43912">
        <ele>286.951416</ele>
        <time>2010-10-03T13:46:22Z</time>
      </trkpt>
      <trkpt lat="48.92406" lon="7.43894">
        <ele>288.131104</ele>
        <time>2010-10-03T13:46:25Z</time>
      </trkpt>
      <trkpt lat="48.92407" lon="7.43873">
        <ele>288.677979</ele>
        <time>2010-10-03T13:46:29Z</time>
      </trkpt>
      <trkpt lat="48.92409" lon="7.4386">
        <ele>287.865479</ele>
        <time>2010-10-03T13:46:31Z</time>
      </trkpt>
      <trkpt lat="48.92409" lon="7.43849">
        <ele>286.646729</ele>
        <time>2010-10-03T13:46:33Z</time>
      </trkpt>
      <trkpt lat="48.92411" lon="7.43839">
        <ele>286.302979</ele>
        <time>2010-10-03T13:46:35Z</time>
      </trkpt>
      <trkpt lat="48.92411" lon="7.43828">
        <ele>286.295166</ele>
        <time>2010-10-03T13:46:37Z</time>
      </trkpt>
      <trkpt lat="48.92413" lon="7.43801">
        <ele>284.709229</ele>
        <time>2010-10-03T13:46:43Z</time>
      </trkpt>
      <trkpt lat="48.92414" lon="7.43793">
        <ele>285.982666</ele>
        <time>2010-10-03T13:46:45Z</time>
      </trkpt>
      <trkpt lat="48.92415" lon="7.43785">
        <ele>285.756104</ele>
        <time>2010-10-03T13:46:48Z</time>
      </trkpt>
      <trkpt lat="48.92411" lon="7.43778">
        <ele>287.131104</ele>
        <time>2010-10-03T13:46:50Z</time>
      </trkpt>
      <trkpt lat="48.9241" lon="7.43771">
        <ele>286.334229</ele>
        <time>2010-10-03T13:46:53Z</time>
      </trkpt>
      <trkpt lat="48.92413" lon="7.43765">
        <ele>287.263916</ele>
        <time>2010-10-03T13:46:56Z</time>
      </trkpt>
      <trkpt lat="48.92417" lon="7.4375">
        <ele>284.451416</ele>
        <time>2010-10-03T13:47:03Z</time>
      </trkpt>
      <trkpt lat="48.92416" lon="7.43743">
        <ele>284.123291</ele>
        <time>2010-10-03T13:47:06Z</time>
      </trkpt>
      <trkpt lat="48.92418" lon="7.43727">
        <ele>283.857666</ele>
        <time>2010-10-03T13:47:12Z</time>
      </trkpt>
      <trkpt lat="48.92417" lon="7.43719">
        <ele>285.240479</ele>
        <time>2010-10-03T13:47:16Z</time>
      </trkpt>
      <trkpt lat="48.92415" lon="7.43711">
        <ele>287.701416</ele>
        <time>2010-10-03T13:47:19Z</time>
      </trkpt>
      <trkpt lat="48.92418" lon="7.43695">
        <ele>288.123291</ele>
        <time>2010-10-03T13:47:27Z</time>
      </trkpt>
      <trkpt lat="48.92416" lon="7.43687">
        <ele>289.123291</ele>
        <time>2010-10-03T13:47:31Z</time>
      </trkpt>
      <trkpt lat="48.92414" lon="7.43681">
        <ele>291.435791</ele>
        <time>2010-10-03T13:47:35Z</time>
      </trkpt>
      <trkpt lat="48.92406" lon="7.43671">
        <ele>297.310791</ele>
        <time>2010-10-03T13:47:43Z</time>
      </trkpt>
      <trkpt lat="48.92402" lon="7.43659">
        <ele>300.646729</ele>
        <time>2010-10-03T13:47:50Z</time>
      </trkpt>
      <trkpt lat="48.92394" lon="7.43642">
        <ele>304.724854</ele>
        <time>2010-10-03T13:47:59Z</time>
      </trkpt>
      <trkpt lat="48.92391" lon="7.43634">
        <ele>306.404541</ele>
        <time>2010-10-03T13:48:03Z</time>
      </trkpt>
      <trkpt lat="48.9239" lon="7.43616">
        <ele>308.552979</ele>
        <time>2010-10-03T13:48:13Z</time>
      </trkpt>
      <trkpt lat="48.92387" lon="7.43609">
        <ele>309.123291</ele>
        <time>2010-10-03T13:48:15Z</time>
      </trkpt>
      <trkpt lat="48.92387" lon="7.43602">
        <ele>309.217041</ele>
        <time>2010-10-03T13:48:17Z</time>
      </trkpt>
      <trkpt lat="48.92385" lon="7.43591">
        <ele>309.107666</ele>
        <time>2010-10-03T13:48:19Z</time>
      </trkpt>
      <trkpt lat="48.92384" lon="7.43571">
        <ele>308.607666</ele>
        <time>2010-10-03T13:48:24Z</time>
      </trkpt>
      <trkpt lat="48.92385" lon="7.43562">
        <ele>307.615479</ele>
        <time>2010-10-03T13:48:26Z</time>
      </trkpt>
      <trkpt lat="48.92385" lon="7.43555">
        <ele>307.810791</ele>
        <time>2010-10-03T13:48:29Z</time>
      </trkpt>
      <trkpt lat="48.92384" lon="7.43545">
        <ele>308.662354</ele>
        <time>2010-10-03T13:48:32Z</time>
      </trkpt>
      <trkpt lat="48.9238" lon="7.43535">
        <ele>308.638916</ele>
        <time>2010-10-03T13:48:34Z</time>
      </trkpt>
      <trkpt lat="48.92378" lon="7.43525">
        <ele>308.709229</ele>
        <time>2010-10-03T13:48:36Z</time>
      </trkpt>
      <trkpt lat="48.92381" lon="7.43501">
        <ele>304.826416</ele>
        <time>2010-10-03T13:48:40Z</time>
      </trkpt>
      <trkpt lat="48.92379" lon="7.43481">
        <ele>306.224854</ele>
        <time>2010-10-03T13:48:44Z</time>
      </trkpt>
      <trkpt lat="48.92383" lon="7.43464">
        <ele>305.592041</ele>
        <time>2010-10-03T13:48:48Z</time>
      </trkpt>
      <trkpt lat="48.92386" lon="7.43456">
        <ele>305.029541</ele>
        <time>2010-10-03T13:48:50Z</time>
      </trkpt>
      <trkpt lat="48.92384" lon="7.43448">
        <ele>305.873291</ele>
        <time>2010-10-03T13:48:53Z</time>
      </trkpt>
      <trkpt lat="48.9238" lon="7.43451">
        <ele>307.404541</ele>
        <time>2010-10-03T13:48:58Z</time>
      </trkpt>
      <trkpt lat="48.9237" lon="7.43462">
        <ele>311.459229</ele>
        <time>2010-10-03T13:49:04Z</time>
      </trkpt>
      <trkpt lat="48.92359" lon="7.43468">
        <ele>310.099854</ele>
        <time>2010-10-03T13:49:07Z</time>
      </trkpt>
      <trkpt lat="48.92353" lon="7.43469">
        <ele>309.217041</ele>
        <time>2010-10-03T13:49:08Z</time>
      </trkpt>
      <trkpt lat="48.92349" lon="7.43469">
        <ele>308.170166</ele>
        <time>2010-10-03T13:49:09Z</time>
      </trkpt>
      <trkpt lat="48.92345" lon="7.4347">
        <ele>304.162354</ele>
        <time>2010-10-03T13:49:11Z</time>
      </trkpt>
      <trkpt lat="48.92347" lon="7.43465">
        <ele>301.396729</ele>
        <time>2010-10-03T13:49:53Z</time>
      </trkpt>
      <trkpt lat="48.92351" lon="7.43468">
        <ele>304.006104</ele>
        <time>2010-10-03T13:50:19Z</time>
      </trkpt>
      <trkpt lat="48.92358" lon="7.43489">
        <ele>310.474854</ele>
        <time>2010-10-03T13:50:32Z</time>
      </trkpt>
      <trkpt lat="48.92361" lon="7.43494">
        <ele>312.146729</ele>
        <time>2010-10-03T13:50:35Z</time>
      </trkpt>
      <trkpt lat="48.92365" lon="7.43496">
        <ele>311.967041</ele>
        <time>2010-10-03T13:51:10Z</time>
      </trkpt>
      <trkpt lat="48.9237" lon="7.43492">
        <ele>310.748291</ele>
        <time>2010-10-03T13:51:15Z</time>
      </trkpt>
      <trkpt lat="48.92371" lon="7.43467">
        <ele>312.927979</ele>
        <time>2010-10-03T13:51:22Z</time>
      </trkpt>
      <trkpt lat="48.92374" lon="7.43459">
        <ele>313.123291</ele>
        <time>2010-10-03T13:51:24Z</time>
      </trkpt>
      <trkpt lat="48.92381" lon="7.43448">
        <ele>313.381104</ele>
        <time>2010-10-03T13:51:27Z</time>
      </trkpt>
      <trkpt lat="48.92384" lon="7.43439">
        <ele>313.693604</ele>
        <time>2010-10-03T13:51:29Z</time>
      </trkpt>
      <trkpt lat="48.92389" lon="7.43433">
        <ele>313.162354</ele>
        <time>2010-10-03T13:51:30Z</time>
      </trkpt>
      <trkpt lat="48.92403" lon="7.43426">
        <ele>313.826416</ele>
        <time>2010-10-03T13:51:34Z</time>
      </trkpt>
      <trkpt lat="48.9241" lon="7.43425">
        <ele>315.177979</ele>
        <time>2010-10-03T13:51:36Z</time>
      </trkpt>
      <trkpt lat="48.92421" lon="7.43417">
        <ele>317.240479</ele>
        <time>2010-10-03T13:51:40Z</time>
      </trkpt>
      <trkpt lat="48.92433" lon="7.43418">
        <ele>319.717041</ele>
        <time>2010-10-03T13:51:43Z</time>
      </trkpt>
      <trkpt lat="48.92447" lon="7.43424">
        <ele>323.029541</ele>
        <time>2010-10-03T13:51:46Z</time>
      </trkpt>
      <trkpt lat="48.92457" lon="7.43427">
        <ele>324.217041</ele>
        <time>2010-10-03T13:51:49Z</time>
      </trkpt>
      <trkpt lat="48.92471" lon="7.43427">
        <ele>324.412354</ele>
        <time>2010-10-03T13:51:53Z</time>
      </trkpt>
      <trkpt lat="48.92479" lon="7.43423">
        <ele>324.006104</ele>
        <time>2010-10-03T13:51:55Z</time>
      </trkpt>
      <trkpt lat="48.92495" lon="7.43409">
        <ele>322.623291</ele>
        <time>2010-10-03T13:51:59Z</time>
      </trkpt>
      <trkpt lat="48.92522" lon="7.4338">
        <ele>322.631104</ele>
        <time>2010-10-03T13:52:05Z</time>
      </trkpt>
      <trkpt lat="48.92537" lon="7.43376">
        <ele>323.974854</ele>
        <time>2010-10-03T13:52:06Z</time>
      </trkpt>
      <trkpt lat="48.92551" lon="7.43371">
        <ele>327.295166</ele>
        <time>2010-10-03T13:52:09Z</time>
      </trkpt>
      <trkpt lat="48.92556" lon="7.43368">
        <ele>327.154541</ele>
        <time>2010-10-03T13:52:10Z</time>
      </trkpt>
      <trkpt lat="48.92566" lon="7.43368">
        <ele>328.498291</ele>
        <time>2010-10-03T13:52:15Z</time>
      </trkpt>
      <trkpt lat="48.92575" lon="7.43376">
        <ele>328.021729</ele>
        <time>2010-10-03T13:52:21Z</time>
      </trkpt>
      <trkpt lat="48.92579" lon="7.43383">
        <ele>327.920166</ele>
        <time>2010-10-03T13:52:24Z</time>
      </trkpt>
      <trkpt lat="48.92581" lon="7.43391">
        <ele>327.623291</ele>
        <time>2010-10-03T13:52:27Z</time>
      </trkpt>
      <trkpt lat="48.92593" lon="7.4342">
        <ele>328.185791</ele>
        <time>2010-10-03T13:52:37Z</time>
      </trkpt>
      <trkpt lat="48.92598" lon="7.43425">
        <ele>328.295166</ele>
        <time>2010-10-03T13:52:39Z</time>
      </trkpt>
      <trkpt lat="48.926" lon="7.43431">
        <ele>328.310791</ele>
        <time>2010-10-03T13:52:41Z</time>
      </trkpt>
      <trkpt lat="48.92603" lon="7.43437">
        <ele>327.459229</ele>
        <time>2010-10-03T13:52:44Z</time>
      </trkpt>
      <trkpt lat="48.92606" lon="7.43451">
        <ele>326.045166</ele>
        <time>2010-10-03T13:52:50Z</time>
      </trkpt>
      <trkpt lat="48.92607" lon="7.4346">
        <ele>325.217041</ele>
        <time>2010-10-03T13:52:54Z</time>
      </trkpt>
      <trkpt lat="48.9261" lon="7.43466">
        <ele>323.435791</ele>
        <time>2010-10-03T13:52:56Z</time>
      </trkpt>
      <trkpt lat="48.92614" lon="7.43481">
        <ele>321.060791</ele>
        <time>2010-10-03T13:53:04Z</time>
      </trkpt>
      <trkpt lat="48.92617" lon="7.43506">
        <ele>320.576416</ele>
        <time>2010-10-03T13:53:15Z</time>
      </trkpt>
      <trkpt lat="48.92619" lon="7.43531">
        <ele>321.646729</ele>
        <time>2010-10-03T13:53:26Z</time>
      </trkpt>
      <trkpt lat="48.92621" lon="7.43539">
        <ele>321.412354</ele>
        <time>2010-10-03T13:53:28Z</time>
      </trkpt>
      <trkpt lat="48.92622" lon="7.43556">
        <ele>319.740479</ele>
        <time>2010-10-03T13:53:32Z</time>
      </trkpt>
      <trkpt lat="48.92618" lon="7.43561">
        <ele>319.232666</ele>
        <time>2010-10-03T13:53:34Z</time>
      </trkpt>
      <trkpt lat="48.92615" lon="7.43567">
        <ele>318.435791</ele>
        <time>2010-10-03T13:53:36Z</time>
      </trkpt>
      <trkpt lat="48.92618" lon="7.43572">
        <ele>318.310791</ele>
        <time>2010-10-03T13:53:41Z</time>
      </trkpt>
      <trkpt lat="48.92624" lon="7.4357">
        <ele>318.131104</ele>
        <time>2010-10-03T13:53:44Z</time>
      </trkpt>
      <trkpt lat="48.92628" lon="7.43566">
        <ele>317.396729</ele>
        <time>2010-10-03T13:53:48Z</time>
      </trkpt>
      <trkpt lat="48.92637" lon="7.4356">
        <ele>317.021729</ele>
        <time>2010-10-03T13:53:55Z</time>
      </trkpt>
      <trkpt lat="48.92646" lon="7.43552">
        <ele>318.099854</ele>
        <time>2010-10-03T13:54:01Z</time>
      </trkpt>
      <trkpt lat="48.92656" lon="7.43549">
        <ele>316.240479</ele>
        <time>2010-10-03T13:54:07Z</time>
      </trkpt>
      <trkpt lat="48.92675" lon="7.43539">
        <ele>316.998291</ele>
        <time>2010-10-03T13:54:25Z</time>
      </trkpt>
      <trkpt lat="48.92684" lon="7.43532">
        <ele>318.467041</ele>
        <time>2010-10-03T13:54:34Z</time>
      </trkpt>
      <trkpt lat="48.92689" lon="7.43529">
        <ele>320.342041</ele>
        <time>2010-10-03T13:54:39Z</time>
      </trkpt>
      <trkpt lat="48.92693" lon="7.43525">
        <ele>320.412354</ele>
        <time>2010-10-03T13:54:43Z</time>
      </trkpt>
      <trkpt lat="48.92698" lon="7.43522">
        <ele>319.881104</ele>
        <time>2010-10-03T13:54:47Z</time>
      </trkpt>
      <trkpt lat="48.92703" lon="7.43521">
        <ele>320.748291</ele>
        <time>2010-10-03T13:54:50Z</time>
      </trkpt>
      <trkpt lat="48.92708" lon="7.43518">
        <ele>321.076416</ele>
        <time>2010-10-03T13:54:57Z</time>
      </trkpt>
      <trkpt lat="48.92712" lon="7.43514">
        <ele>323.990479</ele>
        <time>2010-10-03T13:55:01Z</time>
      </trkpt>
      <trkpt lat="48.92714" lon="7.43507">
        <ele>323.638916</ele>
        <time>2010-10-03T13:55:05Z</time>
      </trkpt>
      <trkpt lat="48.92718" lon="7.43501">
        <ele>322.482666</ele>
        <time>2010-10-03T13:55:09Z</time>
      </trkpt>
      <trkpt lat="48.92725" lon="7.43479">
        <ele>323.724854</ele>
        <time>2010-10-03T13:55:16Z</time>
      </trkpt>
      <trkpt lat="48.9273" lon="7.43472">
        <ele>325.256104</ele>
        <time>2010-10-03T13:55:18Z</time>
      </trkpt>
      <trkpt lat="48.92735" lon="7.43457">
        <ele>323.990479</ele>
        <time>2010-10-03T13:55:22Z</time>
      </trkpt>
      <trkpt lat="48.92734" lon="7.43449">
        <ele>324.021729</ele>
        <time>2010-10-03T13:55:24Z</time>
      </trkpt>
      <trkpt lat="48.92741" lon="7.43423">
        <ele>319.865479</ele>
        <time>2010-10-03T13:55:30Z</time>
      </trkpt>
      <trkpt lat="48.92741" lon="7.43414">
        <ele>321.334229</ele>
        <time>2010-10-03T13:55:32Z</time>
      </trkpt>
      <trkpt lat="48.92746" lon="7.43396">
        <ele>321.146729</ele>
        <time>2010-10-03T13:55:36Z</time>
      </trkpt>
      <trkpt lat="48.92749" lon="7.43387">
        <ele>321.224854</ele>
        <time>2010-10-03T13:55:38Z</time>
      </trkpt>
      <trkpt lat="48.92757" lon="7.43371">
        <ele>321.240479</ele>
        <time>2010-10-03T13:55:42Z</time>
      </trkpt>
      <trkpt lat="48.92767" lon="7.43348">
        <ele>321.162354</ele>
        <time>2010-10-03T13:55:48Z</time>
      </trkpt>
      <trkpt lat="48.92776" lon="7.43332">
        <ele>318.974854</ele>
        <time>2010-10-03T13:55:52Z</time>
      </trkpt>
      <trkpt lat="48.92781" lon="7.43325">
        <ele>317.459229</ele>
        <time>2010-10-03T13:55:54Z</time>
      </trkpt>
      <trkpt lat="48.92794" lon="7.43297">
        <ele>315.717041</ele>
        <time>2010-10-03T13:56:00Z</time>
      </trkpt>
      <trkpt lat="48.92807" lon="7.43264">
        <ele>313.756104</ele>
        <time>2010-10-03T13:56:06Z</time>
      </trkpt>
      <trkpt lat="48.92817" lon="7.43239">
        <ele>312.451416</ele>
        <time>2010-10-03T13:56:10Z</time>
      </trkpt>
      <trkpt lat="48.92839" lon="7.43174">
        <ele>313.224854</ele>
        <time>2010-10-03T13:56:21Z</time>
      </trkpt>
      <trkpt lat="48.92845" lon="7.43164">
        <ele>312.763916</ele>
        <time>2010-10-03T13:56:23Z</time>
      </trkpt>
      <trkpt lat="48.9286" lon="7.43122">
        <ele>317.060791</ele>
        <time>2010-10-03T13:56:31Z</time>
      </trkpt>
      <trkpt lat="48.92864" lon="7.4311">
        <ele>317.662354</ele>
        <time>2010-10-03T13:56:33Z</time>
      </trkpt>
      <trkpt lat="48.92867" lon="7.43104">
        <ele>317.115479</ele>
        <time>2010-10-03T13:56:34Z</time>
      </trkpt>
      <trkpt lat="48.92871" lon="7.43091">
        <ele>316.857666</ele>
        <time>2010-10-03T13:56:36Z</time>
      </trkpt>
      <trkpt lat="48.92876" lon="7.43068">
        <ele>318.154541</ele>
        <time>2010-10-03T13:56:40Z</time>
      </trkpt>
      <trkpt lat="48.9288" lon="7.43057">
        <ele>316.677979</ele>
        <time>2010-10-03T13:56:42Z</time>
      </trkpt>
      <trkpt lat="48.92888" lon="7.43019">
        <ele>318.435791</ele>
        <time>2010-10-03T13:56:49Z</time>
      </trkpt>
      <trkpt lat="48.92896" lon="7.42999">
        <ele>319.115479</ele>
        <time>2010-10-03T13:56:53Z</time>
      </trkpt>
      <trkpt lat="48.92901" lon="7.42981">
        <ele>320.287354</ele>
        <time>2010-10-03T13:56:56Z</time>
      </trkpt>
      <trkpt lat="48.92909" lon="7.42966">
        <ele>319.521729</ele>
        <time>2010-10-03T13:56:59Z</time>
      </trkpt>
      <trkpt lat="48.92912" lon="7.42957">
        <ele>318.787354</ele>
        <time>2010-10-03T13:57:01Z</time>
      </trkpt>
      <trkpt lat="48.92914" lon="7.42947">
        <ele>320.560791</ele>
        <time>2010-10-03T13:57:03Z</time>
      </trkpt>
      <trkpt lat="48.92931" lon="7.42918">
        <ele>326.474854</ele>
        <time>2010-10-03T13:57:12Z</time>
      </trkpt>
      <trkpt lat="48.92934" lon="7.42911">
        <ele>327.717041</ele>
        <time>2010-10-03T13:57:15Z</time>
      </trkpt>
      <trkpt lat="48.92936" lon="7.42896">
        <ele>329.248291</ele>
        <time>2010-10-03T13:57:19Z</time>
      </trkpt>
      <trkpt lat="48.92942" lon="7.42883">
        <ele>331.185791</ele>
        <time>2010-10-03T13:57:24Z</time>
      </trkpt>
      <trkpt lat="48.92943" lon="7.42876">
        <ele>331.795166</ele>
        <time>2010-10-03T13:57:26Z</time>
      </trkpt>
      <trkpt lat="48.92946" lon="7.4287">
        <ele>331.904541</ele>
        <time>2010-10-03T13:57:28Z</time>
      </trkpt>
      <trkpt lat="48.92949" lon="7.42855">
        <ele>330.638916</ele>
        <time>2010-10-03T13:57:33Z</time>
      </trkpt>
      <trkpt lat="48.92952" lon="7.42848">
        <ele>331.474854</ele>
        <time>2010-10-03T13:57:35Z</time>
      </trkpt>
      <trkpt lat="48.92953" lon="7.42841">
        <ele>331.615479</ele>
        <time>2010-10-03T13:57:37Z</time>
      </trkpt>
      <trkpt lat="48.92955" lon="7.42835">
        <ele>331.873291</ele>
        <time>2010-10-03T13:57:39Z</time>
      </trkpt>
      <trkpt lat="48.92959" lon="7.4283">
        <ele>331.732666</ele>
        <time>2010-10-03T13:57:41Z</time>
      </trkpt>
      <trkpt lat="48.92965" lon="7.42814">
        <ele>332.060791</ele>
        <time>2010-10-03T13:57:45Z</time>
      </trkpt>
      <trkpt lat="48.92969" lon="7.42807">
        <ele>331.373291</ele>
        <time>2010-10-03T13:57:48Z</time>
      </trkpt>
      <trkpt lat="48.9298" lon="7.42774">
        <ele>332.029541</ele>
        <time>2010-10-03T13:57:58Z</time>
      </trkpt>
      <trkpt lat="48.92984" lon="7.42766">
        <ele>332.545166</ele>
        <time>2010-10-03T13:58:00Z</time>
      </trkpt>
      <trkpt lat="48.92992" lon="7.42732">
        <ele>334.873291</ele>
        <time>2010-10-03T13:58:08Z</time>
      </trkpt>
      <trkpt lat="48.92991" lon="7.42724">
        <ele>335.271729</ele>
        <time>2010-10-03T13:58:10Z</time>
      </trkpt>
      <trkpt lat="48.92996" lon="7.42698">
        <ele>335.170166</ele>
        <time>2010-10-03T13:58:17Z</time>
      </trkpt>
      <trkpt lat="48.93001" lon="7.42683">
        <ele>335.248291</ele>
        <time>2010-10-03T13:58:20Z</time>
      </trkpt>
      <trkpt lat="48.93005" lon="7.42671">
        <ele>335.240479</ele>
        <time>2010-10-03T13:58:22Z</time>
      </trkpt>
      <trkpt lat="48.93007" lon="7.42666">
        <ele>335.881104</ele>
        <time>2010-10-03T13:58:23Z</time>
      </trkpt>
      <trkpt lat="48.93011" lon="7.42654">
        <ele>336.295166</ele>
        <time>2010-10-03T13:58:25Z</time>
      </trkpt>
      <trkpt lat="48.93013" lon="7.42632">
        <ele>336.912354</ele>
        <time>2010-10-03T13:58:28Z</time>
      </trkpt>
      <trkpt lat="48.93019" lon="7.42593">
        <ele>331.513916</ele>
        <time>2010-10-03T13:58:32Z</time>
      </trkpt>
      <trkpt lat="48.9302" lon="7.42573">
        <ele>331.787354</ele>
        <time>2010-10-03T13:58:34Z</time>
      </trkpt>
      <trkpt lat="48.9302" lon="7.42553">
        <ele>331.638916</ele>
        <time>2010-10-03T13:58:36Z</time>
      </trkpt>
      <trkpt lat="48.93015" lon="7.42504">
        <ele>327.662354</ele>
        <time>2010-10-03T13:58:41Z</time>
      </trkpt>
      <trkpt lat="48.93014" lon="7.42475">
        <ele>325.357666</ele>
        <time>2010-10-03T13:58:45Z</time>
      </trkpt>
      <trkpt lat="48.93017" lon="7.42457">
        <ele>326.787354</ele>
        <time>2010-10-03T13:58:48Z</time>
      </trkpt>
      <trkpt lat="48.93028" lon="7.42411">
        <ele>326.592041</ele>
        <time>2010-10-03T13:58:56Z</time>
      </trkpt>
      <trkpt lat="48.93034" lon="7.42371">
        <ele>329.677979</ele>
        <time>2010-10-03T13:59:04Z</time>
      </trkpt>
      <trkpt lat="48.93036" lon="7.42364">
        <ele>330.724854</ele>
        <time>2010-10-03T13:59:05Z</time>
      </trkpt>
      <trkpt lat="48.93039" lon="7.42342">
        <ele>330.021729</ele>
        <time>2010-10-03T13:59:08Z</time>
      </trkpt>
      <trkpt lat="48.93041" lon="7.42315">
        <ele>329.318604</ele>
        <time>2010-10-03T13:59:11Z</time>
      </trkpt>
      <trkpt lat="48.93042" lon="7.42307">
        <ele>328.006104</ele>
        <time>2010-10-03T13:59:12Z</time>
      </trkpt>
      <trkpt lat="48.93044" lon="7.42281">
        <ele>327.013916</ele>
        <time>2010-10-03T13:59:15Z</time>
      </trkpt>
      <trkpt lat="48.93047" lon="7.42257">
        <ele>330.412354</ele>
        <time>2010-10-03T13:59:19Z</time>
      </trkpt>
      <trkpt lat="48.93047" lon="7.42241">
        <ele>331.927979</ele>
        <time>2010-10-03T13:59:21Z</time>
      </trkpt>
      <trkpt lat="48.93052" lon="7.42198">
        <ele>327.060791</ele>
        <time>2010-10-03T13:59:26Z</time>
      </trkpt>
      <trkpt lat="48.93055" lon="7.42188">
        <ele>327.443604</ele>
        <time>2010-10-03T13:59:28Z</time>
      </trkpt>
      <trkpt lat="48.93059" lon="7.42181">
        <ele>327.771729</ele>
        <time>2010-10-03T13:59:30Z</time>
      </trkpt>
      <trkpt lat="48.93062" lon="7.4216">
        <ele>328.623291</ele>
        <time>2010-10-03T13:59:34Z</time>
      </trkpt>
      <trkpt lat="48.93067" lon="7.42142">
        <ele>327.920166</ele>
        <time>2010-10-03T13:59:37Z</time>
      </trkpt>
      <trkpt lat="48.93074" lon="7.42121">
        <ele>325.904541</ele>
        <time>2010-10-03T13:59:40Z</time>
      </trkpt>
      <trkpt lat="48.93077" lon="7.42111">
        <ele>324.193604</ele>
        <time>2010-10-03T13:59:41Z</time>
      </trkpt>
      <trkpt lat="48.9308" lon="7.42103">
        <ele>323.138916</ele>
        <time>2010-10-03T13:59:42Z</time>
      </trkpt>
      <trkpt lat="48.93085" lon="7.42094">
        <ele>323.084229</ele>
        <time>2010-10-03T13:59:43Z</time>
      </trkpt>
      <trkpt lat="48.93093" lon="7.42075">
        <ele>322.834229</ele>
        <time>2010-10-03T13:59:45Z</time>
      </trkpt>
      <trkpt lat="48.93095" lon="7.42066">
        <ele>322.201416</ele>
        <time>2010-10-03T13:59:46Z</time>
      </trkpt>
      <trkpt lat="48.93108" lon="7.42034">
        <ele>321.912354</ele>
        <time>2010-10-03T13:59:50Z</time>
      </trkpt>
      <trkpt lat="48.93123" lon="7.42009">
        <ele>319.607666</ele>
        <time>2010-10-03T13:59:53Z</time>
      </trkpt>
      <trkpt lat="48.9316" lon="7.41935">
        <ele>320.209229</ele>
        <time>2010-10-03T14:00:02Z</time>
      </trkpt>
      <trkpt lat="48.93177" lon="7.41909">
        <ele>320.474854</ele>
        <time>2010-10-03T14:00:06Z</time>
      </trkpt>
      <trkpt lat="48.93198" lon="7.41887">
        <ele>323.584229</ele>
        <time>2010-10-03T14:00:11Z</time>
      </trkpt>
      <trkpt lat="48.93205" lon="7.41882">
        <ele>326.646729</ele>
        <time>2010-10-03T14:00:13Z</time>
      </trkpt>
      <trkpt lat="48.93212" lon="7.4188">
        <ele>327.732666</ele>
        <time>2010-10-03T14:00:16Z</time>
      </trkpt>
      <trkpt lat="48.93217" lon="7.41876">
        <ele>327.802979</ele>
        <time>2010-10-03T14:00:19Z</time>
      </trkpt>
      <trkpt lat="48.93219" lon="7.41871">
        <ele>330.920166</ele>
        <time>2010-10-03T14:00:31Z</time>
      </trkpt>
      <trkpt lat="48.93228" lon="7.41866">
        <ele>330.568604</ele>
        <time>2010-10-03T14:00:48Z</time>
      </trkpt>
      <trkpt lat="48.93237" lon="7.41864">
        <ele>329.568604</ele>
        <time>2010-10-03T14:00:52Z</time>
      </trkpt>
      <trkpt lat="48.93252" lon="7.41856">
        <ele>329.021729</ele>
        <time>2010-10-03T14:01:00Z</time>
      </trkpt>
      <trkpt lat="48.93284" lon="7.41852">
        <ele>333.302979</ele>
        <time>2010-10-03T14:01:12Z</time>
      </trkpt>
      <trkpt lat="48.93292" lon="7.41853">
        <ele>335.209229</ele>
        <time>2010-10-03T14:01:14Z</time>
      </trkpt>
      <trkpt lat="48.93297" lon="7.4185">
        <ele>333.685791</ele>
        <time>2010-10-03T14:01:16Z</time>
      </trkpt>
      <trkpt lat="48.93308" lon="7.41848">
        <ele>333.709229</ele>
        <time>2010-10-03T14:01:18Z</time>
      </trkpt>
      <trkpt lat="48.9332" lon="7.4185">
        <ele>332.467041</ele>
        <time>2010-10-03T14:01:20Z</time>
      </trkpt>
      <trkpt lat="48.93349" lon="7.41851">
        <ele>331.092041</ele>
        <time>2010-10-03T14:01:27Z</time>
      </trkpt>
      <trkpt lat="48.93364" lon="7.41846">
        <ele>329.349854</ele>
        <time>2010-10-03T14:01:31Z</time>
      </trkpt>
      <trkpt lat="48.9337" lon="7.41846">
        <ele>328.279541</ele>
        <time>2010-10-03T14:01:32Z</time>
      </trkpt>
      <trkpt lat="48.9338" lon="7.41841">
        <ele>328.740479</ele>
        <time>2010-10-03T14:01:34Z</time>
      </trkpt>
      <trkpt lat="48.934" lon="7.41834">
        <ele>327.412354</ele>
        <time>2010-10-03T14:01:38Z</time>
      </trkpt>
      <trkpt lat="48.93426" lon="7.41823">
        <ele>328.717041</ele>
        <time>2010-10-03T14:01:43Z</time>
      </trkpt>
      <trkpt lat="48.93444" lon="7.4181">
        <ele>329.537354</ele>
        <time>2010-10-03T14:01:47Z</time>
      </trkpt>
      <trkpt lat="48.93458" lon="7.41803">
        <ele>328.865479</ele>
        <time>2010-10-03T14:01:49Z</time>
      </trkpt>
      <trkpt lat="48.93469" lon="7.41795">
        <ele>328.717041</ele>
        <time>2010-10-03T14:01:52Z</time>
      </trkpt>
      <trkpt lat="48.93479" lon="7.41784">
        <ele>329.701416</ele>
        <time>2010-10-03T14:01:55Z</time>
      </trkpt>
      <trkpt lat="48.93482" lon="7.41777">
        <ele>330.193604</ele>
        <time>2010-10-03T14:01:56Z</time>
      </trkpt>
      <trkpt lat="48.93494" lon="7.41768">
        <ele>330.967041</ele>
        <time>2010-10-03T14:01:58Z</time>
      </trkpt>
      <trkpt lat="48.935" lon="7.41767">
        <ele>330.943604</ele>
        <time>2010-10-03T14:01:59Z</time>
      </trkpt>
      <trkpt lat="48.93506" lon="7.41763">
        <ele>330.420166</ele>
        <time>2010-10-03T14:02:00Z</time>
      </trkpt>
      <trkpt lat="48.93516" lon="7.4176">
        <ele>330.896729</ele>
        <time>2010-10-03T14:02:02Z</time>
      </trkpt>
      <trkpt lat="48.93547" lon="7.41726">
        <ele>329.138916</ele>
        <time>2010-10-03T14:02:10Z</time>
      </trkpt>
      <trkpt lat="48.93558" lon="7.41709">
        <ele>327.662354</ele>
        <time>2010-10-03T14:02:14Z</time>
      </trkpt>
      <trkpt lat="48.93572" lon="7.41696">
        <ele>327.779541</ele>
        <time>2010-10-03T14:02:17Z</time>
      </trkpt>
      <trkpt lat="48.93575" lon="7.41689">
        <ele>325.021729</ele>
        <time>2010-10-03T14:02:18Z</time>
      </trkpt>
      <trkpt lat="48.93593" lon="7.41674">
        <ele>322.849854</ele>
        <time>2010-10-03T14:02:21Z</time>
      </trkpt>
      <trkpt lat="48.936" lon="7.4167">
        <ele>322.849854</ele>
        <time>2010-10-03T14:02:22Z</time>
      </trkpt>
      <trkpt lat="48.93605" lon="7.41666">
        <ele>322.123291</ele>
        <time>2010-10-03T14:02:23Z</time>
      </trkpt>
      <trkpt lat="48.93625" lon="7.41656">
        <ele>322.802979</ele>
        <time>2010-10-03T14:02:25Z</time>
      </trkpt>
      <trkpt lat="48.9363" lon="7.41649">
        <ele>322.217041</ele>
        <time>2010-10-03T14:02:26Z</time>
      </trkpt>
      <trkpt lat="48.93633" lon="7.41639">
        <ele>322.334229</ele>
        <time>2010-10-03T14:02:27Z</time>
      </trkpt>
      <trkpt lat="48.93641" lon="7.41635">
        <ele>319.998291</ele>
        <time>2010-10-03T14:02:28Z</time>
      </trkpt>
      <trkpt lat="48.93645" lon="7.41624">
        <ele>317.615479</ele>
        <time>2010-10-03T14:02:30Z</time>
      </trkpt>
      <trkpt lat="48.9365" lon="7.4162">
        <ele>314.404541</ele>
        <time>2010-10-03T14:02:32Z</time>
      </trkpt>
      <trkpt lat="48.93654" lon="7.41622">
        <ele>312.021729</ele>
        <time>2010-10-03T14:02:33Z</time>
      </trkpt>
      <trkpt lat="48.93663" lon="7.41618">
        <ele>306.263916</ele>
        <time>2010-10-03T14:02:37Z</time>
      </trkpt>
      <trkpt lat="48.93676" lon="7.41587">
        <ele>298.537354</ele>
        <time>2010-10-03T14:02:45Z</time>
      </trkpt>
      <trkpt lat="48.93683" lon="7.41559">
        <ele>294.154541</ele>
        <time>2010-10-03T14:02:51Z</time>
      </trkpt>
      <trkpt lat="48.93684" lon="7.41549">
        <ele>293.521729</ele>
        <time>2010-10-03T14:02:53Z</time>
      </trkpt>
      <trkpt lat="48.93688" lon="7.41545">
        <ele>293.209229</ele>
        <time>2010-10-03T14:02:54Z</time>
      </trkpt>
      <trkpt lat="48.93689" lon="7.41536">
        <ele>292.732666</ele>
        <time>2010-10-03T14:02:56Z</time>
      </trkpt>
      <trkpt lat="48.93693" lon="7.41519">
        <ele>294.287354</ele>
        <time>2010-10-03T14:03:00Z</time>
      </trkpt>
      <trkpt lat="48.93697" lon="7.41514">
        <ele>294.810791</ele>
        <time>2010-10-03T14:03:02Z</time>
      </trkpt>
      <trkpt lat="48.93704" lon="7.41501">
        <ele>293.849854</ele>
        <time>2010-10-03T14:03:06Z</time>
      </trkpt>
      <trkpt lat="48.93709" lon="7.41496">
        <ele>293.592041</ele>
        <time>2010-10-03T14:03:09Z</time>
      </trkpt>
      <trkpt lat="48.93712" lon="7.4149">
        <ele>294.677979</ele>
        <time>2010-10-03T14:03:13Z</time>
      </trkpt>
      <trkpt lat="48.93714" lon="7.41484">
        <ele>296.982666</ele>
        <time>2010-10-03T14:03:16Z</time>
      </trkpt>
      <trkpt lat="48.93718" lon="7.4148">
        <ele>298.365479</ele>
        <time>2010-10-03T14:03:19Z</time>
      </trkpt>
      <trkpt lat="48.93719" lon="7.41473">
        <ele>297.748291</ele>
        <time>2010-10-03T14:03:21Z</time>
      </trkpt>
      <trkpt lat="48.93722" lon="7.41466">
        <ele>296.099854</ele>
        <time>2010-10-03T14:03:23Z</time>
      </trkpt>
      <trkpt lat="48.93722" lon="7.41458">
        <ele>297.170166</ele>
        <time>2010-10-03T14:03:26Z</time>
      </trkpt>
      <trkpt lat="48.93726" lon="7.41452">
        <ele>297.256104</ele>
        <time>2010-10-03T14:03:29Z</time>
      </trkpt>
      <trkpt lat="48.9373" lon="7.41439">
        <ele>297.287354</ele>
        <time>2010-10-03T14:03:36Z</time>
      </trkpt>
      <trkpt lat="48.93731" lon="7.41433">
        <ele>297.974854</ele>
        <time>2010-10-03T14:03:39Z</time>
      </trkpt>
      <trkpt lat="48.9373" lon="7.4141">
        <ele>300.623291</ele>
        <time>2010-10-03T14:03:51Z</time>
      </trkpt>
      <trkpt lat="48.93733" lon="7.41408">
        <ele>303.545166</ele>
        <time>2010-10-03T14:03:54Z</time>
      </trkpt>
      <trkpt lat="48.93737" lon="7.4139">
        <ele>309.756104</ele>
        <time>2010-10-03T14:04:03Z</time>
      </trkpt>
      <trkpt lat="48.93748" lon="7.41383">
        <ele>311.381104</ele>
        <time>2010-10-03T14:04:11Z</time>
      </trkpt>
      <trkpt lat="48.93767" lon="7.41361">
        <ele>309.717041</ele>
        <time>2010-10-03T14:04:20Z</time>
      </trkpt>
      <trkpt lat="48.93774" lon="7.41356">
        <ele>305.896729</ele>
        <time>2010-10-03T14:04:21Z</time>
      </trkpt>
      <trkpt lat="48.93787" lon="7.41351">
        <ele>302.748291</ele>
        <time>2010-10-03T14:04:23Z</time>
      </trkpt>
      <trkpt lat="48.93803" lon="7.4131">
        <ele>300.185791</ele>
        <time>2010-10-03T14:04:31Z</time>
      </trkpt>
      <trkpt lat="48.93805" lon="7.41303">
        <ele>299.592041</ele>
        <time>2010-10-03T14:04:32Z</time>
      </trkpt>
      <trkpt lat="48.93807" lon="7.41298">
        <ele>298.842041</ele>
        <time>2010-10-03T14:04:33Z</time>
      </trkpt>
      <trkpt lat="48.9381" lon="7.41287">
        <ele>298.709229</ele>
        <time>2010-10-03T14:04:35Z</time>
      </trkpt>
      <trkpt lat="48.93815" lon="7.41276">
        <ele>300.420166</ele>
        <time>2010-10-03T14:04:37Z</time>
      </trkpt>
      <trkpt lat="48.93815" lon="7.41265">
        <ele>301.373291</ele>
        <time>2010-10-03T14:04:39Z</time>
      </trkpt>
      <trkpt lat="48.93812" lon="7.41257">
        <ele>302.849854</ele>
        <time>2010-10-03T14:04:42Z</time>
      </trkpt>
      <trkpt lat="48.93807" lon="7.41253">
        <ele>300.568604</ele>
        <time>2010-10-03T14:04:44Z</time>
      </trkpt>
      <trkpt lat="48.93811" lon="7.41253">
        <ele>299.412354</ele>
        <time>2010-10-03T14:04:46Z</time>
      </trkpt>
      <trkpt lat="48.93807" lon="7.41253">
        <ele>299.615479</ele>
        <time>2010-10-03T14:04:48Z</time>
      </trkpt>
      <trkpt lat="48.9381" lon="7.41258">
        <ele>299.802979</ele>
        <time>2010-10-03T14:05:12Z</time>
      </trkpt>
      <trkpt lat="48.93814" lon="7.41262">
        <ele>299.818604</ele>
        <time>2010-10-03T14:05:23Z</time>
      </trkpt>
      <trkpt lat="48.93822" lon="7.41255">
        <ele>299.904541</ele>
        <time>2010-10-03T14:05:42Z</time>
      </trkpt>
      <trkpt lat="48.93819" lon="7.41249">
        <ele>299.935791</ele>
        <time>2010-10-03T14:06:00Z</time>
      </trkpt>
      <trkpt lat="48.93817" lon="7.41242">
        <ele>299.951416</ele>
        <time>2010-10-03T14:06:08Z</time>
      </trkpt>
      <trkpt lat="48.93819" lon="7.41236">
        <ele>299.943604</ele>
        <time>2010-10-03T14:06:19Z</time>
      </trkpt>
      <trkpt lat="48.93824" lon="7.41234">
        <ele>299.943604</ele>
        <time>2010-10-03T14:06:28Z</time>
      </trkpt>
      <trkpt lat="48.93829" lon="7.41234">
        <ele>299.951416</ele>
        <time>2010-10-03T14:06:36Z</time>
      </trkpt>
      <trkpt lat="48.93839" lon="7.41236">
        <ele>300.060791</ele>
        <time>2010-10-03T14:06:51Z</time>
      </trkpt>
      <trkpt lat="48.93844" lon="7.41232">
        <ele>300.248291</ele>
        <time>2010-10-03T14:06:56Z</time>
      </trkpt>
      <trkpt lat="48.93865" lon="7.41231">
        <ele>300.990479</ele>
        <time>2010-10-03T14:07:01Z</time>
      </trkpt>
      <trkpt lat="48.93871" lon="7.41235">
        <ele>301.662354</ele>
        <time>2010-10-03T14:07:06Z</time>
      </trkpt>
      <trkpt lat="48.93892" lon="7.41237">
        <ele>302.099854</ele>
        <time>2010-10-03T14:07:10Z</time>
      </trkpt>
      <trkpt lat="48.93915" lon="7.41237">
        <ele>302.295166</ele>
        <time>2010-10-03T14:07:16Z</time>
      </trkpt>
      <trkpt lat="48.93919" lon="7.41239">
        <ele>303.185791</ele>
        <time>2010-10-03T14:07:19Z</time>
      </trkpt>
      <trkpt lat="48.93935" lon="7.4125">
        <ele>304.193604</ele>
        <time>2010-10-03T14:07:29Z</time>
      </trkpt>
      <trkpt lat="48.93924" lon="7.41258">
        <ele>299.396729</ele>
        <time>2010-10-03T14:07:40Z</time>
      </trkpt>
      <trkpt lat="48.93915" lon="7.41258">
        <ele>298.420166</ele>
        <time>2010-10-03T14:07:42Z</time>
      </trkpt>
      <trkpt lat="48.93895" lon="7.41252">
        <ele>295.670166</ele>
        <time>2010-10-03T14:07:46Z</time>
      </trkpt>
      <trkpt lat="48.93885" lon="7.41248">
        <ele>294.896729</ele>
        <time>2010-10-03T14:07:48Z</time>
      </trkpt>
      <trkpt lat="48.93877" lon="7.41249">
        <ele>293.951416</ele>
        <time>2010-10-03T14:07:51Z</time>
      </trkpt>
      <trkpt lat="48.93858" lon="7.41248">
        <ele>292.342041</ele>
        <time>2010-10-03T14:07:56Z</time>
      </trkpt>
      <trkpt lat="48.93892" lon="7.41259">
        <ele>290.326416</ele>
        <time>2010-10-03T14:08:05Z</time>
      </trkpt>
      <trkpt lat="48.93917" lon="7.41261">
        <ele>288.873291</ele>
        <time>2010-10-03T14:08:08Z</time>
      </trkpt>
      <trkpt lat="48.93924" lon="7.41259">
        <ele>287.888916</ele>
        <time>2010-10-03T14:08:10Z</time>
      </trkpt>
      <trkpt lat="48.93938" lon="7.41259">
        <ele>286.709229</ele>
        <time>2010-10-03T14:08:13Z</time>
      </trkpt>
      <trkpt lat="48.93954" lon="7.41261">
        <ele>286.271729</ele>
        <time>2010-10-03T14:08:15Z</time>
      </trkpt>
      <trkpt lat="48.93958" lon="7.41264">
        <ele>285.373291</ele>
        <time>2010-10-03T14:08:19Z</time>
      </trkpt>
      <trkpt lat="48.93953" lon="7.4126">
        <ele>283.529541</ele>
        <time>2010-10-03T14:08:24Z</time>
      </trkpt>
      <trkpt lat="48.93941" lon="7.41261">
        <ele>282.990479</ele>
        <time>2010-10-03T14:08:28Z</time>
      </trkpt>
      <trkpt lat="48.93924" lon="7.41255">
        <ele>283.279541</ele>
        <time>2010-10-03T14:08:33Z</time>
      </trkpt>
      <trkpt lat="48.93916" lon="7.41248">
        <ele>284.717041</ele>
        <time>2010-10-03T14:08:38Z</time>
      </trkpt>
      <trkpt lat="48.93904" lon="7.41244">
        <ele>285.857666</ele>
        <time>2010-10-03T14:08:41Z</time>
      </trkpt>
      <trkpt lat="48.93897" lon="7.4124">
        <ele>286.732666</ele>
        <time>2010-10-03T14:08:43Z</time>
      </trkpt>
      <trkpt lat="48.93832" lon="7.41219">
        <ele>292.990479</ele>
        <time>2010-10-03T14:08:56Z</time>
      </trkpt>
      <trkpt lat="48.93827" lon="7.41216">
        <ele>293.357666</ele>
        <time>2010-10-03T14:08:59Z</time>
      </trkpt>
      <trkpt lat="48.93823" lon="7.41216">
        <ele>293.201416</ele>
        <time>2010-10-03T14:09:02Z</time>
      </trkpt>
      <trkpt lat="48.93835" lon="7.41227">
        <ele>292.318604</ele>
        <time>2010-10-03T14:09:06Z</time>
      </trkpt>
      <trkpt lat="48.93845" lon="7.41232">
        <ele>291.037354</ele>
        <time>2010-10-03T14:09:08Z</time>
      </trkpt>
      <trkpt lat="48.93856" lon="7.4124">
        <ele>289.193604</ele>
        <time>2010-10-03T14:09:12Z</time>
      </trkpt>
      <trkpt lat="48.93862" lon="7.41242">
        <ele>289.052979</ele>
        <time>2010-10-03T14:09:13Z</time>
      </trkpt>
      <trkpt lat="48.93868" lon="7.41246">
        <ele>288.646729</ele>
        <time>2010-10-03T14:09:15Z</time>
      </trkpt>
      <trkpt lat="48.93893" lon="7.41252">
        <ele>288.834229</ele>
        <time>2010-10-03T14:09:26Z</time>
      </trkpt>
      <trkpt lat="48.93905" lon="7.41253">
        <ele>288.849854</ele>
        <time>2010-10-03T14:09:30Z</time>
      </trkpt>
      <trkpt lat="48.939" lon="7.4125">
        <ele>289.154541</ele>
        <time>2010-10-03T14:09:34Z</time>
      </trkpt>
      <trkpt lat="48.93895" lon="7.41253">
        <ele>292.935791</ele>
        <time>2010-10-03T14:09:41Z</time>
      </trkpt>
      <trkpt lat="48.93882" lon="7.41245">
        <ele>300.248291</ele>
        <time>2010-10-03T14:09:48Z</time>
      </trkpt>
      <trkpt lat="48.93877" lon="7.41239">
        <ele>303.631104</ele>
        <time>2010-10-03T14:09:50Z</time>
      </trkpt>
      <trkpt lat="48.93882" lon="7.41233">
        <ele>306.615479</ele>
        <time>2010-10-03T14:09:52Z</time>
      </trkpt>
      <trkpt lat="48.93905" lon="7.41239">
        <ele>309.076416</ele>
        <time>2010-10-03T14:09:56Z</time>
      </trkpt>
      <trkpt lat="48.93895" lon="7.41233">
        <ele>310.615479</ele>
        <time>2010-10-03T14:09:57Z</time>
      </trkpt>
      <trkpt lat="48.93894" lon="7.41233">
        <ele>316.873291</ele>
        <time>2010-10-03T14:10:02Z</time>
      </trkpt>
      <trkpt lat="48.93892" lon="7.41237">
        <ele>321.474854</ele>
        <time>2010-10-03T14:10:08Z</time>
      </trkpt>
      <trkpt lat="48.93896" lon="7.41243">
        <ele>322.068604</ele>
        <time>2010-10-03T14:10:13Z</time>
      </trkpt>
      <trkpt lat="48.93903" lon="7.41245">
        <ele>321.654541</ele>
        <time>2010-10-03T14:10:15Z</time>
      </trkpt>
      <trkpt lat="48.93925" lon="7.41255">
        <ele>321.295166</ele>
        <time>2010-10-03T14:10:29Z</time>
      </trkpt>
      <trkpt lat="48.93937" lon="7.4126">
        <ele>319.810791</ele>
        <time>2010-10-03T14:10:33Z</time>
      </trkpt>
      <trkpt lat="48.93958" lon="7.41264">
        <ele>318.521729</ele>
        <time>2010-10-03T14:10:38Z</time>
      </trkpt>
      <trkpt lat="48.93963" lon="7.41264">
        <ele>316.193604</ele>
        <time>2010-10-03T14:10:44Z</time>
      </trkpt>
      <trkpt lat="48.9396" lon="7.41257">
        <ele>313.599854</ele>
        <time>2010-10-03T14:10:47Z</time>
      </trkpt>
      <trkpt lat="48.93969" lon="7.41257">
        <ele>318.740479</ele>
        <time>2010-10-03T14:10:52Z</time>
      </trkpt>
      <trkpt lat="48.93974" lon="7.4126">
        <ele>319.396729</ele>
        <time>2010-10-03T14:10:55Z</time>
      </trkpt>
      <trkpt lat="48.93979" lon="7.41261">
        <ele>322.060791</ele>
        <time>2010-10-03T14:10:58Z</time>
      </trkpt>
      <trkpt lat="48.93995" lon="7.41259">
        <ele>315.662354</ele>
        <time>2010-10-03T14:11:06Z</time>
      </trkpt>
      <trkpt lat="48.94001" lon="7.41261">
        <ele>312.318604</ele>
        <time>2010-10-03T14:11:08Z</time>
      </trkpt>
      <trkpt lat="48.9401" lon="7.41262">
        <ele>307.607666</ele>
        <time>2010-10-03T14:11:21Z</time>
      </trkpt>
      <trkpt lat="48.94006" lon="7.41265">
        <ele>304.646729</ele>
        <time>2010-10-03T14:11:27Z</time>
      </trkpt>
      <trkpt lat="48.93995" lon="7.41267">
        <ele>304.170166</ele>
        <time>2010-10-03T14:11:33Z</time>
      </trkpt>
      <trkpt lat="48.9399" lon="7.41262">
        <ele>309.443604</ele>
        <time>2010-10-03T14:11:36Z</time>
      </trkpt>
      <trkpt lat="48.93992" lon="7.41267">
        <ele>311.365479</ele>
        <time>2010-10-03T14:11:42Z</time>
      </trkpt>
      <trkpt lat="48.93985" lon="7.41264">
        <ele>312.873291</ele>
        <time>2010-10-03T14:11:45Z</time>
      </trkpt>
      <trkpt lat="48.9398" lon="7.41264">
        <ele>315.576416</ele>
        <time>2010-10-03T14:11:47Z</time>
      </trkpt>
      <trkpt lat="48.93984" lon="7.41267">
        <ele>313.248291</ele>
        <time>2010-10-03T14:11:49Z</time>
      </trkpt>
      <trkpt lat="48.93952" lon="7.41263">
        <ele>308.740479</ele>
        <time>2010-10-03T14:11:57Z</time>
      </trkpt>
      <trkpt lat="48.93946" lon="7.41266">
        <ele>306.998291</ele>
        <time>2010-10-03T14:11:58Z</time>
      </trkpt>
      <trkpt lat="48.93935" lon="7.41265">
        <ele>306.857666</ele>
        <time>2010-10-03T14:11:59Z</time>
      </trkpt>
      <trkpt lat="48.93926" lon="7.41266">
        <ele>306.076416</ele>
        <time>2010-10-03T14:12:00Z</time>
      </trkpt>
      <trkpt lat="48.93921" lon="7.41265">
        <ele>304.888916</ele>
        <time>2010-10-03T14:12:01Z</time>
      </trkpt>
      <trkpt lat="48.93897" lon="7.41252">
        <ele>298.763916</ele>
        <time>2010-10-03T14:12:08Z</time>
      </trkpt>
      <trkpt lat="48.93891" lon="7.41245">
        <ele>296.982666</ele>
        <time>2010-10-03T14:12:12Z</time>
      </trkpt>
      <trkpt lat="48.93885" lon="7.41232">
        <ele>297.584229</ele>
        <time>2010-10-03T14:12:21Z</time>
      </trkpt>
      <trkpt lat="48.93881" lon="7.4123">
        <ele>297.638916</ele>
        <time>2010-10-03T14:12:22Z</time>
      </trkpt>
      <trkpt lat="48.93873" lon="7.41229">
        <ele>297.287354</ele>
        <time>2010-10-03T14:12:23Z</time>
      </trkpt>
      <trkpt lat="48.93857" lon="7.4122">
        <ele>297.170166</ele>
        <time>2010-10-03T14:12:29Z</time>
      </trkpt>
      <trkpt lat="48.93855" lon="7.41213">
        <ele>296.513916</ele>
        <time>2010-10-03T14:12:30Z</time>
      </trkpt>
      <trkpt lat="48.93849" lon="7.41207">
        <ele>296.763916</ele>
        <time>2010-10-03T14:12:33Z</time>
      </trkpt>
      <trkpt lat="48.93839" lon="7.41203">
        <ele>296.842041</ele>
        <time>2010-10-03T14:12:35Z</time>
      </trkpt>
      <trkpt lat="48.93822" lon="7.41184">
        <ele>298.467041</ele>
        <time>2010-10-03T14:12:43Z</time>
      </trkpt>
      <trkpt lat="48.93819" lon="7.41178">
        <ele>297.326416</ele>
        <time>2010-10-03T14:12:46Z</time>
      </trkpt>
      <trkpt lat="48.93814" lon="7.41172">
        <ele>297.545166</ele>
        <time>2010-10-03T14:12:48Z</time>
      </trkpt>
      <trkpt lat="48.93812" lon="7.41163">
        <ele>298.802979</ele>
        <time>2010-10-03T14:12:51Z</time>
      </trkpt>
      <trkpt lat="48.93803" lon="7.41145">
        <ele>300.771729</ele>
        <time>2010-10-03T14:13:00Z</time>
      </trkpt>
      <trkpt lat="48.93806" lon="7.41139">
        <ele>300.537354</ele>
        <time>2010-10-03T14:13:02Z</time>
      </trkpt>
      <trkpt lat="48.93805" lon="7.41131">
        <ele>300.935791</ele>
        <time>2010-10-03T14:13:06Z</time>
      </trkpt>
      <trkpt lat="48.93799" lon="7.41119">
        <ele>302.263916</ele>
        <time>2010-10-03T14:13:12Z</time>
      </trkpt>
      <trkpt lat="48.938" lon="7.4111">
        <ele>301.599854</ele>
        <time>2010-10-03T14:13:15Z</time>
      </trkpt>
      <trkpt lat="48.93796" lon="7.41106">
        <ele>302.052979</ele>
        <time>2010-10-03T14:13:16Z</time>
      </trkpt>
      <trkpt lat="48.93795" lon="7.41099">
        <ele>301.435791</ele>
        <time>2010-10-03T14:13:26Z</time>
      </trkpt>
      <trkpt lat="48.93791" lon="7.41095">
        <ele>302.326416</ele>
        <time>2010-10-03T14:13:28Z</time>
      </trkpt>
      <trkpt lat="48.93794" lon="7.41088">
        <ele>305.107666</ele>
        <time>2010-10-03T14:13:34Z</time>
      </trkpt>
      <trkpt lat="48.93791" lon="7.41082">
        <ele>306.857666</ele>
        <time>2010-10-03T14:13:37Z</time>
      </trkpt>
      <trkpt lat="48.93784" lon="7.4108">
        <ele>307.006104</ele>
        <time>2010-10-03T14:13:38Z</time>
      </trkpt>
      <trkpt lat="48.93776" lon="7.41065">
        <ele>309.013916</ele>
        <time>2010-10-03T14:13:45Z</time>
      </trkpt>
      <trkpt lat="48.93775" lon="7.41058">
        <ele>310.724854</ele>
        <time>2010-10-03T14:13:49Z</time>
      </trkpt>
      <trkpt lat="48.9377" lon="7.41044">
        <ele>311.256104</ele>
        <time>2010-10-03T14:13:58Z</time>
      </trkpt>
      <trkpt lat="48.93766" lon="7.41039">
        <ele>311.818604</ele>
        <time>2010-10-03T14:14:02Z</time>
      </trkpt>
      <trkpt lat="48.93768" lon="7.41031">
        <ele>311.810791</ele>
        <time>2010-10-03T14:14:05Z</time>
      </trkpt>
      <trkpt lat="48.93766" lon="7.41025">
        <ele>312.459229</ele>
        <time>2010-10-03T14:14:10Z</time>
      </trkpt>
      <trkpt lat="48.93767" lon="7.41015">
        <ele>312.709229</ele>
        <time>2010-10-03T14:14:16Z</time>
      </trkpt>
      <trkpt lat="48.93766" lon="7.40998">
        <ele>316.162354</ele>
        <time>2010-10-03T14:14:25Z</time>
      </trkpt>
      <trkpt lat="48.93766" lon="7.40982">
        <ele>318.709229</ele>
        <time>2010-10-03T14:14:32Z</time>
      </trkpt>
      <trkpt lat="48.93768" lon="7.40968">
        <ele>320.412354</ele>
        <time>2010-10-03T14:14:44Z</time>
      </trkpt>
      <trkpt lat="48.93766" lon="7.40962">
        <ele>320.232666</ele>
        <time>2010-10-03T14:14:46Z</time>
      </trkpt>
      <trkpt lat="48.93769" lon="7.40956">
        <ele>320.592041</ele>
        <time>2010-10-03T14:14:51Z</time>
      </trkpt>
      <trkpt lat="48.93767" lon="7.4095">
        <ele>319.357666</ele>
        <time>2010-10-03T14:14:55Z</time>
      </trkpt>
      <trkpt lat="48.93763" lon="7.40945">
        <ele>318.646729</ele>
        <time>2010-10-03T14:14:58Z</time>
      </trkpt>
      <trkpt lat="48.93761" lon="7.4093">
        <ele>320.888916</ele>
        <time>2010-10-03T14:15:08Z</time>
      </trkpt>
      <trkpt lat="48.93764" lon="7.40914">
        <ele>324.076416</ele>
        <time>2010-10-03T14:15:20Z</time>
      </trkpt>
      <trkpt lat="48.93761" lon="7.40909">
        <ele>326.263916</ele>
        <time>2010-10-03T14:15:25Z</time>
      </trkpt>
      <trkpt lat="48.93754" lon="7.40903">
        <ele>327.654541</ele>
        <time>2010-10-03T14:15:29Z</time>
      </trkpt>
      <trkpt lat="48.93756" lon="7.40896">
        <ele>329.084229</ele>
        <time>2010-10-03T14:15:34Z</time>
      </trkpt>
      <trkpt lat="48.93759" lon="7.40891">
        <ele>332.052979</ele>
        <time>2010-10-03T14:15:51Z</time>
      </trkpt>
      <trkpt lat="48.93763" lon="7.40869">
        <ele>330.490479</ele>
        <time>2010-10-03T14:16:04Z</time>
      </trkpt>
      <trkpt lat="48.93758" lon="7.40862">
        <ele>329.248291</ele>
        <time>2010-10-03T14:16:08Z</time>
      </trkpt>
      <trkpt lat="48.93758" lon="7.40854">
        <ele>328.498291</ele>
        <time>2010-10-03T14:16:13Z</time>
      </trkpt>
      <trkpt lat="48.93753" lon="7.4084">
        <ele>328.982666</ele>
        <time>2010-10-03T14:16:25Z</time>
      </trkpt>
      <trkpt lat="48.93752" lon="7.40831">
        <ele>329.849854</ele>
        <time>2010-10-03T14:16:30Z</time>
      </trkpt>
      <trkpt lat="48.93749" lon="7.40825">
        <ele>330.037354</ele>
        <time>2010-10-03T14:16:34Z</time>
      </trkpt>
      <trkpt lat="48.93747" lon="7.4081">
        <ele>330.920166</ele>
        <time>2010-10-03T14:16:43Z</time>
      </trkpt>
      <trkpt lat="48.93748" lon="7.40803">
        <ele>331.045166</ele>
        <time>2010-10-03T14:16:47Z</time>
      </trkpt>
      <trkpt lat="48.93745" lon="7.40795">
        <ele>331.646729</ele>
        <time>2010-10-03T14:16:51Z</time>
      </trkpt>
      <trkpt lat="48.93743" lon="7.40779">
        <ele>332.623291</ele>
        <time>2010-10-03T14:16:58Z</time>
      </trkpt>
      <trkpt lat="48.93744" lon="7.40772">
        <ele>331.912354</ele>
        <time>2010-10-03T14:17:01Z</time>
      </trkpt>
      <trkpt lat="48.93746" lon="7.40765">
        <ele>332.006104</ele>
        <time>2010-10-03T14:17:04Z</time>
      </trkpt>
      <trkpt lat="48.93747" lon="7.40758">
        <ele>332.013916</ele>
        <time>2010-10-03T14:17:07Z</time>
      </trkpt>
      <trkpt lat="48.93746" lon="7.40748">
        <ele>332.224854</ele>
        <time>2010-10-03T14:17:10Z</time>
      </trkpt>
      <trkpt lat="48.93744" lon="7.40741">
        <ele>331.162354</ele>
        <time>2010-10-03T14:17:13Z</time>
      </trkpt>
      <trkpt lat="48.93743" lon="7.40733">
        <ele>330.857666</ele>
        <time>2010-10-03T14:17:16Z</time>
      </trkpt>
      <trkpt lat="48.93736" lon="7.40719">
        <ele>329.232666</ele>
        <time>2010-10-03T14:17:20Z</time>
      </trkpt>
      <trkpt lat="48.93734" lon="7.40711">
        <ele>329.107666</ele>
        <time>2010-10-03T14:17:22Z</time>
      </trkpt>
      <trkpt lat="48.93731" lon="7.40701">
        <ele>327.287354</ele>
        <time>2010-10-03T14:17:25Z</time>
      </trkpt>
      <trkpt lat="48.93728" lon="7.40689">
        <ele>329.217041</ele>
        <time>2010-10-03T14:17:29Z</time>
      </trkpt>
      <trkpt lat="48.93724" lon="7.40681">
        <ele>330.763916</ele>
        <time>2010-10-03T14:17:34Z</time>
      </trkpt>
      <trkpt lat="48.93719" lon="7.4068">
        <ele>331.607666</ele>
        <time>2010-10-03T14:17:36Z</time>
      </trkpt>
      <trkpt lat="48.93722" lon="7.40685">
        <ele>332.076416</ele>
        <time>2010-10-03T14:18:01Z</time>
      </trkpt>
      <trkpt lat="48.93723" lon="7.40678">
        <ele>331.084229</ele>
        <time>2010-10-03T14:18:06Z</time>
      </trkpt>
      <trkpt lat="48.93727" lon="7.40663">
        <ele>330.506104</ele>
        <time>2010-10-03T14:18:10Z</time>
      </trkpt>
      <trkpt lat="48.93725" lon="7.40656">
        <ele>329.842041</ele>
        <time>2010-10-03T14:18:11Z</time>
      </trkpt>
      <trkpt lat="48.93726" lon="7.40644">
        <ele>329.638916</ele>
        <time>2010-10-03T14:18:13Z</time>
      </trkpt>
      <trkpt lat="48.93727" lon="7.40634">
        <ele>328.592041</ele>
        <time>2010-10-03T14:18:15Z</time>
      </trkpt>
      <trkpt lat="48.93725" lon="7.40614">
        <ele>327.513916</ele>
        <time>2010-10-03T14:18:19Z</time>
      </trkpt>
      <trkpt lat="48.93723" lon="7.406">
        <ele>326.537354</ele>
        <time>2010-10-03T14:18:21Z</time>
      </trkpt>
      <trkpt lat="48.93724" lon="7.40591">
        <ele>325.795166</ele>
        <time>2010-10-03T14:18:23Z</time>
      </trkpt>
      <trkpt lat="48.93724" lon="7.40579">
        <ele>323.451416</ele>
        <time>2010-10-03T14:18:25Z</time>
      </trkpt>
      <trkpt lat="48.93723" lon="7.40568">
        <ele>321.162354</ele>
        <time>2010-10-03T14:18:27Z</time>
      </trkpt>
      <trkpt lat="48.93723" lon="7.40549">
        <ele>318.896729</ele>
        <time>2010-10-03T14:18:30Z</time>
      </trkpt>
      <trkpt lat="48.93725" lon="7.40542">
        <ele>318.506104</ele>
        <time>2010-10-03T14:18:31Z</time>
      </trkpt>
      <trkpt lat="48.93731" lon="7.40508">
        <ele>314.662354</ele>
        <time>2010-10-03T14:18:36Z</time>
      </trkpt>
      <trkpt lat="48.93739" lon="7.40473">
        <ele>310.795166</ele>
        <time>2010-10-03T14:18:40Z</time>
      </trkpt>
      <trkpt lat="48.93741" lon="7.40446">
        <ele>307.904541</ele>
        <time>2010-10-03T14:18:43Z</time>
      </trkpt>
      <trkpt lat="48.93742" lon="7.40437">
        <ele>306.302979</ele>
        <time>2010-10-03T14:18:44Z</time>
      </trkpt>
      <trkpt lat="48.93745" lon="7.40428">
        <ele>305.099854</ele>
        <time>2010-10-03T14:18:45Z</time>
      </trkpt>
      <trkpt lat="48.93752" lon="7.40411">
        <ele>304.217041</ele>
        <time>2010-10-03T14:18:47Z</time>
      </trkpt>
      <trkpt lat="48.93757" lon="7.40403">
        <ele>303.568604</ele>
        <time>2010-10-03T14:18:48Z</time>
      </trkpt>
      <trkpt lat="48.93783" lon="7.40365">
        <ele>300.545166</ele>
        <time>2010-10-03T14:18:53Z</time>
      </trkpt>
      <trkpt lat="48.93787" lon="7.40357">
        <ele>300.881104</ele>
        <time>2010-10-03T14:18:54Z</time>
      </trkpt>
      <trkpt lat="48.93789" lon="7.40349">
        <ele>300.185791</ele>
        <time>2010-10-03T14:18:55Z</time>
      </trkpt>
      <trkpt lat="48.93789" lon="7.4034">
        <ele>299.638916</ele>
        <time>2010-10-03T14:18:56Z</time>
      </trkpt>
      <trkpt lat="48.93789" lon="7.4031">
        <ele>299.263916</ele>
        <time>2010-10-03T14:18:59Z</time>
      </trkpt>
      <trkpt lat="48.93788" lon="7.40278">
        <ele>297.779541</ele>
        <time>2010-10-03T14:19:02Z</time>
      </trkpt>
      <trkpt lat="48.93793" lon="7.40214">
        <ele>294.490479</ele>
        <time>2010-10-03T14:19:07Z</time>
      </trkpt>
      <trkpt lat="48.93792" lon="7.40202">
        <ele>293.631104</ele>
        <time>2010-10-03T14:19:08Z</time>
      </trkpt>
      <trkpt lat="48.93788" lon="7.40191">
        <ele>293.240479</ele>
        <time>2010-10-03T14:19:09Z</time>
      </trkpt>
      <trkpt lat="48.93779" lon="7.40174">
        <ele>292.435791</ele>
        <time>2010-10-03T14:19:11Z</time>
      </trkpt>
      <trkpt lat="48.93775" lon="7.40168">
        <ele>292.013916</ele>
        <time>2010-10-03T14:19:12Z</time>
      </trkpt>
      <trkpt lat="48.93753" lon="7.40153">
        <ele>290.474854</ele>
        <time>2010-10-03T14:19:16Z</time>
      </trkpt>
      <trkpt lat="48.93742" lon="7.40153">
        <ele>290.662354</ele>
        <time>2010-10-03T14:19:17Z</time>
      </trkpt>
      <trkpt lat="48.93721" lon="7.40139">
        <ele>292.310791</ele>
        <time>2010-10-03T14:19:20Z</time>
      </trkpt>
      <trkpt lat="48.93715" lon="7.40134">
        <ele>292.513916</ele>
        <time>2010-10-03T14:19:21Z</time>
      </trkpt>
      <trkpt lat="48.93696" lon="7.40119">
        <ele>292.381104</ele>
        <time>2010-10-03T14:19:24Z</time>
      </trkpt>
      <trkpt lat="48.93691" lon="7.40116">
        <ele>292.224854</ele>
        <time>2010-10-03T14:19:25Z</time>
      </trkpt>
      <trkpt lat="48.93681" lon="7.40107">
        <ele>292.802979</ele>
        <time>2010-10-03T14:19:27Z</time>
      </trkpt>
      <trkpt lat="48.93668" lon="7.40101">
        <ele>293.115479</ele>
        <time>2010-10-03T14:19:29Z</time>
      </trkpt>
      <trkpt lat="48.93656" lon="7.40099">
        <ele>293.521729</ele>
        <time>2010-10-03T14:19:30Z</time>
      </trkpt>
      <trkpt lat="48.9363" lon="7.40091">
        <ele>294.677979</ele>
        <time>2010-10-03T14:19:33Z</time>
      </trkpt>
      <trkpt lat="48.9362" lon="7.40087">
        <ele>294.435791</ele>
        <time>2010-10-03T14:19:34Z</time>
      </trkpt>
      <trkpt lat="48.93584" lon="7.40078">
        <ele>295.568604</ele>
        <time>2010-10-03T14:19:38Z</time>
      </trkpt>
      <trkpt lat="48.93563" lon="7.40071">
        <ele>295.849854</ele>
        <time>2010-10-03T14:19:41Z</time>
      </trkpt>
      <trkpt lat="48.93549" lon="7.40064">
        <ele>296.326416</ele>
        <time>2010-10-03T14:19:43Z</time>
      </trkpt>
      <trkpt lat="48.93533" lon="7.40053">
        <ele>296.584229</ele>
        <time>2010-10-03T14:19:45Z</time>
      </trkpt>
      <trkpt lat="48.93525" lon="7.4005">
        <ele>297.045166</ele>
        <time>2010-10-03T14:19:46Z</time>
      </trkpt>
      <trkpt lat="48.93518" lon="7.40046">
        <ele>297.326416</ele>
        <time>2010-10-03T14:19:47Z</time>
      </trkpt>
      <trkpt lat="48.93512" lon="7.40043">
        <ele>298.693604</ele>
        <time>2010-10-03T14:19:48Z</time>
      </trkpt>
      <trkpt lat="48.93508" lon="7.40039">
        <ele>298.802979</ele>
        <time>2010-10-03T14:19:49Z</time>
      </trkpt>
      <trkpt lat="48.93501" lon="7.40036">
        <ele>299.482666</ele>
        <time>2010-10-03T14:19:50Z</time>
      </trkpt>
      <trkpt lat="48.93485" lon="7.40022">
        <ele>302.685791</ele>
        <time>2010-10-03T14:19:53Z</time>
      </trkpt>
      <trkpt lat="48.93472" lon="7.40012">
        <ele>303.982666</ele>
        <time>2010-10-03T14:19:56Z</time>
      </trkpt>
      <trkpt lat="48.93467" lon="7.40007">
        <ele>305.177979</ele>
        <time>2010-10-03T14:19:57Z</time>
      </trkpt>
      <trkpt lat="48.93464" lon="7.39999">
        <ele>306.248291</ele>
        <time>2010-10-03T14:19:59Z</time>
      </trkpt>
      <trkpt lat="48.93457" lon="7.39991">
        <ele>308.779541</ele>
        <time>2010-10-03T14:20:01Z</time>
      </trkpt>
      <trkpt lat="48.93438" lon="7.39963">
        <ele>315.162354</ele>
        <time>2010-10-03T14:20:07Z</time>
      </trkpt>
      <trkpt lat="48.93428" lon="7.39956">
        <ele>317.490479</ele>
        <time>2010-10-03T14:20:09Z</time>
      </trkpt>
      <trkpt lat="48.93419" lon="7.39947">
        <ele>318.427979</ele>
        <time>2010-10-03T14:20:11Z</time>
      </trkpt>
      <trkpt lat="48.93413" lon="7.39942">
        <ele>320.193604</ele>
        <time>2010-10-03T14:20:12Z</time>
      </trkpt>
      <trkpt lat="48.93409" lon="7.39934">
        <ele>320.592041</ele>
        <time>2010-10-03T14:20:14Z</time>
      </trkpt>
      <trkpt lat="48.93404" lon="7.3993">
        <ele>320.248291</ele>
        <time>2010-10-03T14:20:15Z</time>
      </trkpt>
      <trkpt lat="48.93393" lon="7.39923">
        <ele>322.029541</ele>
        <time>2010-10-03T14:20:17Z</time>
      </trkpt>
      <trkpt lat="48.93383" lon="7.39914">
        <ele>322.951416</ele>
        <time>2010-10-03T14:20:19Z</time>
      </trkpt>
      <trkpt lat="48.93373" lon="7.39906">
        <ele>323.599854</ele>
        <time>2010-10-03T14:20:21Z</time>
      </trkpt>
      <trkpt lat="48.9337" lon="7.39901">
        <ele>320.482666</ele>
        <time>2010-10-03T14:20:22Z</time>
      </trkpt>
      <trkpt lat="48.9335" lon="7.39885">
        <ele>321.131104</ele>
        <time>2010-10-03T14:20:25Z</time>
      </trkpt>
      <trkpt lat="48.9333" lon="7.39873">
        <ele>322.310791</ele>
        <time>2010-10-03T14:20:28Z</time>
      </trkpt>
      <trkpt lat="48.9332" lon="7.39866">
        <ele>322.638916</ele>
        <time>2010-10-03T14:20:30Z</time>
      </trkpt>
      <trkpt lat="48.93306" lon="7.39852">
        <ele>323.435791</ele>
        <time>2010-10-03T14:20:35Z</time>
      </trkpt>
      <trkpt lat="48.93296" lon="7.39845">
        <ele>323.638916</ele>
        <time>2010-10-03T14:20:38Z</time>
      </trkpt>
      <trkpt lat="48.9329" lon="7.39845">
        <ele>323.592041</ele>
        <time>2010-10-03T14:20:40Z</time>
      </trkpt>
      <trkpt lat="48.93277" lon="7.39861">
        <ele>324.076416</ele>
        <time>2010-10-03T14:20:44Z</time>
      </trkpt>
      <trkpt lat="48.93271" lon="7.39873">
        <ele>325.357666</ele>
        <time>2010-10-03T14:20:46Z</time>
      </trkpt>
      <trkpt lat="48.93267" lon="7.39878">
        <ele>325.365479</ele>
        <time>2010-10-03T14:20:47Z</time>
      </trkpt>
      <trkpt lat="48.93261" lon="7.39893">
        <ele>324.029541</ele>
        <time>2010-10-03T14:20:49Z</time>
      </trkpt>
      <trkpt lat="48.93253" lon="7.39907">
        <ele>323.435791</ele>
        <time>2010-10-03T14:20:51Z</time>
      </trkpt>
      <trkpt lat="48.93243" lon="7.39922">
        <ele>321.951416</ele>
        <time>2010-10-03T14:20:53Z</time>
      </trkpt>
      <trkpt lat="48.93214" lon="7.39928">
        <ele>320.138916</ele>
        <time>2010-10-03T14:20:56Z</time>
      </trkpt>
      <trkpt lat="48.93206" lon="7.39928">
        <ele>320.217041</ele>
        <time>2010-10-03T14:20:57Z</time>
      </trkpt>
      <trkpt lat="48.93173" lon="7.39922">
        <ele>320.334229</ele>
        <time>2010-10-03T14:21:01Z</time>
      </trkpt>
      <trkpt lat="48.9317" lon="7.39916">
        <ele>319.795166</ele>
        <time>2010-10-03T14:21:02Z</time>
      </trkpt>
      <trkpt lat="48.93152" lon="7.39911">
        <ele>318.388916</ele>
        <time>2010-10-03T14:21:04Z</time>
      </trkpt>
      <trkpt lat="48.93117" lon="7.39896">
        <ele>318.092041</ele>
        <time>2010-10-03T14:21:08Z</time>
      </trkpt>
      <trkpt lat="48.93082" lon="7.39873">
        <ele>315.013916</ele>
        <time>2010-10-03T14:21:12Z</time>
      </trkpt>
      <trkpt lat="48.93067" lon="7.39868">
        <ele>315.052979</ele>
        <time>2010-10-03T14:21:13Z</time>
      </trkpt>
      <trkpt lat="48.93057" lon="7.39861">
        <ele>316.006104</ele>
        <time>2010-10-03T14:21:15Z</time>
      </trkpt>
      <trkpt lat="48.93027" lon="7.39851">
        <ele>317.271729</ele>
        <time>2010-10-03T14:21:18Z</time>
      </trkpt>
      <trkpt lat="48.92988" lon="7.3983">
        <ele>319.451416</ele>
        <time>2010-10-03T14:21:26Z</time>
      </trkpt>
      <trkpt lat="48.92985" lon="7.39824">
        <ele>319.006104</ele>
        <time>2010-10-03T14:21:28Z</time>
      </trkpt>
      <trkpt lat="48.92976" lon="7.39814">
        <ele>317.318604</ele>
        <time>2010-10-03T14:21:30Z</time>
      </trkpt>
      <trkpt lat="48.92971" lon="7.39806">
        <ele>316.545166</ele>
        <time>2010-10-03T14:21:32Z</time>
      </trkpt>
      <trkpt lat="48.92959" lon="7.39793">
        <ele>317.810791</ele>
        <time>2010-10-03T14:21:35Z</time>
      </trkpt>
      <trkpt lat="48.92951" lon="7.39771">
        <ele>317.631104</ele>
        <time>2010-10-03T14:21:39Z</time>
      </trkpt>
      <trkpt lat="48.92946" lon="7.39766">
        <ele>317.646729</ele>
        <time>2010-10-03T14:21:40Z</time>
      </trkpt>
      <trkpt lat="48.92921" lon="7.3972">
        <ele>320.638916</ele>
        <time>2010-10-03T14:21:48Z</time>
      </trkpt>
      <trkpt lat="48.92908" lon="7.39707">
        <ele>323.107666</ele>
        <time>2010-10-03T14:21:52Z</time>
      </trkpt>
      <trkpt lat="48.92904" lon="7.39701">
        <ele>322.763916</ele>
        <time>2010-10-03T14:21:53Z</time>
      </trkpt>
      <trkpt lat="48.92867" lon="7.39669">
        <ele>324.568604</ele>
        <time>2010-10-03T14:22:00Z</time>
      </trkpt>
      <trkpt lat="48.92859" lon="7.39666">
        <ele>325.084229</ele>
        <time>2010-10-03T14:22:01Z</time>
      </trkpt>
      <trkpt lat="48.9285" lon="7.39664">
        <ele>324.974854</ele>
        <time>2010-10-03T14:22:02Z</time>
      </trkpt>
      <trkpt lat="48.92841" lon="7.39665">
        <ele>325.662354</ele>
        <time>2010-10-03T14:22:03Z</time>
      </trkpt>
      <trkpt lat="48.92822" lon="7.39657">
        <ele>326.763916</ele>
        <time>2010-10-03T14:22:06Z</time>
      </trkpt>
      <trkpt lat="48.92816" lon="7.39652">
        <ele>328.013916</ele>
        <time>2010-10-03T14:22:08Z</time>
      </trkpt>
      <trkpt lat="48.9281" lon="7.39644">
        <ele>328.513916</ele>
        <time>2010-10-03T14:22:10Z</time>
      </trkpt>
      <trkpt lat="48.92798" lon="7.39625">
        <ele>329.990479</ele>
        <time>2010-10-03T14:22:13Z</time>
      </trkpt>
      <trkpt lat="48.92782" lon="7.39606">
        <ele>331.631104</ele>
        <time>2010-10-03T14:22:16Z</time>
      </trkpt>
      <trkpt lat="48.92772" lon="7.39597">
        <ele>331.693604</ele>
        <time>2010-10-03T14:22:17Z</time>
      </trkpt>
      <trkpt lat="48.92767" lon="7.3959">
        <ele>331.146729</ele>
        <time>2010-10-03T14:22:18Z</time>
      </trkpt>
      <trkpt lat="48.92759" lon="7.39572">
        <ele>333.217041</ele>
        <time>2010-10-03T14:22:21Z</time>
      </trkpt>
      <trkpt lat="48.92754" lon="7.39566">
        <ele>333.592041</ele>
        <time>2010-10-03T14:22:22Z</time>
      </trkpt>
      <trkpt lat="48.92753" lon="7.39558">
        <ele>332.756104</ele>
        <time>2010-10-03T14:22:23Z</time>
      </trkpt>
      <trkpt lat="48.92749" lon="7.3955">
        <ele>334.154541</ele>
        <time>2010-10-03T14:22:25Z</time>
      </trkpt>
      <trkpt lat="48.92743" lon="7.39531">
        <ele>330.810791</ele>
        <time>2010-10-03T14:22:29Z</time>
      </trkpt>
      <trkpt lat="48.92736" lon="7.39526">
        <ele>330.107666</ele>
        <time>2010-10-03T14:22:30Z</time>
      </trkpt>
      <trkpt lat="48.92724" lon="7.39508">
        <ele>328.763916</ele>
        <time>2010-10-03T14:22:34Z</time>
      </trkpt>
      <trkpt lat="48.92704" lon="7.39487">
        <ele>326.013916</ele>
        <time>2010-10-03T14:22:37Z</time>
      </trkpt>
      <trkpt lat="48.92695" lon="7.39467">
        <ele>323.068604</ele>
        <time>2010-10-03T14:22:40Z</time>
      </trkpt>
      <trkpt lat="48.92676" lon="7.39439">
        <ele>317.209229</ele>
        <time>2010-10-03T14:22:43Z</time>
      </trkpt>
      <trkpt lat="48.9267" lon="7.39434">
        <ele>315.670166</ele>
        <time>2010-10-03T14:22:44Z</time>
      </trkpt>
      <trkpt lat="48.92658" lon="7.39418">
        <ele>306.763916</ele>
        <time>2010-10-03T14:22:58Z</time>
      </trkpt>
      <trkpt lat="48.92646" lon="7.39413">
        <ele>304.552979</ele>
        <time>2010-10-03T14:23:00Z</time>
      </trkpt>
      <trkpt lat="48.92644" lon="7.3941">
        <ele>301.084229</ele>
        <time>2010-10-03T14:23:05Z</time>
      </trkpt>
      <trkpt lat="48.9264" lon="7.39394">
        <ele>297.646729</ele>
        <time>2010-10-03T14:23:11Z</time>
      </trkpt>
      <trkpt lat="48.92628" lon="7.39374">
        <ele>293.943604</ele>
        <time>2010-10-03T14:23:18Z</time>
      </trkpt>
      <trkpt lat="48.92627" lon="7.39365">
        <ele>292.310791</ele>
        <time>2010-10-03T14:23:20Z</time>
      </trkpt>
      <trkpt lat="48.92619" lon="7.39342">
        <ele>289.568604</ele>
        <time>2010-10-03T14:23:26Z</time>
      </trkpt>
      <trkpt lat="48.92615" lon="7.39336">
        <ele>288.795166</ele>
        <time>2010-10-03T14:23:27Z</time>
      </trkpt>
      <trkpt lat="48.92611" lon="7.39319">
        <ele>285.732666</ele>
        <time>2010-10-03T14:23:31Z</time>
      </trkpt>
      <trkpt lat="48.92608" lon="7.39312">
        <ele>284.217041</ele>
        <time>2010-10-03T14:23:33Z</time>
      </trkpt>
      <trkpt lat="48.92606" lon="7.39303">
        <ele>282.240479</ele>
        <time>2010-10-03T14:23:37Z</time>
      </trkpt>
      <trkpt lat="48.92603" lon="7.39296">
        <ele>281.506104</ele>
        <time>2010-10-03T14:23:39Z</time>
      </trkpt>
      <trkpt lat="48.92598" lon="7.39292">
        <ele>280.857666</ele>
        <time>2010-10-03T14:23:41Z</time>
      </trkpt>
      <trkpt lat="48.92592" lon="7.3929">
        <ele>278.904541</ele>
        <time>2010-10-03T14:23:43Z</time>
      </trkpt>
      <trkpt lat="48.92574" lon="7.39289">
        <ele>275.217041</ele>
        <time>2010-10-03T14:23:46Z</time>
      </trkpt>
      <trkpt lat="48.92568" lon="7.39289">
        <ele>273.826416</ele>
        <time>2010-10-03T14:23:48Z</time>
      </trkpt>
      <trkpt lat="48.92565" lon="7.39295">
        <ele>270.310791</ele>
        <time>2010-10-03T14:23:50Z</time>
      </trkpt>
      <trkpt lat="48.92558" lon="7.39295">
        <ele>268.099854</ele>
        <time>2010-10-03T14:23:52Z</time>
      </trkpt>
      <trkpt lat="48.92539" lon="7.39292">
        <ele>262.560791</ele>
        <time>2010-10-03T14:23:57Z</time>
      </trkpt>
      <trkpt lat="48.92524" lon="7.39301">
        <ele>254.112427</ele>
        <time>2010-10-03T14:24:08Z</time>
      </trkpt>
      <trkpt lat="48.92525" lon="7.393">
        <ele>249.104614</ele>
        <time>2010-10-03T14:24:14Z</time>
      </trkpt>
      <trkpt lat="48.92525" lon="7.39309">
        <ele>247.378052</ele>
        <time>2010-10-03T14:24:18Z</time>
      </trkpt>
      <trkpt lat="48.92523" lon="7.39318">
        <ele>244.678833</ele>
        <time>2010-10-03T14:24:21Z</time>
      </trkpt>
      <trkpt lat="48.92518" lon="7.39332">
        <ele>241.909302</ele>
        <time>2010-10-03T14:24:26Z</time>
      </trkpt>
      <trkpt lat="48.92515" lon="7.39328">
        <ele>240.280396</ele>
        <time>2010-10-03T14:24:29Z</time>
      </trkpt>
      <trkpt lat="48.92506" lon="7.39331">
        <ele>233.194458</ele>
        <time>2010-10-03T14:25:15Z</time>
      </trkpt>
      <trkpt lat="48.92501" lon="7.39325">
        <ele>233.042114</ele>
        <time>2010-10-03T14:25:21Z</time>
      </trkpt>
      <trkpt lat="48.92495" lon="7.3931">
        <ele>232.628052</ele>
        <time>2010-10-03T14:25:27Z</time>
      </trkpt>
      <trkpt lat="48.92485" lon="7.39298">
        <ele>232.733521</ele>
        <time>2010-10-03T14:25:34Z</time>
      </trkpt>
      <trkpt lat="48.92481" lon="7.39294">
        <ele>232.811646</ele>
        <time>2010-10-03T14:25:37Z</time>
      </trkpt>
      <trkpt lat="48.92479" lon="7.39275">
        <ele>232.178833</ele>
        <time>2010-10-03T14:25:44Z</time>
      </trkpt>
      <trkpt lat="48.92475" lon="7.39269">
        <ele>231.741333</ele>
        <time>2010-10-03T14:25:47Z</time>
      </trkpt>
      <trkpt lat="48.92474" lon="7.39262">
        <ele>231.995239</ele>
        <time>2010-10-03T14:25:49Z</time>
      </trkpt>
      <trkpt lat="48.92473" lon="7.39244">
        <ele>228.960083</ele>
        <time>2010-10-03T14:25:51Z</time>
      </trkpt>
      <trkpt lat="48.92469" lon="7.39234">
        <ele>229.807739</ele>
        <time>2010-10-03T14:25:55Z</time>
      </trkpt>
      <trkpt lat="48.92469" lon="7.39227">
        <ele>229.780396</ele>
        <time>2010-10-03T14:25:57Z</time>
      </trkpt>
      <trkpt lat="48.92465" lon="7.39223">
        <ele>229.460083</ele>
        <time>2010-10-03T14:25:58Z</time>
      </trkpt>
      <trkpt lat="48.92464" lon="7.39214">
        <ele>230.374146</ele>
        <time>2010-10-03T14:26:00Z</time>
      </trkpt>
      <trkpt lat="48.92458" lon="7.39208">
        <ele>230.553833</ele>
        <time>2010-10-03T14:26:02Z</time>
      </trkpt>
      <trkpt lat="48.92452" lon="7.39206">
        <ele>230.655396</ele>
        <time>2010-10-03T14:26:04Z</time>
      </trkpt>
      <trkpt lat="48.9245" lon="7.39201">
        <ele>233.284302</ele>
        <time>2010-10-03T14:26:07Z</time>
      </trkpt>
      <trkpt lat="48.9245" lon="7.39185">
        <ele>231.749146</ele>
        <time>2010-10-03T14:26:13Z</time>
      </trkpt>
      <trkpt lat="48.92438" lon="7.39163">
        <ele>231.874146</ele>
        <time>2010-10-03T14:26:23Z</time>
      </trkpt>
      <trkpt lat="48.92433" lon="7.39158">
        <ele>232.198364</ele>
        <time>2010-10-03T14:26:25Z</time>
      </trkpt>
      <trkpt lat="48.9243" lon="7.39151">
        <ele>232.241333</ele>
        <time>2010-10-03T14:26:28Z</time>
      </trkpt>
      <trkpt lat="48.92422" lon="7.39142">
        <ele>232.694458</ele>
        <time>2010-10-03T14:26:32Z</time>
      </trkpt>
      <trkpt lat="48.92412" lon="7.39122">
        <ele>233.960083</ele>
        <time>2010-10-03T14:26:41Z</time>
      </trkpt>
      <trkpt lat="48.92408" lon="7.39118">
        <ele>234.362427</ele>
        <time>2010-10-03T14:26:45Z</time>
      </trkpt>
      <trkpt lat="48.92403" lon="7.39119">
        <ele>234.753052</ele>
        <time>2010-10-03T14:26:48Z</time>
      </trkpt>
      <trkpt lat="48.92381" lon="7.39132">
        <ele>236.178833</ele>
        <time>2010-10-03T14:27:00Z</time>
      </trkpt>
      <trkpt lat="48.92377" lon="7.39145">
        <ele>241.206177</ele>
        <time>2010-10-03T14:27:07Z</time>
      </trkpt>
      <trkpt lat="48.92374" lon="7.3915">
        <ele>242.358521</ele>
        <time>2010-10-03T14:27:09Z</time>
      </trkpt>
      <trkpt lat="48.92376" lon="7.39158">
        <ele>245.190552</ele>
        <time>2010-10-03T14:27:12Z</time>
      </trkpt>
      <trkpt lat="48.92375" lon="7.39166">
        <ele>248.120239</ele>
        <time>2010-10-03T14:27:16Z</time>
      </trkpt>
      <trkpt lat="48.92364" lon="7.39178">
        <ele>252.499146</ele>
        <time>2010-10-03T14:27:22Z</time>
      </trkpt>
      <trkpt lat="48.92353" lon="7.39184">
        <ele>253.506958</ele>
        <time>2010-10-03T14:27:24Z</time>
      </trkpt>
      <trkpt lat="48.9232" lon="7.39194">
        <ele>256.092041</ele>
        <time>2010-10-03T14:27:30Z</time>
      </trkpt>
      <trkpt lat="48.92314" lon="7.39193">
        <ele>256.662354</ele>
        <time>2010-10-03T14:27:31Z</time>
      </trkpt>
      <trkpt lat="48.92307" lon="7.39197">
        <ele>254.710083</ele>
        <time>2010-10-03T14:27:33Z</time>
      </trkpt>
      <trkpt lat="48.92293" lon="7.39189">
        <ele>255.381958</ele>
        <time>2010-10-03T14:27:37Z</time>
      </trkpt>
      <trkpt lat="48.92274" lon="7.39171">
        <ele>256.756104</ele>
        <time>2010-10-03T14:27:42Z</time>
      </trkpt>
      <trkpt lat="48.92263" lon="7.39156">
        <ele>255.897583</ele>
        <time>2010-10-03T14:27:46Z</time>
      </trkpt>
      <trkpt lat="48.92261" lon="7.3915">
        <ele>256.084229</ele>
        <time>2010-10-03T14:27:47Z</time>
      </trkpt>
      <trkpt lat="48.92257" lon="7.39145">
        <ele>256.357666</ele>
        <time>2010-10-03T14:27:48Z</time>
      </trkpt>
      <trkpt lat="48.92253" lon="7.39129">
        <ele>256.256104</ele>
        <time>2010-10-03T14:27:50Z</time>
      </trkpt>
      <trkpt lat="48.92248" lon="7.39124">
        <ele>255.792114</ele>
        <time>2010-10-03T14:27:51Z</time>
      </trkpt>
      <trkpt lat="48.92237" lon="7.39113">
        <ele>253.991333</ele>
        <time>2010-10-03T14:27:53Z</time>
      </trkpt>
      <trkpt lat="48.92232" lon="7.39099">
        <ele>253.311646</ele>
        <time>2010-10-03T14:27:55Z</time>
      </trkpt>
      <trkpt lat="48.92213" lon="7.39072">
        <ele>251.967896</ele>
        <time>2010-10-03T14:28:00Z</time>
      </trkpt>
      <trkpt lat="48.92211" lon="7.39065">
        <ele>251.534302</ele>
        <time>2010-10-03T14:28:01Z</time>
      </trkpt>
      <trkpt lat="48.92207" lon="7.3906">
        <ele>251.608521</ele>
        <time>2010-10-03T14:28:02Z</time>
      </trkpt>
      <trkpt lat="48.92203" lon="7.3905">
        <ele>250.991333</ele>
        <time>2010-10-03T14:28:04Z</time>
      </trkpt>
      <trkpt lat="48.92198" lon="7.39043">
        <ele>250.717896</ele>
        <time>2010-10-03T14:28:05Z</time>
      </trkpt>
      <trkpt lat="48.92186" lon="7.39012">
        <ele>249.940552</ele>
        <time>2010-10-03T14:28:09Z</time>
      </trkpt>
      <trkpt lat="48.92179" lon="7.38981">
        <ele>249.799927</ele>
        <time>2010-10-03T14:28:14Z</time>
      </trkpt>
      <trkpt lat="48.92173" lon="7.38962">
        <ele>249.792114</ele>
        <time>2010-10-03T14:28:17Z</time>
      </trkpt>
      <trkpt lat="48.92173" lon="7.38932">
        <ele>246.245239</ele>
        <time>2010-10-03T14:28:19Z</time>
      </trkpt>
      <trkpt lat="48.92171" lon="7.38923">
        <ele>245.577271</ele>
        <time>2010-10-03T14:28:20Z</time>
      </trkpt>
      <trkpt lat="48.92168" lon="7.38897">
        <ele>244.038208</ele>
        <time>2010-10-03T14:28:24Z</time>
      </trkpt>
      <trkpt lat="48.92168" lon="7.38889">
        <ele>243.729614</ele>
        <time>2010-10-03T14:28:26Z</time>
      </trkpt>
      <trkpt lat="48.92167" lon="7.3888">
        <ele>243.389771</ele>
        <time>2010-10-03T14:28:28Z</time>
      </trkpt>
      <trkpt lat="48.92163" lon="7.38869">
        <ele>242.608521</ele>
        <time>2010-10-03T14:28:30Z</time>
      </trkpt>
      <trkpt lat="48.92163" lon="7.38862">
        <ele>242.178833</ele>
        <time>2010-10-03T14:28:31Z</time>
      </trkpt>
      <trkpt lat="48.9216" lon="7.38854">
        <ele>241.311646</ele>
        <time>2010-10-03T14:28:32Z</time>
      </trkpt>
      <trkpt lat="48.92159" lon="7.38847">
        <ele>240.663208</ele>
        <time>2010-10-03T14:28:33Z</time>
      </trkpt>
      <trkpt lat="48.92156" lon="7.38836">
        <ele>240.690552</ele>
        <time>2010-10-03T14:28:35Z</time>
      </trkpt>
      <trkpt lat="48.92139" lon="7.38803">
        <ele>237.768677</ele>
        <time>2010-10-03T14:28:39Z</time>
      </trkpt>
      <trkpt lat="48.92136" lon="7.38797">
        <ele>237.421021</ele>
        <time>2010-10-03T14:28:40Z</time>
      </trkpt>
      <trkpt lat="48.92132" lon="7.38777">
        <ele>236.756958</ele>
        <time>2010-10-03T14:28:43Z</time>
      </trkpt>
      <trkpt lat="48.92129" lon="7.38771">
        <ele>236.389771</ele>
        <time>2010-10-03T14:28:44Z</time>
      </trkpt>
      <trkpt lat="48.92127" lon="7.38764">
        <ele>236.034302</ele>
        <time>2010-10-03T14:28:45Z</time>
      </trkpt>
      <trkpt lat="48.92128" lon="7.38753">
        <ele>235.077271</ele>
        <time>2010-10-03T14:28:47Z</time>
      </trkpt>
      <trkpt lat="48.9213" lon="7.38741">
        <ele>234.350708</ele>
        <time>2010-10-03T14:28:49Z</time>
      </trkpt>
      <trkpt lat="48.92128" lon="7.38718">
        <ele>230.987427</ele>
        <time>2010-10-03T14:28:52Z</time>
      </trkpt>
      <trkpt lat="48.92125" lon="7.38704">
        <ele>230.280396</ele>
        <time>2010-10-03T14:28:54Z</time>
      </trkpt>
      <trkpt lat="48.9212" lon="7.38692">
        <ele>229.092896</ele>
        <time>2010-10-03T14:28:56Z</time>
      </trkpt>
      <trkpt lat="48.92117" lon="7.38682">
        <ele>228.124146</ele>
        <time>2010-10-03T14:28:58Z</time>
      </trkpt>
      <trkpt lat="48.92117" lon="7.38676">
        <ele>224.467896</ele>
        <time>2010-10-03T14:29:00Z</time>
      </trkpt>
      <trkpt lat="48.92108" lon="7.38659">
        <ele>223.077271</ele>
        <time>2010-10-03T14:29:03Z</time>
      </trkpt>
      <trkpt lat="48.92102" lon="7.38651">
        <ele>222.245239</ele>
        <time>2010-10-03T14:29:05Z</time>
      </trkpt>
      <trkpt lat="48.921" lon="7.38644">
        <ele>221.202271</ele>
        <time>2010-10-03T14:29:07Z</time>
      </trkpt>
      <trkpt lat="48.92094" lon="7.38637">
        <ele>219.952271</ele>
        <time>2010-10-03T14:29:09Z</time>
      </trkpt>
      <trkpt lat="48.92089" lon="7.38634">
        <ele>219.487427</ele>
        <time>2010-10-03T14:29:10Z</time>
      </trkpt>
      <trkpt lat="48.92073" lon="7.38633">
        <ele>218.948364</ele>
        <time>2010-10-03T14:29:12Z</time>
      </trkpt>
      <trkpt lat="48.92055" lon="7.38628">
        <ele>218.924927</ele>
        <time>2010-10-03T14:29:15Z</time>
      </trkpt>
      <trkpt lat="48.9204" lon="7.38626">
        <ele>217.721802</ele>
        <time>2010-10-03T14:29:18Z</time>
      </trkpt>
      <trkpt lat="48.92036" lon="7.38623">
        <ele>217.588989</ele>
        <time>2010-10-03T14:29:19Z</time>
      </trkpt>
      <trkpt lat="48.92025" lon="7.38602">
        <ele>217.022583</ele>
        <time>2010-10-03T14:29:22Z</time>
      </trkpt>
      <trkpt lat="48.92016" lon="7.38594">
        <ele>216.831177</ele>
        <time>2010-10-03T14:29:23Z</time>
      </trkpt>
      <trkpt lat="48.92009" lon="7.3861">
        <ele>216.233521</ele>
        <time>2010-10-03T14:29:26Z</time>
      </trkpt>
      <trkpt lat="48.92003" lon="7.38613">
        <ele>215.909302</ele>
        <time>2010-10-03T14:29:27Z</time>
      </trkpt>
      <trkpt lat="48.91996" lon="7.38612">
        <ele>215.725708</ele>
        <time>2010-10-03T14:29:28Z</time>
      </trkpt>
      <trkpt lat="48.91983" lon="7.38592">
        <ele>214.663208</ele>
        <time>2010-10-03T14:29:32Z</time>
      </trkpt>
      <trkpt lat="48.9198" lon="7.38585">
        <ele>214.393677</ele>
        <time>2010-10-03T14:29:33Z</time>
      </trkpt>
      <trkpt lat="48.91976" lon="7.38568">
        <ele>214.557739</ele>
        <time>2010-10-03T14:29:35Z</time>
      </trkpt>
      <trkpt lat="48.91973" lon="7.3856">
        <ele>214.503052</ele>
        <time>2010-10-03T14:29:36Z</time>
      </trkpt>
      <trkpt lat="48.9197" lon="7.38551">
        <ele>213.667114</ele>
        <time>2010-10-03T14:29:37Z</time>
      </trkpt>
      <trkpt lat="48.9197" lon="7.38518">
        <ele>214.069458</ele>
        <time>2010-10-03T14:29:41Z</time>
      </trkpt>
      <trkpt lat="48.91972" lon="7.38486">
        <ele>213.135864</ele>
        <time>2010-10-03T14:29:45Z</time>
      </trkpt>
      <trkpt lat="48.91972" lon="7.38469">
        <ele>213.046021</ele>
        <time>2010-10-03T14:29:47Z</time>
      </trkpt>
      <trkpt lat="48.9197" lon="7.3846">
        <ele>212.178833</ele>
        <time>2010-10-03T14:29:48Z</time>
      </trkpt>
      <trkpt lat="48.91967" lon="7.38437">
        <ele>212.065552</ele>
        <time>2010-10-03T14:29:51Z</time>
      </trkpt>
      <trkpt lat="48.91963" lon="7.38397">
        <ele>212.233521</ele>
        <time>2010-10-03T14:29:56Z</time>
      </trkpt>
      <trkpt lat="48.91958" lon="7.38367">
        <ele>212.440552</ele>
        <time>2010-10-03T14:30:00Z</time>
      </trkpt>
      <trkpt lat="48.91956" lon="7.38352">
        <ele>212.245239</ele>
        <time>2010-10-03T14:30:02Z</time>
      </trkpt>
      <trkpt lat="48.91956" lon="7.38331">
        <ele>212.112427</ele>
        <time>2010-10-03T14:30:05Z</time>
      </trkpt>
      <trkpt lat="48.91959" lon="7.38296">
        <ele>210.901489</ele>
        <time>2010-10-03T14:30:10Z</time>
      </trkpt>
      <trkpt lat="48.91959" lon="7.38289">
        <ele>210.393677</ele>
        <time>2010-10-03T14:30:11Z</time>
      </trkpt>
      <trkpt lat="48.9196" lon="7.38262">
        <ele>209.284302</ele>
        <time>2010-10-03T14:30:15Z</time>
      </trkpt>
      <trkpt lat="48.9196" lon="7.38222">
        <ele>207.858521</ele>
        <time>2010-10-03T14:30:21Z</time>
      </trkpt>
      <trkpt lat="48.91961" lon="7.38215">
        <ele>208.038208</ele>
        <time>2010-10-03T14:30:22Z</time>
      </trkpt>
      <trkpt lat="48.91961" lon="7.38141">
        <ele>207.237427</ele>
        <time>2010-10-03T14:30:33Z</time>
      </trkpt>
      <trkpt lat="48.9196" lon="7.38118">
        <ele>208.936646</ele>
        <time>2010-10-03T14:30:37Z</time>
      </trkpt>
      <trkpt lat="48.91967" lon="7.381">
        <ele>211.198364</ele>
        <time>2010-10-03T14:30:41Z</time>
      </trkpt>
      <trkpt lat="48.91975" lon="7.38068">
        <ele>214.561646</ele>
        <time>2010-10-03T14:30:49Z</time>
      </trkpt>
      <trkpt lat="48.91988" lon="7.38055">
        <ele>216.999146</ele>
        <time>2010-10-03T14:30:55Z</time>
      </trkpt>
      <trkpt lat="48.91995" lon="7.3804">
        <ele>217.686646</ele>
        <time>2010-10-03T14:31:01Z</time>
      </trkpt>
      <trkpt lat="48.91999" lon="7.38026">
        <ele>217.631958</ele>
        <time>2010-10-03T14:31:05Z</time>
      </trkpt>
      <trkpt lat="48.92001" lon="7.38017">
        <ele>217.428833</ele>
        <time>2010-10-03T14:31:07Z</time>
      </trkpt>
      <trkpt lat="48.92" lon="7.37968">
        <ele>216.592896</ele>
        <time>2010-10-03T14:31:15Z</time>
      </trkpt>
      <trkpt lat="48.91999" lon="7.37953">
        <ele>216.171021</ele>
        <time>2010-10-03T14:31:17Z</time>
      </trkpt>
      <trkpt lat="48.91999" lon="7.37927">
        <ele>215.366333</ele>
        <time>2010-10-03T14:31:20Z</time>
      </trkpt>
      <trkpt lat="48.91996" lon="7.37834">
        <ele>212.178833</ele>
        <time>2010-10-03T14:31:31Z</time>
      </trkpt>
      <trkpt lat="48.91996" lon="7.37787">
        <ele>210.721802</ele>
        <time>2010-10-03T14:31:36Z</time>
      </trkpt>
      <trkpt lat="48.91996" lon="7.37768">
        <ele>209.963989</ele>
        <time>2010-10-03T14:31:38Z</time>
      </trkpt>
      <trkpt lat="48.91996" lon="7.37748">
        <ele>209.174927</ele>
        <time>2010-10-03T14:31:40Z</time>
      </trkpt>
      <trkpt lat="48.91995" lon="7.37717">
        <ele>208.229614</ele>
        <time>2010-10-03T14:31:43Z</time>
      </trkpt>
      <trkpt lat="48.91999" lon="7.37675">
        <ele>206.772583</ele>
        <time>2010-10-03T14:31:47Z</time>
      </trkpt>
      <trkpt lat="48.92011" lon="7.37579">
        <ele>204.546021</ele>
        <time>2010-10-03T14:31:56Z</time>
      </trkpt>
      <trkpt lat="48.92012" lon="7.3756">
        <ele>203.717896</ele>
        <time>2010-10-03T14:31:58Z</time>
      </trkpt>
      <trkpt lat="48.92011" lon="7.37552">
        <ele>203.628052</ele>
        <time>2010-10-03T14:31:59Z</time>
      </trkpt>
      <trkpt lat="48.92006" lon="7.37524">
        <ele>202.655396</ele>
        <time>2010-10-03T14:32:03Z</time>
      </trkpt>
      <trkpt lat="48.92001" lon="7.37506">
        <ele>201.905396</ele>
        <time>2010-10-03T14:32:06Z</time>
      </trkpt>
      <trkpt lat="48.91998" lon="7.37491">
        <ele>201.514771</ele>
        <time>2010-10-03T14:32:08Z</time>
      </trkpt>
      <trkpt lat="48.91997" lon="7.37476">
        <ele>201.889771</ele>
        <time>2010-10-03T14:32:10Z</time>
      </trkpt>
      <trkpt lat="48.92001" lon="7.37453">
        <ele>202.139771</ele>
        <time>2010-10-03T14:32:13Z</time>
      </trkpt>
      <trkpt lat="48.92012" lon="7.37403">
        <ele>202.764771</ele>
        <time>2010-10-03T14:32:20Z</time>
      </trkpt>
      <trkpt lat="48.92019" lon="7.37385">
        <ele>204.491333</ele>
        <time>2010-10-03T14:32:23Z</time>
      </trkpt>
      <trkpt lat="48.9202" lon="7.3737">
        <ele>204.370239</ele>
        <time>2010-10-03T14:32:25Z</time>
      </trkpt>
      <trkpt lat="48.92019" lon="7.37364">
        <ele>204.475708</ele>
        <time>2010-10-03T14:32:26Z</time>
      </trkpt>
      <trkpt lat="48.92015" lon="7.37359">
        <ele>204.307739</ele>
        <time>2010-10-03T14:32:27Z</time>
      </trkpt>
      <trkpt lat="48.92" lon="7.37343">
        <ele>204.487427</ele>
        <time>2010-10-03T14:32:31Z</time>
      </trkpt>
      <trkpt lat="48.91982" lon="7.37319">
        <ele>205.010864</ele>
        <time>2010-10-03T14:32:36Z</time>
      </trkpt>
      <trkpt lat="48.91973" lon="7.37304">
        <ele>205.397583</ele>
        <time>2010-10-03T14:32:39Z</time>
      </trkpt>
      <trkpt lat="48.91967" lon="7.37294">
        <ele>205.975708</ele>
        <time>2010-10-03T14:32:41Z</time>
      </trkpt>
      <trkpt lat="48.91945" lon="7.37257">
        <ele>207.514771</ele>
        <time>2010-10-03T14:32:49Z</time>
      </trkpt>
      <trkpt lat="48.91925" lon="7.37226">
        <ele>208.655396</ele>
        <time>2010-10-03T14:32:56Z</time>
      </trkpt>
      <trkpt lat="48.91915" lon="7.37205">
        <ele>210.272583</ele>
        <time>2010-10-03T14:33:00Z</time>
      </trkpt>
      <trkpt lat="48.91909" lon="7.37197">
        <ele>210.510864</ele>
        <time>2010-10-03T14:33:02Z</time>
      </trkpt>
      <trkpt lat="48.91903" lon="7.37189">
        <ele>210.526489</ele>
        <time>2010-10-03T14:33:04Z</time>
      </trkpt>
      <trkpt lat="48.91891" lon="7.37172">
        <ele>210.893677</ele>
        <time>2010-10-03T14:33:08Z</time>
      </trkpt>
      <trkpt lat="48.91864" lon="7.37121">
        <ele>212.682739</ele>
        <time>2010-10-03T14:33:18Z</time>
      </trkpt>
      <trkpt lat="48.91855" lon="7.37111">
        <ele>212.858521</ele>
        <time>2010-10-03T14:33:20Z</time>
      </trkpt>
      <trkpt lat="48.91847" lon="7.37106">
        <ele>213.081177</ele>
        <time>2010-10-03T14:33:22Z</time>
      </trkpt>
      <trkpt lat="48.91826" lon="7.37099">
        <ele>213.264771</ele>
        <time>2010-10-03T14:33:26Z</time>
      </trkpt>
      <trkpt lat="48.9179" lon="7.37093">
        <ele>212.917114</ele>
        <time>2010-10-03T14:33:32Z</time>
      </trkpt>
      <trkpt lat="48.91752" lon="7.37084">
        <ele>213.217896</ele>
        <time>2010-10-03T14:33:40Z</time>
      </trkpt>
      <trkpt lat="48.91742" lon="7.37085">
        <ele>213.253052</ele>
        <time>2010-10-03T14:33:44Z</time>
      </trkpt>
      <trkpt lat="48.91736" lon="7.37083">
        <ele>212.893677</ele>
        <time>2010-10-03T14:33:46Z</time>
      </trkpt>
      <trkpt lat="48.91721" lon="7.37076">
        <ele>212.585083</ele>
        <time>2010-10-03T14:33:50Z</time>
      </trkpt>
      <trkpt lat="48.91713" lon="7.37073">
        <ele>212.112427</ele>
        <time>2010-10-03T14:33:52Z</time>
      </trkpt>
      <trkpt lat="48.91705" lon="7.37074">
        <ele>211.674927</ele>
        <time>2010-10-03T14:33:54Z</time>
      </trkpt>
      <trkpt lat="48.91697" lon="7.37081">
        <ele>210.745239</ele>
        <time>2010-10-03T14:33:56Z</time>
      </trkpt>
      <trkpt lat="48.91691" lon="7.37091">
        <ele>210.104614</ele>
        <time>2010-10-03T14:33:58Z</time>
      </trkpt>
      <trkpt lat="48.91685" lon="7.37104">
        <ele>209.557739</ele>
        <time>2010-10-03T14:34:00Z</time>
      </trkpt>
      <trkpt lat="48.91681" lon="7.3712">
        <ele>208.628052</ele>
        <time>2010-10-03T14:34:02Z</time>
      </trkpt>
      <trkpt lat="48.91679" lon="7.37137">
        <ele>207.819458</ele>
        <time>2010-10-03T14:34:04Z</time>
      </trkpt>
      <trkpt lat="48.91678" lon="7.37183">
        <ele>203.440552</ele>
        <time>2010-10-03T14:34:09Z</time>
      </trkpt>
      <trkpt lat="48.91673" lon="7.37221">
        <ele>201.374146</ele>
        <time>2010-10-03T14:34:13Z</time>
      </trkpt>
      <trkpt lat="48.91666" lon="7.37246">
        <ele>201.503052</ele>
        <time>2010-10-03T14:34:16Z</time>
      </trkpt>
      <trkpt lat="48.91665" lon="7.3726">
        <ele>201.448364</ele>
        <time>2010-10-03T14:34:18Z</time>
      </trkpt>
      <trkpt lat="48.91661" lon="7.37275">
        <ele>202.210083</ele>
        <time>2010-10-03T14:34:20Z</time>
      </trkpt>
      <trkpt lat="48.91658" lon="7.37289">
        <ele>202.311646</ele>
        <time>2010-10-03T14:34:22Z</time>
      </trkpt>
      <trkpt lat="48.91652" lon="7.37298">
        <ele>202.577271</ele>
        <time>2010-10-03T14:34:24Z</time>
      </trkpt>
      <trkpt lat="48.91644" lon="7.37304">
        <ele>202.522583</ele>
        <time>2010-10-03T14:34:26Z</time>
      </trkpt>
      <trkpt lat="48.91639" lon="7.37305">
        <ele>203.631958</ele>
        <time>2010-10-03T14:34:27Z</time>
      </trkpt>
      <trkpt lat="48.91633" lon="7.37306">
        <ele>204.538208</ele>
        <time>2010-10-03T14:34:29Z</time>
      </trkpt>
      <trkpt lat="48.91629" lon="7.37307">
        <ele>206.237427</ele>
        <time>2010-10-03T14:34:32Z</time>
      </trkpt>
      <trkpt lat="48.9162" lon="7.37315">
        <ele>210.171021</ele>
        <time>2010-10-03T14:34:36Z</time>
      </trkpt>
      <trkpt lat="48.91616" lon="7.37321">
        <ele>210.905396</ele>
        <time>2010-10-03T14:34:39Z</time>
      </trkpt>
      <trkpt lat="48.91608" lon="7.37326">
        <ele>210.819458</ele>
        <time>2010-10-03T14:34:41Z</time>
      </trkpt>
      <trkpt lat="48.91605" lon="7.37333">
        <ele>208.971802</ele>
        <time>2010-10-03T14:34:43Z</time>
      </trkpt>
      <trkpt lat="48.91597" lon="7.37345">
        <ele>207.288208</ele>
        <time>2010-10-03T14:34:47Z</time>
      </trkpt>
      <trkpt lat="48.91587" lon="7.3737">
        <ele>209.073364</ele>
        <time>2010-10-03T14:34:55Z</time>
      </trkpt>
      <trkpt lat="48.91585" lon="7.37377">
        <ele>209.549927</ele>
        <time>2010-10-03T14:34:57Z</time>
      </trkpt>
      <trkpt lat="48.91579" lon="7.37394">
        <ele>209.987427</ele>
        <time>2010-10-03T14:35:01Z</time>
      </trkpt>
      <trkpt lat="48.91577" lon="7.37404">
        <ele>210.561646</ele>
        <time>2010-10-03T14:35:03Z</time>
      </trkpt>
      <trkpt lat="48.91573" lon="7.3741">
        <ele>212.194458</ele>
        <time>2010-10-03T14:35:05Z</time>
      </trkpt>
      <trkpt lat="48.91567" lon="7.37422">
        <ele>214.331177</ele>
        <time>2010-10-03T14:35:09Z</time>
      </trkpt>
      <trkpt lat="48.91559" lon="7.37455">
        <ele>214.827271</ele>
        <time>2010-10-03T14:35:17Z</time>
      </trkpt>
      <trkpt lat="48.91557" lon="7.37473">
        <ele>215.612427</ele>
        <time>2010-10-03T14:35:21Z</time>
      </trkpt>
      <trkpt lat="48.91557" lon="7.37482">
        <ele>215.655396</ele>
        <time>2010-10-03T14:35:23Z</time>
      </trkpt>
      <trkpt lat="48.91553" lon="7.375">
        <ele>214.932739</ele>
        <time>2010-10-03T14:35:27Z</time>
      </trkpt>
      <trkpt lat="48.91547" lon="7.37506">
        <ele>214.557739</ele>
        <time>2010-10-03T14:35:29Z</time>
      </trkpt>
      <trkpt lat="48.91539" lon="7.37502">
        <ele>214.756958</ele>
        <time>2010-10-03T14:35:31Z</time>
      </trkpt>
      <trkpt lat="48.91534" lon="7.37491">
        <ele>214.088989</ele>
        <time>2010-10-03T14:35:33Z</time>
      </trkpt>
      <trkpt lat="48.91527" lon="7.37464">
        <ele>212.463989</ele>
        <time>2010-10-03T14:35:39Z</time>
      </trkpt>
      <trkpt lat="48.91526" lon="7.37456">
        <ele>212.381958</ele>
        <time>2010-10-03T14:35:40Z</time>
      </trkpt>
      <trkpt lat="48.91521" lon="7.37438">
        <ele>212.928833</ele>
        <time>2010-10-03T14:35:46Z</time>
      </trkpt>
      <trkpt lat="48.91514" lon="7.37423">
        <ele>214.358521</ele>
        <time>2010-10-03T14:35:52Z</time>
      </trkpt>
      <trkpt lat="48.91513" lon="7.37416">
        <ele>214.733521</ele>
        <time>2010-10-03T14:35:54Z</time>
      </trkpt>
      <trkpt lat="48.9151" lon="7.3741">
        <ele>215.249146</ele>
        <time>2010-10-03T14:35:56Z</time>
      </trkpt>
      <trkpt lat="48.91502" lon="7.3739">
        <ele>217.643677</ele>
        <time>2010-10-03T14:36:03Z</time>
      </trkpt>
      <trkpt lat="48.91494" lon="7.37377">
        <ele>219.417114</ele>
        <time>2010-10-03T14:36:07Z</time>
      </trkpt>
      <trkpt lat="48.91487" lon="7.37361">
        <ele>221.561646</ele>
        <time>2010-10-03T14:36:12Z</time>
      </trkpt>
      <trkpt lat="48.91487" lon="7.3735">
        <ele>223.128052</ele>
        <time>2010-10-03T14:36:15Z</time>
      </trkpt>
      <trkpt lat="48.9148" lon="7.3732">
        <ele>228.573364</ele>
        <time>2010-10-03T14:36:24Z</time>
      </trkpt>
      <trkpt lat="48.91473" lon="7.37306">
        <ele>230.952271</ele>
        <time>2010-10-03T14:36:30Z</time>
      </trkpt>
      <trkpt lat="48.9147" lon="7.37302">
        <ele>232.034302</ele>
        <time>2010-10-03T14:36:34Z</time>
      </trkpt>
      <trkpt lat="48.91468" lon="7.37296">
        <ele>235.069458</ele>
        <time>2010-10-03T14:36:40Z</time>
      </trkpt>
      <trkpt lat="48.91464" lon="7.37293">
        <ele>237.510864</ele>
        <time>2010-10-03T14:36:44Z</time>
      </trkpt>
      <trkpt lat="48.91459" lon="7.3728">
        <ele>239.690552</ele>
        <time>2010-10-03T14:36:50Z</time>
      </trkpt>
      <trkpt lat="48.91447" lon="7.37257">
        <ele>245.878052</ele>
        <time>2010-10-03T14:37:04Z</time>
      </trkpt>
      <trkpt lat="48.91443" lon="7.37252">
        <ele>247.799927</ele>
        <time>2010-10-03T14:37:08Z</time>
      </trkpt>
      <trkpt lat="48.91433" lon="7.37232">
        <ele>249.854614</ele>
        <time>2010-10-03T14:37:15Z</time>
      </trkpt>
      <trkpt lat="48.91428" lon="7.37227">
        <ele>251.092896</ele>
        <time>2010-10-03T14:37:18Z</time>
      </trkpt>
      <trkpt lat="48.91426" lon="7.3722">
        <ele>251.651489</ele>
        <time>2010-10-03T14:37:21Z</time>
      </trkpt>
      <trkpt lat="48.91424" lon="7.37213">
        <ele>252.799927</ele>
        <time>2010-10-03T14:37:25Z</time>
      </trkpt>
      <trkpt lat="48.91415" lon="7.37202">
        <ele>255.612427</ele>
        <time>2010-10-03T14:37:33Z</time>
      </trkpt>
      <trkpt lat="48.91415" lon="7.37194">
        <ele>257.232666</ele>
        <time>2010-10-03T14:37:37Z</time>
      </trkpt>
      <trkpt lat="48.91408" lon="7.37181">
        <ele>260.709229</ele>
        <time>2010-10-03T14:37:44Z</time>
      </trkpt>
      <trkpt lat="48.91399" lon="7.37171">
        <ele>262.896729</ele>
        <time>2010-10-03T14:37:50Z</time>
      </trkpt>
      <trkpt lat="48.91394" lon="7.3717">
        <ele>263.990479</ele>
        <time>2010-10-03T14:37:53Z</time>
      </trkpt>
      <trkpt lat="48.91389" lon="7.37165">
        <ele>264.623291</ele>
        <time>2010-10-03T14:37:55Z</time>
      </trkpt>
      <trkpt lat="48.9138" lon="7.37153">
        <ele>265.349854</ele>
        <time>2010-10-03T14:37:58Z</time>
      </trkpt>
      <trkpt lat="48.91369" lon="7.37145">
        <ele>263.959229</ele>
        <time>2010-10-03T14:38:02Z</time>
      </trkpt>
      <trkpt lat="48.91363" lon="7.37141">
        <ele>263.849854</ele>
        <time>2010-10-03T14:38:04Z</time>
      </trkpt>
      <trkpt lat="48.91342" lon="7.37134">
        <ele>264.334229</ele>
        <time>2010-10-03T14:38:14Z</time>
      </trkpt>
      <trkpt lat="48.9133" lon="7.37128">
        <ele>264.834229</ele>
        <time>2010-10-03T14:38:18Z</time>
      </trkpt>
      <trkpt lat="48.91313" lon="7.37113">
        <ele>266.357666</ele>
        <time>2010-10-03T14:38:24Z</time>
      </trkpt>
      <trkpt lat="48.91304" lon="7.37104">
        <ele>267.162354</ele>
        <time>2010-10-03T14:38:26Z</time>
      </trkpt>
      <trkpt lat="48.91296" lon="7.37091">
        <ele>268.732666</ele>
        <time>2010-10-03T14:38:30Z</time>
      </trkpt>
      <trkpt lat="48.9129" lon="7.37086">
        <ele>269.927979</ele>
        <time>2010-10-03T14:38:32Z</time>
      </trkpt>
      <trkpt lat="48.91285" lon="7.37078">
        <ele>270.763916</ele>
        <time>2010-10-03T14:38:34Z</time>
      </trkpt>
      <trkpt lat="48.91256" lon="7.37047">
        <ele>275.560791</ele>
        <time>2010-10-03T14:38:49Z</time>
      </trkpt>
      <trkpt lat="48.91251" lon="7.37045">
        <ele>275.826416</ele>
        <time>2010-10-03T14:38:52Z</time>
      </trkpt>
      <trkpt lat="48.9124" lon="7.37036">
        <ele>277.646729</ele>
        <time>2010-10-03T14:38:58Z</time>
      </trkpt>
      <trkpt lat="48.91228" lon="7.37028">
        <ele>279.623291</ele>
        <time>2010-10-03T14:39:06Z</time>
      </trkpt>
      <trkpt lat="48.91206" lon="7.3702">
        <ele>279.795166</ele>
        <time>2010-10-03T14:39:18Z</time>
      </trkpt>
      <trkpt lat="48.91195" lon="7.37017">
        <ele>279.771729</ele>
        <time>2010-10-03T14:39:22Z</time>
      </trkpt>
      <trkpt lat="48.91183" lon="7.37017">
        <ele>279.084229</ele>
        <time>2010-10-03T14:39:26Z</time>
      </trkpt>
      <trkpt lat="48.91174" lon="7.37015">
        <ele>278.857666</ele>
        <time>2010-10-03T14:39:30Z</time>
      </trkpt>
      <trkpt lat="48.91156" lon="7.37018">
        <ele>276.732666</ele>
        <time>2010-10-03T14:39:39Z</time>
      </trkpt>
      <trkpt lat="48.9114" lon="7.37027">
        <ele>275.084229</ele>
        <time>2010-10-03T14:39:45Z</time>
      </trkpt>
      <trkpt lat="48.91134" lon="7.37033">
        <ele>275.060791</ele>
        <time>2010-10-03T14:39:48Z</time>
      </trkpt>
      <trkpt lat="48.9113" lon="7.37035">
        <ele>274.935791</ele>
        <time>2010-10-03T14:39:50Z</time>
      </trkpt>
      <trkpt lat="48.91112" lon="7.37053">
        <ele>273.107666</ele>
        <time>2010-10-03T14:39:59Z</time>
      </trkpt>
      <trkpt lat="48.91108" lon="7.3706">
        <ele>272.490479</ele>
        <time>2010-10-03T14:40:01Z</time>
      </trkpt>
      <trkpt lat="48.91104" lon="7.37065">
        <ele>272.240479</ele>
        <time>2010-10-03T14:40:03Z</time>
      </trkpt>
      <trkpt lat="48.91098" lon="7.37069">
        <ele>272.006104</ele>
        <time>2010-10-03T14:40:05Z</time>
      </trkpt>
      <trkpt lat="48.91093" lon="7.37071">
        <ele>270.310791</ele>
        <time>2010-10-03T14:40:06Z</time>
      </trkpt>
      <trkpt lat="48.91084" lon="7.37096">
        <ele>266.740479</ele>
        <time>2010-10-03T14:40:16Z</time>
      </trkpt>
      <trkpt lat="48.91075" lon="7.37102">
        <ele>269.357666</ele>
        <time>2010-10-03T14:40:24Z</time>
      </trkpt>
      <trkpt lat="48.9107" lon="7.37099">
        <ele>270.912354</ele>
        <time>2010-10-03T14:40:28Z</time>
      </trkpt>
      <trkpt lat="48.91053" lon="7.37102">
        <ele>273.084229</ele>
        <time>2010-10-03T14:40:37Z</time>
      </trkpt>
      <trkpt lat="48.91048" lon="7.37104">
        <ele>273.592041</ele>
        <time>2010-10-03T14:40:40Z</time>
      </trkpt>
      <trkpt lat="48.91028" lon="7.37106">
        <ele>273.779541</ele>
        <time>2010-10-03T14:40:49Z</time>
      </trkpt>
      <trkpt lat="48.9101" lon="7.37103">
        <ele>273.607666</ele>
        <time>2010-10-03T14:40:55Z</time>
      </trkpt>
      <trkpt lat="48.90985" lon="7.37104">
        <ele>274.529541</ele>
        <time>2010-10-03T14:41:04Z</time>
      </trkpt>
      <trkpt lat="48.90979" lon="7.37107">
        <ele>275.021729</ele>
        <time>2010-10-03T14:41:06Z</time>
      </trkpt>
      <trkpt lat="48.90974" lon="7.37107">
        <ele>274.943604</ele>
        <time>2010-10-03T14:41:08Z</time>
      </trkpt>
      <trkpt lat="48.90967" lon="7.3711">
        <ele>274.631104</ele>
        <time>2010-10-03T14:41:11Z</time>
      </trkpt>
      <trkpt lat="48.9096" lon="7.37111">
        <ele>274.842041</ele>
        <time>2010-10-03T14:41:13Z</time>
      </trkpt>
      <trkpt lat="48.90953" lon="7.3711">
        <ele>275.209229</ele>
        <time>2010-10-03T14:41:15Z</time>
      </trkpt>
      <trkpt lat="48.90942" lon="7.37099">
        <ele>275.795166</ele>
        <time>2010-10-03T14:41:19Z</time>
      </trkpt>
      <trkpt lat="48.90929" lon="7.37078">
        <ele>278.029541</ele>
        <time>2010-10-03T14:41:25Z</time>
      </trkpt>
      <trkpt lat="48.90923" lon="7.37064">
        <ele>280.537354</ele>
        <time>2010-10-03T14:41:29Z</time>
      </trkpt>
      <trkpt lat="48.90913" lon="7.37049">
        <ele>284.263916</ele>
        <time>2010-10-03T14:41:33Z</time>
      </trkpt>
      <trkpt lat="48.90907" lon="7.37028">
        <ele>287.802979</ele>
        <time>2010-10-03T14:41:39Z</time>
      </trkpt>
      <trkpt lat="48.90904" lon="7.37016">
        <ele>293.131104</ele>
        <time>2010-10-03T14:41:43Z</time>
      </trkpt>
      <trkpt lat="48.90902" lon="7.37009">
        <ele>294.654541</ele>
        <time>2010-10-03T14:41:45Z</time>
      </trkpt>
      <trkpt lat="48.90899" lon="7.36992">
        <ele>295.826416</ele>
        <time>2010-10-03T14:41:50Z</time>
      </trkpt>
      <trkpt lat="48.90894" lon="7.36978">
        <ele>295.959229</ele>
        <time>2010-10-03T14:41:54Z</time>
      </trkpt>
      <trkpt lat="48.9088" lon="7.36956">
        <ele>294.443604</ele>
        <time>2010-10-03T14:42:03Z</time>
      </trkpt>
      <trkpt lat="48.90868" lon="7.36939">
        <ele>293.052979</ele>
        <time>2010-10-03T14:42:10Z</time>
      </trkpt>
      <trkpt lat="48.90853" lon="7.36915">
        <ele>292.810791</ele>
        <time>2010-10-03T14:42:19Z</time>
      </trkpt>
      <trkpt lat="48.90835" lon="7.36879">
        <ele>296.209229</ele>
        <time>2010-10-03T14:42:31Z</time>
      </trkpt>
      <trkpt lat="48.90826" lon="7.36863">
        <ele>297.521729</ele>
        <time>2010-10-03T14:42:37Z</time>
      </trkpt>
      <trkpt lat="48.9082" lon="7.36856">
        <ele>298.482666</ele>
        <time>2010-10-03T14:42:40Z</time>
      </trkpt>
      <trkpt lat="48.90816" lon="7.36854">
        <ele>299.467041</ele>
        <time>2010-10-03T14:42:42Z</time>
      </trkpt>
      <trkpt lat="48.90808" lon="7.3684">
        <ele>301.060791</ele>
        <time>2010-10-03T14:42:47Z</time>
      </trkpt>
      <trkpt lat="48.90794" lon="7.36824">
        <ele>302.896729</ele>
        <time>2010-10-03T14:42:54Z</time>
      </trkpt>
      <trkpt lat="48.90768" lon="7.36803">
        <ele>299.552979</ele>
        <time>2010-10-03T14:43:06Z</time>
      </trkpt>
      <trkpt lat="48.90763" lon="7.36797">
        <ele>298.592041</ele>
        <time>2010-10-03T14:43:09Z</time>
      </trkpt>
      <trkpt lat="48.90754" lon="7.3679">
        <ele>296.881104</ele>
        <time>2010-10-03T14:43:15Z</time>
      </trkpt>
      <trkpt lat="48.90741" lon="7.36784">
        <ele>295.412354</ele>
        <time>2010-10-03T14:43:20Z</time>
      </trkpt>
      <trkpt lat="48.90723" lon="7.36763">
        <ele>298.763916</ele>
        <time>2010-10-03T14:43:35Z</time>
      </trkpt>
      <trkpt lat="48.90713" lon="7.36756">
        <ele>298.310791</ele>
        <time>2010-10-03T14:43:41Z</time>
      </trkpt>
      <trkpt lat="48.90702" lon="7.36753">
        <ele>298.990479</ele>
        <time>2010-10-03T14:43:47Z</time>
      </trkpt>
      <trkpt lat="48.90697" lon="7.36753">
        <ele>299.068604</ele>
        <time>2010-10-03T14:43:49Z</time>
      </trkpt>
      <trkpt lat="48.90691" lon="7.36756">
        <ele>300.060791</ele>
        <time>2010-10-03T14:43:52Z</time>
      </trkpt>
      <trkpt lat="48.90685" lon="7.36755">
        <ele>300.552979</ele>
        <time>2010-10-03T14:43:55Z</time>
      </trkpt>
      <trkpt lat="48.90677" lon="7.36758">
        <ele>300.443604</ele>
        <time>2010-10-03T14:43:57Z</time>
      </trkpt>
      <trkpt lat="48.90669" lon="7.36759">
        <ele>299.935791</ele>
        <time>2010-10-03T14:43:58Z</time>
      </trkpt>
      <trkpt lat="48.90662" lon="7.36756">
        <ele>300.287354</ele>
        <time>2010-10-03T14:44:00Z</time>
      </trkpt>
      <trkpt lat="48.90651" lon="7.36748">
        <ele>300.240479</ele>
        <time>2010-10-03T14:44:03Z</time>
      </trkpt>
      <trkpt lat="48.90645" lon="7.36741">
        <ele>300.396729</ele>
        <time>2010-10-03T14:44:05Z</time>
      </trkpt>
      <trkpt lat="48.90637" lon="7.36729">
        <ele>298.717041</ele>
        <time>2010-10-03T14:44:10Z</time>
      </trkpt>
      <trkpt lat="48.90633" lon="7.36725">
        <ele>298.263916</ele>
        <time>2010-10-03T14:44:12Z</time>
      </trkpt>
      <trkpt lat="48.90622" lon="7.36708">
        <ele>295.717041</ele>
        <time>2010-10-03T14:44:18Z</time>
      </trkpt>
      <trkpt lat="48.9062" lon="7.36701">
        <ele>295.623291</ele>
        <time>2010-10-03T14:44:20Z</time>
      </trkpt>
      <trkpt lat="48.90616" lon="7.36693">
        <ele>296.607666</ele>
        <time>2010-10-03T14:44:22Z</time>
      </trkpt>
      <trkpt lat="48.90594" lon="7.3666">
        <ele>296.568604</ele>
        <time>2010-10-03T14:44:28Z</time>
      </trkpt>
      <trkpt lat="48.90582" lon="7.36627">
        <ele>297.029541</ele>
        <time>2010-10-03T14:44:36Z</time>
      </trkpt>
      <trkpt lat="48.90574" lon="7.36609">
        <ele>298.427979</ele>
        <time>2010-10-03T14:44:39Z</time>
      </trkpt>
      <trkpt lat="48.90571" lon="7.36599">
        <ele>298.232666</ele>
        <time>2010-10-03T14:44:41Z</time>
      </trkpt>
      <trkpt lat="48.90564" lon="7.36581">
        <ele>300.427979</ele>
        <time>2010-10-03T14:44:44Z</time>
      </trkpt>
      <trkpt lat="48.90556" lon="7.36563">
        <ele>302.287354</ele>
        <time>2010-10-03T14:44:48Z</time>
      </trkpt>
      <trkpt lat="48.90552" lon="7.36553">
        <ele>302.201416</ele>
        <time>2010-10-03T14:44:50Z</time>
      </trkpt>
      <trkpt lat="48.90544" lon="7.36537">
        <ele>303.982666</ele>
        <time>2010-10-03T14:44:53Z</time>
      </trkpt>
      <trkpt lat="48.90538" lon="7.36529">
        <ele>304.021729</ele>
        <time>2010-10-03T14:44:54Z</time>
      </trkpt>
      <trkpt lat="48.90535" lon="7.36522">
        <ele>305.396729</ele>
        <time>2010-10-03T14:44:56Z</time>
      </trkpt>
      <trkpt lat="48.90519" lon="7.365">
        <ele>306.224854</ele>
        <time>2010-10-03T14:45:00Z</time>
      </trkpt>
      <trkpt lat="48.90509" lon="7.36481">
        <ele>307.927979</ele>
        <time>2010-10-03T14:45:04Z</time>
      </trkpt>
      <trkpt lat="48.90498" lon="7.36464">
        <ele>309.771729</ele>
        <time>2010-10-03T14:45:08Z</time>
      </trkpt>
      <trkpt lat="48.90486" lon="7.3645">
        <ele>311.021729</ele>
        <time>2010-10-03T14:45:11Z</time>
      </trkpt>
      <trkpt lat="48.90477" lon="7.36436">
        <ele>312.099854</ele>
        <time>2010-10-03T14:45:14Z</time>
      </trkpt>
      <trkpt lat="48.90467" lon="7.36422">
        <ele>313.560791</ele>
        <time>2010-10-03T14:45:18Z</time>
      </trkpt>
      <trkpt lat="48.90455" lon="7.3641">
        <ele>314.263916</ele>
        <time>2010-10-03T14:45:20Z</time>
      </trkpt>
      <trkpt lat="48.90444" lon="7.36407">
        <ele>315.826416</ele>
        <time>2010-10-03T14:45:24Z</time>
      </trkpt>
      <trkpt lat="48.90429" lon="7.36396">
        <ele>320.959229</ele>
        <time>2010-10-03T14:45:35Z</time>
      </trkpt>
      <trkpt lat="48.90415" lon="7.36381">
        <ele>321.818604</ele>
        <time>2010-10-03T14:45:40Z</time>
      </trkpt>
      <trkpt lat="48.90402" lon="7.36369">
        <ele>323.084229</ele>
        <time>2010-10-03T14:45:46Z</time>
      </trkpt>
      <trkpt lat="48.90392" lon="7.36363">
        <ele>323.990479</ele>
        <time>2010-10-03T14:45:50Z</time>
      </trkpt>
      <trkpt lat="48.90382" lon="7.36353">
        <ele>325.240479</ele>
        <time>2010-10-03T14:45:54Z</time>
      </trkpt>
      <trkpt lat="48.90369" lon="7.36345">
        <ele>325.232666</ele>
        <time>2010-10-03T14:45:58Z</time>
      </trkpt>
      <trkpt lat="48.90359" lon="7.36336">
        <ele>324.474854</ele>
        <time>2010-10-03T14:46:02Z</time>
      </trkpt>
      <trkpt lat="48.90349" lon="7.36332">
        <ele>322.592041</ele>
        <time>2010-10-03T14:46:06Z</time>
      </trkpt>
      <trkpt lat="48.90344" lon="7.36327">
        <ele>322.818604</ele>
        <time>2010-10-03T14:46:08Z</time>
      </trkpt>
      <trkpt lat="48.90339" lon="7.36324">
        <ele>323.287354</ele>
        <time>2010-10-03T14:46:10Z</time>
      </trkpt>
      <trkpt lat="48.90327" lon="7.36306">
        <ele>324.084229</ele>
        <time>2010-10-03T14:46:16Z</time>
      </trkpt>
      <trkpt lat="48.90318" lon="7.36297">
        <ele>325.490479</ele>
        <time>2010-10-03T14:46:20Z</time>
      </trkpt>
      <trkpt lat="48.90308" lon="7.3628">
        <ele>326.404541</ele>
        <time>2010-10-03T14:46:23Z</time>
      </trkpt>
      <trkpt lat="48.90299" lon="7.36278">
        <ele>324.427979</ele>
        <time>2010-10-03T14:46:25Z</time>
      </trkpt>
      <trkpt lat="48.90269" lon="7.36226">
        <ele>329.670166</ele>
        <time>2010-10-03T14:46:39Z</time>
      </trkpt>
      <trkpt lat="48.90263" lon="7.36213">
        <ele>331.459229</ele>
        <time>2010-10-03T14:46:43Z</time>
      </trkpt>
      <trkpt lat="48.90244" lon="7.36194">
        <ele>328.756104</ele>
        <time>2010-10-03T14:46:52Z</time>
      </trkpt>
      <trkpt lat="48.90234" lon="7.36177">
        <ele>332.076416</ele>
        <time>2010-10-03T14:47:02Z</time>
      </trkpt>
      <trkpt lat="48.90224" lon="7.3617">
        <ele>333.740479</ele>
        <time>2010-10-03T14:47:09Z</time>
      </trkpt>
      <trkpt lat="48.90222" lon="7.36163">
        <ele>334.521729</ele>
        <time>2010-10-03T14:47:13Z</time>
      </trkpt>
      <trkpt lat="48.90217" lon="7.36158">
        <ele>335.232666</ele>
        <time>2010-10-03T14:47:17Z</time>
      </trkpt>
      <trkpt lat="48.90209" lon="7.36149">
        <ele>333.670166</ele>
        <time>2010-10-03T14:47:26Z</time>
      </trkpt>
      <trkpt lat="48.90204" lon="7.36146">
        <ele>333.170166</ele>
        <time>2010-10-03T14:47:30Z</time>
      </trkpt>
      <trkpt lat="48.90199" lon="7.36146">
        <ele>332.795166</ele>
        <time>2010-10-03T14:47:34Z</time>
      </trkpt>
      <trkpt lat="48.90191" lon="7.36136">
        <ele>333.240479</ele>
        <time>2010-10-03T14:47:42Z</time>
      </trkpt>
      <trkpt lat="48.90184" lon="7.36125">
        <ele>333.787354</ele>
        <time>2010-10-03T14:47:47Z</time>
      </trkpt>
      <trkpt lat="48.90175" lon="7.36118">
        <ele>332.459229</ele>
        <time>2010-10-03T14:47:53Z</time>
      </trkpt>
      <trkpt lat="48.90162" lon="7.36107">
        <ele>332.490479</ele>
        <time>2010-10-03T14:48:02Z</time>
      </trkpt>
      <trkpt lat="48.90146" lon="7.36086">
        <ele>333.865479</ele>
        <time>2010-10-03T14:48:21Z</time>
      </trkpt>
      <trkpt lat="48.90137" lon="7.3608">
        <ele>335.498291</ele>
        <time>2010-10-03T14:48:29Z</time>
      </trkpt>
      <trkpt lat="48.90118" lon="7.36063">
        <ele>337.732666</ele>
        <time>2010-10-03T14:48:43Z</time>
      </trkpt>
      <trkpt lat="48.90112" lon="7.36062">
        <ele>338.912354</ele>
        <time>2010-10-03T14:48:48Z</time>
      </trkpt>
      <trkpt lat="48.90108" lon="7.36059">
        <ele>339.888916</ele>
        <time>2010-10-03T14:48:51Z</time>
      </trkpt>
      <trkpt lat="48.90101" lon="7.36048">
        <ele>340.506104</ele>
        <time>2010-10-03T14:48:58Z</time>
      </trkpt>
      <trkpt lat="48.90091" lon="7.36043">
        <ele>342.013916</ele>
        <time>2010-10-03T14:49:08Z</time>
      </trkpt>
      <trkpt lat="48.9007" lon="7.36023">
        <ele>344.177979</ele>
        <time>2010-10-03T14:49:29Z</time>
      </trkpt>
      <trkpt lat="48.90055" lon="7.36013">
        <ele>343.334229</ele>
        <time>2010-10-03T14:49:38Z</time>
      </trkpt>
      <trkpt lat="48.90045" lon="7.3601">
        <ele>341.912354</ele>
        <time>2010-10-03T14:49:46Z</time>
      </trkpt>
      <trkpt lat="48.90041" lon="7.36005">
        <ele>341.560791</ele>
        <time>2010-10-03T14:49:48Z</time>
      </trkpt>
      <trkpt lat="48.9003" lon="7.36">
        <ele>342.552979</ele>
        <time>2010-10-03T14:49:54Z</time>
      </trkpt>
      <trkpt lat="48.90025" lon="7.35995">
        <ele>343.310791</ele>
        <time>2010-10-03T14:49:58Z</time>
      </trkpt>
      <trkpt lat="48.90022" lon="7.35989">
        <ele>343.685791</ele>
        <time>2010-10-03T14:50:02Z</time>
      </trkpt>
      <trkpt lat="48.90013" lon="7.3598">
        <ele>346.037354</ele>
        <time>2010-10-03T14:50:10Z</time>
      </trkpt>
      <trkpt lat="48.90004" lon="7.35973">
        <ele>348.138916</ele>
        <time>2010-10-03T14:50:13Z</time>
      </trkpt>
      <trkpt lat="48.89982" lon="7.3594">
        <ele>358.349854</ele>
        <time>2010-10-03T14:50:36Z</time>
      </trkpt>
      <trkpt lat="48.89979" lon="7.35933">
        <ele>359.920166</ele>
        <time>2010-10-03T14:50:42Z</time>
      </trkpt>
      <trkpt lat="48.89972" lon="7.35923">
        <ele>360.537354</ele>
        <time>2010-10-03T14:50:51Z</time>
      </trkpt>
      <trkpt lat="48.89962" lon="7.35914">
        <ele>360.849854</ele>
        <time>2010-10-03T14:51:02Z</time>
      </trkpt>
      <trkpt lat="48.89959" lon="7.35909">
        <ele>361.107666</ele>
        <time>2010-10-03T14:51:06Z</time>
      </trkpt>
      <trkpt lat="48.89953" lon="7.35903">
        <ele>362.631104</ele>
        <time>2010-10-03T14:51:09Z</time>
      </trkpt>
      <trkpt lat="48.8995" lon="7.35897">
        <ele>364.373291</ele>
        <time>2010-10-03T14:51:14Z</time>
      </trkpt>
      <trkpt lat="48.89946" lon="7.35893">
        <ele>366.029541</ele>
        <time>2010-10-03T14:51:18Z</time>
      </trkpt>
      <trkpt lat="48.89941" lon="7.35879">
        <ele>367.717041</ele>
        <time>2010-10-03T14:51:27Z</time>
      </trkpt>
      <trkpt lat="48.89924" lon="7.35863">
        <ele>370.818604</ele>
        <time>2010-10-03T14:51:43Z</time>
      </trkpt>
      <trkpt lat="48.89909" lon="7.35846">
        <ele>370.631104</ele>
        <time>2010-10-03T14:51:56Z</time>
      </trkpt>
      <trkpt lat="48.89892" lon="7.35831">
        <ele>366.404541</ele>
        <time>2010-10-03T14:52:11Z</time>
      </trkpt>
      <trkpt lat="48.89888" lon="7.35824">
        <ele>367.248291</ele>
        <time>2010-10-03T14:52:14Z</time>
      </trkpt>
      <trkpt lat="48.89883" lon="7.35819">
        <ele>369.920166</ele>
        <time>2010-10-03T14:52:18Z</time>
      </trkpt>
      <trkpt lat="48.89879" lon="7.35817">
        <ele>372.990479</ele>
        <time>2010-10-03T14:52:22Z</time>
      </trkpt>
      <trkpt lat="48.89875" lon="7.35813">
        <ele>376.037354</ele>
        <time>2010-10-03T14:52:26Z</time>
      </trkpt>
      <trkpt lat="48.89869" lon="7.35799">
        <ele>377.584229</ele>
        <time>2010-10-03T14:52:32Z</time>
      </trkpt>
      <trkpt lat="48.8986" lon="7.35789">
        <ele>379.435791</ele>
        <time>2010-10-03T14:52:38Z</time>
      </trkpt>
      <trkpt lat="48.89857" lon="7.35784">
        <ele>380.568604</ele>
        <time>2010-10-03T14:52:41Z</time>
      </trkpt>
      <trkpt lat="48.89852" lon="7.3578">
        <ele>383.482666</ele>
        <time>2010-10-03T14:52:46Z</time>
      </trkpt>
      <trkpt lat="48.89849" lon="7.35775">
        <ele>384.748291</ele>
        <time>2010-10-03T14:52:49Z</time>
      </trkpt>
      <trkpt lat="48.89846" lon="7.35769">
        <ele>387.779541</ele>
        <time>2010-10-03T14:52:54Z</time>
      </trkpt>
      <trkpt lat="48.89834" lon="7.35758">
        <ele>389.092041</ele>
        <time>2010-10-03T14:53:05Z</time>
      </trkpt>
      <trkpt lat="48.89811" lon="7.3572">
        <ele>388.576416</ele>
        <time>2010-10-03T14:53:24Z</time>
      </trkpt>
      <trkpt lat="48.89807" lon="7.35716">
        <ele>388.732666</ele>
        <time>2010-10-03T14:53:27Z</time>
      </trkpt>
      <trkpt lat="48.89805" lon="7.35708">
        <ele>388.263916</ele>
        <time>2010-10-03T14:53:31Z</time>
      </trkpt>
      <trkpt lat="48.89796" lon="7.35698">
        <ele>389.146729</ele>
        <time>2010-10-03T14:53:37Z</time>
      </trkpt>
      <trkpt lat="48.89792" lon="7.3569">
        <ele>389.842041</ele>
        <time>2010-10-03T14:53:41Z</time>
      </trkpt>
      <trkpt lat="48.8979" lon="7.35682">
        <ele>390.537354</ele>
        <time>2010-10-03T14:53:44Z</time>
      </trkpt>
      <trkpt lat="48.89783" lon="7.35669">
        <ele>392.209229</ele>
        <time>2010-10-03T14:53:54Z</time>
      </trkpt>
      <trkpt lat="48.89781" lon="7.35655">
        <ele>394.146729</ele>
        <time>2010-10-03T14:54:01Z</time>
      </trkpt>
      <trkpt lat="48.89777" lon="7.3565">
        <ele>394.865479</ele>
        <time>2010-10-03T14:54:04Z</time>
      </trkpt>
      <trkpt lat="48.89775" lon="7.35644">
        <ele>395.185791</ele>
        <time>2010-10-03T14:54:07Z</time>
      </trkpt>
      <trkpt lat="48.89776" lon="7.35636">
        <ele>394.654541</ele>
        <time>2010-10-03T14:54:09Z</time>
      </trkpt>
      <trkpt lat="48.89774" lon="7.35628">
        <ele>394.818604</ele>
        <time>2010-10-03T14:54:13Z</time>
      </trkpt>
      <trkpt lat="48.89763" lon="7.3561">
        <ele>396.545166</ele>
        <time>2010-10-03T14:54:24Z</time>
      </trkpt>
      <trkpt lat="48.89759" lon="7.35605">
        <ele>397.099854</ele>
        <time>2010-10-03T14:54:27Z</time>
      </trkpt>
      <trkpt lat="48.89749" lon="7.35579">
        <ele>402.959229</ele>
        <time>2010-10-03T14:54:39Z</time>
      </trkpt>
      <trkpt lat="48.89748" lon="7.35571">
        <ele>404.045166</ele>
        <time>2010-10-03T14:54:42Z</time>
      </trkpt>
      <trkpt lat="48.89745" lon="7.35565">
        <ele>404.592041</ele>
        <time>2010-10-03T14:54:45Z</time>
      </trkpt>
      <trkpt lat="48.89744" lon="7.35557">
        <ele>405.287354</ele>
        <time>2010-10-03T14:54:48Z</time>
      </trkpt>
      <trkpt lat="48.89744" lon="7.35549">
        <ele>406.006104</ele>
        <time>2010-10-03T14:54:52Z</time>
      </trkpt>
      <trkpt lat="48.89745" lon="7.35541">
        <ele>405.131104</ele>
        <time>2010-10-03T14:54:56Z</time>
      </trkpt>
      <trkpt lat="48.89741" lon="7.35527">
        <ele>404.099854</ele>
        <time>2010-10-03T14:55:03Z</time>
      </trkpt>
      <trkpt lat="48.89737" lon="7.35522">
        <ele>403.388916</ele>
        <time>2010-10-03T14:55:06Z</time>
      </trkpt>
      <trkpt lat="48.89734" lon="7.35516">
        <ele>401.771729</ele>
        <time>2010-10-03T14:55:10Z</time>
      </trkpt>
      <trkpt lat="48.89729" lon="7.35516">
        <ele>400.068604</ele>
        <time>2010-10-03T14:55:11Z</time>
      </trkpt>
      <trkpt lat="48.89725" lon="7.35509">
        <ele>398.467041</ele>
        <time>2010-10-03T14:55:15Z</time>
      </trkpt>
      <trkpt lat="48.89721" lon="7.35496">
        <ele>402.248291</ele>
        <time>2010-10-03T14:55:24Z</time>
      </trkpt>
      <trkpt lat="48.89718" lon="7.35483">
        <ele>403.654541</ele>
        <time>2010-10-03T14:55:31Z</time>
      </trkpt>
      <trkpt lat="48.89715" lon="7.35477">
        <ele>403.599854</ele>
        <time>2010-10-03T14:55:35Z</time>
      </trkpt>
      <trkpt lat="48.89718" lon="7.35471">
        <ele>403.302979</ele>
        <time>2010-10-03T14:55:38Z</time>
      </trkpt>
      <trkpt lat="48.89714" lon="7.35456">
        <ele>402.810791</ele>
        <time>2010-10-03T14:55:46Z</time>
      </trkpt>
      <trkpt lat="48.89708" lon="7.35443">
        <ele>400.295166</ele>
        <time>2010-10-03T14:55:54Z</time>
      </trkpt>
      <trkpt lat="48.89706" lon="7.35435">
        <ele>399.373291</ele>
        <time>2010-10-03T14:55:57Z</time>
      </trkpt>
      <trkpt lat="48.897" lon="7.35423">
        <ele>398.615479</ele>
        <time>2010-10-03T14:56:03Z</time>
      </trkpt>
      <trkpt lat="48.89689" lon="7.35406">
        <ele>398.318604</ele>
        <time>2010-10-03T14:56:14Z</time>
      </trkpt>
      <trkpt lat="48.8969" lon="7.35398">
        <ele>397.974854</ele>
        <time>2010-10-03T14:56:17Z</time>
      </trkpt>
      <trkpt lat="48.89688" lon="7.35384">
        <ele>398.310791</ele>
        <time>2010-10-03T14:56:23Z</time>
      </trkpt>
      <trkpt lat="48.89685" lon="7.35377">
        <ele>398.193604</ele>
        <time>2010-10-03T14:56:26Z</time>
      </trkpt>
      <trkpt lat="48.89681" lon="7.35371">
        <ele>397.451416</ele>
        <time>2010-10-03T14:56:29Z</time>
      </trkpt>
      <trkpt lat="48.89677" lon="7.35356">
        <ele>397.115479</ele>
        <time>2010-10-03T14:56:37Z</time>
      </trkpt>
      <trkpt lat="48.89673" lon="7.35351">
        <ele>396.865479</ele>
        <time>2010-10-03T14:56:40Z</time>
      </trkpt>
      <trkpt lat="48.89666" lon="7.35348">
        <ele>394.373291</ele>
        <time>2010-10-03T14:56:44Z</time>
      </trkpt>
      <trkpt lat="48.89664" lon="7.3534">
        <ele>392.373291</ele>
        <time>2010-10-03T14:57:24Z</time>
      </trkpt>
      <trkpt lat="48.89658" lon="7.35294">
        <ele>390.474854</ele>
        <time>2010-10-03T14:57:34Z</time>
      </trkpt>
      <trkpt lat="48.89657" lon="7.35278">
        <ele>388.787354</ele>
        <time>2010-10-03T14:57:39Z</time>
      </trkpt>
      <trkpt lat="48.89653" lon="7.35264">
        <ele>390.396729</ele>
        <time>2010-10-03T14:57:45Z</time>
      </trkpt>
      <trkpt lat="48.89653" lon="7.35256">
        <ele>391.701416</ele>
        <time>2010-10-03T14:57:48Z</time>
      </trkpt>
      <trkpt lat="48.89654" lon="7.35249">
        <ele>393.287354</ele>
        <time>2010-10-03T14:57:51Z</time>
      </trkpt>
      <trkpt lat="48.89652" lon="7.35222">
        <ele>397.795166</ele>
        <time>2010-10-03T14:58:00Z</time>
      </trkpt>
      <trkpt lat="48.89648" lon="7.35205">
        <ele>392.818604</ele>
        <time>2010-10-03T14:58:02Z</time>
      </trkpt>
      <trkpt lat="48.89644" lon="7.35201">
        <ele>391.787354</ele>
        <time>2010-10-03T14:58:04Z</time>
      </trkpt>
      <trkpt lat="48.89636" lon="7.35191">
        <ele>385.545166</ele>
        <time>2010-10-03T14:58:08Z</time>
      </trkpt>
      <trkpt lat="48.89626" lon="7.35192">
        <ele>385.545166</ele>
        <time>2010-10-03T14:58:14Z</time>
      </trkpt>
      <trkpt lat="48.8962" lon="7.35188">
        <ele>384.138916</ele>
        <time>2010-10-03T14:58:18Z</time>
      </trkpt>
      <trkpt lat="48.89615" lon="7.35187">
        <ele>382.990479</ele>
        <time>2010-10-03T14:58:21Z</time>
      </trkpt>
      <trkpt lat="48.89604" lon="7.35188">
        <ele>381.685791</ele>
        <time>2010-10-03T14:58:26Z</time>
      </trkpt>
      <trkpt lat="48.89599" lon="7.35186">
        <ele>380.552979</ele>
        <time>2010-10-03T14:58:28Z</time>
      </trkpt>
      <trkpt lat="48.89594" lon="7.35187">
        <ele>380.045166</ele>
        <time>2010-10-03T14:58:30Z</time>
      </trkpt>
      <trkpt lat="48.89583" lon="7.35192">
        <ele>379.810791</ele>
        <time>2010-10-03T14:58:36Z</time>
      </trkpt>
      <trkpt lat="48.89573" lon="7.35201">
        <ele>379.537354</ele>
        <time>2010-10-03T14:58:41Z</time>
      </trkpt>
      <trkpt lat="48.89561" lon="7.35209">
        <ele>376.521729</ele>
        <time>2010-10-03T14:58:44Z</time>
      </trkpt>
      <trkpt lat="48.89552" lon="7.35212">
        <ele>374.677979</ele>
        <time>2010-10-03T14:58:46Z</time>
      </trkpt>
      <trkpt lat="48.89548" lon="7.35217">
        <ele>374.013916</ele>
        <time>2010-10-03T14:58:48Z</time>
      </trkpt>
      <trkpt lat="48.89537" lon="7.35221">
        <ele>370.677979</ele>
        <time>2010-10-03T14:58:54Z</time>
      </trkpt>
      <trkpt lat="48.89533" lon="7.35224">
        <ele>368.802979</ele>
        <time>2010-10-03T14:58:56Z</time>
      </trkpt>
      <trkpt lat="48.89528" lon="7.35225">
        <ele>367.154541</ele>
        <time>2010-10-03T14:58:58Z</time>
      </trkpt>
      <trkpt lat="48.89507" lon="7.35224">
        <ele>363.662354</ele>
        <time>2010-10-03T14:59:02Z</time>
      </trkpt>
      <trkpt lat="48.89502" lon="7.35223">
        <ele>364.592041</ele>
        <time>2010-10-03T14:59:04Z</time>
      </trkpt>
      <trkpt lat="48.89496" lon="7.35219">
        <ele>364.068604</ele>
        <time>2010-10-03T14:59:07Z</time>
      </trkpt>
      <trkpt lat="48.89485" lon="7.35214">
        <ele>364.638916</ele>
        <time>2010-10-03T14:59:09Z</time>
      </trkpt>
      <trkpt lat="48.89472" lon="7.35204">
        <ele>363.482666</ele>
        <time>2010-10-03T14:59:13Z</time>
      </trkpt>
      <trkpt lat="48.89464" lon="7.35193">
        <ele>363.498291</ele>
        <time>2010-10-03T14:59:17Z</time>
      </trkpt>
      <trkpt lat="48.89453" lon="7.35187">
        <ele>364.459229</ele>
        <time>2010-10-03T14:59:22Z</time>
      </trkpt>
      <trkpt lat="48.89444" lon="7.3518">
        <ele>364.857666</ele>
        <time>2010-10-03T14:59:29Z</time>
      </trkpt>
      <trkpt lat="48.89439" lon="7.35179">
        <ele>364.209229</ele>
        <time>2010-10-03T14:59:31Z</time>
      </trkpt>
      <trkpt lat="48.89435" lon="7.35174">
        <ele>363.779541</ele>
        <time>2010-10-03T14:59:35Z</time>
      </trkpt>
      <trkpt lat="48.89414" lon="7.35177">
        <ele>364.349854</ele>
        <time>2010-10-03T14:59:49Z</time>
      </trkpt>
      <trkpt lat="48.89407" lon="7.35175">
        <ele>363.717041</ele>
        <time>2010-10-03T14:59:52Z</time>
      </trkpt>
      <trkpt lat="48.89386" lon="7.35161">
        <ele>362.224854</ele>
        <time>2010-10-03T15:00:03Z</time>
      </trkpt>
      <trkpt lat="48.89371" lon="7.35145">
        <ele>362.029541</ele>
        <time>2010-10-03T15:00:18Z</time>
      </trkpt>
      <trkpt lat="48.8937" lon="7.3514">
        <ele>358.162354</ele>
        <time>2010-10-03T15:00:22Z</time>
      </trkpt>
      <trkpt lat="48.8936" lon="7.35134">
        <ele>358.162354</ele>
        <time>2010-10-03T15:00:35Z</time>
      </trkpt>
      <trkpt lat="48.89349" lon="7.35131">
        <ele>357.959229</ele>
        <time>2010-10-03T15:00:43Z</time>
      </trkpt>
      <trkpt lat="48.89332" lon="7.35113">
        <ele>363.412354</ele>
        <time>2010-10-03T15:01:00Z</time>
      </trkpt>
      <trkpt lat="48.8932" lon="7.35091">
        <ele>364.131104</ele>
        <time>2010-10-03T15:01:09Z</time>
      </trkpt>
      <trkpt lat="48.89316" lon="7.35087">
        <ele>364.795166</ele>
        <time>2010-10-03T15:01:11Z</time>
      </trkpt>
      <trkpt lat="48.89312" lon="7.35079">
        <ele>364.982666</ele>
        <time>2010-10-03T15:01:14Z</time>
      </trkpt>
      <trkpt lat="48.89309" lon="7.35074">
        <ele>364.842041</ele>
        <time>2010-10-03T15:01:16Z</time>
      </trkpt>
      <trkpt lat="48.89297" lon="7.35047">
        <ele>365.349854</ele>
        <time>2010-10-03T15:01:25Z</time>
      </trkpt>
      <trkpt lat="48.89282" lon="7.35029">
        <ele>364.576416</ele>
        <time>2010-10-03T15:01:31Z</time>
      </trkpt>
      <trkpt lat="48.89269" lon="7.35002">
        <ele>363.670166</ele>
        <time>2010-10-03T15:01:37Z</time>
      </trkpt>
      <trkpt lat="48.89264" lon="7.34994">
        <ele>362.021729</ele>
        <time>2010-10-03T15:01:39Z</time>
      </trkpt>
      <trkpt lat="48.89251" lon="7.34984">
        <ele>359.787354</ele>
        <time>2010-10-03T15:01:42Z</time>
      </trkpt>
      <trkpt lat="48.89244" lon="7.34982">
        <ele>358.935791</ele>
        <time>2010-10-03T15:01:44Z</time>
      </trkpt>
      <trkpt lat="48.8924" lon="7.34984">
        <ele>358.802979</ele>
        <time>2010-10-03T15:01:45Z</time>
      </trkpt>
      <trkpt lat="48.89229" lon="7.34992">
        <ele>357.967041</ele>
        <time>2010-10-03T15:01:47Z</time>
      </trkpt>
      <trkpt lat="48.8922" lon="7.35002">
        <ele>357.170166</ele>
        <time>2010-10-03T15:01:49Z</time>
      </trkpt>
      <trkpt lat="48.89209" lon="7.3501">
        <ele>356.896729</ele>
        <time>2010-10-03T15:01:52Z</time>
      </trkpt>
      <trkpt lat="48.89204" lon="7.35011">
        <ele>356.506104</ele>
        <time>2010-10-03T15:01:53Z</time>
      </trkpt>
      <trkpt lat="48.89193" lon="7.35012">
        <ele>356.021729</ele>
        <time>2010-10-03T15:01:55Z</time>
      </trkpt>
      <trkpt lat="48.89178" lon="7.35009">
        <ele>354.849854</ele>
        <time>2010-10-03T15:01:57Z</time>
      </trkpt>
      <trkpt lat="48.89154" lon="7.34997">
        <ele>353.935791</ele>
        <time>2010-10-03T15:02:00Z</time>
      </trkpt>
      <trkpt lat="48.89148" lon="7.34997">
        <ele>353.662354</ele>
        <time>2010-10-03T15:02:01Z</time>
      </trkpt>
      <trkpt lat="48.89122" lon="7.35004">
        <ele>352.748291</ele>
        <time>2010-10-03T15:02:05Z</time>
      </trkpt>
      <trkpt lat="48.89116" lon="7.35004">
        <ele>352.412354</ele>
        <time>2010-10-03T15:02:06Z</time>
      </trkpt>
      <trkpt lat="48.89089" lon="7.34994">
        <ele>351.467041</ele>
        <time>2010-10-03T15:02:13Z</time>
      </trkpt>
      <trkpt lat="48.89073" lon="7.3498">
        <ele>350.310791</ele>
        <time>2010-10-03T15:02:19Z</time>
      </trkpt>
      <trkpt lat="48.89068" lon="7.34976">
        <ele>349.146729</ele>
        <time>2010-10-03T15:02:22Z</time>
      </trkpt>
      <trkpt lat="48.89059" lon="7.34968">
        <ele>351.006104</ele>
        <time>2010-10-03T15:02:29Z</time>
      </trkpt>
      <trkpt lat="48.89048" lon="7.34952">
        <ele>351.498291</ele>
        <time>2010-10-03T15:02:38Z</time>
      </trkpt>
      <trkpt lat="48.89043" lon="7.34938">
        <ele>353.334229</ele>
        <time>2010-10-03T15:02:45Z</time>
      </trkpt>
      <trkpt lat="48.89042" lon="7.3493">
        <ele>354.474854</ele>
        <time>2010-10-03T15:02:49Z</time>
      </trkpt>
      <trkpt lat="48.89035" lon="7.3491">
        <ele>356.404541</ele>
        <time>2010-10-03T15:03:01Z</time>
      </trkpt>
      <trkpt lat="48.89029" lon="7.349">
        <ele>358.599854</ele>
        <time>2010-10-03T15:03:07Z</time>
      </trkpt>
      <trkpt lat="48.89027" lon="7.34892">
        <ele>359.443604</ele>
        <time>2010-10-03T15:03:10Z</time>
      </trkpt>
      <trkpt lat="48.89024" lon="7.34886">
        <ele>359.802979</ele>
        <time>2010-10-03T15:03:13Z</time>
      </trkpt>
      <trkpt lat="48.89019" lon="7.34863">
        <ele>360.951416</ele>
        <time>2010-10-03T15:03:24Z</time>
      </trkpt>
      <trkpt lat="48.89016" lon="7.34855">
        <ele>361.787354</ele>
        <time>2010-10-03T15:03:27Z</time>
      </trkpt>
      <trkpt lat="48.89016" lon="7.34847">
        <ele>362.037354</ele>
        <time>2010-10-03T15:03:29Z</time>
      </trkpt>
      <trkpt lat="48.89016" lon="7.34837">
        <ele>360.982666</ele>
        <time>2010-10-03T15:03:31Z</time>
      </trkpt>
      <trkpt lat="48.89014" lon="7.34831">
        <ele>361.162354</ele>
        <time>2010-10-03T15:03:33Z</time>
      </trkpt>
      <trkpt lat="48.89012" lon="7.34824">
        <ele>361.209229</ele>
        <time>2010-10-03T15:03:35Z</time>
      </trkpt>
      <trkpt lat="48.89012" lon="7.34814">
        <ele>360.873291</ele>
        <time>2010-10-03T15:03:37Z</time>
      </trkpt>
      <trkpt lat="48.88995" lon="7.34769">
        <ele>364.154541</ele>
        <time>2010-10-03T15:03:51Z</time>
      </trkpt>
      <trkpt lat="48.88988" lon="7.34756">
        <ele>365.857666</ele>
        <time>2010-10-03T15:03:56Z</time>
      </trkpt>
      <trkpt lat="48.88985" lon="7.34749">
        <ele>367.115479</ele>
        <time>2010-10-03T15:03:59Z</time>
      </trkpt>
      <trkpt lat="48.88979" lon="7.34722">
        <ele>369.998291</ele>
        <time>2010-10-03T15:04:08Z</time>
      </trkpt>
      <trkpt lat="48.88971" lon="7.34703">
        <ele>375.482666</ele>
        <time>2010-10-03T15:04:19Z</time>
      </trkpt>
      <trkpt lat="48.88969" lon="7.34694">
        <ele>374.857666</ele>
        <time>2010-10-03T15:04:22Z</time>
      </trkpt>
      <trkpt lat="48.88962" lon="7.34683">
        <ele>377.295166</ele>
        <time>2010-10-03T15:04:29Z</time>
      </trkpt>
      <trkpt lat="48.8896" lon="7.34676">
        <ele>377.271729</ele>
        <time>2010-10-03T15:04:33Z</time>
      </trkpt>
      <trkpt lat="48.88953" lon="7.34664">
        <ele>377.138916</ele>
        <time>2010-10-03T15:04:40Z</time>
      </trkpt>
      <trkpt lat="48.88948" lon="7.34652">
        <ele>376.865479</ele>
        <time>2010-10-03T15:04:46Z</time>
      </trkpt>
      <trkpt lat="48.88936" lon="7.34635">
        <ele>377.763916</ele>
        <time>2010-10-03T15:04:54Z</time>
      </trkpt>
      <trkpt lat="48.88931" lon="7.34632">
        <ele>378.029541</ele>
        <time>2010-10-03T15:04:56Z</time>
      </trkpt>
      <trkpt lat="48.88928" lon="7.34627">
        <ele>378.615479</ele>
        <time>2010-10-03T15:04:58Z</time>
      </trkpt>
      <trkpt lat="48.88913" lon="7.34581">
        <ele>383.193604</ele>
        <time>2010-10-03T15:05:08Z</time>
      </trkpt>
      <trkpt lat="48.88905" lon="7.34545">
        <ele>386.654541</ele>
        <time>2010-10-03T15:05:13Z</time>
      </trkpt>
      <trkpt lat="48.88903" lon="7.34538">
        <ele>387.467041</ele>
        <time>2010-10-03T15:05:14Z</time>
      </trkpt>
      <trkpt lat="48.88897" lon="7.34503">
        <ele>389.521729</ele>
        <time>2010-10-03T15:05:18Z</time>
      </trkpt>
      <trkpt lat="48.88892" lon="7.34487">
        <ele>390.474854</ele>
        <time>2010-10-03T15:05:20Z</time>
      </trkpt>
      <trkpt lat="48.88882" lon="7.34456">
        <ele>391.287354</ele>
        <time>2010-10-03T15:05:24Z</time>
      </trkpt>
      <trkpt lat="48.88881" lon="7.34448">
        <ele>391.068604</ele>
        <time>2010-10-03T15:05:25Z</time>
      </trkpt>
      <trkpt lat="48.88874" lon="7.34426">
        <ele>391.170166</ele>
        <time>2010-10-03T15:05:28Z</time>
      </trkpt>
      <trkpt lat="48.88873" lon="7.34417">
        <ele>390.248291</ele>
        <time>2010-10-03T15:05:29Z</time>
      </trkpt>
      <trkpt lat="48.88865" lon="7.34391">
        <ele>390.490479</ele>
        <time>2010-10-03T15:05:33Z</time>
      </trkpt>
      <trkpt lat="48.88863" lon="7.34381">
        <ele>390.357666</ele>
        <time>2010-10-03T15:05:35Z</time>
      </trkpt>
      <trkpt lat="48.88864" lon="7.34371">
        <ele>390.217041</ele>
        <time>2010-10-03T15:05:37Z</time>
      </trkpt>
      <trkpt lat="48.88862" lon="7.34347">
        <ele>391.420166</ele>
        <time>2010-10-03T15:05:41Z</time>
      </trkpt>
      <trkpt lat="48.88863" lon="7.34337">
        <ele>392.006104</ele>
        <time>2010-10-03T15:05:43Z</time>
      </trkpt>
      <trkpt lat="48.8886" lon="7.34325">
        <ele>392.763916</ele>
        <time>2010-10-03T15:05:45Z</time>
      </trkpt>
      <trkpt lat="48.88862" lon="7.34306">
        <ele>393.154541</ele>
        <time>2010-10-03T15:05:47Z</time>
      </trkpt>
      <trkpt lat="48.88862" lon="7.34288">
        <ele>393.927979</ele>
        <time>2010-10-03T15:05:50Z</time>
      </trkpt>
      <trkpt lat="48.88853" lon="7.34222">
        <ele>399.748291</ele>
        <time>2010-10-03T15:06:01Z</time>
      </trkpt>
      <trkpt lat="48.88852" lon="7.34203">
        <ele>402.349854</ele>
        <time>2010-10-03T15:06:05Z</time>
      </trkpt>
      <trkpt lat="48.88848" lon="7.34184">
        <ele>405.373291</ele>
        <time>2010-10-03T15:06:09Z</time>
      </trkpt>
      <trkpt lat="48.88848" lon="7.34159">
        <ele>407.685791</ele>
        <time>2010-10-03T15:06:12Z</time>
      </trkpt>
      <trkpt lat="48.8885" lon="7.34148">
        <ele>409.381104</ele>
        <time>2010-10-03T15:06:14Z</time>
      </trkpt>
      <trkpt lat="48.88854" lon="7.34136">
        <ele>409.467041</ele>
        <time>2010-10-03T15:06:16Z</time>
      </trkpt>
      <trkpt lat="48.88856" lon="7.34123">
        <ele>410.209229</ele>
        <time>2010-10-03T15:06:18Z</time>
      </trkpt>
      <trkpt lat="48.88859" lon="7.34118">
        <ele>410.334229</ele>
        <time>2010-10-03T15:06:19Z</time>
      </trkpt>
      <trkpt lat="48.88869" lon="7.34099">
        <ele>410.771729</ele>
        <time>2010-10-03T15:06:23Z</time>
      </trkpt>
      <trkpt lat="48.88876" lon="7.3409">
        <ele>411.138916</ele>
        <time>2010-10-03T15:06:25Z</time>
      </trkpt>
      <trkpt lat="48.88886" lon="7.34068">
        <ele>412.287354</ele>
        <time>2010-10-03T15:06:29Z</time>
      </trkpt>
      <trkpt lat="48.88896" lon="7.34048">
        <ele>412.795166</ele>
        <time>2010-10-03T15:06:33Z</time>
      </trkpt>
      <trkpt lat="48.889" lon="7.34038">
        <ele>412.131104</ele>
        <time>2010-10-03T15:06:35Z</time>
      </trkpt>
      <trkpt lat="48.88904" lon="7.34014">
        <ele>410.849854</ele>
        <time>2010-10-03T15:06:39Z</time>
      </trkpt>
      <trkpt lat="48.8891" lon="7.33989">
        <ele>410.310791</ele>
        <time>2010-10-03T15:06:43Z</time>
      </trkpt>
      <trkpt lat="48.88912" lon="7.33964">
        <ele>410.443604</ele>
        <time>2010-10-03T15:06:47Z</time>
      </trkpt>
      <trkpt lat="48.88912" lon="7.33952">
        <ele>410.381104</ele>
        <time>2010-10-03T15:06:49Z</time>
      </trkpt>
      <trkpt lat="48.88914" lon="7.33929">
        <ele>410.881104</ele>
        <time>2010-10-03T15:06:52Z</time>
      </trkpt>
      <trkpt lat="48.88916" lon="7.33923">
        <ele>411.045166</ele>
        <time>2010-10-03T15:06:53Z</time>
      </trkpt>
      <trkpt lat="48.88913" lon="7.33898">
        <ele>412.029541</ele>
        <time>2010-10-03T15:06:57Z</time>
      </trkpt>
      <trkpt lat="48.88913" lon="7.33887">
        <ele>412.701416</ele>
        <time>2010-10-03T15:06:59Z</time>
      </trkpt>
      <trkpt lat="48.88917" lon="7.33878">
        <ele>413.498291</ele>
        <time>2010-10-03T15:07:01Z</time>
      </trkpt>
      <trkpt lat="48.88916" lon="7.33869">
        <ele>414.248291</ele>
        <time>2010-10-03T15:07:03Z</time>
      </trkpt>
      <trkpt lat="48.88916" lon="7.33859">
        <ele>415.099854</ele>
        <time>2010-10-03T15:07:05Z</time>
      </trkpt>
      <trkpt lat="48.88916" lon="7.33836">
        <ele>417.045166</ele>
        <time>2010-10-03T15:07:09Z</time>
      </trkpt>
      <trkpt lat="48.88917" lon="7.33815">
        <ele>418.443604</ele>
        <time>2010-10-03T15:07:12Z</time>
      </trkpt>
      <trkpt lat="48.88918" lon="7.33792">
        <ele>420.123291</ele>
        <time>2010-10-03T15:07:15Z</time>
      </trkpt>
      <trkpt lat="48.8892" lon="7.3378">
        <ele>421.209229</ele>
        <time>2010-10-03T15:07:17Z</time>
      </trkpt>
      <trkpt lat="48.8892" lon="7.33771">
        <ele>421.607666</ele>
        <time>2010-10-03T15:07:18Z</time>
      </trkpt>
      <trkpt lat="48.88923" lon="7.33747">
        <ele>422.342041</ele>
        <time>2010-10-03T15:07:20Z</time>
      </trkpt>
      <trkpt lat="48.8892" lon="7.33728">
        <ele>423.381104</ele>
        <time>2010-10-03T15:07:22Z</time>
      </trkpt>
      <trkpt lat="48.88919" lon="7.33703">
        <ele>424.373291</ele>
        <time>2010-10-03T15:07:24Z</time>
      </trkpt>
      <trkpt lat="48.88917" lon="7.33689">
        <ele>424.826416</ele>
        <time>2010-10-03T15:07:25Z</time>
      </trkpt>
      <trkpt lat="48.88915" lon="7.33662">
        <ele>425.724854</ele>
        <time>2010-10-03T15:07:27Z</time>
      </trkpt>
      <trkpt lat="48.88915" lon="7.33647">
        <ele>426.232666</ele>
        <time>2010-10-03T15:07:28Z</time>
      </trkpt>
      <trkpt lat="48.88912" lon="7.33636">
        <ele>426.779541</ele>
        <time>2010-10-03T15:07:29Z</time>
      </trkpt>
      <trkpt lat="48.88911" lon="7.33603">
        <ele>428.435791</ele>
        <time>2010-10-03T15:07:32Z</time>
      </trkpt>
      <trkpt lat="48.8891" lon="7.3359">
        <ele>428.990479</ele>
        <time>2010-10-03T15:07:33Z</time>
      </trkpt>
      <trkpt lat="48.88908" lon="7.3358">
        <ele>429.607666</ele>
        <time>2010-10-03T15:07:34Z</time>
      </trkpt>
      <trkpt lat="48.88916" lon="7.3353">
        <ele>428.209229</ele>
        <time>2010-10-03T15:07:35Z</time>
      </trkpt>
      <trkpt lat="48.8891" lon="7.33515">
        <ele>427.623291</ele>
        <time>2010-10-03T15:07:36Z</time>
      </trkpt>
      <trkpt lat="48.8892" lon="7.33516">
        <ele>427.646729</ele>
        <time>2010-10-03T15:07:37Z</time>
      </trkpt>
      <trkpt lat="48.88916" lon="7.33491">
        <ele>427.873291</ele>
        <time>2010-10-03T15:07:39Z</time>
      </trkpt>
      <trkpt lat="48.8891" lon="7.33472">
        <ele>428.396729</ele>
        <time>2010-10-03T15:07:41Z</time>
      </trkpt>
      <trkpt lat="48.88909" lon="7.33459">
        <ele>428.357666</ele>
        <time>2010-10-03T15:07:42Z</time>
      </trkpt>
      <trkpt lat="48.88905" lon="7.3345">
        <ele>428.396729</ele>
        <time>2010-10-03T15:07:43Z</time>
      </trkpt>
      <trkpt lat="48.88902" lon="7.33441">
        <ele>428.615479</ele>
        <time>2010-10-03T15:07:44Z</time>
      </trkpt>
      <trkpt lat="48.88901" lon="7.33431">
        <ele>428.912354</ele>
        <time>2010-10-03T15:07:45Z</time>
      </trkpt>
      <trkpt lat="48.88899" lon="7.33423">
        <ele>429.107666</ele>
        <time>2010-10-03T15:07:46Z</time>
      </trkpt>
      <trkpt lat="48.88897" lon="7.33407">
        <ele>429.623291</ele>
        <time>2010-10-03T15:07:48Z</time>
      </trkpt>
      <trkpt lat="48.88896" lon="7.33392">
        <ele>430.240479</ele>
        <time>2010-10-03T15:07:50Z</time>
      </trkpt>
      <trkpt lat="48.88891" lon="7.33388">
        <ele>430.404541</ele>
        <time>2010-10-03T15:07:51Z</time>
      </trkpt>
      <trkpt lat="48.88886" lon="7.33356">
        <ele>432.029541</ele>
        <time>2010-10-03T15:07:57Z</time>
      </trkpt>
      <trkpt lat="48.88883" lon="7.33346">
        <ele>432.193604</ele>
        <time>2010-10-03T15:07:59Z</time>
      </trkpt>
      <trkpt lat="48.88882" lon="7.33337">
        <ele>432.076416</ele>
        <time>2010-10-03T15:08:01Z</time>
      </trkpt>
      <trkpt lat="48.8888" lon="7.33328">
        <ele>432.623291</ele>
        <time>2010-10-03T15:08:03Z</time>
      </trkpt>
      <trkpt lat="48.88875" lon="7.33312">
        <ele>433.670166</ele>
        <time>2010-10-03T15:08:07Z</time>
      </trkpt>
      <trkpt lat="48.88867" lon="7.333">
        <ele>431.834229</ele>
        <time>2010-10-03T15:08:25Z</time>
      </trkpt>
      <trkpt lat="48.8886" lon="7.33297">
        <ele>427.162354</ele>
        <time>2010-10-03T15:08:27Z</time>
      </trkpt>
      <trkpt lat="48.8885" lon="7.33288">
        <ele>426.998291</ele>
        <time>2010-10-03T15:08:30Z</time>
      </trkpt>
      <trkpt lat="48.88842" lon="7.33274">
        <ele>426.896729</ele>
        <time>2010-10-03T15:08:33Z</time>
      </trkpt>
      <trkpt lat="48.88834" lon="7.33265">
        <ele>425.545166</ele>
        <time>2010-10-03T15:08:35Z</time>
      </trkpt>
      <trkpt lat="48.88829" lon="7.33255">
        <ele>424.920166</ele>
        <time>2010-10-03T15:08:37Z</time>
      </trkpt>
      <trkpt lat="48.88824" lon="7.33225">
        <ele>426.084229</ele>
        <time>2010-10-03T15:08:43Z</time>
      </trkpt>
      <trkpt lat="48.8882" lon="7.33215">
        <ele>426.349854</ele>
        <time>2010-10-03T15:08:45Z</time>
      </trkpt>
      <trkpt lat="48.88811" lon="7.33177">
        <ele>429.279541</ele>
        <time>2010-10-03T15:08:53Z</time>
      </trkpt>
      <trkpt lat="48.88807" lon="7.33171">
        <ele>429.217041</ele>
        <time>2010-10-03T15:08:55Z</time>
      </trkpt>
      <trkpt lat="48.88807" lon="7.33163">
        <ele>429.732666</ele>
        <time>2010-10-03T15:08:56Z</time>
      </trkpt>
      <trkpt lat="48.888" lon="7.33139">
        <ele>433.271729</ele>
        <time>2010-10-03T15:09:02Z</time>
      </trkpt>
      <trkpt lat="48.88797" lon="7.33132">
        <ele>433.631104</ele>
        <time>2010-10-03T15:09:04Z</time>
      </trkpt>
      <trkpt lat="48.88797" lon="7.33121">
        <ele>433.756104</ele>
        <time>2010-10-03T15:09:06Z</time>
      </trkpt>
      <trkpt lat="48.88789" lon="7.33095">
        <ele>438.717041</ele>
        <time>2010-10-03T15:09:12Z</time>
      </trkpt>
      <trkpt lat="48.88785" lon="7.33089">
        <ele>438.107666</ele>
        <time>2010-10-03T15:09:14Z</time>
      </trkpt>
      <trkpt lat="48.88783" lon="7.33081">
        <ele>437.623291</ele>
        <time>2010-10-03T15:09:16Z</time>
      </trkpt>
      <trkpt lat="48.88781" lon="7.33071">
        <ele>439.388916</ele>
        <time>2010-10-03T15:09:18Z</time>
      </trkpt>
      <trkpt lat="48.88776" lon="7.33053">
        <ele>441.396729</ele>
        <time>2010-10-03T15:09:22Z</time>
      </trkpt>
      <trkpt lat="48.88771" lon="7.33045">
        <ele>440.443604</ele>
        <time>2010-10-03T15:09:24Z</time>
      </trkpt>
      <trkpt lat="48.88765" lon="7.33021">
        <ele>441.263916</ele>
        <time>2010-10-03T15:09:28Z</time>
      </trkpt>
      <trkpt lat="48.88757" lon="7.33003">
        <ele>443.967041</ele>
        <time>2010-10-03T15:09:32Z</time>
      </trkpt>
      <trkpt lat="48.88747" lon="7.32986">
        <ele>443.771729</ele>
        <time>2010-10-03T15:09:36Z</time>
      </trkpt>
      <trkpt lat="48.88742" lon="7.32983">
        <ele>441.646729</ele>
        <time>2010-10-03T15:09:37Z</time>
      </trkpt>
      <trkpt lat="48.88736" lon="7.32974">
        <ele>441.263916</ele>
        <time>2010-10-03T15:09:39Z</time>
      </trkpt>
      <trkpt lat="48.88731" lon="7.32972">
        <ele>440.310791</ele>
        <time>2010-10-03T15:09:40Z</time>
      </trkpt>
      <trkpt lat="48.88719" lon="7.32961">
        <ele>435.990479</ele>
        <time>2010-10-03T15:09:43Z</time>
      </trkpt>
      <trkpt lat="48.88714" lon="7.32959">
        <ele>433.209229</ele>
        <time>2010-10-03T15:09:44Z</time>
      </trkpt>
      <trkpt lat="48.8871" lon="7.32955">
        <ele>432.693604</ele>
        <time>2010-10-03T15:09:45Z</time>
      </trkpt>
      <trkpt lat="48.88707" lon="7.32949">
        <ele>430.857666</ele>
        <time>2010-10-03T15:09:46Z</time>
      </trkpt>
      <trkpt lat="48.88691" lon="7.32936">
        <ele>429.396729</ele>
        <time>2010-10-03T15:09:50Z</time>
      </trkpt>
      <trkpt lat="48.88682" lon="7.3293">
        <ele>428.146729</ele>
        <time>2010-10-03T15:09:52Z</time>
      </trkpt>
      <trkpt lat="48.88673" lon="7.32926">
        <ele>427.857666</ele>
        <time>2010-10-03T15:09:54Z</time>
      </trkpt>
      <trkpt lat="48.88667" lon="7.32925">
        <ele>427.427979</ele>
        <time>2010-10-03T15:09:55Z</time>
      </trkpt>
      <trkpt lat="48.88657" lon="7.32919">
        <ele>426.427979</ele>
        <time>2010-10-03T15:09:57Z</time>
      </trkpt>
      <trkpt lat="48.88648" lon="7.32911">
        <ele>426.779541</ele>
        <time>2010-10-03T15:10:00Z</time>
      </trkpt>
      <trkpt lat="48.88636" lon="7.32913">
        <ele>424.529541</ele>
        <time>2010-10-03T15:10:03Z</time>
      </trkpt>
      <trkpt lat="48.8862" lon="7.32918">
        <ele>422.201416</ele>
        <time>2010-10-03T15:10:06Z</time>
      </trkpt>
      <trkpt lat="48.88606" lon="7.3292">
        <ele>420.342041</ele>
        <time>2010-10-03T15:10:10Z</time>
      </trkpt>
      <trkpt lat="48.88596" lon="7.32924">
        <ele>416.771729</ele>
        <time>2010-10-03T15:10:13Z</time>
      </trkpt>
      <trkpt lat="48.88592" lon="7.32924">
        <ele>414.701416</ele>
        <time>2010-10-03T15:10:14Z</time>
      </trkpt>
      <trkpt lat="48.88586" lon="7.32927">
        <ele>413.834229</ele>
        <time>2010-10-03T15:10:16Z</time>
      </trkpt>
      <trkpt lat="48.88579" lon="7.32924">
        <ele>405.060791</ele>
        <time>2010-10-03T15:10:18Z</time>
      </trkpt>
      <trkpt lat="48.8856" lon="7.32927">
        <ele>398.888916</ele>
        <time>2010-10-03T15:10:24Z</time>
      </trkpt>
      <trkpt lat="48.88551" lon="7.32924">
        <ele>393.185791</ele>
        <time>2010-10-03T15:10:27Z</time>
      </trkpt>
      <trkpt lat="48.88544" lon="7.32923">
        <ele>389.295166</ele>
        <time>2010-10-03T15:10:29Z</time>
      </trkpt>
      <trkpt lat="48.8853" lon="7.32932">
        <ele>384.935791</ele>
        <time>2010-10-03T15:10:33Z</time>
      </trkpt>
      <trkpt lat="48.88509" lon="7.32938">
        <ele>378.560791</ele>
        <time>2010-10-03T15:10:39Z</time>
      </trkpt>
      <trkpt lat="48.88496" lon="7.32948">
        <ele>373.467041</ele>
        <time>2010-10-03T15:10:43Z</time>
      </trkpt>
      <trkpt lat="48.88491" lon="7.32951">
        <ele>372.162354</ele>
        <time>2010-10-03T15:10:44Z</time>
      </trkpt>
      <trkpt lat="48.88482" lon="7.32961">
        <ele>368.256104</ele>
        <time>2010-10-03T15:10:47Z</time>
      </trkpt>
      <trkpt lat="48.88476" lon="7.32966">
        <ele>366.271729</ele>
        <time>2010-10-03T15:10:49Z</time>
      </trkpt>
      <trkpt lat="48.88472" lon="7.32971">
        <ele>364.263916</ele>
        <time>2010-10-03T15:10:50Z</time>
      </trkpt>
      <trkpt lat="48.88462" lon="7.32976">
        <ele>359.771729</ele>
        <time>2010-10-03T15:10:52Z</time>
      </trkpt>
      <trkpt lat="48.88457" lon="7.32975">
        <ele>356.592041</ele>
        <time>2010-10-03T15:10:53Z</time>
      </trkpt>
      <trkpt lat="48.8844" lon="7.3298">
        <ele>352.334229</ele>
        <time>2010-10-03T15:10:57Z</time>
      </trkpt>
      <trkpt lat="48.88424" lon="7.32994">
        <ele>348.498291</ele>
        <time>2010-10-03T15:11:01Z</time>
      </trkpt>
      <trkpt lat="48.88417" lon="7.32997">
        <ele>344.951416</ele>
        <time>2010-10-03T15:11:03Z</time>
      </trkpt>
      <trkpt lat="48.88394" lon="7.32997">
        <ele>336.131104</ele>
        <time>2010-10-03T15:11:11Z</time>
      </trkpt>
      <trkpt lat="48.88385" lon="7.33001">
        <ele>331.787354</ele>
        <time>2010-10-03T15:11:13Z</time>
      </trkpt>
      <trkpt lat="48.88379" lon="7.33008">
        <ele>330.271729</ele>
        <time>2010-10-03T15:11:15Z</time>
      </trkpt>
      <trkpt lat="48.88364" lon="7.33004">
        <ele>326.701416</ele>
        <time>2010-10-03T15:11:19Z</time>
      </trkpt>
      <trkpt lat="48.88354" lon="7.32996">
        <ele>324.724854</ele>
        <time>2010-10-03T15:11:24Z</time>
      </trkpt>
      <trkpt lat="48.88349" lon="7.3299">
        <ele>325.045166</ele>
        <time>2010-10-03T15:11:26Z</time>
      </trkpt>
      <trkpt lat="48.88333" lon="7.32983">
        <ele>324.256104</ele>
        <time>2010-10-03T15:11:30Z</time>
      </trkpt>
      <trkpt lat="48.8832" lon="7.32974">
        <ele>324.146729</ele>
        <time>2010-10-03T15:11:33Z</time>
      </trkpt>
      <trkpt lat="48.8831" lon="7.32958">
        <ele>325.529541</ele>
        <time>2010-10-03T15:11:37Z</time>
      </trkpt>
      <trkpt lat="48.88307" lon="7.32952">
        <ele>326.310791</ele>
        <time>2010-10-03T15:11:39Z</time>
      </trkpt>
      <trkpt lat="48.88293" lon="7.32929">
        <ele>326.810791</ele>
        <time>2010-10-03T15:11:45Z</time>
      </trkpt>
      <trkpt lat="48.88287" lon="7.32922">
        <ele>327.224854</ele>
        <time>2010-10-03T15:11:47Z</time>
      </trkpt>
      <trkpt lat="48.88284" lon="7.32915">
        <ele>327.615479</ele>
        <time>2010-10-03T15:11:49Z</time>
      </trkpt>
      <trkpt lat="48.8828" lon="7.32911">
        <ele>328.138916</ele>
        <time>2010-10-03T15:11:51Z</time>
      </trkpt>
      <trkpt lat="48.88276" lon="7.32905">
        <ele>328.795166</ele>
        <time>2010-10-03T15:11:53Z</time>
      </trkpt>
      <trkpt lat="48.88271" lon="7.32893">
        <ele>328.904541</ele>
        <time>2010-10-03T15:11:55Z</time>
      </trkpt>
      <trkpt lat="48.88268" lon="7.32888">
        <ele>329.263916</ele>
        <time>2010-10-03T15:11:57Z</time>
      </trkpt>
      <trkpt lat="48.88261" lon="7.32887">
        <ele>331.201416</ele>
        <time>2010-10-03T15:12:01Z</time>
      </trkpt>
      <trkpt lat="48.88257" lon="7.32885">
        <ele>332.701416</ele>
        <time>2010-10-03T15:12:04Z</time>
      </trkpt>
      <trkpt lat="48.88253" lon="7.32878">
        <ele>335.052979</ele>
        <time>2010-10-03T15:12:08Z</time>
      </trkpt>
      <trkpt lat="48.88248" lon="7.32864">
        <ele>336.795166</ele>
        <time>2010-10-03T15:12:12Z</time>
      </trkpt>
      <trkpt lat="48.88242" lon="7.32854">
        <ele>339.068604</ele>
        <time>2010-10-03T15:12:17Z</time>
      </trkpt>
      <trkpt lat="48.8824" lon="7.32847">
        <ele>339.490479</ele>
        <time>2010-10-03T15:12:19Z</time>
      </trkpt>
      <trkpt lat="48.88233" lon="7.32836">
        <ele>340.701416</ele>
        <time>2010-10-03T15:12:30Z</time>
      </trkpt>
      <trkpt lat="48.88226" lon="7.32834">
        <ele>341.240479</ele>
        <time>2010-10-03T15:12:31Z</time>
      </trkpt>
      <trkpt lat="48.88222" lon="7.32828">
        <ele>342.146729</ele>
        <time>2010-10-03T15:12:34Z</time>
      </trkpt>
      <trkpt lat="48.88213" lon="7.32809">
        <ele>345.373291</ele>
        <time>2010-10-03T15:12:42Z</time>
      </trkpt>
      <trkpt lat="48.88204" lon="7.32787">
        <ele>347.912354</ele>
        <time>2010-10-03T15:12:50Z</time>
      </trkpt>
      <trkpt lat="48.88202" lon="7.3278">
        <ele>349.623291</ele>
        <time>2010-10-03T15:12:53Z</time>
      </trkpt>
      <trkpt lat="48.88188" lon="7.32754">
        <ele>354.748291</ele>
        <time>2010-10-03T15:13:02Z</time>
      </trkpt>
      <trkpt lat="48.88184" lon="7.32743">
        <ele>355.638916</ele>
        <time>2010-10-03T15:13:04Z</time>
      </trkpt>
      <trkpt lat="48.88178" lon="7.32737">
        <ele>356.756104</ele>
        <time>2010-10-03T15:13:06Z</time>
      </trkpt>
      <trkpt lat="48.88173" lon="7.32732">
        <ele>357.865479</ele>
        <time>2010-10-03T15:13:08Z</time>
      </trkpt>
      <trkpt lat="48.88163" lon="7.32711">
        <ele>360.990479</ele>
        <time>2010-10-03T15:13:16Z</time>
      </trkpt>
      <trkpt lat="48.88149" lon="7.32699">
        <ele>361.685791</ele>
        <time>2010-10-03T15:13:24Z</time>
      </trkpt>
      <trkpt lat="48.8814" lon="7.32699">
        <ele>360.693604</ele>
        <time>2010-10-03T15:13:25Z</time>
      </trkpt>
      <trkpt lat="48.88132" lon="7.32696">
        <ele>360.412354</ele>
        <time>2010-10-03T15:13:28Z</time>
      </trkpt>
      <trkpt lat="48.88123" lon="7.32688">
        <ele>360.998291</ele>
        <time>2010-10-03T15:13:36Z</time>
      </trkpt>
      <trkpt lat="48.88114" lon="7.32677">
        <ele>361.623291</ele>
        <time>2010-10-03T15:13:43Z</time>
      </trkpt>
      <trkpt lat="48.88109" lon="7.32673">
        <ele>362.052979</ele>
        <time>2010-10-03T15:13:47Z</time>
      </trkpt>
      <trkpt lat="48.88105" lon="7.32667">
        <ele>361.084229</ele>
        <time>2010-10-03T15:13:51Z</time>
      </trkpt>
      <trkpt lat="48.88099" lon="7.32663">
        <ele>360.599854</ele>
        <time>2010-10-03T15:13:54Z</time>
      </trkpt>
      <trkpt lat="48.88087" lon="7.3265">
        <ele>359.248291</ele>
        <time>2010-10-03T15:14:03Z</time>
      </trkpt>
      <trkpt lat="48.88077" lon="7.32648">
        <ele>357.732666</ele>
        <time>2010-10-03T15:14:06Z</time>
      </trkpt>
      <trkpt lat="48.88062" lon="7.32635">
        <ele>357.131104</ele>
        <time>2010-10-03T15:14:14Z</time>
      </trkpt>
      <trkpt lat="48.88058" lon="7.32633">
        <ele>357.638916</ele>
        <time>2010-10-03T15:14:17Z</time>
      </trkpt>
      <trkpt lat="48.88049" lon="7.32624">
        <ele>358.045166</ele>
        <time>2010-10-03T15:14:22Z</time>
      </trkpt>
      <trkpt lat="48.88039" lon="7.32617">
        <ele>358.607666</ele>
        <time>2010-10-03T15:14:27Z</time>
      </trkpt>
      <trkpt lat="48.88033" lon="7.32609">
        <ele>358.467041</ele>
        <time>2010-10-03T15:14:30Z</time>
      </trkpt>
      <trkpt lat="48.88028" lon="7.326">
        <ele>358.295166</ele>
        <time>2010-10-03T15:14:32Z</time>
      </trkpt>
      <trkpt lat="48.8801" lon="7.32582">
        <ele>358.310791</ele>
        <time>2010-10-03T15:14:38Z</time>
      </trkpt>
      <trkpt lat="48.87997" lon="7.32574">
        <ele>359.201416</ele>
        <time>2010-10-03T15:14:42Z</time>
      </trkpt>
      <trkpt lat="48.87991" lon="7.32567">
        <ele>359.217041</ele>
        <time>2010-10-03T15:14:44Z</time>
      </trkpt>
      <trkpt lat="48.87985" lon="7.32564">
        <ele>359.701416</ele>
        <time>2010-10-03T15:14:46Z</time>
      </trkpt>
      <trkpt lat="48.87969" lon="7.32551">
        <ele>357.951416</ele>
        <time>2010-10-03T15:14:52Z</time>
      </trkpt>
      <trkpt lat="48.87959" lon="7.32546">
        <ele>356.685791</ele>
        <time>2010-10-03T15:14:54Z</time>
      </trkpt>
      <trkpt lat="48.87944" lon="7.32532">
        <ele>355.295166</ele>
        <time>2010-10-03T15:14:58Z</time>
      </trkpt>
      <trkpt lat="48.87936" lon="7.32528">
        <ele>354.763916</ele>
        <time>2010-10-03T15:15:00Z</time>
      </trkpt>
      <trkpt lat="48.87922" lon="7.32516">
        <ele>353.842041</ele>
        <time>2010-10-03T15:15:04Z</time>
      </trkpt>
      <trkpt lat="48.8791" lon="7.3251">
        <ele>352.529541</ele>
        <time>2010-10-03T15:15:07Z</time>
      </trkpt>
      <trkpt lat="48.87892" lon="7.32494">
        <ele>352.107666</ele>
        <time>2010-10-03T15:15:11Z</time>
      </trkpt>
      <trkpt lat="48.87883" lon="7.32483">
        <ele>351.193604</ele>
        <time>2010-10-03T15:15:14Z</time>
      </trkpt>
      <trkpt lat="48.87864" lon="7.32453">
        <ele>351.131104</ele>
        <time>2010-10-03T15:15:21Z</time>
      </trkpt>
      <trkpt lat="48.87857" lon="7.32446">
        <ele>351.177979</ele>
        <time>2010-10-03T15:15:23Z</time>
      </trkpt>
      <trkpt lat="48.87838" lon="7.32435">
        <ele>351.631104</ele>
        <time>2010-10-03T15:15:29Z</time>
      </trkpt>
      <trkpt lat="48.8783" lon="7.32432">
        <ele>351.631104</ele>
        <time>2010-10-03T15:15:31Z</time>
      </trkpt>
      <trkpt lat="48.87817" lon="7.32419">
        <ele>350.490479</ele>
        <time>2010-10-03T15:15:34Z</time>
      </trkpt>
      <trkpt lat="48.87804" lon="7.32409">
        <ele>349.709229</ele>
        <time>2010-10-03T15:15:37Z</time>
      </trkpt>
      <trkpt lat="48.87792" lon="7.32397">
        <ele>348.920166</ele>
        <time>2010-10-03T15:15:40Z</time>
      </trkpt>
      <trkpt lat="48.87777" lon="7.32393">
        <ele>349.599854</ele>
        <time>2010-10-03T15:15:44Z</time>
      </trkpt>
      <trkpt lat="48.87748" lon="7.3237">
        <ele>350.974854</ele>
        <time>2010-10-03T15:15:49Z</time>
      </trkpt>
      <trkpt lat="48.87744" lon="7.32365">
        <ele>351.162354</ele>
        <time>2010-10-03T15:15:50Z</time>
      </trkpt>
      <trkpt lat="48.87739" lon="7.32357">
        <ele>351.177979</ele>
        <time>2010-10-03T15:15:51Z</time>
      </trkpt>
      <trkpt lat="48.87732" lon="7.32351">
        <ele>351.115479</ele>
        <time>2010-10-03T15:15:52Z</time>
      </trkpt>
      <trkpt lat="48.87726" lon="7.32347">
        <ele>351.037354</ele>
        <time>2010-10-03T15:15:53Z</time>
      </trkpt>
      <trkpt lat="48.87709" lon="7.32346">
        <ele>349.006104</ele>
        <time>2010-10-03T15:15:54Z</time>
      </trkpt>
      <trkpt lat="48.87688" lon="7.32328">
        <ele>346.670166</ele>
        <time>2010-10-03T15:15:59Z</time>
      </trkpt>
      <trkpt lat="48.87684" lon="7.32322">
        <ele>346.482666</ele>
        <time>2010-10-03T15:16:00Z</time>
      </trkpt>
      <trkpt lat="48.87665" lon="7.32304">
        <ele>342.920166</ele>
        <time>2010-10-03T15:16:06Z</time>
      </trkpt>
      <trkpt lat="48.87653" lon="7.32299">
        <ele>341.443604</ele>
        <time>2010-10-03T15:16:09Z</time>
      </trkpt>
      <trkpt lat="48.87639" lon="7.32298">
        <ele>339.482666</ele>
        <time>2010-10-03T15:16:12Z</time>
      </trkpt>
      <trkpt lat="48.87611" lon="7.32285">
        <ele>336.842041</ele>
        <time>2010-10-03T15:16:21Z</time>
      </trkpt>
      <trkpt lat="48.87606" lon="7.3228">
        <ele>336.662354</ele>
        <time>2010-10-03T15:16:22Z</time>
      </trkpt>
      <trkpt lat="48.876" lon="7.32277">
        <ele>336.576416</ele>
        <time>2010-10-03T15:16:23Z</time>
      </trkpt>
      <trkpt lat="48.87595" lon="7.32278">
        <ele>335.935791</ele>
        <time>2010-10-03T15:16:24Z</time>
      </trkpt>
      <trkpt lat="48.8759" lon="7.32276">
        <ele>335.490479</ele>
        <time>2010-10-03T15:16:25Z</time>
      </trkpt>
      <trkpt lat="48.87577" lon="7.32267">
        <ele>333.748291</ele>
        <time>2010-10-03T15:16:29Z</time>
      </trkpt>
      <trkpt lat="48.87572" lon="7.32262">
        <ele>333.271729</ele>
        <time>2010-10-03T15:16:31Z</time>
      </trkpt>
      <trkpt lat="48.87565" lon="7.32257">
        <ele>333.021729</ele>
        <time>2010-10-03T15:16:33Z</time>
      </trkpt>
      <trkpt lat="48.87537" lon="7.32247">
        <ele>332.326416</ele>
        <time>2010-10-03T15:16:39Z</time>
      </trkpt>
      <trkpt lat="48.87526" lon="7.32236">
        <ele>331.670166</ele>
        <time>2010-10-03T15:16:43Z</time>
      </trkpt>
      <trkpt lat="48.87516" lon="7.32231">
        <ele>332.490479</ele>
        <time>2010-10-03T15:16:49Z</time>
      </trkpt>
      <trkpt lat="48.87507" lon="7.32224">
        <ele>334.131104</ele>
        <time>2010-10-03T15:16:56Z</time>
      </trkpt>
      <trkpt lat="48.87504" lon="7.32218">
        <ele>334.982666</ele>
        <time>2010-10-03T15:17:08Z</time>
      </trkpt>
      <trkpt lat="48.87488" lon="7.32199">
        <ele>338.670166</ele>
        <time>2010-10-03T15:17:18Z</time>
      </trkpt>
      <trkpt lat="48.87479" lon="7.32185">
        <ele>342.779541</ele>
        <time>2010-10-03T15:17:26Z</time>
      </trkpt>
      <trkpt lat="48.87477" lon="7.32179">
        <ele>343.529541</ele>
        <time>2010-10-03T15:17:29Z</time>
      </trkpt>
      <trkpt lat="48.87473" lon="7.32172">
        <ele>342.990479</ele>
        <time>2010-10-03T15:17:32Z</time>
      </trkpt>
      <trkpt lat="48.87465" lon="7.32169">
        <ele>343.537354</ele>
        <time>2010-10-03T15:17:35Z</time>
      </trkpt>
      <trkpt lat="48.87461" lon="7.32165">
        <ele>344.506104</ele>
        <time>2010-10-03T15:17:38Z</time>
      </trkpt>
      <trkpt lat="48.87457" lon="7.32156">
        <ele>344.451416</ele>
        <time>2010-10-03T15:17:43Z</time>
      </trkpt>
      <trkpt lat="48.87452" lon="7.32151">
        <ele>343.998291</ele>
        <time>2010-10-03T15:17:48Z</time>
      </trkpt>
      <trkpt lat="48.87448" lon="7.32147">
        <ele>344.295166</ele>
        <time>2010-10-03T15:17:51Z</time>
      </trkpt>
      <trkpt lat="48.87445" lon="7.32141">
        <ele>344.334229</ele>
        <time>2010-10-03T15:17:54Z</time>
      </trkpt>
      <trkpt lat="48.87441" lon="7.32137">
        <ele>344.318604</ele>
        <time>2010-10-03T15:17:58Z</time>
      </trkpt>
      <trkpt lat="48.87438" lon="7.3213">
        <ele>345.045166</ele>
        <time>2010-10-03T15:18:05Z</time>
      </trkpt>
      <trkpt lat="48.87431" lon="7.32119">
        <ele>346.787354</ele>
        <time>2010-10-03T15:18:15Z</time>
      </trkpt>
      <trkpt lat="48.87427" lon="7.32115">
        <ele>347.107666</ele>
        <time>2010-10-03T15:18:19Z</time>
      </trkpt>
      <trkpt lat="48.87423" lon="7.32107">
        <ele>346.740479</ele>
        <time>2010-10-03T15:18:23Z</time>
      </trkpt>
      <trkpt lat="48.87421" lon="7.321">
        <ele>345.498291</ele>
        <time>2010-10-03T15:18:28Z</time>
      </trkpt>
      <trkpt lat="48.8742" lon="7.32093">
        <ele>344.334229</ele>
        <time>2010-10-03T15:18:31Z</time>
      </trkpt>
      <trkpt lat="48.87416" lon="7.32091">
        <ele>344.060791</ele>
        <time>2010-10-03T15:18:33Z</time>
      </trkpt>
      <trkpt lat="48.87412" lon="7.32086">
        <ele>344.177979</ele>
        <time>2010-10-03T15:18:35Z</time>
      </trkpt>
      <trkpt lat="48.8741" lon="7.32079">
        <ele>343.435791</ele>
        <time>2010-10-03T15:18:42Z</time>
      </trkpt>
      <trkpt lat="48.87404" lon="7.32074">
        <ele>344.615479</ele>
        <time>2010-10-03T15:18:51Z</time>
      </trkpt>
      <trkpt lat="48.87395" lon="7.3207">
        <ele>344.834229</ele>
        <time>2010-10-03T15:18:54Z</time>
      </trkpt>
      <trkpt lat="48.87392" lon="7.32064">
        <ele>344.732666</ele>
        <time>2010-10-03T15:18:59Z</time>
      </trkpt>
      <trkpt lat="48.87384" lon="7.32054">
        <ele>344.467041</ele>
        <time>2010-10-03T15:19:05Z</time>
      </trkpt>
      <trkpt lat="48.87371" lon="7.32044">
        <ele>348.037354</ele>
        <time>2010-10-03T15:19:17Z</time>
      </trkpt>
      <trkpt lat="48.87366" lon="7.32032">
        <ele>350.170166</ele>
        <time>2010-10-03T15:19:26Z</time>
      </trkpt>
      <trkpt lat="48.87357" lon="7.32024">
        <ele>351.529541</ele>
        <time>2010-10-03T15:19:34Z</time>
      </trkpt>
      <trkpt lat="48.87346" lon="7.3201">
        <ele>352.529541</ele>
        <time>2010-10-03T15:19:46Z</time>
      </trkpt>
      <trkpt lat="48.87342" lon="7.32003">
        <ele>352.099854</ele>
        <time>2010-10-03T15:19:49Z</time>
      </trkpt>
      <trkpt lat="48.87329" lon="7.31991">
        <ele>356.326416</ele>
        <time>2010-10-03T15:20:01Z</time>
      </trkpt>
      <trkpt lat="48.87326" lon="7.31984">
        <ele>357.513916</ele>
        <time>2010-10-03T15:20:04Z</time>
      </trkpt>
      <trkpt lat="48.87314" lon="7.31971">
        <ele>358.342041</ele>
        <time>2010-10-03T15:20:17Z</time>
      </trkpt>
      <trkpt lat="48.87312" lon="7.31966">
        <ele>360.045166</ele>
        <time>2010-10-03T15:20:21Z</time>
      </trkpt>
      <trkpt lat="48.87304" lon="7.31956">
        <ele>363.037354</ele>
        <time>2010-10-03T15:20:30Z</time>
      </trkpt>
      <trkpt lat="48.87301" lon="7.3195">
        <ele>366.318604</ele>
        <time>2010-10-03T15:20:34Z</time>
      </trkpt>
      <trkpt lat="48.87297" lon="7.31946">
        <ele>365.545166</ele>
        <time>2010-10-03T15:20:38Z</time>
      </trkpt>
      <trkpt lat="48.87292" lon="7.31945">
        <ele>365.045166</ele>
        <time>2010-10-03T15:20:42Z</time>
      </trkpt>
      <trkpt lat="48.8728" lon="7.31928">
        <ele>366.771729</ele>
        <time>2010-10-03T15:20:53Z</time>
      </trkpt>
      <trkpt lat="48.8727" lon="7.31923">
        <ele>366.685791</ele>
        <time>2010-10-03T15:21:02Z</time>
      </trkpt>
      <trkpt lat="48.87249" lon="7.31899">
        <ele>366.849854</ele>
        <time>2010-10-03T15:21:16Z</time>
      </trkpt>
      <trkpt lat="48.87228" lon="7.3188">
        <ele>365.701416</ele>
        <time>2010-10-03T15:21:24Z</time>
      </trkpt>
      <trkpt lat="48.87211" lon="7.31868">
        <ele>364.818604</ele>
        <time>2010-10-03T15:21:30Z</time>
      </trkpt>
      <trkpt lat="48.8719" lon="7.31857">
        <ele>363.240479</ele>
        <time>2010-10-03T15:21:36Z</time>
      </trkpt>
      <trkpt lat="48.87145" lon="7.31838">
        <ele>359.029541</ele>
        <time>2010-10-03T15:21:48Z</time>
      </trkpt>
      <trkpt lat="48.87091" lon="7.31817">
        <ele>354.662354</ele>
        <time>2010-10-03T15:21:58Z</time>
      </trkpt>
      <trkpt lat="48.87063" lon="7.31803">
        <ele>352.849854</ele>
        <time>2010-10-03T15:22:02Z</time>
      </trkpt>
      <trkpt lat="48.87056" lon="7.31799">
        <ele>352.443604</ele>
        <time>2010-10-03T15:22:03Z</time>
      </trkpt>
      <trkpt lat="48.87034" lon="7.31781">
        <ele>351.904541</ele>
        <time>2010-10-03T15:22:06Z</time>
      </trkpt>
      <trkpt lat="48.87008" lon="7.31749">
        <ele>350.701416</ele>
        <time>2010-10-03T15:22:10Z</time>
      </trkpt>
      <trkpt lat="48.86989" lon="7.31724">
        <ele>350.662354</ele>
        <time>2010-10-03T15:22:13Z</time>
      </trkpt>
      <trkpt lat="48.86901" lon="7.31612">
        <ele>348.513916</ele>
        <time>2010-10-03T15:22:29Z</time>
      </trkpt>
      <trkpt lat="48.86885" lon="7.31597">
        <ele>347.795166</ele>
        <time>2010-10-03T15:22:32Z</time>
      </trkpt>
      <trkpt lat="48.86868" lon="7.31586">
        <ele>347.435791</ele>
        <time>2010-10-03T15:22:35Z</time>
      </trkpt>
      <trkpt lat="48.86851" lon="7.31582">
        <ele>347.623291</ele>
        <time>2010-10-03T15:22:38Z</time>
      </trkpt>
      <trkpt lat="48.86839" lon="7.31582">
        <ele>347.404541</ele>
        <time>2010-10-03T15:22:40Z</time>
      </trkpt>
      <trkpt lat="48.86827" lon="7.31585">
        <ele>347.482666</ele>
        <time>2010-10-03T15:22:42Z</time>
      </trkpt>
      <trkpt lat="48.86811" lon="7.31593">
        <ele>347.404541</ele>
        <time>2010-10-03T15:22:45Z</time>
      </trkpt>
      <trkpt lat="48.86738" lon="7.3164">
        <ele>348.623291</ele>
        <time>2010-10-03T15:23:00Z</time>
      </trkpt>
      <trkpt lat="48.86711" lon="7.31653">
        <ele>349.545166</ele>
        <time>2010-10-03T15:23:06Z</time>
      </trkpt>
      <trkpt lat="48.8667" lon="7.31667">
        <ele>350.482666</ele>
        <time>2010-10-03T15:23:15Z</time>
      </trkpt>
      <trkpt lat="48.8663" lon="7.31678">
        <ele>352.107666</ele>
        <time>2010-10-03T15:23:24Z</time>
      </trkpt>
      <trkpt lat="48.86523" lon="7.31697">
        <ele>352.232666</ele>
        <time>2010-10-03T15:23:48Z</time>
      </trkpt>
      <trkpt lat="48.86512" lon="7.31701">
        <ele>351.498291</ele>
        <time>2010-10-03T15:23:50Z</time>
      </trkpt>
      <trkpt lat="48.86449" lon="7.31733">
        <ele>347.576416</ele>
        <time>2010-10-03T15:24:01Z</time>
      </trkpt>
      <trkpt lat="48.86438" lon="7.31743">
        <ele>347.482666</ele>
        <time>2010-10-03T15:24:03Z</time>
      </trkpt>
      <trkpt lat="48.86434" lon="7.3175">
        <ele>347.248291</ele>
        <time>2010-10-03T15:24:04Z</time>
      </trkpt>
      <trkpt lat="48.8643" lon="7.31758">
        <ele>347.013916</ele>
        <time>2010-10-03T15:24:05Z</time>
      </trkpt>
      <trkpt lat="48.86424" lon="7.31776">
        <ele>346.201416</ele>
        <time>2010-10-03T15:24:07Z</time>
      </trkpt>
      <trkpt lat="48.86418" lon="7.31813">
        <ele>343.631104</ele>
        <time>2010-10-03T15:24:11Z</time>
      </trkpt>
      <trkpt lat="48.86414" lon="7.31832">
        <ele>342.365479</ele>
        <time>2010-10-03T15:24:13Z</time>
      </trkpt>
      <trkpt lat="48.86411" lon="7.31841">
        <ele>341.795166</ele>
        <time>2010-10-03T15:24:14Z</time>
      </trkpt>
      <trkpt lat="48.86397" lon="7.31869">
        <ele>339.513916</ele>
        <time>2010-10-03T15:24:17Z</time>
      </trkpt>
      <trkpt lat="48.86371" lon="7.31904">
        <ele>336.349854</ele>
        <time>2010-10-03T15:24:22Z</time>
      </trkpt>
      <trkpt lat="48.86365" lon="7.31908">
        <ele>335.967041</ele>
        <time>2010-10-03T15:24:23Z</time>
      </trkpt>
      <trkpt lat="48.86361" lon="7.31914">
        <ele>334.576416</ele>
        <time>2010-10-03T15:24:24Z</time>
      </trkpt>
      <trkpt lat="48.86356" lon="7.31918">
        <ele>333.732666</ele>
        <time>2010-10-03T15:24:25Z</time>
      </trkpt>
      <trkpt lat="48.8635" lon="7.3192">
        <ele>332.951416</ele>
        <time>2010-10-03T15:24:26Z</time>
      </trkpt>
      <trkpt lat="48.86311" lon="7.31929">
        <ele>332.396729</ele>
        <time>2010-10-03T15:24:32Z</time>
      </trkpt>
      <trkpt lat="48.86299" lon="7.31926">
        <ele>332.232666</ele>
        <time>2010-10-03T15:24:35Z</time>
      </trkpt>
      <trkpt lat="48.86294" lon="7.31919">
        <ele>330.904541</ele>
        <time>2010-10-03T15:24:37Z</time>
      </trkpt>
      <trkpt lat="48.86291" lon="7.31911">
        <ele>332.693604</ele>
        <time>2010-10-03T15:24:40Z</time>
      </trkpt>
      <trkpt lat="48.86282" lon="7.319">
        <ele>332.834229</ele>
        <time>2010-10-03T15:24:46Z</time>
      </trkpt>
      <trkpt lat="48.8628" lon="7.31894">
        <ele>335.631104</ele>
        <time>2010-10-03T15:25:17Z</time>
      </trkpt>
      <trkpt lat="48.86281" lon="7.31888">
        <ele>338.443604</ele>
        <time>2010-10-03T15:25:28Z</time>
      </trkpt>
      <trkpt lat="48.86285" lon="7.31887">
        <ele>341.513916</ele>
        <time>2010-10-03T15:35:45Z</time>
      </trkpt>
      <trkpt lat="48.86283" lon="7.31893">
        <ele>340.920166</ele>
        <time>2010-10-03T15:36:15Z</time>
      </trkpt>
      <trkpt lat="48.86286" lon="7.31897">
        <ele>343.810791</ele>
        <time>2010-10-03T15:37:22Z</time>
      </trkpt>
      <trkpt lat="48.86278" lon="7.31908">
        <ele>343.599854</ele>
        <time>2010-10-03T15:37:41Z</time>
      </trkpt>
      <trkpt lat="48.86268" lon="7.3192">
        <ele>342.795166</ele>
        <time>2010-10-03T15:37:45Z</time>
      </trkpt>
      <trkpt lat="48.8625" lon="7.31937">
        <ele>341.545166</ele>
        <time>2010-10-03T15:37:51Z</time>
      </trkpt>
      <trkpt lat="48.86236" lon="7.31945">
        <ele>340.990479</ele>
        <time>2010-10-03T15:37:54Z</time>
      </trkpt>
      <trkpt lat="48.86208" lon="7.31959">
        <ele>339.732666</ele>
        <time>2010-10-03T15:38:00Z</time>
      </trkpt>
      <trkpt lat="48.86189" lon="7.31967">
        <ele>338.865479</ele>
        <time>2010-10-03T15:38:04Z</time>
      </trkpt>
      <trkpt lat="48.86156" lon="7.31977">
        <ele>337.146729</ele>
        <time>2010-10-03T15:38:10Z</time>
      </trkpt>
      <trkpt lat="48.8612" lon="7.31984">
        <ele>335.029541</ele>
        <time>2010-10-03T15:38:16Z</time>
      </trkpt>
      <trkpt lat="48.86107" lon="7.31989">
        <ele>333.920166</ele>
        <time>2010-10-03T15:38:18Z</time>
      </trkpt>
      <trkpt lat="48.86092" lon="7.31999">
        <ele>332.763916</ele>
        <time>2010-10-03T15:38:20Z</time>
      </trkpt>
      <trkpt lat="48.86078" lon="7.32013">
        <ele>331.349854</ele>
        <time>2010-10-03T15:38:22Z</time>
      </trkpt>
      <trkpt lat="48.86055" lon="7.3204">
        <ele>329.545166</ele>
        <time>2010-10-03T15:38:25Z</time>
      </trkpt>
      <trkpt lat="48.86047" lon="7.32047">
        <ele>328.834229</ele>
        <time>2010-10-03T15:38:26Z</time>
      </trkpt>
      <trkpt lat="48.86026" lon="7.32057">
        <ele>327.349854</ele>
        <time>2010-10-03T15:38:28Z</time>
      </trkpt>
      <trkpt lat="48.86016" lon="7.32061">
        <ele>326.943604</ele>
        <time>2010-10-03T15:38:29Z</time>
      </trkpt>
      <trkpt lat="48.85975" lon="7.32066">
        <ele>325.888916</ele>
        <time>2010-10-03T15:38:33Z</time>
      </trkpt>
      <trkpt lat="48.85966" lon="7.32069">
        <ele>325.732666</ele>
        <time>2010-10-03T15:38:34Z</time>
      </trkpt>
      <trkpt lat="48.85957" lon="7.32074">
        <ele>325.974854</ele>
        <time>2010-10-03T15:38:35Z</time>
      </trkpt>
      <trkpt lat="48.85941" lon="7.3208">
        <ele>326.623291</ele>
        <time>2010-10-03T15:38:37Z</time>
      </trkpt>
      <trkpt lat="48.85921" lon="7.32087">
        <ele>327.287354</ele>
        <time>2010-10-03T15:38:40Z</time>
      </trkpt>
      <trkpt lat="48.85896" lon="7.32089">
        <ele>327.748291</ele>
        <time>2010-10-03T15:38:44Z</time>
      </trkpt>
      <trkpt lat="48.85877" lon="7.32088">
        <ele>327.904541</ele>
        <time>2010-10-03T15:38:47Z</time>
      </trkpt>
      <trkpt lat="48.85807" lon="7.32072">
        <ele>328.459229</ele>
        <time>2010-10-03T15:38:59Z</time>
      </trkpt>
      <trkpt lat="48.85796" lon="7.32068">
        <ele>328.193604</ele>
        <time>2010-10-03T15:39:01Z</time>
      </trkpt>
      <trkpt lat="48.85785" lon="7.32062">
        <ele>327.927979</ele>
        <time>2010-10-03T15:39:03Z</time>
      </trkpt>
      <trkpt lat="48.85774" lon="7.32053">
        <ele>327.748291</ele>
        <time>2010-10-03T15:39:05Z</time>
      </trkpt>
      <trkpt lat="48.85764" lon="7.32042">
        <ele>327.685791</ele>
        <time>2010-10-03T15:39:07Z</time>
      </trkpt>
      <trkpt lat="48.85737" lon="7.31997">
        <ele>327.951416</ele>
        <time>2010-10-03T15:39:14Z</time>
      </trkpt>
      <trkpt lat="48.85729" lon="7.31988">
        <ele>328.318604</ele>
        <time>2010-10-03T15:39:16Z</time>
      </trkpt>
      <trkpt lat="48.85725" lon="7.31985">
        <ele>328.427979</ele>
        <time>2010-10-03T15:39:17Z</time>
      </trkpt>
      <trkpt lat="48.85716" lon="7.31982">
        <ele>328.717041</ele>
        <time>2010-10-03T15:39:19Z</time>
      </trkpt>
      <trkpt lat="48.85695" lon="7.31979">
        <ele>329.912354</ele>
        <time>2010-10-03T15:39:24Z</time>
      </trkpt>
      <trkpt lat="48.85683" lon="7.31982">
        <ele>331.982666</ele>
        <time>2010-10-03T15:39:28Z</time>
      </trkpt>
      <trkpt lat="48.85647" lon="7.32">
        <ele>331.326416</ele>
        <time>2010-10-03T15:39:40Z</time>
      </trkpt>
      <trkpt lat="48.85638" lon="7.32004">
        <ele>330.826416</ele>
        <time>2010-10-03T15:39:42Z</time>
      </trkpt>
      <trkpt lat="48.8562" lon="7.32008">
        <ele>329.021729</ele>
        <time>2010-10-03T15:39:46Z</time>
      </trkpt>
      <trkpt lat="48.85592" lon="7.32008">
        <ele>327.881104</ele>
        <time>2010-10-03T15:39:50Z</time>
      </trkpt>
      <trkpt lat="48.85577" lon="7.32006">
        <ele>326.404541</ele>
        <time>2010-10-03T15:39:52Z</time>
      </trkpt>
      <trkpt lat="48.85559" lon="7.32006">
        <ele>325.451416</ele>
        <time>2010-10-03T15:39:54Z</time>
      </trkpt>
      <trkpt lat="48.85542" lon="7.32009">
        <ele>324.927979</ele>
        <time>2010-10-03T15:39:56Z</time>
      </trkpt>
      <trkpt lat="48.85532" lon="7.32012">
        <ele>324.498291</ele>
        <time>2010-10-03T15:39:57Z</time>
      </trkpt>
      <trkpt lat="48.85505" lon="7.32024">
        <ele>324.162354</ele>
        <time>2010-10-03T15:40:00Z</time>
      </trkpt>
      <trkpt lat="48.85486" lon="7.32036">
        <ele>323.927979</ele>
        <time>2010-10-03T15:40:02Z</time>
      </trkpt>
      <trkpt lat="48.85463" lon="7.3206">
        <ele>323.037354</ele>
        <time>2010-10-03T15:40:05Z</time>
      </trkpt>
      <trkpt lat="48.85455" lon="7.32066">
        <ele>322.677979</ele>
        <time>2010-10-03T15:40:06Z</time>
      </trkpt>
      <trkpt lat="48.85444" lon="7.32072">
        <ele>322.388916</ele>
        <time>2010-10-03T15:40:07Z</time>
      </trkpt>
      <trkpt lat="48.85431" lon="7.32076">
        <ele>322.365479</ele>
        <time>2010-10-03T15:40:08Z</time>
      </trkpt>
      <trkpt lat="48.85421" lon="7.32076">
        <ele>322.326416</ele>
        <time>2010-10-03T15:40:09Z</time>
      </trkpt>
      <trkpt lat="48.854" lon="7.32073">
        <ele>322.099854</ele>
        <time>2010-10-03T15:40:11Z</time>
      </trkpt>
      <trkpt lat="48.8539" lon="7.32074">
        <ele>322.029541</ele>
        <time>2010-10-03T15:40:12Z</time>
      </trkpt>
      <trkpt lat="48.85382" lon="7.32077">
        <ele>321.849854</ele>
        <time>2010-10-03T15:40:13Z</time>
      </trkpt>
      <trkpt lat="48.85374" lon="7.32084">
        <ele>321.732666</ele>
        <time>2010-10-03T15:40:14Z</time>
      </trkpt>
      <trkpt lat="48.85367" lon="7.32094">
        <ele>321.756104</ele>
        <time>2010-10-03T15:40:15Z</time>
      </trkpt>
      <trkpt lat="48.85361" lon="7.32106">
        <ele>321.826416</ele>
        <time>2010-10-03T15:40:16Z</time>
      </trkpt>
      <trkpt lat="48.85356" lon="7.32118">
        <ele>321.646729</ele>
        <time>2010-10-03T15:40:17Z</time>
      </trkpt>
      <trkpt lat="48.85344" lon="7.32144">
        <ele>321.342041</ele>
        <time>2010-10-03T15:40:19Z</time>
      </trkpt>
      <trkpt lat="48.85316" lon="7.32198">
        <ele>321.224854</ele>
        <time>2010-10-03T15:40:23Z</time>
      </trkpt>
      <trkpt lat="48.853" lon="7.32217">
        <ele>320.529541</ele>
        <time>2010-10-03T15:40:25Z</time>
      </trkpt>
      <trkpt lat="48.8529" lon="7.32223">
        <ele>319.045166</ele>
        <time>2010-10-03T15:40:26Z</time>
      </trkpt>
      <trkpt lat="48.85277" lon="7.32224">
        <ele>313.654541</ele>
        <time>2010-10-03T15:40:27Z</time>
      </trkpt>
      <trkpt lat="48.85266" lon="7.3222">
        <ele>312.920166</ele>
        <time>2010-10-03T15:40:28Z</time>
      </trkpt>
      <trkpt lat="48.85256" lon="7.32212">
        <ele>311.404541</ele>
        <time>2010-10-03T15:40:29Z</time>
      </trkpt>
      <trkpt lat="48.85235" lon="7.32192">
        <ele>308.787354</ele>
        <time>2010-10-03T15:40:31Z</time>
      </trkpt>
      <trkpt lat="48.85216" lon="7.32171">
        <ele>305.490479</ele>
        <time>2010-10-03T15:40:33Z</time>
      </trkpt>
      <trkpt lat="48.85189" lon="7.32139">
        <ele>303.217041</ele>
        <time>2010-10-03T15:40:36Z</time>
      </trkpt>
      <trkpt lat="48.85165" lon="7.32103">
        <ele>300.677979</ele>
        <time>2010-10-03T15:40:39Z</time>
      </trkpt>
      <trkpt lat="48.85125" lon="7.32035">
        <ele>295.052979</ele>
        <time>2010-10-03T15:40:44Z</time>
      </trkpt>
      <trkpt lat="48.85119" lon="7.3202">
        <ele>294.084229</ele>
        <time>2010-10-03T15:40:45Z</time>
      </trkpt>
      <trkpt lat="48.85102" lon="7.31993">
        <ele>292.138916</ele>
        <time>2010-10-03T15:40:47Z</time>
      </trkpt>
      <trkpt lat="48.85085" lon="7.31969">
        <ele>290.185791</ele>
        <time>2010-10-03T15:40:49Z</time>
      </trkpt>
      <trkpt lat="48.85067" lon="7.31945">
        <ele>288.193604</ele>
        <time>2010-10-03T15:40:51Z</time>
      </trkpt>
      <trkpt lat="48.85058" lon="7.31933">
        <ele>287.279541</ele>
        <time>2010-10-03T15:40:52Z</time>
      </trkpt>
      <trkpt lat="48.85051" lon="7.3192">
        <ele>286.506104</ele>
        <time>2010-10-03T15:40:53Z</time>
      </trkpt>
      <trkpt lat="48.85033" lon="7.31897">
        <ele>284.982666</ele>
        <time>2010-10-03T15:40:55Z</time>
      </trkpt>
      <trkpt lat="48.85019" lon="7.3187">
        <ele>283.427979</ele>
        <time>2010-10-03T15:40:57Z</time>
      </trkpt>
      <trkpt lat="48.8501" lon="7.31857">
        <ele>282.615479</ele>
        <time>2010-10-03T15:40:58Z</time>
      </trkpt>
      <trkpt lat="48.85002" lon="7.31842">
        <ele>282.045166</ele>
        <time>2010-10-03T15:40:59Z</time>
      </trkpt>
      <trkpt lat="48.84992" lon="7.31828">
        <ele>280.904541</ele>
        <time>2010-10-03T15:41:00Z</time>
      </trkpt>
      <trkpt lat="48.84984" lon="7.31813">
        <ele>279.888916</ele>
        <time>2010-10-03T15:41:01Z</time>
      </trkpt>
      <trkpt lat="48.84975" lon="7.31799">
        <ele>279.256104</ele>
        <time>2010-10-03T15:41:02Z</time>
      </trkpt>
      <trkpt lat="48.84966" lon="7.31788">
        <ele>279.263916</ele>
        <time>2010-10-03T15:41:03Z</time>
      </trkpt>
      <trkpt lat="48.84954" lon="7.3178">
        <ele>278.904541</ele>
        <time>2010-10-03T15:41:04Z</time>
      </trkpt>
      <trkpt lat="48.84919" lon="7.31763">
        <ele>277.381104</ele>
        <time>2010-10-03T15:41:07Z</time>
      </trkpt>
      <trkpt lat="48.84886" lon="7.31737">
        <ele>275.693604</ele>
        <time>2010-10-03T15:41:10Z</time>
      </trkpt>
      <trkpt lat="48.84874" lon="7.31732">
        <ele>275.185791</ele>
        <time>2010-10-03T15:41:11Z</time>
      </trkpt>
      <trkpt lat="48.8483" lon="7.31709">
        <ele>271.248291</ele>
        <time>2010-10-03T15:41:15Z</time>
      </trkpt>
      <trkpt lat="48.84798" lon="7.31686">
        <ele>267.951416</ele>
        <time>2010-10-03T15:41:18Z</time>
      </trkpt>
      <trkpt lat="48.84779" lon="7.31669">
        <ele>267.170166</ele>
        <time>2010-10-03T15:41:20Z</time>
      </trkpt>
      <trkpt lat="48.84765" lon="7.31659">
        <ele>266.443604</ele>
        <time>2010-10-03T15:41:22Z</time>
      </trkpt>
      <trkpt lat="48.84758" lon="7.31656">
        <ele>266.068604</ele>
        <time>2010-10-03T15:41:23Z</time>
      </trkpt>
      <trkpt lat="48.84751" lon="7.31658">
        <ele>265.623291</ele>
        <time>2010-10-03T15:41:24Z</time>
      </trkpt>
      <trkpt lat="48.84745" lon="7.31666">
        <ele>265.302979</ele>
        <time>2010-10-03T15:41:25Z</time>
      </trkpt>
      <trkpt lat="48.84743" lon="7.31674">
        <ele>264.623291</ele>
        <time>2010-10-03T15:41:26Z</time>
      </trkpt>
      <trkpt lat="48.84745" lon="7.31683">
        <ele>262.974854</ele>
        <time>2010-10-03T15:41:27Z</time>
      </trkpt>
      <trkpt lat="48.84748" lon="7.31695">
        <ele>262.842041</ele>
        <time>2010-10-03T15:41:28Z</time>
      </trkpt>
      <trkpt lat="48.84754" lon="7.31706">
        <ele>262.857666</ele>
        <time>2010-10-03T15:41:29Z</time>
      </trkpt>
      <trkpt lat="48.84766" lon="7.31722">
        <ele>262.787354</ele>
        <time>2010-10-03T15:41:31Z</time>
      </trkpt>
      <trkpt lat="48.84884" lon="7.31859">
        <ele>258.717041</ele>
        <time>2010-10-03T15:41:45Z</time>
      </trkpt>
      <trkpt lat="48.84892" lon="7.3187">
        <ele>258.177979</ele>
        <time>2010-10-03T15:41:46Z</time>
      </trkpt>
      <trkpt lat="48.849" lon="7.31883">
        <ele>257.748291</ele>
        <time>2010-10-03T15:41:47Z</time>
      </trkpt>
      <trkpt lat="48.84907" lon="7.31896">
        <ele>257.349854</ele>
        <time>2010-10-03T15:41:48Z</time>
      </trkpt>
      <trkpt lat="48.8497" lon="7.32061">
        <ele>252.026489</ele>
        <time>2010-10-03T15:41:59Z</time>
      </trkpt>
      <trkpt lat="48.84976" lon="7.32075">
        <ele>251.221802</ele>
        <time>2010-10-03T15:42:00Z</time>
      </trkpt>
      <trkpt lat="48.84987" lon="7.32101">
        <ele>249.862427</ele>
        <time>2010-10-03T15:42:02Z</time>
      </trkpt>
      <trkpt lat="48.84991" lon="7.32113">
        <ele>249.124146</ele>
        <time>2010-10-03T15:42:03Z</time>
      </trkpt>
      <trkpt lat="48.84992" lon="7.32127">
        <ele>247.292114</ele>
        <time>2010-10-03T15:42:04Z</time>
      </trkpt>
      <trkpt lat="48.84988" lon="7.32138">
        <ele>247.171021</ele>
        <time>2010-10-03T15:42:05Z</time>
      </trkpt>
      <trkpt lat="48.84982" lon="7.32146">
        <ele>246.741333</ele>
        <time>2010-10-03T15:42:06Z</time>
      </trkpt>
      <trkpt lat="48.84974" lon="7.32147">
        <ele>246.616333</ele>
        <time>2010-10-03T15:42:07Z</time>
      </trkpt>
      <trkpt lat="48.84966" lon="7.32143">
        <ele>245.932739</ele>
        <time>2010-10-03T15:42:08Z</time>
      </trkpt>
      <trkpt lat="48.84861" lon="7.32021">
        <ele>236.639771</ele>
        <time>2010-10-03T15:42:21Z</time>
      </trkpt>
      <trkpt lat="48.8483" lon="7.31983">
        <ele>235.124146</ele>
        <time>2010-10-03T15:42:25Z</time>
      </trkpt>
      <trkpt lat="48.84757" lon="7.31901">
        <ele>227.725708</ele>
        <time>2010-10-03T15:42:34Z</time>
      </trkpt>
      <trkpt lat="48.84711" lon="7.31846">
        <ele>222.534302</ele>
        <time>2010-10-03T15:42:40Z</time>
      </trkpt>
      <trkpt lat="48.84665" lon="7.31795">
        <ele>218.682739</ele>
        <time>2010-10-03T15:42:46Z</time>
      </trkpt>
      <trkpt lat="48.84649" lon="7.3178">
        <ele>217.604614</ele>
        <time>2010-10-03T15:42:48Z</time>
      </trkpt>
      <trkpt lat="48.84639" lon="7.31775">
        <ele>216.960083</ele>
        <time>2010-10-03T15:42:49Z</time>
      </trkpt>
      <trkpt lat="48.84621" lon="7.31768">
        <ele>215.924927</ele>
        <time>2010-10-03T15:42:51Z</time>
      </trkpt>
      <trkpt lat="48.84612" lon="7.31767">
        <ele>216.292114</ele>
        <time>2010-10-03T15:42:52Z</time>
      </trkpt>
      <trkpt lat="48.84592" lon="7.31769">
        <ele>215.292114</ele>
        <time>2010-10-03T15:42:54Z</time>
      </trkpt>
      <trkpt lat="48.84573" lon="7.31774">
        <ele>214.979614</ele>
        <time>2010-10-03T15:42:56Z</time>
      </trkpt>
      <trkpt lat="48.84554" lon="7.31781">
        <ele>214.405396</ele>
        <time>2010-10-03T15:42:58Z</time>
      </trkpt>
      <trkpt lat="48.84535" lon="7.31783">
        <ele>214.112427</ele>
        <time>2010-10-03T15:43:00Z</time>
      </trkpt>
      <trkpt lat="48.84526" lon="7.31783">
        <ele>214.120239</ele>
        <time>2010-10-03T15:43:01Z</time>
      </trkpt>
      <trkpt lat="48.84517" lon="7.3178">
        <ele>213.952271</ele>
        <time>2010-10-03T15:43:02Z</time>
      </trkpt>
      <trkpt lat="48.84487" lon="7.31768">
        <ele>213.338989</ele>
        <time>2010-10-03T15:43:06Z</time>
      </trkpt>
      <trkpt lat="48.84474" lon="7.31759">
        <ele>212.952271</ele>
        <time>2010-10-03T15:43:08Z</time>
      </trkpt>
      <trkpt lat="48.84468" lon="7.31753">
        <ele>212.686646</ele>
        <time>2010-10-03T15:43:09Z</time>
      </trkpt>
      <trkpt lat="48.84439" lon="7.31735">
        <ele>213.171021</ele>
        <time>2010-10-03T15:43:14Z</time>
      </trkpt>
      <trkpt lat="48.84424" lon="7.31722">
        <ele>213.186646</ele>
        <time>2010-10-03T15:43:17Z</time>
      </trkpt>
      <trkpt lat="48.84405" lon="7.31702">
        <ele>212.729614</ele>
        <time>2010-10-03T15:43:21Z</time>
      </trkpt>
      <trkpt lat="48.84374" lon="7.31664">
        <ele>211.561646</ele>
        <time>2010-10-03T15:43:28Z</time>
      </trkpt>
      <trkpt lat="48.84359" lon="7.3165">
        <ele>211.264771</ele>
        <time>2010-10-03T15:43:31Z</time>
      </trkpt>
      <trkpt lat="48.84349" lon="7.31641">
        <ele>210.932739</ele>
        <time>2010-10-03T15:43:33Z</time>
      </trkpt>
      <trkpt lat="48.84326" lon="7.31633">
        <ele>210.432739</ele>
        <time>2010-10-03T15:43:37Z</time>
      </trkpt>
      <trkpt lat="48.84308" lon="7.31635">
        <ele>209.913208</ele>
        <time>2010-10-03T15:43:40Z</time>
      </trkpt>
      <trkpt lat="48.84276" lon="7.31641">
        <ele>208.409302</ele>
        <time>2010-10-03T15:43:45Z</time>
      </trkpt>
      <trkpt lat="48.84263" lon="7.3164">
        <ele>208.069458</ele>
        <time>2010-10-03T15:43:47Z</time>
      </trkpt>
      <trkpt lat="48.84256" lon="7.31637">
        <ele>208.065552</ele>
        <time>2010-10-03T15:43:48Z</time>
      </trkpt>
      <trkpt lat="48.84238" lon="7.31625">
        <ele>207.542114</ele>
        <time>2010-10-03T15:43:51Z</time>
      </trkpt>
      <trkpt lat="48.84232" lon="7.31619">
        <ele>207.421021</ele>
        <time>2010-10-03T15:43:52Z</time>
      </trkpt>
      <trkpt lat="48.842" lon="7.31572">
        <ele>206.440552</ele>
        <time>2010-10-03T15:43:59Z</time>
      </trkpt>
      <trkpt lat="48.84189" lon="7.31559">
        <ele>206.241333</ele>
        <time>2010-10-03T15:44:01Z</time>
      </trkpt>
      <trkpt lat="48.8418" lon="7.31545">
        <ele>205.987427</ele>
        <time>2010-10-03T15:44:03Z</time>
      </trkpt>
      <trkpt lat="48.84151" lon="7.31507">
        <ele>206.831177</ele>
        <time>2010-10-03T15:44:09Z</time>
      </trkpt>
      <trkpt lat="48.84148" lon="7.31499">
        <ele>207.331177</ele>
        <time>2010-10-03T15:44:10Z</time>
      </trkpt>
      <trkpt lat="48.8414" lon="7.31487">
        <ele>208.245239</ele>
        <time>2010-10-03T15:44:12Z</time>
      </trkpt>
      <trkpt lat="48.8413" lon="7.31477">
        <ele>209.120239</ele>
        <time>2010-10-03T15:44:14Z</time>
      </trkpt>
      <trkpt lat="48.841" lon="7.31438">
        <ele>212.690552</ele>
        <time>2010-10-03T15:44:21Z</time>
      </trkpt>
      <trkpt lat="48.8409" lon="7.31428">
        <ele>214.335083</ele>
        <time>2010-10-03T15:44:23Z</time>
      </trkpt>
      <trkpt lat="48.84073" lon="7.31406">
        <ele>217.116333</ele>
        <time>2010-10-03T15:44:27Z</time>
      </trkpt>
      <trkpt lat="48.8407" lon="7.31398">
        <ele>217.667114</ele>
        <time>2010-10-03T15:44:28Z</time>
      </trkpt>
      <trkpt lat="48.84062" lon="7.31386">
        <ele>219.112427</ele>
        <time>2010-10-03T15:44:30Z</time>
      </trkpt>
      <trkpt lat="48.84051" lon="7.31375">
        <ele>220.756958</ele>
        <time>2010-10-03T15:44:32Z</time>
      </trkpt>
      <trkpt lat="48.84035" lon="7.31351">
        <ele>224.229614</ele>
        <time>2010-10-03T15:44:36Z</time>
      </trkpt>
      <trkpt lat="48.84026" lon="7.31341">
        <ele>226.014771</ele>
        <time>2010-10-03T15:44:38Z</time>
      </trkpt>
      <trkpt lat="48.84021" lon="7.31334">
        <ele>226.768677</ele>
        <time>2010-10-03T15:44:39Z</time>
      </trkpt>
      <trkpt lat="48.83998" lon="7.31313">
        <ele>230.081177</ele>
        <time>2010-10-03T15:44:43Z</time>
      </trkpt>
      <trkpt lat="48.83994" lon="7.31305">
        <ele>230.909302</ele>
        <time>2010-10-03T15:44:44Z</time>
      </trkpt>
      <trkpt lat="48.83989" lon="7.31299">
        <ele>231.717896</ele>
        <time>2010-10-03T15:44:45Z</time>
      </trkpt>
      <trkpt lat="48.83968" lon="7.3128">
        <ele>234.901489</ele>
        <time>2010-10-03T15:44:49Z</time>
      </trkpt>
      <trkpt lat="48.83931" lon="7.3126">
        <ele>239.639771</ele>
        <time>2010-10-03T15:44:55Z</time>
      </trkpt>
      <trkpt lat="48.83925" lon="7.31255">
        <ele>240.495239</ele>
        <time>2010-10-03T15:44:56Z</time>
      </trkpt>
      <trkpt lat="48.83913" lon="7.31241">
        <ele>242.069458</ele>
        <time>2010-10-03T15:44:58Z</time>
      </trkpt>
      <trkpt lat="48.83889" lon="7.31223">
        <ele>244.667114</ele>
        <time>2010-10-03T15:45:02Z</time>
      </trkpt>
      <trkpt lat="48.83883" lon="7.31219">
        <ele>245.378052</ele>
        <time>2010-10-03T15:45:03Z</time>
      </trkpt>
      <trkpt lat="48.83866" lon="7.31212">
        <ele>247.499146</ele>
        <time>2010-10-03T15:45:06Z</time>
      </trkpt>
      <trkpt lat="48.83853" lon="7.3121">
        <ele>249.030396</ele>
        <time>2010-10-03T15:45:08Z</time>
      </trkpt>
      <trkpt lat="48.83842" lon="7.31206">
        <ele>250.635864</ele>
        <time>2010-10-03T15:45:10Z</time>
      </trkpt>
      <trkpt lat="48.83823" lon="7.31201">
        <ele>252.331177</ele>
        <time>2010-10-03T15:45:13Z</time>
      </trkpt>
      <trkpt lat="48.83815" lon="7.31201">
        <ele>253.034302</ele>
        <time>2010-10-03T15:45:14Z</time>
      </trkpt>
      <trkpt lat="48.83798" lon="7.31195">
        <ele>254.690552</ele>
        <time>2010-10-03T15:45:17Z</time>
      </trkpt>
      <trkpt lat="48.83788" lon="7.31184">
        <ele>254.503052</ele>
        <time>2010-10-03T15:45:18Z</time>
      </trkpt>
      <trkpt lat="48.83774" lon="7.31179">
        <ele>256.060791</ele>
        <time>2010-10-03T15:45:21Z</time>
      </trkpt>
      <trkpt lat="48.83769" lon="7.31179">
        <ele>256.631104</ele>
        <time>2010-10-03T15:45:22Z</time>
      </trkpt>
      <trkpt lat="48.83757" lon="7.31172">
        <ele>257.373291</ele>
        <time>2010-10-03T15:45:24Z</time>
      </trkpt>
      <trkpt lat="48.83731" lon="7.31167">
        <ele>259.271729</ele>
        <time>2010-10-03T15:45:28Z</time>
      </trkpt>
      <trkpt lat="48.83724" lon="7.31164">
        <ele>259.404541</ele>
        <time>2010-10-03T15:45:29Z</time>
      </trkpt>
      <trkpt lat="48.83717" lon="7.3116">
        <ele>259.271729</ele>
        <time>2010-10-03T15:45:30Z</time>
      </trkpt>
      <trkpt lat="48.83692" lon="7.31152">
        <ele>260.396729</ele>
        <time>2010-10-03T15:45:34Z</time>
      </trkpt>
      <trkpt lat="48.8368" lon="7.31151">
        <ele>260.521729</ele>
        <time>2010-10-03T15:45:36Z</time>
      </trkpt>
      <trkpt lat="48.83673" lon="7.31148">
        <ele>260.381104</ele>
        <time>2010-10-03T15:45:37Z</time>
      </trkpt>
      <trkpt lat="48.83663" lon="7.31147">
        <ele>260.357666</ele>
        <time>2010-10-03T15:45:39Z</time>
      </trkpt>
      <trkpt lat="48.83655" lon="7.31147">
        <ele>260.724854</ele>
        <time>2010-10-03T15:45:40Z</time>
      </trkpt>
      <trkpt lat="48.83646" lon="7.31146">
        <ele>260.912354</ele>
        <time>2010-10-03T15:45:42Z</time>
      </trkpt>
      <trkpt lat="48.83636" lon="7.3115">
        <ele>259.842041</ele>
        <time>2010-10-03T15:45:44Z</time>
      </trkpt>
      <trkpt lat="48.83629" lon="7.31149">
        <ele>257.584229</ele>
        <time>2010-10-03T15:45:46Z</time>
      </trkpt>
      <trkpt lat="48.83612" lon="7.31163">
        <ele>255.604614</ele>
        <time>2010-10-03T15:45:49Z</time>
      </trkpt>
      <trkpt lat="48.83607" lon="7.31163">
        <ele>252.940552</ele>
        <time>2010-10-03T15:45:50Z</time>
      </trkpt>
      <trkpt lat="48.8359" lon="7.31177">
        <ele>250.296021</ele>
        <time>2010-10-03T15:45:53Z</time>
      </trkpt>
      <trkpt lat="48.83582" lon="7.31185">
        <ele>245.311646</ele>
        <time>2010-10-03T15:45:55Z</time>
      </trkpt>
      <trkpt lat="48.83561" lon="7.31199">
        <ele>241.229614</ele>
        <time>2010-10-03T15:45:59Z</time>
      </trkpt>
      <trkpt lat="48.83532" lon="7.31216">
        <ele>234.905396</ele>
        <time>2010-10-03T15:46:03Z</time>
      </trkpt>
      <trkpt lat="48.83523" lon="7.31219">
        <ele>233.796021</ele>
        <time>2010-10-03T15:46:04Z</time>
      </trkpt>
      <trkpt lat="48.83516" lon="7.31225">
        <ele>232.686646</ele>
        <time>2010-10-03T15:46:05Z</time>
      </trkpt>
      <trkpt lat="48.83506" lon="7.31225">
        <ele>231.799927</ele>
        <time>2010-10-03T15:46:06Z</time>
      </trkpt>
      <trkpt lat="48.83492" lon="7.31229">
        <ele>231.217896</ele>
        <time>2010-10-03T15:46:08Z</time>
      </trkpt>
      <trkpt lat="48.83476" lon="7.31238">
        <ele>231.241333</ele>
        <time>2010-10-03T15:46:11Z</time>
      </trkpt>
      <trkpt lat="48.83461" lon="7.31242">
        <ele>230.686646</ele>
        <time>2010-10-03T15:46:13Z</time>
      </trkpt>
      <trkpt lat="48.83452" lon="7.31247">
        <ele>230.010864</ele>
        <time>2010-10-03T15:46:15Z</time>
      </trkpt>
      <trkpt lat="48.83422" lon="7.31258">
        <ele>228.323364</ele>
        <time>2010-10-03T15:46:19Z</time>
      </trkpt>
      <trkpt lat="48.83399" lon="7.31262">
        <ele>227.198364</ele>
        <time>2010-10-03T15:46:22Z</time>
      </trkpt>
      <trkpt lat="48.83389" lon="7.31259">
        <ele>226.557739</ele>
        <time>2010-10-03T15:46:23Z</time>
      </trkpt>
      <trkpt lat="48.83381" lon="7.31259">
        <ele>226.253052</ele>
        <time>2010-10-03T15:46:24Z</time>
      </trkpt>
      <trkpt lat="48.83363" lon="7.31255">
        <ele>225.116333</ele>
        <time>2010-10-03T15:46:26Z</time>
      </trkpt>
      <trkpt lat="48.83347" lon="7.31242">
        <ele>224.046021</ele>
        <time>2010-10-03T15:46:28Z</time>
      </trkpt>
      <trkpt lat="48.83328" lon="7.31222">
        <ele>222.393677</ele>
        <time>2010-10-03T15:46:31Z</time>
      </trkpt>
      <trkpt lat="48.83316" lon="7.31206">
        <ele>220.604614</ele>
        <time>2010-10-03T15:46:33Z</time>
      </trkpt>
      <trkpt lat="48.83265" lon="7.31144">
        <ele>214.085083</ele>
        <time>2010-10-03T15:46:42Z</time>
      </trkpt>
      <trkpt lat="48.83255" lon="7.3113">
        <ele>213.796021</ele>
        <time>2010-10-03T15:46:44Z</time>
      </trkpt>
      <trkpt lat="48.83236" lon="7.311">
        <ele>211.510864</ele>
        <time>2010-10-03T15:46:48Z</time>
      </trkpt>
      <trkpt lat="48.83221" lon="7.31083">
        <ele>210.370239</ele>
        <time>2010-10-03T15:46:51Z</time>
      </trkpt>
      <trkpt lat="48.83208" lon="7.31063">
        <ele>210.217896</ele>
        <time>2010-10-03T15:46:54Z</time>
      </trkpt>
      <trkpt lat="48.83172" lon="7.31008">
        <ele>209.167114</ele>
        <time>2010-10-03T15:47:02Z</time>
      </trkpt>
      <trkpt lat="48.83133" lon="7.30942">
        <ele>206.221802</ele>
        <time>2010-10-03T15:47:11Z</time>
      </trkpt>
      <trkpt lat="48.83094" lon="7.30881">
        <ele>204.163208</ele>
        <time>2010-10-03T15:47:20Z</time>
      </trkpt>
      <trkpt lat="48.83085" lon="7.30869">
        <ele>202.999146</ele>
        <time>2010-10-03T15:47:22Z</time>
      </trkpt>
      <trkpt lat="48.8307" lon="7.30853">
        <ele>201.276489</ele>
        <time>2010-10-03T15:47:25Z</time>
      </trkpt>
      <trkpt lat="48.83061" lon="7.30841">
        <ele>200.917114</ele>
        <time>2010-10-03T15:47:27Z</time>
      </trkpt>
      <trkpt lat="48.83054" lon="7.30828">
        <ele>200.440552</ele>
        <time>2010-10-03T15:47:29Z</time>
      </trkpt>
      <trkpt lat="48.8304" lon="7.3081">
        <ele>200.542114</ele>
        <time>2010-10-03T15:47:32Z</time>
      </trkpt>
      <trkpt lat="48.83036" lon="7.30801">
        <ele>200.163208</ele>
        <time>2010-10-03T15:47:33Z</time>
      </trkpt>
      <trkpt lat="48.83011" lon="7.30768">
        <ele>202.999146</ele>
        <time>2010-10-03T15:47:39Z</time>
      </trkpt>
      <trkpt lat="48.82985" lon="7.30738">
        <ele>205.831177</ele>
        <time>2010-10-03T15:47:45Z</time>
      </trkpt>
      <trkpt lat="48.82983" lon="7.3073">
        <ele>206.534302</ele>
        <time>2010-10-03T15:47:46Z</time>
      </trkpt>
      <trkpt lat="48.8298" lon="7.30724">
        <ele>206.796021</ele>
        <time>2010-10-03T15:47:47Z</time>
      </trkpt>
      <trkpt lat="48.82975" lon="7.3072">
        <ele>207.178833</ele>
        <time>2010-10-03T15:47:48Z</time>
      </trkpt>
      <trkpt lat="48.82969" lon="7.30714">
        <ele>206.358521</ele>
        <time>2010-10-03T15:47:49Z</time>
      </trkpt>
      <trkpt lat="48.82964" lon="7.3071">
        <ele>207.260864</ele>
        <time>2010-10-03T15:47:50Z</time>
      </trkpt>
      <trkpt lat="48.82951" lon="7.30691">
        <ele>206.862427</ele>
        <time>2010-10-03T15:47:53Z</time>
      </trkpt>
      <trkpt lat="48.82943" lon="7.30677">
        <ele>206.725708</ele>
        <time>2010-10-03T15:47:55Z</time>
      </trkpt>
      <trkpt lat="48.82925" lon="7.3065">
        <ele>203.428833</ele>
        <time>2010-10-03T15:47:59Z</time>
      </trkpt>
      <trkpt lat="48.8292" lon="7.30645">
        <ele>202.292114</ele>
        <time>2010-10-03T15:48:00Z</time>
      </trkpt>
      <trkpt lat="48.82907" lon="7.30625">
        <ele>201.217896</ele>
        <time>2010-10-03T15:48:03Z</time>
      </trkpt>
      <trkpt lat="48.82884" lon="7.30597">
        <ele>202.542114</ele>
        <time>2010-10-03T15:48:08Z</time>
      </trkpt>
      <trkpt lat="48.82855" lon="7.30573">
        <ele>205.194458</ele>
        <time>2010-10-03T15:48:14Z</time>
      </trkpt>
      <trkpt lat="48.82842" lon="7.30558">
        <ele>206.178833</ele>
        <time>2010-10-03T15:48:17Z</time>
      </trkpt>
      <trkpt lat="48.82827" lon="7.30546">
        <ele>207.432739</ele>
        <time>2010-10-03T15:48:20Z</time>
      </trkpt>
      <trkpt lat="48.82812" lon="7.30533">
        <ele>208.303833</ele>
        <time>2010-10-03T15:48:23Z</time>
      </trkpt>
      <trkpt lat="48.828" lon="7.3052">
        <ele>207.811646</ele>
        <time>2010-10-03T15:48:25Z</time>
      </trkpt>
      <trkpt lat="48.82796" lon="7.30517">
        <ele>208.120239</ele>
        <time>2010-10-03T15:48:26Z</time>
      </trkpt>
      <trkpt lat="48.82783" lon="7.30502">
        <ele>208.987427</ele>
        <time>2010-10-03T15:48:29Z</time>
      </trkpt>
      <trkpt lat="48.82779" lon="7.30497">
        <ele>209.362427</ele>
        <time>2010-10-03T15:48:30Z</time>
      </trkpt>
      <trkpt lat="48.82766" lon="7.30482">
        <ele>210.042114</ele>
        <time>2010-10-03T15:48:33Z</time>
      </trkpt>
      <trkpt lat="48.8276" lon="7.30469">
        <ele>210.405396</ele>
        <time>2010-10-03T15:48:35Z</time>
      </trkpt>
      <trkpt lat="48.82742" lon="7.30455">
        <ele>210.963989</ele>
        <time>2010-10-03T15:48:38Z</time>
      </trkpt>
      <trkpt lat="48.82736" lon="7.30452">
        <ele>211.296021</ele>
        <time>2010-10-03T15:48:39Z</time>
      </trkpt>
      <trkpt lat="48.82721" lon="7.30437">
        <ele>212.522583</ele>
        <time>2010-10-03T15:48:42Z</time>
      </trkpt>
      <trkpt lat="48.827" lon="7.30419">
        <ele>213.952271</ele>
        <time>2010-10-03T15:48:46Z</time>
      </trkpt>
      <trkpt lat="48.82694" lon="7.30417">
        <ele>214.335083</ele>
        <time>2010-10-03T15:48:47Z</time>
      </trkpt>
      <trkpt lat="48.82681" lon="7.30408">
        <ele>214.538208</ele>
        <time>2010-10-03T15:48:49Z</time>
      </trkpt>
      <trkpt lat="48.82653" lon="7.304">
        <ele>215.565552</ele>
        <time>2010-10-03T15:48:54Z</time>
      </trkpt>
      <trkpt lat="48.82637" lon="7.30394">
        <ele>216.217896</ele>
        <time>2010-10-03T15:48:57Z</time>
      </trkpt>
      <trkpt lat="48.82621" lon="7.3039">
        <ele>216.530396</ele>
        <time>2010-10-03T15:49:00Z</time>
      </trkpt>
      <trkpt lat="48.82615" lon="7.30391">
        <ele>216.585083</ele>
        <time>2010-10-03T15:49:01Z</time>
      </trkpt>
      <trkpt lat="48.82606" lon="7.30394">
        <ele>216.924927</ele>
        <time>2010-10-03T15:49:03Z</time>
      </trkpt>
      <trkpt lat="48.82599" lon="7.30398">
        <ele>217.268677</ele>
        <time>2010-10-03T15:49:05Z</time>
      </trkpt>
      <trkpt lat="48.82581" lon="7.30404">
        <ele>217.674927</ele>
        <time>2010-10-03T15:49:08Z</time>
      </trkpt>
      <trkpt lat="48.82549" lon="7.30407">
        <ele>216.237427</ele>
        <time>2010-10-03T15:49:13Z</time>
      </trkpt>
      <trkpt lat="48.82541" lon="7.30404">
        <ele>214.409302</ele>
        <time>2010-10-03T15:49:15Z</time>
      </trkpt>
      <trkpt lat="48.82517" lon="7.30409">
        <ele>212.463989</ele>
        <time>2010-10-03T15:49:19Z</time>
      </trkpt>
      <trkpt lat="48.82472" lon="7.30414">
        <ele>209.159302</ele>
        <time>2010-10-03T15:49:27Z</time>
      </trkpt>
      <trkpt lat="48.82444" lon="7.30414">
        <ele>207.167114</ele>
        <time>2010-10-03T15:49:32Z</time>
      </trkpt>
      <trkpt lat="48.82436" lon="7.30411">
        <ele>206.772583</ele>
        <time>2010-10-03T15:49:33Z</time>
      </trkpt>
      <trkpt lat="48.82418" lon="7.30413">
        <ele>205.635864</ele>
        <time>2010-10-03T15:49:36Z</time>
      </trkpt>
      <trkpt lat="48.824" lon="7.30421">
        <ele>204.350708</ele>
        <time>2010-10-03T15:49:40Z</time>
      </trkpt>
      <trkpt lat="48.8239" lon="7.30428">
        <ele>203.674927</ele>
        <time>2010-10-03T15:49:42Z</time>
      </trkpt>
      <trkpt lat="48.82373" lon="7.30442">
        <ele>202.596802</ele>
        <time>2010-10-03T15:49:45Z</time>
      </trkpt>
      <trkpt lat="48.82352" lon="7.30468">
        <ele>202.331177</ele>
        <time>2010-10-03T15:49:49Z</time>
      </trkpt>
      <trkpt lat="48.82347" lon="7.30475">
        <ele>202.717896</ele>
        <time>2010-10-03T15:49:50Z</time>
      </trkpt>
      <trkpt lat="48.82337" lon="7.30506">
        <ele>203.725708</ele>
        <time>2010-10-03T15:49:54Z</time>
      </trkpt>
      <trkpt lat="48.82332" lon="7.30512">
        <ele>203.737427</ele>
        <time>2010-10-03T15:49:55Z</time>
      </trkpt>
      <trkpt lat="48.8232" lon="7.30522">
        <ele>204.046021</ele>
        <time>2010-10-03T15:49:57Z</time>
      </trkpt>
      <trkpt lat="48.82306" lon="7.30531">
        <ele>202.690552</ele>
        <time>2010-10-03T15:49:59Z</time>
      </trkpt>
      <trkpt lat="48.82288" lon="7.30539">
        <ele>202.221802</ele>
        <time>2010-10-03T15:50:02Z</time>
      </trkpt>
      <trkpt lat="48.82275" lon="7.30541">
        <ele>201.870239</ele>
        <time>2010-10-03T15:50:04Z</time>
      </trkpt>
      <trkpt lat="48.82244" lon="7.30538">
        <ele>201.003052</ele>
        <time>2010-10-03T15:50:10Z</time>
      </trkpt>
      <trkpt lat="48.82238" lon="7.30539">
        <ele>200.975708</ele>
        <time>2010-10-03T15:50:11Z</time>
      </trkpt>
      <trkpt lat="48.82214" lon="7.30537">
        <ele>201.237427</ele>
        <time>2010-10-03T15:50:15Z</time>
      </trkpt>
      <trkpt lat="48.82204" lon="7.30538">
        <ele>201.342896</ele>
        <time>2010-10-03T15:50:17Z</time>
      </trkpt>
      <trkpt lat="48.82189" lon="7.30542">
        <ele>201.421021</ele>
        <time>2010-10-03T15:50:21Z</time>
      </trkpt>
      <trkpt lat="48.82168" lon="7.30554">
        <ele>201.421021</ele>
        <time>2010-10-03T15:50:25Z</time>
      </trkpt>
      <trkpt lat="48.82156" lon="7.30565">
        <ele>201.491333</ele>
        <time>2010-10-03T15:50:28Z</time>
      </trkpt>
      <trkpt lat="48.8215" lon="7.30572">
        <ele>201.456177</ele>
        <time>2010-10-03T15:50:30Z</time>
      </trkpt>
      <trkpt lat="48.82143" lon="7.30576">
        <ele>201.151489</ele>
        <time>2010-10-03T15:50:31Z</time>
      </trkpt>
      <trkpt lat="48.82116" lon="7.30598">
        <ele>201.296021</ele>
        <time>2010-10-03T15:50:36Z</time>
      </trkpt>
      <trkpt lat="48.821" lon="7.30605">
        <ele>201.276489</ele>
        <time>2010-10-03T15:50:39Z</time>
      </trkpt>
      <trkpt lat="48.82086" lon="7.30607">
        <ele>201.327271</ele>
        <time>2010-10-03T15:50:41Z</time>
      </trkpt>
      <trkpt lat="48.82072" lon="7.30603">
        <ele>201.417114</ele>
        <time>2010-10-03T15:50:43Z</time>
      </trkpt>
      <trkpt lat="48.82061" lon="7.30605">
        <ele>201.518677</ele>
        <time>2010-10-03T15:50:44Z</time>
      </trkpt>
      <trkpt lat="48.82054" lon="7.30603">
        <ele>201.569458</ele>
        <time>2010-10-03T15:50:45Z</time>
      </trkpt>
      <trkpt lat="48.82041" lon="7.30595">
        <ele>201.592896</ele>
        <time>2010-10-03T15:50:47Z</time>
      </trkpt>
      <trkpt lat="48.82018" lon="7.30569">
        <ele>201.592896</ele>
        <time>2010-10-03T15:50:50Z</time>
      </trkpt>
      <trkpt lat="48.82006" lon="7.30552">
        <ele>201.518677</ele>
        <time>2010-10-03T15:50:53Z</time>
      </trkpt>
      <trkpt lat="48.81997" lon="7.30544">
        <ele>201.046021</ele>
        <time>2010-10-03T15:50:54Z</time>
      </trkpt>
      <trkpt lat="48.81982" lon="7.30519">
        <ele>200.717896</ele>
        <time>2010-10-03T15:50:58Z</time>
      </trkpt>
      <trkpt lat="48.81979" lon="7.3051">
        <ele>201.268677</ele>
        <time>2010-10-03T15:50:59Z</time>
      </trkpt>
      <trkpt lat="48.81975" lon="7.30504">
        <ele>201.667114</ele>
        <time>2010-10-03T15:51:00Z</time>
      </trkpt>
      <trkpt lat="48.81969" lon="7.30499">
        <ele>202.249146</ele>
        <time>2010-10-03T15:51:01Z</time>
      </trkpt>
      <trkpt lat="48.81966" lon="7.30493">
        <ele>202.663208</ele>
        <time>2010-10-03T15:51:02Z</time>
      </trkpt>
      <trkpt lat="48.81937" lon="7.30464">
        <ele>203.346802</ele>
        <time>2010-10-03T15:51:08Z</time>
      </trkpt>
      <trkpt lat="48.81911" lon="7.3044">
        <ele>203.424927</ele>
        <time>2010-10-03T15:51:13Z</time>
      </trkpt>
      <trkpt lat="48.81907" lon="7.30434">
        <ele>203.381958</ele>
        <time>2010-10-03T15:51:14Z</time>
      </trkpt>
      <trkpt lat="48.81891" lon="7.30424">
        <ele>202.694458</ele>
        <time>2010-10-03T15:51:17Z</time>
      </trkpt>
      <trkpt lat="48.81879" lon="7.30419">
        <ele>202.042114</ele>
        <time>2010-10-03T15:51:19Z</time>
      </trkpt>
      <trkpt lat="48.81868" lon="7.30416">
        <ele>201.323364</ele>
        <time>2010-10-03T15:51:21Z</time>
      </trkpt>
      <trkpt lat="48.81849" lon="7.30407">
        <ele>200.237427</ele>
        <time>2010-10-03T15:51:24Z</time>
      </trkpt>
      <trkpt lat="48.81817" lon="7.30396">
        <ele>198.374146</ele>
        <time>2010-10-03T15:51:30Z</time>
      </trkpt>
      <trkpt lat="48.81812" lon="7.30391">
        <ele>198.659302</ele>
        <time>2010-10-03T15:51:32Z</time>
      </trkpt>
      <trkpt lat="48.81796" lon="7.30388">
        <ele>198.971802</ele>
        <time>2010-10-03T15:51:35Z</time>
      </trkpt>
      <trkpt lat="48.81779" lon="7.30379">
        <ele>198.612427</ele>
        <time>2010-10-03T15:51:38Z</time>
      </trkpt>
      <trkpt lat="48.81763" lon="7.30375">
        <ele>198.171021</ele>
        <time>2010-10-03T15:51:41Z</time>
      </trkpt>
      <trkpt lat="48.8175" lon="7.30373">
        <ele>197.928833</ele>
        <time>2010-10-03T15:51:43Z</time>
      </trkpt>
      <trkpt lat="48.81738" lon="7.3037">
        <ele>197.659302</ele>
        <time>2010-10-03T15:51:45Z</time>
      </trkpt>
      <trkpt lat="48.81726" lon="7.3037">
        <ele>197.421021</ele>
        <time>2010-10-03T15:51:47Z</time>
      </trkpt>
      <trkpt lat="48.81714" lon="7.30367">
        <ele>197.198364</ele>
        <time>2010-10-03T15:51:49Z</time>
      </trkpt>
      <trkpt lat="48.81701" lon="7.30368">
        <ele>196.760864</ele>
        <time>2010-10-03T15:51:51Z</time>
      </trkpt>
      <trkpt lat="48.81683" lon="7.3037">
        <ele>196.057739</ele>
        <time>2010-10-03T15:51:54Z</time>
      </trkpt>
      <trkpt lat="48.81672" lon="7.30375">
        <ele>195.667114</ele>
        <time>2010-10-03T15:51:56Z</time>
      </trkpt>
      <trkpt lat="48.81659" lon="7.30386">
        <ele>195.096802</ele>
        <time>2010-10-03T15:51:59Z</time>
      </trkpt>
      <trkpt lat="48.81651" lon="7.30388">
        <ele>195.217896</ele>
        <time>2010-10-03T15:52:00Z</time>
      </trkpt>
      <trkpt lat="48.81643" lon="7.30395">
        <ele>195.268677</ele>
        <time>2010-10-03T15:52:02Z</time>
      </trkpt>
      <trkpt lat="48.81636" lon="7.30397">
        <ele>195.303833</ele>
        <time>2010-10-03T15:52:03Z</time>
      </trkpt>
      <trkpt lat="48.81627" lon="7.30405">
        <ele>195.565552</ele>
        <time>2010-10-03T15:52:05Z</time>
      </trkpt>
      <trkpt lat="48.8162" lon="7.30416">
        <ele>195.296021</ele>
        <time>2010-10-03T15:52:07Z</time>
      </trkpt>
      <trkpt lat="48.81618" lon="7.30424">
        <ele>195.069458</ele>
        <time>2010-10-03T15:52:08Z</time>
      </trkpt>
      <trkpt lat="48.81611" lon="7.3044">
        <ele>194.573364</ele>
        <time>2010-10-03T15:52:11Z</time>
      </trkpt>
      <trkpt lat="48.816" lon="7.30453">
        <ele>194.159302</ele>
        <time>2010-10-03T15:52:14Z</time>
      </trkpt>
      <trkpt lat="48.81587" lon="7.30479">
        <ele>192.327271</ele>
        <time>2010-10-03T15:52:19Z</time>
      </trkpt>
      <trkpt lat="48.8158" lon="7.30481">
        <ele>192.866333</ele>
        <time>2010-10-03T15:52:20Z</time>
      </trkpt>
      <trkpt lat="48.81559" lon="7.30505">
        <ele>190.338989</ele>
        <time>2010-10-03T15:52:25Z</time>
      </trkpt>
      <trkpt lat="48.81556" lon="7.3051">
        <ele>189.944458</ele>
        <time>2010-10-03T15:52:26Z</time>
      </trkpt>
      <trkpt lat="48.81541" lon="7.30515">
        <ele>190.553833</ele>
        <time>2010-10-03T15:52:28Z</time>
      </trkpt>
      <trkpt lat="48.81519" lon="7.30529">
        <ele>193.331177</ele>
        <time>2010-10-03T15:52:32Z</time>
      </trkpt>
      <trkpt lat="48.81497" lon="7.3054">
        <ele>193.237427</ele>
        <time>2010-10-03T15:52:36Z</time>
      </trkpt>
      <trkpt lat="48.81475" lon="7.30547">
        <ele>193.452271</ele>
        <time>2010-10-03T15:52:40Z</time>
      </trkpt>
      <trkpt lat="48.81461" lon="7.30549">
        <ele>193.577271</ele>
        <time>2010-10-03T15:52:43Z</time>
      </trkpt>
      <trkpt lat="48.81449" lon="7.30554">
        <ele>195.436646</ele>
        <time>2010-10-03T15:52:45Z</time>
      </trkpt>
      <trkpt lat="48.81421" lon="7.30557">
        <ele>196.428833</ele>
        <time>2010-10-03T15:52:50Z</time>
      </trkpt>
      <trkpt lat="48.81414" lon="7.30556">
        <ele>196.424927</ele>
        <time>2010-10-03T15:52:51Z</time>
      </trkpt>
      <trkpt lat="48.81408" lon="7.30558">
        <ele>195.850708</ele>
        <time>2010-10-03T15:52:52Z</time>
      </trkpt>
      <trkpt lat="48.81391" lon="7.30557">
        <ele>196.088989</ele>
        <time>2010-10-03T15:52:55Z</time>
      </trkpt>
      <trkpt lat="48.81376" lon="7.30559">
        <ele>195.546021</ele>
        <time>2010-10-03T15:52:57Z</time>
      </trkpt>
      <trkpt lat="48.81358" lon="7.3056">
        <ele>195.381958</ele>
        <time>2010-10-03T15:53:00Z</time>
      </trkpt>
      <trkpt lat="48.81348" lon="7.30556">
        <ele>195.713989</ele>
        <time>2010-10-03T15:53:01Z</time>
      </trkpt>
      <trkpt lat="48.81324" lon="7.30554">
        <ele>195.510864</ele>
        <time>2010-10-03T15:53:05Z</time>
      </trkpt>
      <trkpt lat="48.81307" lon="7.30556">
        <ele>195.960083</ele>
        <time>2010-10-03T15:53:08Z</time>
      </trkpt>
      <trkpt lat="48.81301" lon="7.30556">
        <ele>196.421021</ele>
        <time>2010-10-03T15:53:09Z</time>
      </trkpt>
      <trkpt lat="48.81292" lon="7.30552">
        <ele>197.639771</ele>
        <time>2010-10-03T15:53:10Z</time>
      </trkpt>
      <trkpt lat="48.81259" lon="7.3055">
        <ele>200.202271</ele>
        <time>2010-10-03T15:53:15Z</time>
      </trkpt>
      <trkpt lat="48.81253" lon="7.30552">
        <ele>200.838989</ele>
        <time>2010-10-03T15:53:16Z</time>
      </trkpt>
      <trkpt lat="48.81219" lon="7.30558">
        <ele>202.971802</ele>
        <time>2010-10-03T15:53:22Z</time>
      </trkpt>
      <trkpt lat="48.81199" lon="7.3056">
        <ele>203.202271</ele>
        <time>2010-10-03T15:53:25Z</time>
      </trkpt>
      <trkpt lat="48.81186" lon="7.30559">
        <ele>203.799927</ele>
        <time>2010-10-03T15:53:27Z</time>
      </trkpt>
      <trkpt lat="48.81156" lon="7.30562">
        <ele>203.104614</ele>
        <time>2010-10-03T15:53:32Z</time>
      </trkpt>
      <trkpt lat="48.81136" lon="7.30562">
        <ele>204.651489</ele>
        <time>2010-10-03T15:53:36Z</time>
      </trkpt>
      <trkpt lat="48.81128" lon="7.30559">
        <ele>205.249146</ele>
        <time>2010-10-03T15:53:37Z</time>
      </trkpt>
      <trkpt lat="48.8111" lon="7.30562">
        <ele>206.194458</ele>
        <time>2010-10-03T15:53:40Z</time>
      </trkpt>
      <trkpt lat="48.81096" lon="7.30566">
        <ele>206.530396</ele>
        <time>2010-10-03T15:53:42Z</time>
      </trkpt>
      <trkpt lat="48.8106" lon="7.30567">
        <ele>205.753052</ele>
        <time>2010-10-03T15:53:48Z</time>
      </trkpt>
      <trkpt lat="48.8104" lon="7.30572">
        <ele>211.237427</ele>
        <time>2010-10-03T15:53:52Z</time>
      </trkpt>
      <trkpt lat="48.81028" lon="7.3058">
        <ele>211.225708</ele>
        <time>2010-10-03T15:53:54Z</time>
      </trkpt>
      <trkpt lat="48.8101" lon="7.30584">
        <ele>210.807739</ele>
        <time>2010-10-03T15:53:57Z</time>
      </trkpt>
      <trkpt lat="48.80999" lon="7.30582">
        <ele>213.245239</ele>
        <time>2010-10-03T15:53:58Z</time>
      </trkpt>
      <trkpt lat="48.80994" lon="7.30584">
        <ele>213.307739</ele>
        <time>2010-10-03T15:53:59Z</time>
      </trkpt>
      <trkpt lat="48.80978" lon="7.30583">
        <ele>212.952271</ele>
        <time>2010-10-03T15:54:01Z</time>
      </trkpt>
      <trkpt lat="48.80971" lon="7.30584">
        <ele>212.530396</ele>
        <time>2010-10-03T15:54:02Z</time>
      </trkpt>
      <trkpt lat="48.8095" lon="7.30585">
        <ele>214.366333</ele>
        <time>2010-10-03T15:54:05Z</time>
      </trkpt>
      <trkpt lat="48.80944" lon="7.30587">
        <ele>213.448364</ele>
        <time>2010-10-03T15:54:06Z</time>
      </trkpt>
      <trkpt lat="48.80936" lon="7.30586">
        <ele>212.710083</ele>
        <time>2010-10-03T15:54:07Z</time>
      </trkpt>
      <trkpt lat="48.80909" lon="7.30588">
        <ele>213.811646</ele>
        <time>2010-10-03T15:54:11Z</time>
      </trkpt>
      <trkpt lat="48.80884" lon="7.30587">
        <ele>214.046021</ele>
        <time>2010-10-03T15:54:15Z</time>
      </trkpt>
      <trkpt lat="48.80857" lon="7.30579">
        <ele>213.983521</ele>
        <time>2010-10-03T15:54:19Z</time>
      </trkpt>
      <trkpt lat="48.80831" lon="7.30574">
        <ele>213.971802</ele>
        <time>2010-10-03T15:54:23Z</time>
      </trkpt>
      <trkpt lat="48.80821" lon="7.30565">
        <ele>214.034302</ele>
        <time>2010-10-03T15:54:24Z</time>
      </trkpt>
      <trkpt lat="48.80801" lon="7.30556">
        <ele>213.409302</ele>
        <time>2010-10-03T15:54:27Z</time>
      </trkpt>
      <trkpt lat="48.80786" lon="7.30547">
        <ele>212.608521</ele>
        <time>2010-10-03T15:54:29Z</time>
      </trkpt>
      <trkpt lat="48.80758" lon="7.30533">
        <ele>211.573364</ele>
        <time>2010-10-03T15:54:33Z</time>
      </trkpt>
      <trkpt lat="48.80704" lon="7.30497">
        <ele>207.725708</ele>
        <time>2010-10-03T15:54:42Z</time>
      </trkpt>
      <trkpt lat="48.80692" lon="7.30493">
        <ele>206.983521</ele>
        <time>2010-10-03T15:54:44Z</time>
      </trkpt>
      <trkpt lat="48.80687" lon="7.30489">
        <ele>206.889771</ele>
        <time>2010-10-03T15:54:45Z</time>
      </trkpt>
      <trkpt lat="48.80675" lon="7.30483">
        <ele>206.690552</ele>
        <time>2010-10-03T15:54:47Z</time>
      </trkpt>
      <trkpt lat="48.80656" lon="7.30478">
        <ele>206.280396</ele>
        <time>2010-10-03T15:54:50Z</time>
      </trkpt>
      <trkpt lat="48.80638" lon="7.3047">
        <ele>205.756958</ele>
        <time>2010-10-03T15:54:53Z</time>
      </trkpt>
      <trkpt lat="48.80626" lon="7.30463">
        <ele>205.370239</ele>
        <time>2010-10-03T15:54:55Z</time>
      </trkpt>
      <trkpt lat="48.8061" lon="7.30447">
        <ele>204.674927</ele>
        <time>2010-10-03T15:54:58Z</time>
      </trkpt>
      <trkpt lat="48.80607" lon="7.3044">
        <ele>204.292114</ele>
        <time>2010-10-03T15:54:59Z</time>
      </trkpt>
      <trkpt lat="48.80586" lon="7.30418">
        <ele>202.717896</ele>
        <time>2010-10-03T15:55:02Z</time>
      </trkpt>
      <trkpt lat="48.80579" lon="7.30413">
        <ele>202.284302</ele>
        <time>2010-10-03T15:55:03Z</time>
      </trkpt>
      <trkpt lat="48.80565" lon="7.30395">
        <ele>201.417114</ele>
        <time>2010-10-03T15:55:06Z</time>
      </trkpt>
      <trkpt lat="48.80562" lon="7.30386">
        <ele>200.858521</ele>
        <time>2010-10-03T15:55:07Z</time>
      </trkpt>
      <trkpt lat="48.80561" lon="7.30374">
        <ele>201.182739</ele>
        <time>2010-10-03T15:55:09Z</time>
      </trkpt>
      <trkpt lat="48.80557" lon="7.30367">
        <ele>201.034302</ele>
        <time>2010-10-03T15:55:11Z</time>
      </trkpt>
      <trkpt lat="48.8055" lon="7.30363">
        <ele>200.534302</ele>
        <time>2010-10-03T15:55:13Z</time>
      </trkpt>
      <trkpt lat="48.80533" lon="7.30369">
        <ele>199.432739</ele>
        <time>2010-10-03T15:55:17Z</time>
      </trkpt>
      <trkpt lat="48.80517" lon="7.30379">
        <ele>199.014771</ele>
        <time>2010-10-03T15:55:21Z</time>
      </trkpt>
      <trkpt lat="48.8051" lon="7.30386">
        <ele>199.151489</ele>
        <time>2010-10-03T15:55:23Z</time>
      </trkpt>
      <trkpt lat="48.80504" lon="7.30387">
        <ele>199.014771</ele>
        <time>2010-10-03T15:55:24Z</time>
      </trkpt>
      <trkpt lat="48.80476" lon="7.3041">
        <ele>198.909302</ele>
        <time>2010-10-03T15:55:30Z</time>
      </trkpt>
      <trkpt lat="48.80463" lon="7.30426">
        <ele>198.827271</ele>
        <time>2010-10-03T15:55:33Z</time>
      </trkpt>
      <trkpt lat="48.80459" lon="7.3043">
        <ele>198.647583</ele>
        <time>2010-10-03T15:55:34Z</time>
      </trkpt>
      <trkpt lat="48.80439" lon="7.30455">
        <ele>196.397583</ele>
        <time>2010-10-03T15:55:39Z</time>
      </trkpt>
      <trkpt lat="48.8042" lon="7.30484">
        <ele>195.260864</ele>
        <time>2010-10-03T15:55:44Z</time>
      </trkpt>
      <trkpt lat="48.80404" lon="7.30511">
        <ele>193.655396</ele>
        <time>2010-10-03T15:55:48Z</time>
      </trkpt>
      <trkpt lat="48.80394" lon="7.30539">
        <ele>193.096802</ele>
        <time>2010-10-03T15:55:52Z</time>
      </trkpt>
      <trkpt lat="48.80388" lon="7.30543">
        <ele>193.428833</ele>
        <time>2010-10-03T15:55:53Z</time>
      </trkpt>
      <trkpt lat="48.80373" lon="7.3057">
        <ele>193.370239</ele>
        <time>2010-10-03T15:55:57Z</time>
      </trkpt>
      <trkpt lat="48.80351" lon="7.30605">
        <ele>191.397583</ele>
        <time>2010-10-03T15:56:02Z</time>
      </trkpt>
      <trkpt lat="48.80335" lon="7.30626">
        <ele>191.018677</ele>
        <time>2010-10-03T15:56:05Z</time>
      </trkpt>
      <trkpt lat="48.80298" lon="7.30665">
        <ele>190.702271</ele>
        <time>2010-10-03T15:56:12Z</time>
      </trkpt>
      <trkpt lat="48.80288" lon="7.30682">
        <ele>190.710083</ele>
        <time>2010-10-03T15:56:15Z</time>
      </trkpt>
      <trkpt lat="48.8027" lon="7.30696">
        <ele>188.678833</ele>
        <time>2010-10-03T15:56:17Z</time>
      </trkpt>
      <trkpt lat="48.80262" lon="7.30706">
        <ele>188.014771</ele>
        <time>2010-10-03T15:56:19Z</time>
      </trkpt>
      <trkpt lat="48.80251" lon="7.30724">
        <ele>188.061646</ele>
        <time>2010-10-03T15:56:22Z</time>
      </trkpt>
      <trkpt lat="48.80219" lon="7.30758">
        <ele>186.510864</ele>
        <time>2010-10-03T15:56:28Z</time>
      </trkpt>
      <trkpt lat="48.80208" lon="7.30768">
        <ele>186.401489</ele>
        <time>2010-10-03T15:56:30Z</time>
      </trkpt>
      <trkpt lat="48.80197" lon="7.30774">
        <ele>187.194458</ele>
        <time>2010-10-03T15:56:32Z</time>
      </trkpt>
      <trkpt lat="48.80183" lon="7.30788">
        <ele>186.503052</ele>
        <time>2010-10-03T15:56:35Z</time>
      </trkpt>
      <trkpt lat="48.8018" lon="7.30794">
        <ele>186.538208</ele>
        <time>2010-10-03T15:56:36Z</time>
      </trkpt>
      <trkpt lat="48.8016" lon="7.30817">
        <ele>184.303833</ele>
        <time>2010-10-03T15:56:40Z</time>
      </trkpt>
      <trkpt lat="48.80153" lon="7.30819">
        <ele>184.729614</ele>
        <time>2010-10-03T15:56:41Z</time>
      </trkpt>
      <trkpt lat="48.80146" lon="7.30829">
        <ele>184.901489</ele>
        <time>2010-10-03T15:56:43Z</time>
      </trkpt>
      <trkpt lat="48.8013" lon="7.30844">
        <ele>183.397583</ele>
        <time>2010-10-03T15:56:46Z</time>
      </trkpt>
      <trkpt lat="48.80116" lon="7.30856">
        <ele>183.346802</ele>
        <time>2010-10-03T15:56:49Z</time>
      </trkpt>
      <trkpt lat="48.80104" lon="7.30862">
        <ele>184.073364</ele>
        <time>2010-10-03T15:56:51Z</time>
      </trkpt>
      <trkpt lat="48.80089" lon="7.30873">
        <ele>183.292114</ele>
        <time>2010-10-03T15:56:54Z</time>
      </trkpt>
      <trkpt lat="48.80074" lon="7.30895">
        <ele>184.448364</ele>
        <time>2010-10-03T15:56:58Z</time>
      </trkpt>
      <trkpt lat="48.80067" lon="7.30909">
        <ele>184.456177</ele>
        <time>2010-10-03T15:57:00Z</time>
      </trkpt>
      <trkpt lat="48.80064" lon="7.30915">
        <ele>185.026489</ele>
        <time>2010-10-03T15:57:01Z</time>
      </trkpt>
      <trkpt lat="48.80058" lon="7.30929">
        <ele>186.389771</ele>
        <time>2010-10-03T15:57:03Z</time>
      </trkpt>
      <trkpt lat="48.80056" lon="7.30937">
        <ele>185.928833</ele>
        <time>2010-10-03T15:57:04Z</time>
      </trkpt>
      <trkpt lat="48.80042" lon="7.30966">
        <ele>185.835083</ele>
        <time>2010-10-03T15:57:08Z</time>
      </trkpt>
      <trkpt lat="48.80037" lon="7.30973">
        <ele>184.846802</ele>
        <time>2010-10-03T15:57:09Z</time>
      </trkpt>
      <trkpt lat="48.80025" lon="7.30984">
        <ele>184.135864</ele>
        <time>2010-10-03T15:57:11Z</time>
      </trkpt>
      <trkpt lat="48.8001" lon="7.31">
        <ele>184.460083</ele>
        <time>2010-10-03T15:57:14Z</time>
      </trkpt>
      <trkpt lat="48.80007" lon="7.31007">
        <ele>184.256958</ele>
        <time>2010-10-03T15:57:15Z</time>
      </trkpt>
      <trkpt lat="48.80005" lon="7.31025">
        <ele>185.553833</ele>
        <time>2010-10-03T15:57:17Z</time>
      </trkpt>
      <trkpt lat="48.80005" lon="7.31034">
        <ele>185.518677</ele>
        <time>2010-10-03T15:57:18Z</time>
      </trkpt>
      <trkpt lat="48.80011" lon="7.31071">
        <ele>187.389771</ele>
        <time>2010-10-03T15:57:22Z</time>
      </trkpt>
      <trkpt lat="48.80015" lon="7.31117">
        <ele>188.881958</ele>
        <time>2010-10-03T15:57:27Z</time>
      </trkpt>
      <trkpt lat="48.80016" lon="7.31135">
        <ele>189.155396</ele>
        <time>2010-10-03T15:57:29Z</time>
      </trkpt>
      <trkpt lat="48.80015" lon="7.31144">
        <ele>188.897583</ele>
        <time>2010-10-03T15:57:30Z</time>
      </trkpt>
      <trkpt lat="48.80018" lon="7.31181">
        <ele>189.682739</ele>
        <time>2010-10-03T15:57:34Z</time>
      </trkpt>
      <trkpt lat="48.80018" lon="7.31198">
        <ele>189.772583</ele>
        <time>2010-10-03T15:57:36Z</time>
      </trkpt>
      <trkpt lat="48.80021" lon="7.31217">
        <ele>190.346802</ele>
        <time>2010-10-03T15:57:38Z</time>
      </trkpt>
      <trkpt lat="48.80022" lon="7.31244">
        <ele>190.921021</ele>
        <time>2010-10-03T15:57:41Z</time>
      </trkpt>
      <trkpt lat="48.80025" lon="7.31263">
        <ele>191.034302</ele>
        <time>2010-10-03T15:57:43Z</time>
      </trkpt>
      <trkpt lat="48.80027" lon="7.3127">
        <ele>191.128052</ele>
        <time>2010-10-03T15:57:44Z</time>
      </trkpt>
      <trkpt lat="48.80031" lon="7.31296">
        <ele>191.358521</ele>
        <time>2010-10-03T15:57:47Z</time>
      </trkpt>
      <trkpt lat="48.80039" lon="7.31323">
        <ele>191.452271</ele>
        <time>2010-10-03T15:57:50Z</time>
      </trkpt>
      <trkpt lat="48.80048" lon="7.3138">
        <ele>192.397583</ele>
        <time>2010-10-03T15:57:56Z</time>
      </trkpt>
      <trkpt lat="48.80056" lon="7.31418">
        <ele>193.667114</ele>
        <time>2010-10-03T15:58:00Z</time>
      </trkpt>
      <trkpt lat="48.80062" lon="7.31465">
        <ele>195.276489</ele>
        <time>2010-10-03T15:58:05Z</time>
      </trkpt>
      <trkpt lat="48.80069" lon="7.31493">
        <ele>196.546021</ele>
        <time>2010-10-03T15:58:08Z</time>
      </trkpt>
      <trkpt lat="48.80086" lon="7.31672">
        <ele>196.522583</ele>
        <time>2010-10-03T15:58:27Z</time>
      </trkpt>
      <trkpt lat="48.80093" lon="7.31698">
        <ele>196.760864</ele>
        <time>2010-10-03T15:58:30Z</time>
      </trkpt>
      <trkpt lat="48.80105" lon="7.31732">
        <ele>197.565552</ele>
        <time>2010-10-03T15:58:34Z</time>
      </trkpt>
      <trkpt lat="48.80109" lon="7.3174">
        <ele>197.975708</ele>
        <time>2010-10-03T15:58:35Z</time>
      </trkpt>
      <trkpt lat="48.80129" lon="7.31797">
        <ele>199.878052</ele>
        <time>2010-10-03T15:58:42Z</time>
      </trkpt>
      <trkpt lat="48.80136" lon="7.31824">
        <ele>200.561646</ele>
        <time>2010-10-03T15:58:45Z</time>
      </trkpt>
      <trkpt lat="48.80149" lon="7.31887">
        <ele>200.499146</ele>
        <time>2010-10-03T15:58:52Z</time>
      </trkpt>
      <trkpt lat="48.80151" lon="7.31904">
        <ele>202.557739</ele>
        <time>2010-10-03T15:58:54Z</time>
      </trkpt>
      <trkpt lat="48.80162" lon="7.3196">
        <ele>201.549927</ele>
        <time>2010-10-03T15:59:00Z</time>
      </trkpt>
      <trkpt lat="48.80167" lon="7.31996">
        <ele>201.022583</ele>
        <time>2010-10-03T15:59:04Z</time>
      </trkpt>
      <trkpt lat="48.80169" lon="7.32023">
        <ele>200.440552</ele>
        <time>2010-10-03T15:59:07Z</time>
      </trkpt>
      <trkpt lat="48.80168" lon="7.32041">
        <ele>199.991333</ele>
        <time>2010-10-03T15:59:09Z</time>
      </trkpt>
      <trkpt lat="48.80162" lon="7.32117">
        <ele>198.483521</ele>
        <time>2010-10-03T15:59:17Z</time>
      </trkpt>
      <trkpt lat="48.80159" lon="7.32146">
        <ele>197.995239</ele>
        <time>2010-10-03T15:59:20Z</time>
      </trkpt>
      <trkpt lat="48.80154" lon="7.32173">
        <ele>197.467896</ele>
        <time>2010-10-03T15:59:23Z</time>
      </trkpt>
      <trkpt lat="48.80145" lon="7.32198">
        <ele>196.729614</ele>
        <time>2010-10-03T15:59:26Z</time>
      </trkpt>
      <trkpt lat="48.80137" lon="7.32213">
        <ele>196.159302</ele>
        <time>2010-10-03T15:59:28Z</time>
      </trkpt>
      <trkpt lat="48.80125" lon="7.32226">
        <ele>196.155396</ele>
        <time>2010-10-03T15:59:30Z</time>
      </trkpt>
      <trkpt lat="48.80112" lon="7.32237">
        <ele>196.338989</ele>
        <time>2010-10-03T15:59:32Z</time>
      </trkpt>
      <trkpt lat="48.8009" lon="7.3225">
        <ele>196.866333</ele>
        <time>2010-10-03T15:59:35Z</time>
      </trkpt>
      <trkpt lat="48.80072" lon="7.32267">
        <ele>196.503052</ele>
        <time>2010-10-03T15:59:38Z</time>
      </trkpt>
      <trkpt lat="48.80061" lon="7.32281">
        <ele>196.354614</ele>
        <time>2010-10-03T15:59:40Z</time>
      </trkpt>
      <trkpt lat="48.80046" lon="7.32305">
        <ele>195.530396</ele>
        <time>2010-10-03T15:59:43Z</time>
      </trkpt>
      <trkpt lat="48.8003" lon="7.32351">
        <ele>193.756958</ele>
        <time>2010-10-03T15:59:48Z</time>
      </trkpt>
      <trkpt lat="48.80015" lon="7.32403">
        <ele>192.237427</ele>
        <time>2010-10-03T15:59:54Z</time>
      </trkpt>
      <trkpt lat="48.80004" lon="7.3248">
        <ele>190.682739</ele>
        <time>2010-10-03T16:00:03Z</time>
      </trkpt>
      <trkpt lat="48.80004" lon="7.32489">
        <ele>190.995239</ele>
        <time>2010-10-03T16:00:04Z</time>
      </trkpt>
      <trkpt lat="48.8" lon="7.32522">
        <ele>191.288208</ele>
        <time>2010-10-03T16:00:08Z</time>
      </trkpt>
      <trkpt lat="48.79994" lon="7.32596">
        <ele>190.733521</ele>
        <time>2010-10-03T16:00:17Z</time>
      </trkpt>
      <trkpt lat="48.79992" lon="7.32639">
        <ele>189.928833</ele>
        <time>2010-10-03T16:00:22Z</time>
      </trkpt>
      <trkpt lat="48.79992" lon="7.32672">
        <ele>189.284302</ele>
        <time>2010-10-03T16:00:26Z</time>
      </trkpt>
      <trkpt lat="48.79996" lon="7.32738">
        <ele>188.671021</ele>
        <time>2010-10-03T16:00:34Z</time>
      </trkpt>
      <trkpt lat="48.79998" lon="7.32755">
        <ele>188.987427</ele>
        <time>2010-10-03T16:00:36Z</time>
      </trkpt>
      <trkpt lat="48.79999" lon="7.32788">
        <ele>189.104614</ele>
        <time>2010-10-03T16:00:40Z</time>
      </trkpt>
      <trkpt lat="48.79998" lon="7.32847">
        <ele>189.506958</ele>
        <time>2010-10-03T16:00:47Z</time>
      </trkpt>
      <trkpt lat="48.79996" lon="7.32884">
        <ele>189.213989</ele>
        <time>2010-10-03T16:00:51Z</time>
      </trkpt>
      <trkpt lat="48.79988" lon="7.32939">
        <ele>188.811646</ele>
        <time>2010-10-03T16:00:57Z</time>
      </trkpt>
      <trkpt lat="48.79984" lon="7.32958">
        <ele>188.639771</ele>
        <time>2010-10-03T16:00:59Z</time>
      </trkpt>
      <trkpt lat="48.7997" lon="7.33045">
        <ele>188.952271</ele>
        <time>2010-10-03T16:01:08Z</time>
      </trkpt>
      <trkpt lat="48.7996" lon="7.33082">
        <ele>189.733521</ele>
        <time>2010-10-03T16:01:12Z</time>
      </trkpt>
      <trkpt lat="48.79954" lon="7.331">
        <ele>189.838989</ele>
        <time>2010-10-03T16:01:14Z</time>
      </trkpt>
      <trkpt lat="48.79936" lon="7.33161">
        <ele>190.421021</ele>
        <time>2010-10-03T16:01:21Z</time>
      </trkpt>
      <trkpt lat="48.79926" lon="7.33187">
        <ele>189.928833</ele>
        <time>2010-10-03T16:01:24Z</time>
      </trkpt>
      <trkpt lat="48.79924" lon="7.33195">
        <ele>190.085083</ele>
        <time>2010-10-03T16:01:25Z</time>
      </trkpt>
      <trkpt lat="48.79918" lon="7.33213">
        <ele>189.444458</ele>
        <time>2010-10-03T16:01:27Z</time>
      </trkpt>
      <trkpt lat="48.79912" lon="7.33231">
        <ele>189.253052</ele>
        <time>2010-10-03T16:01:29Z</time>
      </trkpt>
      <trkpt lat="48.79902" lon="7.33279">
        <ele>188.866333</ele>
        <time>2010-10-03T16:01:34Z</time>
      </trkpt>
      <trkpt lat="48.79899" lon="7.33288">
        <ele>188.569458</ele>
        <time>2010-10-03T16:01:35Z</time>
      </trkpt>
      <trkpt lat="48.79894" lon="7.33309">
        <ele>188.628052</ele>
        <time>2010-10-03T16:01:37Z</time>
      </trkpt>
      <trkpt lat="48.7987" lon="7.33404">
        <ele>188.335083</ele>
        <time>2010-10-03T16:01:47Z</time>
      </trkpt>
      <trkpt lat="48.79866" lon="7.33424">
        <ele>188.596802</ele>
        <time>2010-10-03T16:01:49Z</time>
      </trkpt>
      <trkpt lat="48.79856" lon="7.33462">
        <ele>188.686646</ele>
        <time>2010-10-03T16:01:53Z</time>
      </trkpt>
      <trkpt lat="48.79845" lon="7.33513">
        <ele>188.479614</ele>
        <time>2010-10-03T16:01:58Z</time>
      </trkpt>
      <trkpt lat="48.79828" lon="7.33653">
        <ele>187.616333</ele>
        <time>2010-10-03T16:02:12Z</time>
      </trkpt>
      <trkpt lat="48.79822" lon="7.33707">
        <ele>187.159302</ele>
        <time>2010-10-03T16:02:18Z</time>
      </trkpt>
      <trkpt lat="48.79821" lon="7.33743">
        <ele>186.975708</ele>
        <time>2010-10-03T16:02:22Z</time>
      </trkpt>
      <trkpt lat="48.79823" lon="7.3376">
        <ele>187.022583</ele>
        <time>2010-10-03T16:02:24Z</time>
      </trkpt>
      <trkpt lat="48.79829" lon="7.33812">
        <ele>186.596802</ele>
        <time>2010-10-03T16:02:30Z</time>
      </trkpt>
      <trkpt lat="48.79835" lon="7.33875">
        <ele>186.046021</ele>
        <time>2010-10-03T16:02:37Z</time>
      </trkpt>
      <trkpt lat="48.79837" lon="7.33883">
        <ele>186.116333</ele>
        <time>2010-10-03T16:02:38Z</time>
      </trkpt>
      <trkpt lat="48.79847" lon="7.33967">
        <ele>185.065552</ele>
        <time>2010-10-03T16:02:47Z</time>
      </trkpt>
      <trkpt lat="48.79851" lon="7.33992">
        <ele>186.495239</ele>
        <time>2010-10-03T16:02:50Z</time>
      </trkpt>
      <trkpt lat="48.7986" lon="7.34033">
        <ele>186.643677</ele>
        <time>2010-10-03T16:02:55Z</time>
      </trkpt>
      <trkpt lat="48.79861" lon="7.34043">
        <ele>186.760864</ele>
        <time>2010-10-03T16:02:56Z</time>
      </trkpt>
      <trkpt lat="48.7986" lon="7.34061">
        <ele>186.249146</ele>
        <time>2010-10-03T16:02:58Z</time>
      </trkpt>
      <trkpt lat="48.79856" lon="7.34078">
        <ele>186.124146</ele>
        <time>2010-10-03T16:03:00Z</time>
      </trkpt>
      <trkpt lat="48.79849" lon="7.34092">
        <ele>186.358521</ele>
        <time>2010-10-03T16:03:02Z</time>
      </trkpt>
      <trkpt lat="48.7984" lon="7.34102">
        <ele>186.702271</ele>
        <time>2010-10-03T16:03:04Z</time>
      </trkpt>
      <trkpt lat="48.79825" lon="7.34109">
        <ele>187.217896</ele>
        <time>2010-10-03T16:03:07Z</time>
      </trkpt>
      <trkpt lat="48.79813" lon="7.34112">
        <ele>188.487427</ele>
        <time>2010-10-03T16:03:09Z</time>
      </trkpt>
      <trkpt lat="48.79802" lon="7.3411">
        <ele>189.155396</ele>
        <time>2010-10-03T16:03:11Z</time>
      </trkpt>
      <trkpt lat="48.79791" lon="7.34104">
        <ele>189.237427</ele>
        <time>2010-10-03T16:03:13Z</time>
      </trkpt>
      <trkpt lat="48.79762" lon="7.34082">
        <ele>190.006958</ele>
        <time>2010-10-03T16:03:19Z</time>
      </trkpt>
      <trkpt lat="48.79747" lon="7.34069">
        <ele>189.253052</ele>
        <time>2010-10-03T16:03:22Z</time>
      </trkpt>
      <trkpt lat="48.79727" lon="7.34049">
        <ele>188.253052</ele>
        <time>2010-10-03T16:03:26Z</time>
      </trkpt>
      <trkpt lat="48.79688" lon="7.34004">
        <ele>186.741333</ele>
        <time>2010-10-03T16:03:34Z</time>
      </trkpt>
      <trkpt lat="48.79646" lon="7.33952">
        <ele>184.776489</ele>
        <time>2010-10-03T16:03:43Z</time>
      </trkpt>
      <trkpt lat="48.79638" lon="7.33941">
        <ele>184.667114</ele>
        <time>2010-10-03T16:03:45Z</time>
      </trkpt>
      <trkpt lat="48.79633" lon="7.33936">
        <ele>184.870239</ele>
        <time>2010-10-03T16:03:46Z</time>
      </trkpt>
      <trkpt lat="48.79625" lon="7.33926">
        <ele>184.588989</ele>
        <time>2010-10-03T16:03:48Z</time>
      </trkpt>
      <trkpt lat="48.79613" lon="7.33908">
        <ele>184.600708</ele>
        <time>2010-10-03T16:03:51Z</time>
      </trkpt>
      <trkpt lat="48.79596" lon="7.33894">
        <ele>186.276489</ele>
        <time>2010-10-03T16:03:55Z</time>
      </trkpt>
      <trkpt lat="48.79563" lon="7.33861">
        <ele>189.604614</ele>
        <time>2010-10-03T16:04:03Z</time>
      </trkpt>
      <trkpt lat="48.79554" lon="7.33854">
        <ele>190.585083</ele>
        <time>2010-10-03T16:04:05Z</time>
      </trkpt>
      <trkpt lat="48.79548" lon="7.33843">
        <ele>191.643677</ele>
        <time>2010-10-03T16:04:07Z</time>
      </trkpt>
      <trkpt lat="48.79533" lon="7.33825">
        <ele>194.026489</ele>
        <time>2010-10-03T16:04:11Z</time>
      </trkpt>
      <trkpt lat="48.7953" lon="7.33819">
        <ele>194.909302</ele>
        <time>2010-10-03T16:04:12Z</time>
      </trkpt>
      <trkpt lat="48.79521" lon="7.33805">
        <ele>196.565552</ele>
        <time>2010-10-03T16:04:15Z</time>
      </trkpt>
      <trkpt lat="48.79506" lon="7.33775">
        <ele>198.284302</ele>
        <time>2010-10-03T16:04:20Z</time>
      </trkpt>
      <trkpt lat="48.79492" lon="7.33752">
        <ele>200.549927</ele>
        <time>2010-10-03T16:04:24Z</time>
      </trkpt>
      <trkpt lat="48.79483" lon="7.33742">
        <ele>202.159302</ele>
        <time>2010-10-03T16:04:26Z</time>
      </trkpt>
      <trkpt lat="48.79473" lon="7.33734">
        <ele>202.659302</ele>
        <time>2010-10-03T16:04:28Z</time>
      </trkpt>
      <trkpt lat="48.79465" lon="7.33722">
        <ele>203.866333</ele>
        <time>2010-10-03T16:04:30Z</time>
      </trkpt>
      <trkpt lat="48.79454" lon="7.33697">
        <ele>206.401489</ele>
        <time>2010-10-03T16:04:34Z</time>
      </trkpt>
      <trkpt lat="48.79452" lon="7.3369">
        <ele>206.600708</ele>
        <time>2010-10-03T16:04:35Z</time>
      </trkpt>
      <trkpt lat="48.79449" lon="7.33683">
        <ele>206.717896</ele>
        <time>2010-10-03T16:04:36Z</time>
      </trkpt>
      <trkpt lat="48.79443" lon="7.33679">
        <ele>206.401489</ele>
        <time>2010-10-03T16:04:37Z</time>
      </trkpt>
      <trkpt lat="48.79434" lon="7.33657">
        <ele>201.135864</ele>
        <time>2010-10-03T16:04:40Z</time>
      </trkpt>
      <trkpt lat="48.79424" lon="7.33626">
        <ele>201.807739</ele>
        <time>2010-10-03T16:04:45Z</time>
      </trkpt>
      <trkpt lat="48.79423" lon="7.33619">
        <ele>202.366333</ele>
        <time>2010-10-03T16:04:46Z</time>
      </trkpt>
      <trkpt lat="48.7942" lon="7.33613">
        <ele>202.077271</ele>
        <time>2010-10-03T16:04:47Z</time>
      </trkpt>
      <trkpt lat="48.79417" lon="7.336">
        <ele>202.850708</ele>
        <time>2010-10-03T16:04:49Z</time>
      </trkpt>
      <trkpt lat="48.79413" lon="7.33588">
        <ele>203.249146</ele>
        <time>2010-10-03T16:04:51Z</time>
      </trkpt>
      <trkpt lat="48.794" lon="7.33586">
        <ele>199.530396</ele>
        <time>2010-10-03T16:04:52Z</time>
      </trkpt>
      <trkpt lat="48.79398" lon="7.33579">
        <ele>198.710083</ele>
        <time>2010-10-03T16:04:53Z</time>
      </trkpt>
      <trkpt lat="48.79394" lon="7.33574">
        <ele>197.620239</ele>
        <time>2010-10-03T16:04:54Z</time>
      </trkpt>
      <trkpt lat="48.79391" lon="7.33567">
        <ele>197.483521</ele>
        <time>2010-10-03T16:04:55Z</time>
      </trkpt>
      <trkpt lat="48.79386" lon="7.33562">
        <ele>197.065552</ele>
        <time>2010-10-03T16:04:56Z</time>
      </trkpt>
      <trkpt lat="48.79374" lon="7.3354">
        <ele>196.889771</ele>
        <time>2010-10-03T16:05:00Z</time>
      </trkpt>
      <trkpt lat="48.79366" lon="7.33515">
        <ele>197.186646</ele>
        <time>2010-10-03T16:05:04Z</time>
      </trkpt>
      <trkpt lat="48.79351" lon="7.33493">
        <ele>200.253052</ele>
        <time>2010-10-03T16:05:09Z</time>
      </trkpt>
      <trkpt lat="48.79346" lon="7.33484">
        <ele>200.850708</ele>
        <time>2010-10-03T16:05:11Z</time>
      </trkpt>
      <trkpt lat="48.79341" lon="7.3348">
        <ele>199.784302</ele>
        <time>2010-10-03T16:05:12Z</time>
      </trkpt>
      <trkpt lat="48.7933" lon="7.33468">
        <ele>201.003052</ele>
        <time>2010-10-03T16:05:15Z</time>
      </trkpt>
      <trkpt lat="48.79318" lon="7.33451">
        <ele>202.421021</ele>
        <time>2010-10-03T16:05:19Z</time>
      </trkpt>
      <trkpt lat="48.79309" lon="7.33447">
        <ele>197.253052</ele>
        <time>2010-10-03T16:05:20Z</time>
      </trkpt>
      <trkpt lat="48.79306" lon="7.33442">
        <ele>197.338989</ele>
        <time>2010-10-03T16:05:21Z</time>
      </trkpt>
      <trkpt lat="48.79296" lon="7.33429">
        <ele>199.928833</ele>
        <time>2010-10-03T16:05:24Z</time>
      </trkpt>
      <trkpt lat="48.79291" lon="7.33426">
        <ele>199.592896</ele>
        <time>2010-10-03T16:05:25Z</time>
      </trkpt>
      <trkpt lat="48.79281" lon="7.33412">
        <ele>199.171021</ele>
        <time>2010-10-03T16:05:28Z</time>
      </trkpt>
      <trkpt lat="48.79255" lon="7.33387">
        <ele>202.061646</ele>
        <time>2010-10-03T16:05:35Z</time>
      </trkpt>
      <trkpt lat="48.79245" lon="7.33383">
        <ele>201.631958</ele>
        <time>2010-10-03T16:05:37Z</time>
      </trkpt>
      <trkpt lat="48.79238" lon="7.33377">
        <ele>202.049927</ele>
        <time>2010-10-03T16:05:39Z</time>
      </trkpt>
      <trkpt lat="48.79231" lon="7.33368">
        <ele>201.100708</ele>
        <time>2010-10-03T16:05:41Z</time>
      </trkpt>
      <trkpt lat="48.79213" lon="7.33348">
        <ele>201.085083</ele>
        <time>2010-10-03T16:05:46Z</time>
      </trkpt>
      <trkpt lat="48.79204" lon="7.33334">
        <ele>201.862427</ele>
        <time>2010-10-03T16:05:49Z</time>
      </trkpt>
      <trkpt lat="48.79198" lon="7.33332">
        <ele>204.131958</ele>
        <time>2010-10-03T16:05:51Z</time>
      </trkpt>
      <trkpt lat="48.79193" lon="7.33329">
        <ele>204.022583</ele>
        <time>2010-10-03T16:05:53Z</time>
      </trkpt>
      <trkpt lat="48.79176" lon="7.33314">
        <ele>205.405396</ele>
        <time>2010-10-03T16:06:00Z</time>
      </trkpt>
      <trkpt lat="48.79166" lon="7.33307">
        <ele>200.292114</ele>
        <time>2010-10-03T16:06:02Z</time>
      </trkpt>
      <trkpt lat="48.7913" lon="7.33275">
        <ele>195.565552</ele>
        <time>2010-10-03T16:06:14Z</time>
      </trkpt>
      <trkpt lat="48.79111" lon="7.3326">
        <ele>195.139771</ele>
        <time>2010-10-03T16:06:20Z</time>
      </trkpt>
      <trkpt lat="48.79092" lon="7.33245">
        <ele>195.932739</ele>
        <time>2010-10-03T16:06:26Z</time>
      </trkpt>
      <trkpt lat="48.7907" lon="7.33222">
        <ele>194.999146</ele>
        <time>2010-10-03T16:06:34Z</time>
      </trkpt>
      <trkpt lat="48.79036" lon="7.33198">
        <ele>194.866333</ele>
        <time>2010-10-03T16:06:44Z</time>
      </trkpt>
      <trkpt lat="48.79016" lon="7.33187">
        <ele>195.299927</ele>
        <time>2010-10-03T16:06:50Z</time>
      </trkpt>
      <trkpt lat="48.78994" lon="7.33177">
        <ele>195.881958</ele>
        <time>2010-10-03T16:06:56Z</time>
      </trkpt>
      <trkpt lat="48.7898" lon="7.33171">
        <ele>196.428833</ele>
        <time>2010-10-03T16:07:00Z</time>
      </trkpt>
      <trkpt lat="48.78965" lon="7.33168">
        <ele>196.311646</ele>
        <time>2010-10-03T16:07:04Z</time>
      </trkpt>
      <trkpt lat="48.78945" lon="7.33165">
        <ele>196.756958</ele>
        <time>2010-10-03T16:07:10Z</time>
      </trkpt>
      <trkpt lat="48.78883" lon="7.33165">
        <ele>199.655396</ele>
        <time>2010-10-03T16:07:26Z</time>
      </trkpt>
      <trkpt lat="48.78862" lon="7.33166">
        <ele>201.483521</ele>
        <time>2010-10-03T16:07:32Z</time>
      </trkpt>
      <trkpt lat="48.78855" lon="7.33168">
        <ele>201.088989</ele>
        <time>2010-10-03T16:07:34Z</time>
      </trkpt>
      <trkpt lat="48.78826" lon="7.33169">
        <ele>206.366333</ele>
        <time>2010-10-03T16:07:44Z</time>
      </trkpt>
      <trkpt lat="48.78809" lon="7.3316">
        <ele>209.807739</ele>
        <time>2010-10-03T16:07:50Z</time>
      </trkpt>
      <trkpt lat="48.788" lon="7.33149">
        <ele>210.088989</ele>
        <time>2010-10-03T16:07:54Z</time>
      </trkpt>
      <trkpt lat="48.78773" lon="7.33102">
        <ele>210.307739</ele>
        <time>2010-10-03T16:08:08Z</time>
      </trkpt>
      <trkpt lat="48.78767" lon="7.33088">
        <ele>211.428833</ele>
        <time>2010-10-03T16:08:12Z</time>
      </trkpt>
      <trkpt lat="48.78759" lon="7.33065">
        <ele>213.241333</ele>
        <time>2010-10-03T16:08:18Z</time>
      </trkpt>
      <trkpt lat="48.78755" lon="7.3305">
        <ele>213.835083</ele>
        <time>2010-10-03T16:08:22Z</time>
      </trkpt>
      <trkpt lat="48.7875" lon="7.33035">
        <ele>214.327271</ele>
        <time>2010-10-03T16:08:26Z</time>
      </trkpt>
      <trkpt lat="48.78749" lon="7.33028">
        <ele>214.370239</ele>
        <time>2010-10-03T16:08:28Z</time>
      </trkpt>
      <trkpt lat="48.7874" lon="7.33">
        <ele>215.264771</ele>
        <time>2010-10-03T16:08:36Z</time>
      </trkpt>
      <trkpt lat="48.7873" lon="7.32957">
        <ele>215.807739</ele>
        <time>2010-10-03T16:08:48Z</time>
      </trkpt>
      <trkpt lat="48.78726" lon="7.32934">
        <ele>216.124146</ele>
        <time>2010-10-03T16:08:54Z</time>
      </trkpt>
      <trkpt lat="48.78719" lon="7.32912">
        <ele>215.776489</ele>
        <time>2010-10-03T16:09:00Z</time>
      </trkpt>
      <trkpt lat="48.78712" lon="7.32893">
        <ele>215.831177</ele>
        <time>2010-10-03T16:09:06Z</time>
      </trkpt>
      <trkpt lat="48.78708" lon="7.32878">
        <ele>216.342896</ele>
        <time>2010-10-03T16:09:10Z</time>
      </trkpt>
      <trkpt lat="48.78705" lon="7.32862">
        <ele>215.784302</ele>
        <time>2010-10-03T16:09:14Z</time>
      </trkpt>
      <trkpt lat="48.78685" lon="7.32785">
        <ele>216.131958</ele>
        <time>2010-10-03T16:09:39Z</time>
      </trkpt>
      <trkpt lat="48.78671" lon="7.32731">
        <ele>215.831177</ele>
        <time>2010-10-03T16:09:53Z</time>
      </trkpt>
      <trkpt lat="48.78665" lon="7.32699">
        <ele>215.639771</ele>
        <time>2010-10-03T16:10:01Z</time>
      </trkpt>
      <trkpt lat="48.78663" lon="7.32692">
        <ele>216.546021</ele>
        <time>2010-10-03T16:10:03Z</time>
      </trkpt>
      <trkpt lat="48.78659" lon="7.32677">
        <ele>216.729614</ele>
        <time>2010-10-03T16:10:07Z</time>
      </trkpt>
      <trkpt lat="48.78649" lon="7.32647">
        <ele>217.026489</ele>
        <time>2010-10-03T16:10:15Z</time>
      </trkpt>
      <trkpt lat="48.78647" lon="7.32639">
        <ele>216.838989</ele>
        <time>2010-10-03T16:10:17Z</time>
      </trkpt>
      <trkpt lat="48.78628" lon="7.32578">
        <ele>221.276489</ele>
        <time>2010-10-03T16:10:33Z</time>
      </trkpt>
      <trkpt lat="48.78623" lon="7.32554">
        <ele>220.913208</ele>
        <time>2010-10-03T16:10:39Z</time>
      </trkpt>
      <trkpt lat="48.78612" lon="7.32509">
        <ele>223.483521</ele>
        <time>2010-10-03T16:10:51Z</time>
      </trkpt>
      <trkpt lat="48.78606" lon="7.32495">
        <ele>224.147583</ele>
        <time>2010-10-03T16:10:55Z</time>
      </trkpt>
      <trkpt lat="48.78604" lon="7.32488">
        <ele>224.342896</ele>
        <time>2010-10-03T16:10:57Z</time>
      </trkpt>
      <trkpt lat="48.78597" lon="7.32469">
        <ele>226.592896</ele>
        <time>2010-10-03T16:11:03Z</time>
      </trkpt>
      <trkpt lat="48.78594" lon="7.32452">
        <ele>227.401489</ele>
        <time>2010-10-03T16:11:07Z</time>
      </trkpt>
      <trkpt lat="48.78591" lon="7.32448">
        <ele>229.018677</ele>
        <time>2010-10-03T16:11:09Z</time>
      </trkpt>
      <trkpt lat="48.78585" lon="7.32436">
        <ele>229.983521</ele>
        <time>2010-10-03T16:11:13Z</time>
      </trkpt>
      <trkpt lat="48.78578" lon="7.32416">
        <ele>232.280396</ele>
        <time>2010-10-03T16:11:19Z</time>
      </trkpt>
      <trkpt lat="48.7857" lon="7.32384">
        <ele>234.362427</ele>
        <time>2010-10-03T16:11:27Z</time>
      </trkpt>
      <trkpt lat="48.78568" lon="7.32377">
        <ele>234.963989</ele>
        <time>2010-10-03T16:11:29Z</time>
      </trkpt>
      <trkpt lat="48.78567" lon="7.32368">
        <ele>235.897583</ele>
        <time>2010-10-03T16:11:32Z</time>
      </trkpt>
      <trkpt lat="48.78565" lon="7.32359">
        <ele>236.647583</ele>
        <time>2010-10-03T16:11:35Z</time>
      </trkpt>
      <trkpt lat="48.78563" lon="7.32331">
        <ele>237.077271</ele>
        <time>2010-10-03T16:11:41Z</time>
      </trkpt>
      <trkpt lat="48.7856" lon="7.32317">
        <ele>238.010864</ele>
        <time>2010-10-03T16:11:46Z</time>
      </trkpt>
      <trkpt lat="48.78558" lon="7.3231">
        <ele>238.256958</ele>
        <time>2010-10-03T16:11:49Z</time>
      </trkpt>
      <trkpt lat="48.78558" lon="7.323">
        <ele>237.561646</ele>
        <time>2010-10-03T16:11:51Z</time>
      </trkpt>
      <trkpt lat="48.78557" lon="7.32293">
        <ele>237.436646</ele>
        <time>2010-10-03T16:11:53Z</time>
      </trkpt>
      <trkpt lat="48.78554" lon="7.32285">
        <ele>237.003052</ele>
        <time>2010-10-03T16:11:56Z</time>
      </trkpt>
      <trkpt lat="48.78553" lon="7.32278">
        <ele>236.651489</ele>
        <time>2010-10-03T16:11:58Z</time>
      </trkpt>
      <trkpt lat="48.78547" lon="7.32247">
        <ele>236.229614</ele>
        <time>2010-10-03T16:12:07Z</time>
      </trkpt>
      <trkpt lat="48.78543" lon="7.32238">
        <ele>235.499146</ele>
        <time>2010-10-03T16:12:10Z</time>
      </trkpt>
      <trkpt lat="48.78536" lon="7.32224">
        <ele>233.725708</ele>
        <time>2010-10-03T16:12:16Z</time>
      </trkpt>
      <trkpt lat="48.78534" lon="7.32217">
        <ele>234.772583</ele>
        <time>2010-10-03T16:12:18Z</time>
      </trkpt>
      <trkpt lat="48.78521" lon="7.32193">
        <ele>234.315552</ele>
        <time>2010-10-03T16:12:27Z</time>
      </trkpt>
      <trkpt lat="48.78519" lon="7.32187">
        <ele>234.565552</ele>
        <time>2010-10-03T16:12:29Z</time>
      </trkpt>
      <trkpt lat="48.78512" lon="7.32173">
        <ele>235.088989</ele>
        <time>2010-10-03T16:12:34Z</time>
      </trkpt>
      <trkpt lat="48.78497" lon="7.32152">
        <ele>235.440552</ele>
        <time>2010-10-03T16:12:43Z</time>
      </trkpt>
      <trkpt lat="48.78495" lon="7.32146">
        <ele>235.475708</ele>
        <time>2010-10-03T16:12:45Z</time>
      </trkpt>
      <trkpt lat="48.78487" lon="7.32137">
        <ele>235.346802</ele>
        <time>2010-10-03T16:12:49Z</time>
      </trkpt>
      <trkpt lat="48.7848" lon="7.32124">
        <ele>235.585083</ele>
        <time>2010-10-03T16:12:54Z</time>
      </trkpt>
      <trkpt lat="48.78461" lon="7.32078">
        <ele>237.995239</ele>
        <time>2010-10-03T16:13:11Z</time>
      </trkpt>
      <trkpt lat="48.78459" lon="7.32072">
        <ele>237.913208</ele>
        <time>2010-10-03T16:13:13Z</time>
      </trkpt>
      <trkpt lat="48.78453" lon="7.3206">
        <ele>238.913208</ele>
        <time>2010-10-03T16:13:17Z</time>
      </trkpt>
      <trkpt lat="48.78439" lon="7.32022">
        <ele>239.585083</ele>
        <time>2010-10-03T16:13:30Z</time>
      </trkpt>
      <trkpt lat="48.78432" lon="7.31996">
        <ele>240.042114</ele>
        <time>2010-10-03T16:13:38Z</time>
      </trkpt>
      <trkpt lat="48.78426" lon="7.31967">
        <ele>241.370239</ele>
        <time>2010-10-03T16:13:46Z</time>
      </trkpt>
      <trkpt lat="48.78426" lon="7.31945">
        <ele>240.588989</ele>
        <time>2010-10-03T16:13:53Z</time>
      </trkpt>
      <trkpt lat="48.78431" lon="7.31903">
        <ele>241.616333</ele>
        <time>2010-10-03T16:14:05Z</time>
      </trkpt>
      <trkpt lat="48.78431" lon="7.31896">
        <ele>242.487427</ele>
        <time>2010-10-03T16:14:07Z</time>
      </trkpt>
      <trkpt lat="48.78434" lon="7.31872">
        <ele>243.952271</ele>
        <time>2010-10-03T16:14:13Z</time>
      </trkpt>
      <trkpt lat="48.78436" lon="7.31843">
        <ele>246.057739</ele>
        <time>2010-10-03T16:14:21Z</time>
      </trkpt>
      <trkpt lat="48.78439" lon="7.31823">
        <ele>248.003052</ele>
        <time>2010-10-03T16:14:27Z</time>
      </trkpt>
      <trkpt lat="48.78441" lon="7.31793">
        <ele>251.733521</ele>
        <time>2010-10-03T16:14:39Z</time>
      </trkpt>
      <trkpt lat="48.78442" lon="7.31785">
        <ele>251.729614</ele>
        <time>2010-10-03T16:14:42Z</time>
      </trkpt>
      <trkpt lat="48.78444" lon="7.31741">
        <ele>252.522583</ele>
        <time>2010-10-03T16:14:56Z</time>
      </trkpt>
      <trkpt lat="48.78443" lon="7.31725">
        <ele>252.237427</ele>
        <time>2010-10-03T16:15:02Z</time>
      </trkpt>
      <trkpt lat="48.78444" lon="7.31697">
        <ele>252.690552</ele>
        <time>2010-10-03T16:15:11Z</time>
      </trkpt>
      <trkpt lat="48.78443" lon="7.31674">
        <ele>253.299927</ele>
        <time>2010-10-03T16:15:19Z</time>
      </trkpt>
      <trkpt lat="48.78441" lon="7.31657">
        <ele>253.315552</ele>
        <time>2010-10-03T16:15:26Z</time>
      </trkpt>
      <trkpt lat="48.78438" lon="7.31641">
        <ele>253.452271</ele>
        <time>2010-10-03T16:15:33Z</time>
      </trkpt>
      <trkpt lat="48.78432" lon="7.31619">
        <ele>253.674927</ele>
        <time>2010-10-03T16:15:42Z</time>
      </trkpt>
      <trkpt lat="48.78429" lon="7.31598">
        <ele>253.956177</ele>
        <time>2010-10-03T16:15:49Z</time>
      </trkpt>
      <trkpt lat="48.78428" lon="7.31591">
        <ele>253.967896</ele>
        <time>2010-10-03T16:15:53Z</time>
      </trkpt>
      <trkpt lat="48.78425" lon="7.31583">
        <ele>253.991333</ele>
        <time>2010-10-03T16:15:56Z</time>
      </trkpt>
      <trkpt lat="48.78419" lon="7.3156">
        <ele>255.171021</ele>
        <time>2010-10-03T16:16:02Z</time>
      </trkpt>
      <trkpt lat="48.78417" lon="7.31551">
        <ele>255.467896</ele>
        <time>2010-10-03T16:16:05Z</time>
      </trkpt>
      <trkpt lat="48.78411" lon="7.31536">
        <ele>256.521729</ele>
        <time>2010-10-03T16:16:11Z</time>
      </trkpt>
      <trkpt lat="48.78407" lon="7.31528">
        <ele>257.060791</ele>
        <time>2010-10-03T16:16:14Z</time>
      </trkpt>
      <trkpt lat="48.78405" lon="7.31519">
        <ele>256.834229</ele>
        <time>2010-10-03T16:16:17Z</time>
      </trkpt>
      <trkpt lat="48.7839" lon="7.31483">
        <ele>260.170166</ele>
        <time>2010-10-03T16:16:30Z</time>
      </trkpt>
      <trkpt lat="48.78389" lon="7.31476">
        <ele>259.865479</ele>
        <time>2010-10-03T16:16:32Z</time>
      </trkpt>
      <trkpt lat="48.78389" lon="7.31464">
        <ele>258.240479</ele>
        <time>2010-10-03T16:16:34Z</time>
      </trkpt>
      <trkpt lat="48.78385" lon="7.31445">
        <ele>260.224854</ele>
        <time>2010-10-03T16:16:40Z</time>
      </trkpt>
      <trkpt lat="48.78376" lon="7.31422">
        <ele>262.193604</ele>
        <time>2010-10-03T16:16:48Z</time>
      </trkpt>
      <trkpt lat="48.78366" lon="7.31402">
        <ele>264.076416</ele>
        <time>2010-10-03T16:16:57Z</time>
      </trkpt>
      <trkpt lat="48.78358" lon="7.31388">
        <ele>265.334229</ele>
        <time>2010-10-03T16:17:03Z</time>
      </trkpt>
      <trkpt lat="48.78353" lon="7.31383">
        <ele>265.631104</ele>
        <time>2010-10-03T16:17:07Z</time>
      </trkpt>
      <trkpt lat="48.78342" lon="7.31381">
        <ele>267.138916</ele>
        <time>2010-10-03T16:17:11Z</time>
      </trkpt>
      <trkpt lat="48.78333" lon="7.31383">
        <ele>268.927979</ele>
        <time>2010-10-03T16:17:15Z</time>
      </trkpt>
      <trkpt lat="48.78326" lon="7.31385">
        <ele>269.662354</ele>
        <time>2010-10-03T16:17:18Z</time>
      </trkpt>
      <trkpt lat="48.78318" lon="7.31394">
        <ele>269.224854</ele>
        <time>2010-10-03T16:17:27Z</time>
      </trkpt>
      <trkpt lat="48.78316" lon="7.31401">
        <ele>269.302979</ele>
        <time>2010-10-03T16:17:31Z</time>
      </trkpt>
      <trkpt lat="48.78315" lon="7.31409">
        <ele>269.263916</ele>
        <time>2010-10-03T16:17:34Z</time>
      </trkpt>
      <trkpt lat="48.78316" lon="7.31433">
        <ele>270.037354</ele>
        <time>2010-10-03T16:17:41Z</time>
      </trkpt>
      <trkpt lat="48.78318" lon="7.3145">
        <ele>270.224854</ele>
        <time>2010-10-03T16:17:46Z</time>
      </trkpt>
      <trkpt lat="48.78318" lon="7.31483">
        <ele>271.615479</ele>
        <time>2010-10-03T16:17:58Z</time>
      </trkpt>
      <trkpt lat="48.78319" lon="7.31526">
        <ele>272.842041</ele>
        <time>2010-10-03T16:18:13Z</time>
      </trkpt>
      <trkpt lat="48.78318" lon="7.31557">
        <ele>272.685791</ele>
        <time>2010-10-03T16:18:25Z</time>
      </trkpt>
      <trkpt lat="48.78318" lon="7.31585">
        <ele>273.521729</ele>
        <time>2010-10-03T16:18:34Z</time>
      </trkpt>
      <trkpt lat="48.78317" lon="7.31593">
        <ele>274.006104</ele>
        <time>2010-10-03T16:18:36Z</time>
      </trkpt>
      <trkpt lat="48.78313" lon="7.31606">
        <ele>274.873291</ele>
        <time>2010-10-03T16:18:40Z</time>
      </trkpt>
      <trkpt lat="48.78299" lon="7.31642">
        <ele>276.967041</ele>
        <time>2010-10-03T16:18:53Z</time>
      </trkpt>
      <trkpt lat="48.78297" lon="7.3165">
        <ele>277.513916</ele>
        <time>2010-10-03T16:18:56Z</time>
      </trkpt>
      <trkpt lat="48.78291" lon="7.31664">
        <ele>278.967041</ele>
        <time>2010-10-03T16:19:02Z</time>
      </trkpt>
      <trkpt lat="48.78286" lon="7.31678">
        <ele>280.021729</ele>
        <time>2010-10-03T16:19:08Z</time>
      </trkpt>
      <trkpt lat="48.78283" lon="7.31692">
        <ele>280.256104</ele>
        <time>2010-10-03T16:19:14Z</time>
      </trkpt>
      <trkpt lat="48.78275" lon="7.31717">
        <ele>280.154541</ele>
        <time>2010-10-03T16:19:24Z</time>
      </trkpt>
      <trkpt lat="48.78272" lon="7.31722">
        <ele>280.545166</ele>
        <time>2010-10-03T16:19:26Z</time>
      </trkpt>
      <trkpt lat="48.78267" lon="7.31728">
        <ele>280.943604</ele>
        <time>2010-10-03T16:19:29Z</time>
      </trkpt>
      <trkpt lat="48.78262" lon="7.31731">
        <ele>281.318604</ele>
        <time>2010-10-03T16:19:32Z</time>
      </trkpt>
      <trkpt lat="48.78235" lon="7.31736">
        <ele>282.232666</ele>
        <time>2010-10-03T16:19:43Z</time>
      </trkpt>
      <trkpt lat="48.78221" lon="7.31737">
        <ele>283.037354</ele>
        <time>2010-10-03T16:19:49Z</time>
      </trkpt>
      <trkpt lat="48.78212" lon="7.31736">
        <ele>283.451416</ele>
        <time>2010-10-03T16:19:53Z</time>
      </trkpt>
      <trkpt lat="48.78207" lon="7.31734">
        <ele>283.037354</ele>
        <time>2010-10-03T16:19:55Z</time>
      </trkpt>
      <trkpt lat="48.78197" lon="7.31725">
        <ele>283.818604</ele>
        <time>2010-10-03T16:20:01Z</time>
      </trkpt>
      <trkpt lat="48.78189" lon="7.31712">
        <ele>283.888916</ele>
        <time>2010-10-03T16:20:06Z</time>
      </trkpt>
      <trkpt lat="48.78186" lon="7.31703">
        <ele>284.006104</ele>
        <time>2010-10-03T16:20:09Z</time>
      </trkpt>
      <trkpt lat="48.78177" lon="7.31691">
        <ele>285.732666</ele>
        <time>2010-10-03T16:20:15Z</time>
      </trkpt>
      <trkpt lat="48.78171" lon="7.31676">
        <ele>287.615479</ele>
        <time>2010-10-03T16:20:21Z</time>
      </trkpt>
      <trkpt lat="48.78158" lon="7.3165">
        <ele>293.381104</ele>
        <time>2010-10-03T16:20:33Z</time>
      </trkpt>
      <trkpt lat="48.78154" lon="7.31645">
        <ele>293.865479</ele>
        <time>2010-10-03T16:20:36Z</time>
      </trkpt>
      <trkpt lat="48.78149" lon="7.31632">
        <ele>295.451416</ele>
        <time>2010-10-03T16:20:42Z</time>
      </trkpt>
      <trkpt lat="48.78145" lon="7.31626">
        <ele>296.631104</ele>
        <time>2010-10-03T16:20:45Z</time>
      </trkpt>
      <trkpt lat="48.78142" lon="7.31619">
        <ele>297.279541</ele>
        <time>2010-10-03T16:20:48Z</time>
      </trkpt>
      <trkpt lat="48.78135" lon="7.31605">
        <ele>298.115479</ele>
        <time>2010-10-03T16:20:54Z</time>
      </trkpt>
      <trkpt lat="48.78131" lon="7.31597">
        <ele>297.740479</ele>
        <time>2010-10-03T16:20:57Z</time>
      </trkpt>
      <trkpt lat="48.78123" lon="7.31583">
        <ele>298.404541</ele>
        <time>2010-10-03T16:21:03Z</time>
      </trkpt>
      <trkpt lat="48.7812" lon="7.31577">
        <ele>298.834229</ele>
        <time>2010-10-03T16:21:06Z</time>
      </trkpt>
      <trkpt lat="48.7812" lon="7.31569">
        <ele>300.185791</ele>
        <time>2010-10-03T16:21:09Z</time>
      </trkpt>
      <trkpt lat="48.78116" lon="7.31563">
        <ele>300.990479</ele>
        <time>2010-10-03T16:21:12Z</time>
      </trkpt>
      <trkpt lat="48.78111" lon="7.31561">
        <ele>301.209229</ele>
        <time>2010-10-03T16:21:14Z</time>
      </trkpt>
      <trkpt lat="48.78103" lon="7.31555">
        <ele>303.506104</ele>
        <time>2010-10-03T16:21:19Z</time>
      </trkpt>
      <trkpt lat="48.78093" lon="7.31554">
        <ele>306.013916</ele>
        <time>2010-10-03T16:21:28Z</time>
      </trkpt>
      <trkpt lat="48.78089" lon="7.31549">
        <ele>306.623291</ele>
        <time>2010-10-03T16:21:30Z</time>
      </trkpt>
      <trkpt lat="48.78083" lon="7.31545">
        <ele>307.545166</ele>
        <time>2010-10-03T16:21:33Z</time>
      </trkpt>
      <trkpt lat="48.78077" lon="7.31543">
        <ele>308.271729</ele>
        <time>2010-10-03T16:21:36Z</time>
      </trkpt>
      <trkpt lat="48.78064" lon="7.31537">
        <ele>307.263916</ele>
        <time>2010-10-03T16:21:44Z</time>
      </trkpt>
      <trkpt lat="48.78053" lon="7.31537">
        <ele>308.646729</ele>
        <time>2010-10-03T16:21:50Z</time>
      </trkpt>
      <trkpt lat="48.78048" lon="7.31536">
        <ele>310.217041</ele>
        <time>2010-10-03T16:21:53Z</time>
      </trkpt>
      <trkpt lat="48.78044" lon="7.31536">
        <ele>311.599854</ele>
        <time>2010-10-03T16:21:56Z</time>
      </trkpt>
      <trkpt lat="48.7802" lon="7.31548">
        <ele>314.318604</ele>
        <time>2010-10-03T16:22:10Z</time>
      </trkpt>
      <trkpt lat="48.78016" lon="7.31553">
        <ele>314.107666</ele>
        <time>2010-10-03T16:22:13Z</time>
      </trkpt>
      <trkpt lat="48.78013" lon="7.31558">
        <ele>313.381104</ele>
        <time>2010-10-03T16:22:16Z</time>
      </trkpt>
      <trkpt lat="48.78001" lon="7.31585">
        <ele>311.826416</ele>
        <time>2010-10-03T16:22:30Z</time>
      </trkpt>
      <trkpt lat="48.78" lon="7.31594">
        <ele>311.779541</ele>
        <time>2010-10-03T16:22:33Z</time>
      </trkpt>
      <trkpt lat="48.78001" lon="7.31625">
        <ele>313.412354</ele>
        <time>2010-10-03T16:22:45Z</time>
      </trkpt>
      <trkpt lat="48.77999" lon="7.31641">
        <ele>313.974854</ele>
        <time>2010-10-03T16:22:51Z</time>
      </trkpt>
      <trkpt lat="48.77999" lon="7.31657">
        <ele>315.599854</ele>
        <time>2010-10-03T16:22:56Z</time>
      </trkpt>
      <trkpt lat="48.77998" lon="7.31672">
        <ele>316.263916</ele>
        <time>2010-10-03T16:23:01Z</time>
      </trkpt>
      <trkpt lat="48.77986" lon="7.31709">
        <ele>311.896729</ele>
        <time>2010-10-03T16:23:13Z</time>
      </trkpt>
      <trkpt lat="48.77981" lon="7.31717">
        <ele>311.912354</ele>
        <time>2010-10-03T16:23:16Z</time>
      </trkpt>
      <trkpt lat="48.77977" lon="7.31721">
        <ele>312.435791</ele>
        <time>2010-10-03T16:23:18Z</time>
      </trkpt>
      <trkpt lat="48.77961" lon="7.31731">
        <ele>314.568604</ele>
        <time>2010-10-03T16:23:26Z</time>
      </trkpt>
      <trkpt lat="48.77949" lon="7.31735">
        <ele>316.443604</ele>
        <time>2010-10-03T16:23:32Z</time>
      </trkpt>
      <trkpt lat="48.77939" lon="7.31741">
        <ele>317.935791</ele>
        <time>2010-10-03T16:23:39Z</time>
      </trkpt>
      <trkpt lat="48.77927" lon="7.31745">
        <ele>317.584229</ele>
        <time>2010-10-03T16:23:45Z</time>
      </trkpt>
      <trkpt lat="48.77914" lon="7.31747">
        <ele>317.826416</ele>
        <time>2010-10-03T16:23:51Z</time>
      </trkpt>
      <trkpt lat="48.77874" lon="7.31762">
        <ele>320.693604</ele>
        <time>2010-10-03T16:24:12Z</time>
      </trkpt>
      <trkpt lat="48.77863" lon="7.31769">
        <ele>323.724854</ele>
        <time>2010-10-03T16:24:18Z</time>
      </trkpt>
      <trkpt lat="48.77859" lon="7.31774">
        <ele>325.849854</ele>
        <time>2010-10-03T16:24:21Z</time>
      </trkpt>
      <trkpt lat="48.77844" lon="7.31777">
        <ele>323.217041</ele>
        <time>2010-10-03T16:24:28Z</time>
      </trkpt>
      <trkpt lat="48.77831" lon="7.31782">
        <ele>323.545166</ele>
        <time>2010-10-03T16:24:34Z</time>
      </trkpt>
      <trkpt lat="48.77822" lon="7.31789">
        <ele>324.560791</ele>
        <time>2010-10-03T16:24:39Z</time>
      </trkpt>
      <trkpt lat="48.77802" lon="7.318">
        <ele>327.271729</ele>
        <time>2010-10-03T16:24:49Z</time>
      </trkpt>
      <trkpt lat="48.77797" lon="7.31801">
        <ele>327.677979</ele>
        <time>2010-10-03T16:24:52Z</time>
      </trkpt>
      <trkpt lat="48.77781" lon="7.31796">
        <ele>326.677979</ele>
        <time>2010-10-03T16:24:59Z</time>
      </trkpt>
      <trkpt lat="48.7777" lon="7.31795">
        <ele>326.138916</ele>
        <time>2010-10-03T16:25:03Z</time>
      </trkpt>
      <trkpt lat="48.77745" lon="7.31788">
        <ele>325.927979</ele>
        <time>2010-10-03T16:25:13Z</time>
      </trkpt>
      <trkpt lat="48.77735" lon="7.31784">
        <ele>326.638916</ele>
        <time>2010-10-03T16:25:17Z</time>
      </trkpt>
      <trkpt lat="48.77725" lon="7.31778">
        <ele>325.396729</ele>
        <time>2010-10-03T16:25:21Z</time>
      </trkpt>
      <trkpt lat="48.77712" lon="7.31767">
        <ele>325.631104</ele>
        <time>2010-10-03T16:25:27Z</time>
      </trkpt>
      <trkpt lat="48.77705" lon="7.31758">
        <ele>325.795166</ele>
        <time>2010-10-03T16:25:31Z</time>
      </trkpt>
      <trkpt lat="48.77692" lon="7.31738">
        <ele>323.826416</ele>
        <time>2010-10-03T16:25:40Z</time>
      </trkpt>
      <trkpt lat="48.77675" lon="7.31705">
        <ele>323.982666</ele>
        <time>2010-10-03T16:25:55Z</time>
      </trkpt>
      <trkpt lat="48.77662" lon="7.31677">
        <ele>324.482666</ele>
        <time>2010-10-03T16:26:07Z</time>
      </trkpt>
      <trkpt lat="48.77631" lon="7.31604">
        <ele>323.709229</ele>
        <time>2010-10-03T16:26:41Z</time>
      </trkpt>
      <trkpt lat="48.7763" lon="7.31595">
        <ele>323.006104</ele>
        <time>2010-10-03T16:26:44Z</time>
      </trkpt>
      <trkpt lat="48.77626" lon="7.3159">
        <ele>323.834229</ele>
        <time>2010-10-03T16:26:49Z</time>
      </trkpt>
      <trkpt lat="48.77617" lon="7.31567">
        <ele>324.349854</ele>
        <time>2010-10-03T16:26:58Z</time>
      </trkpt>
      <trkpt lat="48.77602" lon="7.31541">
        <ele>325.592041</ele>
        <time>2010-10-03T16:27:10Z</time>
      </trkpt>
      <trkpt lat="48.77585" lon="7.31498">
        <ele>326.881104</ele>
        <time>2010-10-03T16:27:28Z</time>
      </trkpt>
      <trkpt lat="48.7758" lon="7.31492">
        <ele>327.685791</ele>
        <time>2010-10-03T16:27:32Z</time>
      </trkpt>
      <trkpt lat="48.77574" lon="7.31479">
        <ele>328.099854</ele>
        <time>2010-10-03T16:27:38Z</time>
      </trkpt>
      <trkpt lat="48.77567" lon="7.31468">
        <ele>328.763916</ele>
        <time>2010-10-03T16:27:44Z</time>
      </trkpt>
      <trkpt lat="48.77563" lon="7.31463">
        <ele>328.787354</ele>
        <time>2010-10-03T16:27:47Z</time>
      </trkpt>
      <trkpt lat="48.77553" lon="7.31447">
        <ele>329.576416</ele>
        <time>2010-10-03T16:27:56Z</time>
      </trkpt>
      <trkpt lat="48.7753" lon="7.31425">
        <ele>332.521729</ele>
        <time>2010-10-03T16:28:11Z</time>
      </trkpt>
      <trkpt lat="48.77496" lon="7.31403">
        <ele>337.131104</ele>
        <time>2010-10-03T16:28:34Z</time>
      </trkpt>
      <trkpt lat="48.77486" lon="7.31399">
        <ele>339.248291</ele>
        <time>2010-10-03T16:28:41Z</time>
      </trkpt>
      <trkpt lat="48.77462" lon="7.31391">
        <ele>341.248291</ele>
        <time>2010-10-03T16:28:56Z</time>
      </trkpt>
      <trkpt lat="48.77425" lon="7.31387">
        <ele>345.998291</ele>
        <time>2010-10-03T16:29:19Z</time>
      </trkpt>
      <trkpt lat="48.77409" lon="7.31387">
        <ele>347.959229</ele>
        <time>2010-10-03T16:29:28Z</time>
      </trkpt>
      <trkpt lat="48.77403" lon="7.31386">
        <ele>348.287354</ele>
        <time>2010-10-03T16:29:32Z</time>
      </trkpt>
      <trkpt lat="48.77378" lon="7.31386">
        <ele>355.357666</ele>
        <time>2010-10-03T16:29:49Z</time>
      </trkpt>
      <trkpt lat="48.77355" lon="7.31383">
        <ele>358.302979</ele>
        <time>2010-10-03T16:30:06Z</time>
      </trkpt>
      <trkpt lat="48.77351" lon="7.3138">
        <ele>357.209229</ele>
        <time>2010-10-03T16:30:10Z</time>
      </trkpt>
      <trkpt lat="48.77322" lon="7.31378">
        <ele>358.287354</ele>
        <time>2010-10-03T16:30:28Z</time>
      </trkpt>
      <trkpt lat="48.77313" lon="7.31373">
        <ele>354.560791</ele>
        <time>2010-10-03T16:30:34Z</time>
      </trkpt>
      <trkpt lat="48.77303" lon="7.31372">
        <ele>352.740479</ele>
        <time>2010-10-03T16:30:41Z</time>
      </trkpt>
      <trkpt lat="48.77298" lon="7.3137">
        <ele>351.560791</ele>
        <time>2010-10-03T16:30:44Z</time>
      </trkpt>
      <trkpt lat="48.77278" lon="7.31367">
        <ele>351.787354</ele>
        <time>2010-10-03T16:30:58Z</time>
      </trkpt>
      <trkpt lat="48.77268" lon="7.31369">
        <ele>351.888916</ele>
        <time>2010-10-03T16:31:04Z</time>
      </trkpt>
      <trkpt lat="48.77261" lon="7.31368">
        <ele>352.107666</ele>
        <time>2010-10-03T16:31:07Z</time>
      </trkpt>
      <trkpt lat="48.77231" lon="7.3137">
        <ele>354.076416</ele>
        <time>2010-10-03T16:31:22Z</time>
      </trkpt>
      <trkpt lat="48.77209" lon="7.31369">
        <ele>355.474854</ele>
        <time>2010-10-03T16:31:34Z</time>
      </trkpt>
      <trkpt lat="48.77198" lon="7.3137">
        <ele>356.474854</ele>
        <time>2010-10-03T16:31:40Z</time>
      </trkpt>
      <trkpt lat="48.77168" lon="7.31369">
        <ele>359.232666</ele>
        <time>2010-10-03T16:31:58Z</time>
      </trkpt>
      <trkpt lat="48.77148" lon="7.3137">
        <ele>361.170166</ele>
        <time>2010-10-03T16:32:07Z</time>
      </trkpt>
      <trkpt lat="48.77136" lon="7.31365">
        <ele>361.201416</ele>
        <time>2010-10-03T16:32:13Z</time>
      </trkpt>
      <trkpt lat="48.77115" lon="7.31364">
        <ele>361.412354</ele>
        <time>2010-10-03T16:32:21Z</time>
      </trkpt>
      <trkpt lat="48.77094" lon="7.31364">
        <ele>362.990479</ele>
        <time>2010-10-03T16:32:29Z</time>
      </trkpt>
      <trkpt lat="48.77062" lon="7.31371">
        <ele>362.388916</ele>
        <time>2010-10-03T16:32:41Z</time>
      </trkpt>
      <trkpt lat="48.7704" lon="7.3138">
        <ele>362.560791</ele>
        <time>2010-10-03T16:32:49Z</time>
      </trkpt>
      <trkpt lat="48.7703" lon="7.31386">
        <ele>361.795166</ele>
        <time>2010-10-03T16:32:53Z</time>
      </trkpt>
      <trkpt lat="48.77026" lon="7.3139">
        <ele>363.271729</ele>
        <time>2010-10-03T16:32:55Z</time>
      </trkpt>
      <trkpt lat="48.77007" lon="7.31402">
        <ele>363.185791</ele>
        <time>2010-10-03T16:33:03Z</time>
      </trkpt>
      <trkpt lat="48.76994" lon="7.31411">
        <ele>365.818604</ele>
        <time>2010-10-03T16:33:09Z</time>
      </trkpt>
      <trkpt lat="48.76957" lon="7.31449">
        <ele>373.826416</ele>
        <time>2010-10-03T16:33:31Z</time>
      </trkpt>
      <trkpt lat="48.76949" lon="7.31458">
        <ele>375.349854</ele>
        <time>2010-10-03T16:33:37Z</time>
      </trkpt>
      <trkpt lat="48.76923" lon="7.31484">
        <ele>375.013916</ele>
        <time>2010-10-03T16:33:55Z</time>
      </trkpt>
      <trkpt lat="48.76901" lon="7.31512">
        <ele>380.467041</ele>
        <time>2010-10-03T16:34:09Z</time>
      </trkpt>
      <trkpt lat="48.76897" lon="7.31519">
        <ele>381.709229</ele>
        <time>2010-10-03T16:34:12Z</time>
      </trkpt>
      <trkpt lat="48.76863" lon="7.31565">
        <ele>387.748291</ele>
        <time>2010-10-03T16:34:32Z</time>
      </trkpt>
      <trkpt lat="48.76855" lon="7.31573">
        <ele>383.443604</ele>
        <time>2010-10-03T16:34:38Z</time>
      </trkpt>
      <trkpt lat="48.76843" lon="7.31589">
        <ele>382.545166</ele>
        <time>2010-10-03T16:34:46Z</time>
      </trkpt>
      <trkpt lat="48.76834" lon="7.31598">
        <ele>382.263916</ele>
        <time>2010-10-03T16:34:51Z</time>
      </trkpt>
      <trkpt lat="48.76825" lon="7.3161">
        <ele>381.318604</ele>
        <time>2010-10-03T16:34:56Z</time>
      </trkpt>
      <trkpt lat="48.76817" lon="7.31619">
        <ele>380.763916</ele>
        <time>2010-10-03T16:35:00Z</time>
      </trkpt>
      <trkpt lat="48.76806" lon="7.31632">
        <ele>381.162354</ele>
        <time>2010-10-03T16:35:06Z</time>
      </trkpt>
      <trkpt lat="48.76799" lon="7.31645">
        <ele>381.709229</ele>
        <time>2010-10-03T16:35:11Z</time>
      </trkpt>
      <trkpt lat="48.76789" lon="7.31657">
        <ele>381.201416</ele>
        <time>2010-10-03T16:35:18Z</time>
      </trkpt>
      <trkpt lat="48.76781" lon="7.31671">
        <ele>380.451416</ele>
        <time>2010-10-03T16:35:24Z</time>
      </trkpt>
      <trkpt lat="48.76771" lon="7.31693">
        <ele>381.427979</ele>
        <time>2010-10-03T16:35:33Z</time>
      </trkpt>
      <trkpt lat="48.76766" lon="7.31699">
        <ele>381.826416</ele>
        <time>2010-10-03T16:35:36Z</time>
      </trkpt>
      <trkpt lat="48.7676" lon="7.31703">
        <ele>382.638916</ele>
        <time>2010-10-03T16:35:39Z</time>
      </trkpt>
      <trkpt lat="48.76755" lon="7.31704">
        <ele>383.052979</ele>
        <time>2010-10-03T16:35:41Z</time>
      </trkpt>
      <trkpt lat="48.7674" lon="7.31697">
        <ele>383.224854</ele>
        <time>2010-10-03T16:38:28Z</time>
      </trkpt>
      <trkpt lat="48.7673" lon="7.31696">
        <ele>382.740479</ele>
        <time>2010-10-03T16:38:33Z</time>
      </trkpt>
      <trkpt lat="48.76719" lon="7.31691">
        <ele>382.232666</ele>
        <time>2010-10-03T16:38:38Z</time>
      </trkpt>
      <trkpt lat="48.76713" lon="7.3169">
        <ele>381.974854</ele>
        <time>2010-10-03T16:38:40Z</time>
      </trkpt>
      <trkpt lat="48.76706" lon="7.31691">
        <ele>381.967041</ele>
        <time>2010-10-03T16:38:42Z</time>
      </trkpt>
      <trkpt lat="48.76699" lon="7.31694">
        <ele>382.107666</ele>
        <time>2010-10-03T16:38:44Z</time>
      </trkpt>
      <trkpt lat="48.76692" lon="7.31702">
        <ele>382.599854</ele>
        <time>2010-10-03T16:38:46Z</time>
      </trkpt>
      <trkpt lat="48.76688" lon="7.31711">
        <ele>382.842041</ele>
        <time>2010-10-03T16:38:48Z</time>
      </trkpt>
      <trkpt lat="48.76684" lon="7.31727">
        <ele>382.287354</ele>
        <time>2010-10-03T16:38:53Z</time>
      </trkpt>
      <trkpt lat="48.76672" lon="7.31765">
        <ele>382.482666</ele>
        <time>2010-10-03T16:39:05Z</time>
      </trkpt>
      <trkpt lat="48.76667" lon="7.31778">
        <ele>382.677979</ele>
        <time>2010-10-03T16:39:09Z</time>
      </trkpt>
      <trkpt lat="48.76642" lon="7.31827">
        <ele>385.287354</ele>
        <time>2010-10-03T16:39:30Z</time>
      </trkpt>
      <trkpt lat="48.76638" lon="7.31834">
        <ele>385.232666</ele>
        <time>2010-10-03T16:39:33Z</time>
      </trkpt>
      <trkpt lat="48.76633" lon="7.31847">
        <ele>385.967041</ele>
        <time>2010-10-03T16:39:39Z</time>
      </trkpt>
      <trkpt lat="48.76616" lon="7.31879">
        <ele>387.052979</ele>
        <time>2010-10-03T16:39:53Z</time>
      </trkpt>
      <trkpt lat="48.76604" lon="7.31899">
        <ele>387.435791</ele>
        <time>2010-10-03T16:40:02Z</time>
      </trkpt>
      <trkpt lat="48.76592" lon="7.31916">
        <ele>387.584229</ele>
        <time>2010-10-03T16:40:09Z</time>
      </trkpt>
      <trkpt lat="48.76578" lon="7.31938">
        <ele>387.810791</ele>
        <time>2010-10-03T16:40:17Z</time>
      </trkpt>
      <trkpt lat="48.7657" lon="7.31948">
        <ele>388.146729</ele>
        <time>2010-10-03T16:40:21Z</time>
      </trkpt>
      <trkpt lat="48.7656" lon="7.31965">
        <ele>388.451416</ele>
        <time>2010-10-03T16:40:27Z</time>
      </trkpt>
      <trkpt lat="48.76553" lon="7.31975">
        <ele>388.365479</ele>
        <time>2010-10-03T16:40:31Z</time>
      </trkpt>
      <trkpt lat="48.76541" lon="7.31991">
        <ele>389.068604</ele>
        <time>2010-10-03T16:40:37Z</time>
      </trkpt>
      <trkpt lat="48.76533" lon="7.32001">
        <ele>389.654541</ele>
        <time>2010-10-03T16:40:41Z</time>
      </trkpt>
      <trkpt lat="48.76521" lon="7.32019">
        <ele>390.045166</ele>
        <time>2010-10-03T16:40:47Z</time>
      </trkpt>
      <trkpt lat="48.76512" lon="7.32029">
        <ele>390.842041</ele>
        <time>2010-10-03T16:40:51Z</time>
      </trkpt>
      <trkpt lat="48.76506" lon="7.3204">
        <ele>392.302979</ele>
        <time>2010-10-03T16:40:55Z</time>
      </trkpt>
      <trkpt lat="48.76493" lon="7.32056">
        <ele>393.107666</ele>
        <time>2010-10-03T16:41:01Z</time>
      </trkpt>
      <trkpt lat="48.76458" lon="7.32104">
        <ele>394.709229</ele>
        <time>2010-10-03T16:41:17Z</time>
      </trkpt>
      <trkpt lat="48.76361" lon="7.32236">
        <ele>398.052979</ele>
        <time>2010-10-03T16:41:57Z</time>
      </trkpt>
      <trkpt lat="48.76337" lon="7.32269">
        <ele>399.154541</ele>
        <time>2010-10-03T16:42:07Z</time>
      </trkpt>
      <trkpt lat="48.76292" lon="7.32329">
        <ele>400.709229</ele>
        <time>2010-10-03T16:42:25Z</time>
      </trkpt>
      <trkpt lat="48.76289" lon="7.32335">
        <ele>401.162354</ele>
        <time>2010-10-03T16:42:27Z</time>
      </trkpt>
      <trkpt lat="48.76263" lon="7.32372">
        <ele>401.763916</ele>
        <time>2010-10-03T16:42:37Z</time>
      </trkpt>
      <trkpt lat="48.76246" lon="7.32394">
        <ele>402.420166</ele>
        <time>2010-10-03T16:42:43Z</time>
      </trkpt>
      <trkpt lat="48.7623" lon="7.32418">
        <ele>403.263916</ele>
        <time>2010-10-03T16:42:49Z</time>
      </trkpt>
      <trkpt lat="48.76191" lon="7.3247">
        <ele>403.592041</ele>
        <time>2010-10-03T16:43:01Z</time>
      </trkpt>
      <trkpt lat="48.76168" lon="7.32503">
        <ele>403.615479</ele>
        <time>2010-10-03T16:43:08Z</time>
      </trkpt>
      <trkpt lat="48.76131" lon="7.32549">
        <ele>403.099854</ele>
        <time>2010-10-03T16:43:17Z</time>
      </trkpt>
      <trkpt lat="48.76117" lon="7.32565">
        <ele>402.709229</ele>
        <time>2010-10-03T16:43:20Z</time>
      </trkpt>
      <trkpt lat="48.76074" lon="7.32605">
        <ele>401.451416</ele>
        <time>2010-10-03T16:43:28Z</time>
      </trkpt>
      <trkpt lat="48.76042" lon="7.32633">
        <ele>400.912354</ele>
        <time>2010-10-03T16:43:34Z</time>
      </trkpt>
      <trkpt lat="48.76032" lon="7.32641">
        <ele>400.513916</ele>
        <time>2010-10-03T16:43:36Z</time>
      </trkpt>
      <trkpt lat="48.76022" lon="7.3265">
        <ele>399.959229</ele>
        <time>2010-10-03T16:43:38Z</time>
      </trkpt>
      <trkpt lat="48.75991" lon="7.32675">
        <ele>399.310791</ele>
        <time>2010-10-03T16:43:44Z</time>
      </trkpt>
      <trkpt lat="48.75961" lon="7.32694">
        <ele>398.982666</ele>
        <time>2010-10-03T16:43:50Z</time>
      </trkpt>
      <trkpt lat="48.75909" lon="7.32736">
        <ele>398.631104</ele>
        <time>2010-10-03T16:44:01Z</time>
      </trkpt>
      <trkpt lat="48.75885" lon="7.32754">
        <ele>398.193604</ele>
        <time>2010-10-03T16:44:06Z</time>
      </trkpt>
      <trkpt lat="48.75855" lon="7.3278">
        <ele>397.420166</ele>
        <time>2010-10-03T16:44:12Z</time>
      </trkpt>
      <trkpt lat="48.75804" lon="7.32826">
        <ele>396.787354</ele>
        <time>2010-10-03T16:44:21Z</time>
      </trkpt>
      <trkpt lat="48.75658" lon="7.32947">
        <ele>401.435791</ele>
        <time>2010-10-03T16:44:48Z</time>
      </trkpt>
      <trkpt lat="48.75627" lon="7.32974">
        <ele>404.006104</ele>
        <time>2010-10-03T16:44:58Z</time>
      </trkpt>
      <trkpt lat="48.75594" lon="7.33002">
        <ele>407.154541</ele>
        <time>2010-10-03T16:45:10Z</time>
      </trkpt>
      <trkpt lat="48.75564" lon="7.33029">
        <ele>409.935791</ele>
        <time>2010-10-03T16:45:22Z</time>
      </trkpt>
      <trkpt lat="48.75542" lon="7.33052">
        <ele>409.420166</ele>
        <time>2010-10-03T16:45:30Z</time>
      </trkpt>
      <trkpt lat="48.75528" lon="7.33072">
        <ele>410.810791</ele>
        <time>2010-10-03T16:45:36Z</time>
      </trkpt>
      <trkpt lat="48.75521" lon="7.3309">
        <ele>410.209229</ele>
        <time>2010-10-03T16:45:40Z</time>
      </trkpt>
      <trkpt lat="48.75514" lon="7.33117">
        <ele>409.099854</ele>
        <time>2010-10-03T16:45:44Z</time>
      </trkpt>
      <trkpt lat="48.75509" lon="7.33134">
        <ele>408.756104</ele>
        <time>2010-10-03T16:45:46Z</time>
      </trkpt>
      <trkpt lat="48.75502" lon="7.33164">
        <ele>408.646729</ele>
        <time>2010-10-03T16:45:49Z</time>
      </trkpt>
      <trkpt lat="48.75501" lon="7.33176">
        <ele>408.888916</ele>
        <time>2010-10-03T16:45:50Z</time>
      </trkpt>
      <trkpt lat="48.75477" lon="7.33283">
        <ele>406.498291</ele>
        <time>2010-10-03T16:45:58Z</time>
      </trkpt>
      <trkpt lat="48.75472" lon="7.33296">
        <ele>406.013916</ele>
        <time>2010-10-03T16:45:59Z</time>
      </trkpt>
      <trkpt lat="48.75467" lon="7.33308">
        <ele>405.732666</ele>
        <time>2010-10-03T16:46:00Z</time>
      </trkpt>
      <trkpt lat="48.7546" lon="7.33318">
        <ele>405.302979</ele>
        <time>2010-10-03T16:46:01Z</time>
      </trkpt>
      <trkpt lat="48.75451" lon="7.33326">
        <ele>405.302979</ele>
        <time>2010-10-03T16:46:02Z</time>
      </trkpt>
      <trkpt lat="48.75441" lon="7.3333">
        <ele>404.654541</ele>
        <time>2010-10-03T16:46:03Z</time>
      </trkpt>
      <trkpt lat="48.75398" lon="7.33336">
        <ele>402.724854</ele>
        <time>2010-10-03T16:46:07Z</time>
      </trkpt>
      <trkpt lat="48.75387" lon="7.33341">
        <ele>402.677979</ele>
        <time>2010-10-03T16:46:08Z</time>
      </trkpt>
      <trkpt lat="48.75377" lon="7.33349">
        <ele>403.474854</ele>
        <time>2010-10-03T16:46:09Z</time>
      </trkpt>
      <trkpt lat="48.75368" lon="7.33358">
        <ele>403.201416</ele>
        <time>2010-10-03T16:46:10Z</time>
      </trkpt>
      <trkpt lat="48.7536" lon="7.33371">
        <ele>402.654541</ele>
        <time>2010-10-03T16:46:11Z</time>
      </trkpt>
      <trkpt lat="48.75353" lon="7.33386">
        <ele>401.748291</ele>
        <time>2010-10-03T16:46:12Z</time>
      </trkpt>
      <trkpt lat="48.75349" lon="7.33402">
        <ele>401.193604</ele>
        <time>2010-10-03T16:46:13Z</time>
      </trkpt>
      <trkpt lat="48.75348" lon="7.3342">
        <ele>401.037354</ele>
        <time>2010-10-03T16:46:14Z</time>
      </trkpt>
      <trkpt lat="48.75348" lon="7.33438">
        <ele>399.748291</ele>
        <time>2010-10-03T16:46:15Z</time>
      </trkpt>
      <trkpt lat="48.75349" lon="7.33456">
        <ele>398.693604</ele>
        <time>2010-10-03T16:46:16Z</time>
      </trkpt>
      <trkpt lat="48.75353" lon="7.33474">
        <ele>397.631104</ele>
        <time>2010-10-03T16:46:17Z</time>
      </trkpt>
      <trkpt lat="48.75359" lon="7.3349">
        <ele>397.084229</ele>
        <time>2010-10-03T16:46:18Z</time>
      </trkpt>
      <trkpt lat="48.75366" lon="7.33505">
        <ele>395.717041</ele>
        <time>2010-10-03T16:46:19Z</time>
      </trkpt>
      <trkpt lat="48.75396" lon="7.3356">
        <ele>390.201416</ele>
        <time>2010-10-03T16:46:23Z</time>
      </trkpt>
      <trkpt lat="48.75402" lon="7.33574">
        <ele>389.185791</ele>
        <time>2010-10-03T16:46:24Z</time>
      </trkpt>
      <trkpt lat="48.75404" lon="7.33589">
        <ele>388.201416</ele>
        <time>2010-10-03T16:46:25Z</time>
      </trkpt>
      <trkpt lat="48.75404" lon="7.33606">
        <ele>387.420166</ele>
        <time>2010-10-03T16:46:26Z</time>
      </trkpt>
      <trkpt lat="48.754" lon="7.33622">
        <ele>386.709229</ele>
        <time>2010-10-03T16:46:27Z</time>
      </trkpt>
      <trkpt lat="48.75394" lon="7.33635">
        <ele>386.076416</ele>
        <time>2010-10-03T16:46:28Z</time>
      </trkpt>
      <trkpt lat="48.75386" lon="7.33645">
        <ele>385.498291</ele>
        <time>2010-10-03T16:46:29Z</time>
      </trkpt>
      <trkpt lat="48.75375" lon="7.33651">
        <ele>385.631104</ele>
        <time>2010-10-03T16:46:30Z</time>
      </trkpt>
      <trkpt lat="48.7533" lon="7.33664">
        <ele>384.638916</ele>
        <time>2010-10-03T16:46:34Z</time>
      </trkpt>
      <trkpt lat="48.75295" lon="7.33677">
        <ele>382.302979</ele>
        <time>2010-10-03T16:46:37Z</time>
      </trkpt>
      <trkpt lat="48.75251" lon="7.33701">
        <ele>378.521729</ele>
        <time>2010-10-03T16:46:41Z</time>
      </trkpt>
      <trkpt lat="48.75218" lon="7.33723">
        <ele>376.318604</ele>
        <time>2010-10-03T16:46:44Z</time>
      </trkpt>
      <trkpt lat="48.75126" lon="7.3379">
        <ele>369.068604</ele>
        <time>2010-10-03T16:46:52Z</time>
      </trkpt>
      <trkpt lat="48.75115" lon="7.338">
        <ele>368.576416</ele>
        <time>2010-10-03T16:46:53Z</time>
      </trkpt>
      <trkpt lat="48.75104" lon="7.33811">
        <ele>368.013916</ele>
        <time>2010-10-03T16:46:54Z</time>
      </trkpt>
      <trkpt lat="48.75095" lon="7.33825">
        <ele>367.115479</ele>
        <time>2010-10-03T16:46:55Z</time>
      </trkpt>
      <trkpt lat="48.75017" lon="7.3396">
        <ele>358.998291</ele>
        <time>2010-10-03T16:47:04Z</time>
      </trkpt>
      <trkpt lat="48.75002" lon="7.3399">
        <ele>356.990479</ele>
        <time>2010-10-03T16:47:06Z</time>
      </trkpt>
      <trkpt lat="48.74998" lon="7.34007">
        <ele>356.052979</ele>
        <time>2010-10-03T16:47:07Z</time>
      </trkpt>
      <trkpt lat="48.74994" lon="7.34025">
        <ele>354.654541</ele>
        <time>2010-10-03T16:47:08Z</time>
      </trkpt>
      <trkpt lat="48.74994" lon="7.34043">
        <ele>353.092041</ele>
        <time>2010-10-03T16:47:09Z</time>
      </trkpt>
      <trkpt lat="48.74996" lon="7.3406">
        <ele>352.029541</ele>
        <time>2010-10-03T16:47:10Z</time>
      </trkpt>
      <trkpt lat="48.75002" lon="7.34075">
        <ele>351.107666</ele>
        <time>2010-10-03T16:47:11Z</time>
      </trkpt>
      <trkpt lat="48.75019" lon="7.34098">
        <ele>348.123291</ele>
        <time>2010-10-03T16:47:13Z</time>
      </trkpt>
      <trkpt lat="48.75029" lon="7.34108">
        <ele>347.490479</ele>
        <time>2010-10-03T16:47:14Z</time>
      </trkpt>
      <trkpt lat="48.7506" lon="7.34136">
        <ele>343.842041</ele>
        <time>2010-10-03T16:47:17Z</time>
      </trkpt>
      <trkpt lat="48.75071" lon="7.34145">
        <ele>342.904541</ele>
        <time>2010-10-03T16:47:18Z</time>
      </trkpt>
      <trkpt lat="48.75082" lon="7.34151">
        <ele>341.654541</ele>
        <time>2010-10-03T16:47:19Z</time>
      </trkpt>
      <trkpt lat="48.75094" lon="7.34154">
        <ele>340.513916</ele>
        <time>2010-10-03T16:47:20Z</time>
      </trkpt>
      <trkpt lat="48.75142" lon="7.34162">
        <ele>336.693604</ele>
        <time>2010-10-03T16:47:24Z</time>
      </trkpt>
      <trkpt lat="48.75153" lon="7.34165">
        <ele>335.646729</ele>
        <time>2010-10-03T16:47:25Z</time>
      </trkpt>
      <trkpt lat="48.75162" lon="7.34169">
        <ele>334.693604</ele>
        <time>2010-10-03T16:47:26Z</time>
      </trkpt>
      <trkpt lat="48.75171" lon="7.34174">
        <ele>333.646729</ele>
        <time>2010-10-03T16:47:27Z</time>
      </trkpt>
      <trkpt lat="48.75177" lon="7.34183">
        <ele>332.662354</ele>
        <time>2010-10-03T16:47:28Z</time>
      </trkpt>
      <trkpt lat="48.75182" lon="7.34196">
        <ele>331.873291</ele>
        <time>2010-10-03T16:47:29Z</time>
      </trkpt>
      <trkpt lat="48.75185" lon="7.34211">
        <ele>331.342041</ele>
        <time>2010-10-03T16:47:30Z</time>
      </trkpt>
      <trkpt lat="48.75185" lon="7.34227">
        <ele>330.498291</ele>
        <time>2010-10-03T16:47:31Z</time>
      </trkpt>
      <trkpt lat="48.75184" lon="7.34243">
        <ele>329.404541</ele>
        <time>2010-10-03T16:47:32Z</time>
      </trkpt>
      <trkpt lat="48.7518" lon="7.34258">
        <ele>328.982666</ele>
        <time>2010-10-03T16:47:33Z</time>
      </trkpt>
      <trkpt lat="48.75176" lon="7.34273">
        <ele>327.779541</ele>
        <time>2010-10-03T16:47:34Z</time>
      </trkpt>
      <trkpt lat="48.75169" lon="7.34287">
        <ele>326.521729</ele>
        <time>2010-10-03T16:47:35Z</time>
      </trkpt>
      <trkpt lat="48.75161" lon="7.34298">
        <ele>325.896729</ele>
        <time>2010-10-03T16:47:36Z</time>
      </trkpt>
      <trkpt lat="48.75152" lon="7.34309">
        <ele>324.584229</ele>
        <time>2010-10-03T16:47:37Z</time>
      </trkpt>
      <trkpt lat="48.7514" lon="7.34316">
        <ele>324.084229</ele>
        <time>2010-10-03T16:47:38Z</time>
      </trkpt>
      <trkpt lat="48.75129" lon="7.3432">
        <ele>323.529541</ele>
        <time>2010-10-03T16:47:39Z</time>
      </trkpt>
      <trkpt lat="48.75116" lon="7.34321">
        <ele>322.896729</ele>
        <time>2010-10-03T16:47:40Z</time>
      </trkpt>
      <trkpt lat="48.75091" lon="7.34317">
        <ele>320.217041</ele>
        <time>2010-10-03T16:47:42Z</time>
      </trkpt>
      <trkpt lat="48.75027" lon="7.34298">
        <ele>310.990479</ele>
        <time>2010-10-03T16:47:47Z</time>
      </trkpt>
      <trkpt lat="48.74977" lon="7.34276">
        <ele>305.920166</ele>
        <time>2010-10-03T16:47:51Z</time>
      </trkpt>
      <trkpt lat="48.74941" lon="7.34259">
        <ele>303.271729</ele>
        <time>2010-10-03T16:47:54Z</time>
      </trkpt>
      <trkpt lat="48.7493" lon="7.34255">
        <ele>302.810791</ele>
        <time>2010-10-03T16:47:55Z</time>
      </trkpt>
      <trkpt lat="48.7492" lon="7.34255">
        <ele>302.068604</ele>
        <time>2010-10-03T16:47:56Z</time>
      </trkpt>
      <trkpt lat="48.7491" lon="7.34259">
        <ele>301.560791</ele>
        <time>2010-10-03T16:47:57Z</time>
      </trkpt>
      <trkpt lat="48.74902" lon="7.34269">
        <ele>300.459229</ele>
        <time>2010-10-03T16:47:58Z</time>
      </trkpt>
      <trkpt lat="48.74895" lon="7.34282">
        <ele>299.881104</ele>
        <time>2010-10-03T16:47:59Z</time>
      </trkpt>
      <trkpt lat="48.74889" lon="7.34297">
        <ele>298.662354</ele>
        <time>2010-10-03T16:48:00Z</time>
      </trkpt>
      <trkpt lat="48.7487" lon="7.34383">
        <ele>295.592041</ele>
        <time>2010-10-03T16:48:05Z</time>
      </trkpt>
      <trkpt lat="48.74867" lon="7.34401">
        <ele>294.881104</ele>
        <time>2010-10-03T16:48:06Z</time>
      </trkpt>
      <trkpt lat="48.74866" lon="7.34419">
        <ele>293.701416</ele>
        <time>2010-10-03T16:48:07Z</time>
      </trkpt>
      <trkpt lat="48.74867" lon="7.34437">
        <ele>292.873291</ele>
        <time>2010-10-03T16:48:08Z</time>
      </trkpt>
      <trkpt lat="48.7487" lon="7.34454">
        <ele>291.834229</ele>
        <time>2010-10-03T16:48:09Z</time>
      </trkpt>
      <trkpt lat="48.74879" lon="7.34489">
        <ele>290.068604</ele>
        <time>2010-10-03T16:48:11Z</time>
      </trkpt>
      <trkpt lat="48.74882" lon="7.34508">
        <ele>289.724854</ele>
        <time>2010-10-03T16:48:12Z</time>
      </trkpt>
      <trkpt lat="48.74883" lon="7.34527">
        <ele>289.443604</ele>
        <time>2010-10-03T16:48:13Z</time>
      </trkpt>
      <trkpt lat="48.74881" lon="7.34545">
        <ele>289.263916</ele>
        <time>2010-10-03T16:48:14Z</time>
      </trkpt>
      <trkpt lat="48.74877" lon="7.34561">
        <ele>288.998291</ele>
        <time>2010-10-03T16:48:15Z</time>
      </trkpt>
      <trkpt lat="48.74871" lon="7.34573">
        <ele>288.771729</ele>
        <time>2010-10-03T16:48:16Z</time>
      </trkpt>
      <trkpt lat="48.74862" lon="7.34582">
        <ele>288.013916</ele>
        <time>2010-10-03T16:48:17Z</time>
      </trkpt>
      <trkpt lat="48.74853" lon="7.34584">
        <ele>286.974854</ele>
        <time>2010-10-03T16:48:18Z</time>
      </trkpt>
      <trkpt lat="48.74843" lon="7.34582">
        <ele>286.560791</ele>
        <time>2010-10-03T16:48:19Z</time>
      </trkpt>
      <trkpt lat="48.74833" lon="7.34577">
        <ele>285.927979</ele>
        <time>2010-10-03T16:48:20Z</time>
      </trkpt>
      <trkpt lat="48.74823" lon="7.34568">
        <ele>284.662354</ele>
        <time>2010-10-03T16:48:21Z</time>
      </trkpt>
      <trkpt lat="48.74808" lon="7.34544">
        <ele>282.552979</ele>
        <time>2010-10-03T16:48:23Z</time>
      </trkpt>
      <trkpt lat="48.74781" lon="7.34493">
        <ele>281.037354</ele>
        <time>2010-10-03T16:48:27Z</time>
      </trkpt>
      <trkpt lat="48.74773" lon="7.34481">
        <ele>280.717041</ele>
        <time>2010-10-03T16:48:28Z</time>
      </trkpt>
      <trkpt lat="48.74765" lon="7.34471">
        <ele>280.279541</ele>
        <time>2010-10-03T16:48:29Z</time>
      </trkpt>
      <trkpt lat="48.74755" lon="7.34464">
        <ele>279.435791</ele>
        <time>2010-10-03T16:48:30Z</time>
      </trkpt>
      <trkpt lat="48.74745" lon="7.34459">
        <ele>278.396729</ele>
        <time>2010-10-03T16:48:31Z</time>
      </trkpt>
      <trkpt lat="48.74735" lon="7.34458">
        <ele>278.013916</ele>
        <time>2010-10-03T16:48:32Z</time>
      </trkpt>
      <trkpt lat="48.74703" lon="7.34458">
        <ele>276.427979</ele>
        <time>2010-10-03T16:48:35Z</time>
      </trkpt>
      <trkpt lat="48.74692" lon="7.34461">
        <ele>275.592041</ele>
        <time>2010-10-03T16:48:36Z</time>
      </trkpt>
      <trkpt lat="48.74682" lon="7.34466">
        <ele>274.248291</ele>
        <time>2010-10-03T16:48:37Z</time>
      </trkpt>
      <trkpt lat="48.74672" lon="7.34475">
        <ele>273.256104</ele>
        <time>2010-10-03T16:48:38Z</time>
      </trkpt>
      <trkpt lat="48.74664" lon="7.34488">
        <ele>271.662354</ele>
        <time>2010-10-03T16:48:39Z</time>
      </trkpt>
      <trkpt lat="48.74658" lon="7.34502">
        <ele>270.131104</ele>
        <time>2010-10-03T16:48:40Z</time>
      </trkpt>
      <trkpt lat="48.74656" lon="7.34519">
        <ele>268.974854</ele>
        <time>2010-10-03T16:48:41Z</time>
      </trkpt>
      <trkpt lat="48.74658" lon="7.34535">
        <ele>268.256104</ele>
        <time>2010-10-03T16:48:42Z</time>
      </trkpt>
      <trkpt lat="48.74662" lon="7.34551">
        <ele>267.310791</ele>
        <time>2010-10-03T16:48:43Z</time>
      </trkpt>
      <trkpt lat="48.74669" lon="7.34565">
        <ele>266.154541</ele>
        <time>2010-10-03T16:48:44Z</time>
      </trkpt>
      <trkpt lat="48.747" lon="7.3462">
        <ele>262.584229</ele>
        <time>2010-10-03T16:48:48Z</time>
      </trkpt>
      <trkpt lat="48.74709" lon="7.34632">
        <ele>261.974854</ele>
        <time>2010-10-03T16:48:49Z</time>
      </trkpt>
      <trkpt lat="48.74719" lon="7.34642">
        <ele>261.451416</ele>
        <time>2010-10-03T16:48:50Z</time>
      </trkpt>
      <trkpt lat="48.74791" lon="7.34702">
        <ele>256.685791</ele>
        <time>2010-10-03T16:48:57Z</time>
      </trkpt>
      <trkpt lat="48.74801" lon="7.34713">
        <ele>256.076416</ele>
        <time>2010-10-03T16:48:58Z</time>
      </trkpt>
      <trkpt lat="48.74811" lon="7.34726">
        <ele>255.428833</ele>
        <time>2010-10-03T16:48:59Z</time>
      </trkpt>
      <trkpt lat="48.7482" lon="7.3474">
        <ele>254.370239</ele>
        <time>2010-10-03T16:49:00Z</time>
      </trkpt>
      <trkpt lat="48.74868" lon="7.34832">
        <ele>244.913208</ele>
        <time>2010-10-03T16:49:06Z</time>
      </trkpt>
      <trkpt lat="48.74885" lon="7.3486">
        <ele>241.792114</ele>
        <time>2010-10-03T16:49:08Z</time>
      </trkpt>
      <trkpt lat="48.74927" lon="7.34919">
        <ele>236.151489</ele>
        <time>2010-10-03T16:49:13Z</time>
      </trkpt>
      <trkpt lat="48.74945" lon="7.34949">
        <ele>234.260864</ele>
        <time>2010-10-03T16:49:16Z</time>
      </trkpt>
      <trkpt lat="48.74949" lon="7.3496">
        <ele>233.706177</ele>
        <time>2010-10-03T16:49:17Z</time>
      </trkpt>
      <trkpt lat="48.74952" lon="7.34973">
        <ele>233.190552</ele>
        <time>2010-10-03T16:49:18Z</time>
      </trkpt>
      <trkpt lat="48.74953" lon="7.34987">
        <ele>232.628052</ele>
        <time>2010-10-03T16:49:19Z</time>
      </trkpt>
      <trkpt lat="48.74951" lon="7.35001">
        <ele>231.924927</ele>
        <time>2010-10-03T16:49:20Z</time>
      </trkpt>
      <trkpt lat="48.74947" lon="7.35015">
        <ele>231.831177</ele>
        <time>2010-10-03T16:49:21Z</time>
      </trkpt>
      <trkpt lat="48.74941" lon="7.35028">
        <ele>232.116333</ele>
        <time>2010-10-03T16:49:22Z</time>
      </trkpt>
      <trkpt lat="48.74934" lon="7.35039">
        <ele>231.940552</ele>
        <time>2010-10-03T16:49:23Z</time>
      </trkpt>
      <trkpt lat="48.74925" lon="7.35047">
        <ele>231.846802</ele>
        <time>2010-10-03T16:49:24Z</time>
      </trkpt>
      <trkpt lat="48.74905" lon="7.3506">
        <ele>231.698364</ele>
        <time>2010-10-03T16:49:26Z</time>
      </trkpt>
      <trkpt lat="48.74896" lon="7.35065">
        <ele>232.120239</ele>
        <time>2010-10-03T16:49:27Z</time>
      </trkpt>
      <trkpt lat="48.74864" lon="7.35073">
        <ele>231.456177</ele>
        <time>2010-10-03T16:49:30Z</time>
      </trkpt>
      <trkpt lat="48.74832" lon="7.35079">
        <ele>230.155396</ele>
        <time>2010-10-03T16:49:33Z</time>
      </trkpt>
      <trkpt lat="48.74798" lon="7.35084">
        <ele>228.846802</ele>
        <time>2010-10-03T16:49:36Z</time>
      </trkpt>
      <trkpt lat="48.74766" lon="7.35085">
        <ele>226.815552</ele>
        <time>2010-10-03T16:49:39Z</time>
      </trkpt>
      <trkpt lat="48.74756" lon="7.35088">
        <ele>226.049927</ele>
        <time>2010-10-03T16:49:40Z</time>
      </trkpt>
      <trkpt lat="48.74747" lon="7.35094">
        <ele>225.549927</ele>
        <time>2010-10-03T16:49:41Z</time>
      </trkpt>
      <trkpt lat="48.74739" lon="7.35103">
        <ele>224.862427</ele>
        <time>2010-10-03T16:49:42Z</time>
      </trkpt>
      <trkpt lat="48.74732" lon="7.35116">
        <ele>223.948364</ele>
        <time>2010-10-03T16:49:43Z</time>
      </trkpt>
      <trkpt lat="48.74727" lon="7.3513">
        <ele>222.378052</ele>
        <time>2010-10-03T16:49:44Z</time>
      </trkpt>
      <trkpt lat="48.74722" lon="7.35162">
        <ele>220.331177</ele>
        <time>2010-10-03T16:49:46Z</time>
      </trkpt>
      <trkpt lat="48.74716" lon="7.35209">
        <ele>218.311646</ele>
        <time>2010-10-03T16:49:49Z</time>
      </trkpt>
      <trkpt lat="48.74711" lon="7.35275">
        <ele>216.678833</ele>
        <time>2010-10-03T16:49:53Z</time>
      </trkpt>
      <trkpt lat="48.74709" lon="7.35309">
        <ele>215.702271</ele>
        <time>2010-10-03T16:49:55Z</time>
      </trkpt>
      <trkpt lat="48.74707" lon="7.35325">
        <ele>215.725708</ele>
        <time>2010-10-03T16:49:56Z</time>
      </trkpt>
      <trkpt lat="48.74703" lon="7.35341">
        <ele>215.585083</ele>
        <time>2010-10-03T16:49:57Z</time>
      </trkpt>
      <trkpt lat="48.74697" lon="7.35353">
        <ele>215.424927</ele>
        <time>2010-10-03T16:49:58Z</time>
      </trkpt>
      <trkpt lat="48.74683" lon="7.35376">
        <ele>215.237427</ele>
        <time>2010-10-03T16:50:00Z</time>
      </trkpt>
      <trkpt lat="48.74653" lon="7.35418">
        <ele>213.663208</ele>
        <time>2010-10-03T16:50:04Z</time>
      </trkpt>
      <trkpt lat="48.74639" lon="7.3544">
        <ele>212.901489</ele>
        <time>2010-10-03T16:50:06Z</time>
      </trkpt>
      <trkpt lat="48.74634" lon="7.35452">
        <ele>212.350708</ele>
        <time>2010-10-03T16:50:07Z</time>
      </trkpt>
      <trkpt lat="48.7463" lon="7.35465">
        <ele>210.471802</ele>
        <time>2010-10-03T16:50:08Z</time>
      </trkpt>
      <trkpt lat="48.74621" lon="7.35522">
        <ele>206.073364</ele>
        <time>2010-10-03T16:50:12Z</time>
      </trkpt>
      <trkpt lat="48.74617" lon="7.35535">
        <ele>205.315552</ele>
        <time>2010-10-03T16:50:13Z</time>
      </trkpt>
      <trkpt lat="48.7461" lon="7.35546">
        <ele>204.694458</ele>
        <time>2010-10-03T16:50:14Z</time>
      </trkpt>
      <trkpt lat="48.74601" lon="7.35553">
        <ele>204.335083</ele>
        <time>2010-10-03T16:50:15Z</time>
      </trkpt>
      <trkpt lat="48.74592" lon="7.35557">
        <ele>203.842896</ele>
        <time>2010-10-03T16:50:16Z</time>
      </trkpt>
      <trkpt lat="48.74524" lon="7.3558">
        <ele>199.960083</ele>
        <time>2010-10-03T16:50:23Z</time>
      </trkpt>
      <trkpt lat="48.74476" lon="7.35603">
        <ele>199.030396</ele>
        <time>2010-10-03T16:50:28Z</time>
      </trkpt>
      <trkpt lat="48.74468" lon="7.35605">
        <ele>198.155396</ele>
        <time>2010-10-03T16:50:29Z</time>
      </trkpt>
      <trkpt lat="48.7445" lon="7.35613">
        <ele>197.592896</ele>
        <time>2010-10-03T16:50:31Z</time>
      </trkpt>
      <trkpt lat="48.74423" lon="7.35629">
        <ele>197.542114</ele>
        <time>2010-10-03T16:50:34Z</time>
      </trkpt>
      <trkpt lat="48.74363" lon="7.35684">
        <ele>193.651489</ele>
        <time>2010-10-03T16:50:42Z</time>
      </trkpt>
      <trkpt lat="48.74348" lon="7.35694">
        <ele>192.085083</ele>
        <time>2010-10-03T16:50:44Z</time>
      </trkpt>
      <trkpt lat="48.74332" lon="7.357">
        <ele>190.960083</ele>
        <time>2010-10-03T16:50:46Z</time>
      </trkpt>
      <trkpt lat="48.74287" lon="7.35704">
        <ele>188.409302</ele>
        <time>2010-10-03T16:50:51Z</time>
      </trkpt>
      <trkpt lat="48.74278" lon="7.35706">
        <ele>188.253052</ele>
        <time>2010-10-03T16:50:52Z</time>
      </trkpt>
      <trkpt lat="48.74255" lon="7.35716">
        <ele>189.393677</ele>
        <time>2010-10-03T16:50:55Z</time>
      </trkpt>
      <trkpt lat="48.74241" lon="7.35723">
        <ele>189.702271</ele>
        <time>2010-10-03T16:50:57Z</time>
      </trkpt>
      <trkpt lat="48.74222" lon="7.35737">
        <ele>190.549927</ele>
        <time>2010-10-03T16:51:00Z</time>
      </trkpt>
      <trkpt lat="48.74212" lon="7.35749">
        <ele>190.624146</ele>
        <time>2010-10-03T16:51:02Z</time>
      </trkpt>
      <trkpt lat="48.74203" lon="7.35762">
        <ele>190.549927</ele>
        <time>2010-10-03T16:51:04Z</time>
      </trkpt>
      <trkpt lat="48.74192" lon="7.35783">
        <ele>190.905396</ele>
        <time>2010-10-03T16:51:07Z</time>
      </trkpt>
      <trkpt lat="48.74179" lon="7.35822">
        <ele>190.881958</ele>
        <time>2010-10-03T16:51:12Z</time>
      </trkpt>
      <trkpt lat="48.74175" lon="7.35839">
        <ele>190.741333</ele>
        <time>2010-10-03T16:51:14Z</time>
      </trkpt>
      <trkpt lat="48.74155" lon="7.35893">
        <ele>192.299927</ele>
        <time>2010-10-03T16:51:21Z</time>
      </trkpt>
      <trkpt lat="48.74149" lon="7.35906">
        <ele>192.100708</ele>
        <time>2010-10-03T16:51:23Z</time>
      </trkpt>
      <trkpt lat="48.74145" lon="7.35912">
        <ele>191.975708</ele>
        <time>2010-10-03T16:51:24Z</time>
      </trkpt>
      <trkpt lat="48.74096" lon="7.35969">
        <ele>195.350708</ele>
        <time>2010-10-03T16:51:41Z</time>
      </trkpt>
      <trkpt lat="48.74091" lon="7.35971">
        <ele>195.686646</ele>
        <time>2010-10-03T16:51:43Z</time>
      </trkpt>
      <trkpt lat="48.74086" lon="7.35969">
        <ele>195.698364</ele>
        <time>2010-10-03T16:51:45Z</time>
      </trkpt>
      <trkpt lat="48.74078" lon="7.35957">
        <ele>197.854614</ele>
        <time>2010-10-03T16:51:50Z</time>
      </trkpt>
      <trkpt lat="48.74069" lon="7.35939">
        <ele>198.858521</ele>
        <time>2010-10-03T16:51:57Z</time>
      </trkpt>
      <trkpt lat="48.74057" lon="7.35927">
        <ele>199.831177</ele>
        <time>2010-10-03T16:52:03Z</time>
      </trkpt>
      <trkpt lat="48.74019" lon="7.35904">
        <ele>205.534302</ele>
        <time>2010-10-03T16:52:24Z</time>
      </trkpt>
      <trkpt lat="48.74011" lon="7.35896">
        <ele>208.460083</ele>
        <time>2010-10-03T16:52:30Z</time>
      </trkpt>
      <trkpt lat="48.74005" lon="7.35893">
        <ele>209.221802</ele>
        <time>2010-10-03T16:52:33Z</time>
      </trkpt>
      <trkpt lat="48.73982" lon="7.35886">
        <ele>211.463989</ele>
        <time>2010-10-03T16:52:45Z</time>
      </trkpt>
      <trkpt lat="48.73969" lon="7.35884">
        <ele>212.651489</ele>
        <time>2010-10-03T16:52:51Z</time>
      </trkpt>
      <trkpt lat="48.73962" lon="7.35885">
        <ele>213.721802</ele>
        <time>2010-10-03T16:52:54Z</time>
      </trkpt>
      <trkpt lat="48.73957" lon="7.35888">
        <ele>214.284302</ele>
        <time>2010-10-03T16:52:57Z</time>
      </trkpt>
      <trkpt lat="48.73927" lon="7.35894">
        <ele>216.569458</ele>
        <time>2010-10-03T16:53:12Z</time>
      </trkpt>
      <trkpt lat="48.7391" lon="7.35893">
        <ele>219.381958</ele>
        <time>2010-10-03T16:53:21Z</time>
      </trkpt>
      <trkpt lat="48.73904" lon="7.3589">
        <ele>219.346802</ele>
        <time>2010-10-03T16:53:24Z</time>
      </trkpt>
      <trkpt lat="48.73894" lon="7.35889">
        <ele>219.917114</ele>
        <time>2010-10-03T16:53:29Z</time>
      </trkpt>
      <trkpt lat="48.73888" lon="7.3589">
        <ele>221.311646</ele>
        <time>2010-10-03T16:53:32Z</time>
      </trkpt>
      <trkpt lat="48.73883" lon="7.35889">
        <ele>221.893677</ele>
        <time>2010-10-03T16:53:35Z</time>
      </trkpt>
      <trkpt lat="48.7387" lon="7.35888">
        <ele>223.928833</ele>
        <time>2010-10-03T16:53:41Z</time>
      </trkpt>
      <trkpt lat="48.73844" lon="7.35881">
        <ele>226.253052</ele>
        <time>2010-10-03T16:53:53Z</time>
      </trkpt>
      <trkpt lat="48.73832" lon="7.35882">
        <ele>228.272583</ele>
        <time>2010-10-03T16:53:59Z</time>
      </trkpt>
      <trkpt lat="48.73828" lon="7.35888">
        <ele>228.690552</ele>
        <time>2010-10-03T16:54:01Z</time>
      </trkpt>
      <trkpt lat="48.7382" lon="7.35914">
        <ele>229.842896</ele>
        <time>2010-10-03T16:54:09Z</time>
      </trkpt>
      <trkpt lat="48.7382" lon="7.35923">
        <ele>229.182739</ele>
        <time>2010-10-03T16:54:13Z</time>
      </trkpt>
      <trkpt lat="48.73816" lon="7.35929">
        <ele>230.198364</ele>
        <time>2010-10-03T16:54:16Z</time>
      </trkpt>
      <trkpt lat="48.73814" lon="7.35938">
        <ele>229.288208</ele>
        <time>2010-10-03T16:54:20Z</time>
      </trkpt>
      <trkpt lat="48.7381" lon="7.35942">
        <ele>229.092896</ele>
        <time>2010-10-03T16:54:22Z</time>
      </trkpt>
      <trkpt lat="48.73805" lon="7.35956">
        <ele>227.518677</ele>
        <time>2010-10-03T16:54:27Z</time>
      </trkpt>
      <trkpt lat="48.73805" lon="7.35964">
        <ele>227.885864</ele>
        <time>2010-10-03T16:54:29Z</time>
      </trkpt>
      <trkpt lat="48.73786" lon="7.36028">
        <ele>227.155396</ele>
        <time>2010-10-03T16:54:43Z</time>
      </trkpt>
      <trkpt lat="48.73782" lon="7.36039">
        <ele>226.030396</ele>
        <time>2010-10-03T16:54:45Z</time>
      </trkpt>
      <trkpt lat="48.73776" lon="7.3606">
        <ele>225.483521</ele>
        <time>2010-10-03T16:54:49Z</time>
      </trkpt>
      <trkpt lat="48.73759" lon="7.36113">
        <ele>221.049927</ele>
        <time>2010-10-03T16:54:58Z</time>
      </trkpt>
      <trkpt lat="48.73753" lon="7.36128">
        <ele>220.491333</ele>
        <time>2010-10-03T16:55:02Z</time>
      </trkpt>
      <trkpt lat="48.7375" lon="7.36134">
        <ele>219.706177</ele>
        <time>2010-10-03T16:55:04Z</time>
      </trkpt>
      <trkpt lat="48.73743" lon="7.36137">
        <ele>218.850708</ele>
        <time>2010-10-03T16:55:06Z</time>
      </trkpt>
      <trkpt lat="48.73736" lon="7.36134">
        <ele>219.374146</ele>
        <time>2010-10-03T16:55:08Z</time>
      </trkpt>
      <trkpt lat="48.73714" lon="7.36119">
        <ele>221.167114</ele>
        <time>2010-10-03T16:55:16Z</time>
      </trkpt>
      <trkpt lat="48.73706" lon="7.3611">
        <ele>219.085083</ele>
        <time>2010-10-03T16:55:20Z</time>
      </trkpt>
      <trkpt lat="48.73684" lon="7.36093">
        <ele>220.956177</ele>
        <time>2010-10-03T16:55:30Z</time>
      </trkpt>
      <trkpt lat="48.73653" lon="7.36072">
        <ele>228.620239</ele>
        <time>2010-10-03T16:55:48Z</time>
      </trkpt>
      <trkpt lat="48.73648" lon="7.36067">
        <ele>229.577271</ele>
        <time>2010-10-03T16:55:51Z</time>
      </trkpt>
      <trkpt lat="48.73643" lon="7.36064">
        <ele>230.831177</ele>
        <time>2010-10-03T16:55:54Z</time>
      </trkpt>
      <trkpt lat="48.7363" lon="7.36063">
        <ele>233.292114</ele>
        <time>2010-10-03T16:55:59Z</time>
      </trkpt>
      <trkpt lat="48.73625" lon="7.36065">
        <ele>234.702271</ele>
        <time>2010-10-03T16:56:01Z</time>
      </trkpt>
      <trkpt lat="48.73614" lon="7.36065">
        <ele>234.151489</ele>
        <time>2010-10-03T16:56:05Z</time>
      </trkpt>
      <trkpt lat="48.73602" lon="7.36069">
        <ele>232.987427</ele>
        <time>2010-10-03T16:56:09Z</time>
      </trkpt>
      <trkpt lat="48.73555" lon="7.36089">
        <ele>231.467896</ele>
        <time>2010-10-03T16:56:19Z</time>
      </trkpt>
      <trkpt lat="48.73537" lon="7.36093">
        <ele>231.292114</ele>
        <time>2010-10-03T16:56:22Z</time>
      </trkpt>
      <trkpt lat="48.73497" lon="7.36108">
        <ele>229.733521</ele>
        <time>2010-10-03T16:56:29Z</time>
      </trkpt>
      <trkpt lat="48.73452" lon="7.36118">
        <ele>227.088989</ele>
        <time>2010-10-03T16:56:36Z</time>
      </trkpt>
      <trkpt lat="48.73434" lon="7.3612">
        <ele>226.131958</ele>
        <time>2010-10-03T16:56:39Z</time>
      </trkpt>
      <trkpt lat="48.73397" lon="7.36129">
        <ele>226.436646</ele>
        <time>2010-10-03T16:56:50Z</time>
      </trkpt>
      <trkpt lat="48.73389" lon="7.3613">
        <ele>226.354614</ele>
        <time>2010-10-03T16:56:52Z</time>
      </trkpt>
      <trkpt lat="48.7338" lon="7.36129">
        <ele>226.296021</ele>
        <time>2010-10-03T16:56:54Z</time>
      </trkpt>
      <trkpt lat="48.73354" lon="7.36121">
        <ele>225.538208</ele>
        <time>2010-10-03T16:57:00Z</time>
      </trkpt>
      <trkpt lat="48.73341" lon="7.36122">
        <ele>225.581177</ele>
        <time>2010-10-03T16:57:04Z</time>
      </trkpt>
      <trkpt lat="48.73337" lon="7.3613">
        <ele>225.393677</ele>
        <time>2010-10-03T16:57:06Z</time>
      </trkpt>
      <trkpt lat="48.73337" lon="7.36141">
        <ele>224.010864</ele>
        <time>2010-10-03T16:57:08Z</time>
      </trkpt>
      <trkpt lat="48.7334" lon="7.3616">
        <ele>221.983521</ele>
        <time>2010-10-03T16:57:11Z</time>
      </trkpt>
      <trkpt lat="48.73351" lon="7.36192">
        <ele>220.112427</ele>
        <time>2010-10-03T16:57:16Z</time>
      </trkpt>
      <trkpt lat="48.73366" lon="7.36223">
        <ele>216.151489</ele>
        <time>2010-10-03T16:57:21Z</time>
      </trkpt>
      <trkpt lat="48.7337" lon="7.36238">
        <ele>216.374146</ele>
        <time>2010-10-03T16:57:23Z</time>
      </trkpt>
      <trkpt lat="48.73375" lon="7.3626">
        <ele>215.792114</ele>
        <time>2010-10-03T16:57:26Z</time>
      </trkpt>
      <trkpt lat="48.7338" lon="7.36289">
        <ele>215.311646</ele>
        <time>2010-10-03T16:57:30Z</time>
      </trkpt>
      <trkpt lat="48.7338" lon="7.36304">
        <ele>215.233521</ele>
        <time>2010-10-03T16:57:32Z</time>
      </trkpt>
      <trkpt lat="48.7338" lon="7.36327">
        <ele>214.413208</ele>
        <time>2010-10-03T16:57:35Z</time>
      </trkpt>
      <trkpt lat="48.73377" lon="7.36348">
        <ele>214.667114</ele>
        <time>2010-10-03T16:57:38Z</time>
      </trkpt>
      <trkpt lat="48.73375" lon="7.36355">
        <ele>214.694458</ele>
        <time>2010-10-03T16:57:39Z</time>
      </trkpt>
      <trkpt lat="48.73372" lon="7.36376">
        <ele>215.620239</ele>
        <time>2010-10-03T16:57:42Z</time>
      </trkpt>
      <trkpt lat="48.7336" lon="7.36427">
        <ele>215.256958</ele>
        <time>2010-10-03T16:57:50Z</time>
      </trkpt>
      <trkpt lat="48.73343" lon="7.36484">
        <ele>216.120239</ele>
        <time>2010-10-03T16:58:00Z</time>
      </trkpt>
      <trkpt lat="48.73332" lon="7.36515">
        <ele>215.171021</ele>
        <time>2010-10-03T16:58:06Z</time>
      </trkpt>
      <trkpt lat="48.73332" lon="7.36524">
        <ele>214.928833</ele>
        <time>2010-10-03T16:58:08Z</time>
      </trkpt>
    </trkseg>
  </trk>
</gpx>